ECMWFFLT1_sfc_temp_000.txt.gz
Temp
76 74 74 75 75 75 75 74 74 75 75 75 74 75 75 75 74 74 74 73 75 75 75 74 73 74 72 72 71 71 72 72 70 67 67 67 64 67 71 69 67 66 68 66 67 63 61 57 58 64 66 66 70 70 73 75 77 79 76 77 80 82 82
77 76 77 76 75 75 73 74 74 75 75 74 75 74 74 75 74 73 73 73 73 74 74 73 73 72 70 69 69 70 69 69 70 70 71 70 69 68 69 69 70 67 68 67 66 66 62 57 57 59 61 65 67 71 72 74 76 77 77 78 79 80 77
77 77 78 75 75 74 73 72 73 74 75 74 73 74 74 75 74 74 73 72 72 73 72 72 71 70 69 69 69 69 69 68 69 69 68 70 70 70 70 68 68 69 69 66 67 65 65 64 60 62 63 62 60 64 69 72 75 78 78 77 78 80 81
75 75 75 73 75 74 73 72 74 74 74 74 74 72 73 74 73 73 72 72 71 71 72 73 71 73 70 70 69 69 68 68 68 68 67 68 69 69 69 70 69 67 64 64 64 64 63 61 62 62 64 67 67 65 68 72 73 75 78 80 78 78 81
76 75 74 73 74 73 74 73 75 74 73 73 73 73 72 73 72 72 72 72 71 71 71 71 71 71 71 71 71 70 69 69 68 67 67 66 67 68 67 69 69 67 67 67 66 65 63 62 61 62 64 67 69 70 73 72 76 76 79 80 82 80 81
77 77 76 75 75 75 75 74 74 74 74 72 73 72 72 71 72 71 71 72 71 70 70 71 70 71 71 71 70 69 69 68 69 67 67 65 65 66 67 69 70 68 68 68 66 65 65 64 63 63 66 69 64 66 71 74 73 77 80 83 84 87 86
77 77 77 77 76 77 77 75 75 75 74 73 73 73 73 73 73 72 71 71 71 71 70 70 70 71 71 74 70 69 68 68 68 67 67 65 65 64 66 67 67 68 68 67 67 66 64 63 64 63 62 64 64 66 72 75 78 76 82 85 86 85 86
78 78 78 78 77 77 77 76 76 76 76 75 75 74 73 73 72 72 71 71 70 70 70 69 69 70 70 71 70 68 68 69 68 67 67 65 64 64 64 66 65 67 67 69 69 67 68 65 64 63 62 59 62 64 64 72 74 76 77 81 83 84 84
78 79 78 78 78 78 77 77 76 76 76 77 76 75 73 73 72 71 71 70 70 70 70 70 70 70 69 70 70 68 67 68 66 66 67 65 64 63 64 65 66 67 66 67 67 68 69 66 65 65 64 62 60 59 63 62 67 72 78 77 82 84 83
77 77 77 77 77 77 77 77 77 77 76 76 75 75 73 73 72 72 71 71 70 70 70 70 70 69 69 69 68 68 67 68 67 66 67 66 65 66 65 63 66 66 66 64 65 65 65 65 66 67 67 64 63 61 60 61 62 64 72 77 75 81 82
76 76 77 77 77 76 76 76 76 76 76 76 75 74 74 72 72 71 71 70 70 70 69 70 70 69 69 70 68 69 68 67 67 67 66 66 65 65 64 65 65 67 65 64 65 63 64 64 66 66 67 67 66 62 62 60 62 66 66 71 75 78 82
77 77 77 77 77 76 75 76 76 76 76 75 75 74 73 73 72 71 71 71 70 69 70 69 69 69 69 68 68 68 67 67 67 66 66 65 64 64 63 63 64 66 64 64 64 64 64 64 66 67 67 66 65 64 61 62 60 68 70 67 71 75 77
78 78 77 76 76 76 76 76 76 75 75 75 75 74 74 73 72 71 71 71 70 70 70 69 70 69 69 68 68 68 67 67 67 65 66 66 65 64 63 63 63 64 65 66 66 65 66 64 64 66 65 65 66 64 64 62 60 61 70 70 71 72 74
76 77 77 76 75 76 76 76 77 76 77 75 76 74 74 74 74 72 72 71 71 70 69 69 69 69 69 68 68 67 67 67 66 67 65 63 64 63 64 64 63 63 63 63 65 65 66 66 65 64 64 66 65 65 63 62 60 61 65 70 70 71 73
75 76 75 76 75 76 76 76 76 77 75 75 76 75 75 74 74 73 72 72 71 71 70 70 69 69 68 67 66 66 66 67 66 65 64 64 64 63 62 63 64 63 64 64 63 66 68 69 67 70 68 64 66 63 64 62 62 61 60 65 67 70 71
75 74 74 74 74 76 76 76 77 75 76 76 76 76 76 74 74 74 73 72 72 71 70 69 69 68 68 67 66 65 65 66 65 64 63 63 65 64 63 62 63 63 63 62 63 64 64 65 66 67 64 64 63 64 64 64 61 59 59 62 65 66 67
74 74 73 74 74 75 76 76 76 76 76 76 76 75 76 75 74 73 72 72 71 70 70 69 68 68 68 67 67 66 66 65 65 64 64 64 64 64 63 62 62 62 63 62 63 64 65 65 64 65 64 65 64 63 62 62 61 59 59 58 62 65 67
70 71 72 72 73 74 74 75 75 75 75 75 76 75 75 75 74 73 71 71 71 70 69 69 68 68 67 67 67 66 65 65 64 64 63 63 60 63 62 62 63 63 62 61 62 63 64 62 64 63 63 64 65 65 64 63 63 63 60 59 60 64 65
70 71 71 70 69 71 72 74 75 74 74 74 75 75 74 74 73 74 73 72 71 71 70 69 69 68 68 67 66 65 65 64 64 64 63 63 63 63 62 62 62 63 62 61 61 62 62 61 62 62 62 63 64 64 62 62 62 62 61 62 61 61 64
71 71 72 72 72 73 73 72 73 74 75 74 74 73 74 74 73 74 73 72 71 70 70 69 68 67 67 67 66 65 64 63 63 63 63 63 63 63 62 63 62 61 61 62 61 61 61 60 60 60 60 60 62 62 61 61 62 62 61 61 62 62 63
69 70 71 71 72 73 73 73 74 74 75 74 73 73 73 72 72 73 72 72 71 70 69 68 68 68 68 67 65 64 64 63 63 62 61 62 62 62 62 62 62 62 62 62 61 61 60 59 60 60 61 61 61 60 59 60 60 61 60 60 61 62 64
68 70 70 70 70 71 72 73 73 74 73 73 72 74 74 72 71 71 71 71 71 70 68 67 68 67 66 66 65 64 64 63 62 62 61 62 61 61 62 62 62 62 59 54 48 49 50 50 56 57 59 60 59 59 59 59 59 61 60 59 60 61 62
69 70 70 70 70 70 70 71 71 72 73 74 73 73 74 70 69 68 67 69 69 66 65 67 59 54 57 65 65 64 62 62 62 62 61 61 60 61 61 61 61 55 51 50 48 45 44 44 46 52 57 58 58 58 58 58 58 59 58 59 60 60 59
69 69 70 70 70 69 69 68 68 69 70 71 71 69 67 65 61 61 66 67 66 65 65 61 46 46 47 52 62 63 62 61 62 61 61 60 60 60 61 62 62 56 53 51 52 44 43 43 43 43 44 45 48 53 54 55 57 58 57 57 58 59 60
68 68 69 70 70 70 70 69 68 68 68 68 66 65 65 66 66 65 64 65 64 63 61 47 43 44 45 47 52 62 62 61 60 61 61 60 61 61 60 60 60 60 60 60 60 58 52 44 42 43 42 42 42 42 43 50 52 54 55 56 56 58 58
68 68 68 69 69 69 69 68 67 66 65 65 66 65 65 65 65 66 64 61 58 57 54 43 42 42 43 44 45 53 63 62 61 61 61 60 60 60 60 59 59 59 60 53 55 59 60 59 47 42 42 42 42 42 41 40 41 49 53 53 54 55 57
67 68 68 68 68 67 67 67 67 67 66 65 64 65 65 64 64 63 61 60 58 56 52 43 42 42 42 41 41 46 63 61 60 61 60 60 59 59 59 58 58 58 60 60 60 59 59 58 57 57 56 57 57 52 43 41 41 40 44 51 52 52 55
66 66 67 67 67 67 66 65 65 66 66 65 64 63 63 62 62 61 61 61 60 58 55 41 41 41 41 41 40 43 61 59 59 60 60 60 59 59 59 58 58 58 58 59 58 56 56 56 56 54 54 54 56 56 57 57 56 55 52 52 52 53 54
65 65 66 66 66 66 65 64 64 65 64 65 66 65 62 61 59 60 59 58 57 55 53 40 41 41 40 40 39 55 60 59 59 59 59 59 59 59 60 59 59 58 58 57 52 44 46 53 54 53 52 53 54 55 56 52 49 49 53 56 56 56 57
63 64 65 65 66 65 65 64 64 65 64 64 64 63 60 60 61 60 58 57 56 55 52 43 40 40 40 38 44 59 59 60 60 59 59 59 60 60 59 60 59 59 57 58 50 44 41 41 52 51 51 51 52 53 53 56 49 45 44 44 43 42 42
64 63 64 64 65 65 65 65 64 64 64 64 63 62 61 60 61 59 56 55 54 56 55 46 39 40 40 39 47 58 60 60 59 59 59 60 60 60 59 51 53 57 56 56 47 42 41 45 50 50 50 50 50 50 52 55 55 55 46 42 42 42 42
63 63 63 64 65 65 65 65 65 64 64 64 64 65 60 60 58 56 57 57 52 55 56 49 39 40 39 39 46 57 59 60 58 58 59 59 59 60 60 55 48 50 54 51 43 41 40 43 49 49 49 49 48 48 50 53 53 52 53 53 53 52 49
63 63 63 64 65 65 65 65 65 65 64 64 64 64 60 56 54 56 55 55 53 56 55 53 46 38 40 39 39 53 59 59 57 57 58 58 57 58 59 59 55 43 41 41 40 38 38 38 46 48 48 46 46 45 50 51 51 50 50 49 49 50 50
63 63 64 64 65 65 65 64 64 64 62 62 62 59 56 54 54 55 55 54 55 54 54 54 47 39 39 39 36 41 57 56 57 57 57 56 57 56 57 58 59 48 38 38 38 37 37 37 38 45 46 46 46 46 44 46 46 43 46 46 46 46 47
63 62 63 64 63 64 64 63 61 60 59 57 54 51 49 48 48 50 52 53 53 53 50 47 54 40 39 39 38 38 51 56 52 53 53 54 55 56 56 58 57 46 35 38 37 37 37 37 37 43 45 41 39 38 42 44 44 44 44 44 44 45 45
61 62 61 62 63 62 62 59 57 55 53 52 50 48 48 48 48 48 51 52 53 53 54 50 44 49 39 39 37 38 37 43 41 48 52 52 53 54 56 54 54 42 37 38 38 38 38 37 38 43 39 38 38 37 38 43 42 42 42 42 41 42 43
62 62 61 61 61 59 57 54 50 49 49 47 46 45 46 47 49 49 50 51 54 56 55 56 45 42 46 37 38 37 36 36 36 48 49 52 52 54 53 55 49 38 38 38 38 38 38 38 41 38 37 37 37 37 42 42 42 41 40 40 40 40 41

ECMWFFLT1_sfc_temp_003.txt.gz
Temp
76 74 75 75 76 76 75 75 75 75 76 76 76 77 77 76 75 75 75 75 76 77 77 76 75 75 75 75 73 74 75 74 72 68 67 69 66 66 67 65 65 64 63 61 63 62 61 59 61 64 66 67 70 71 72 71 70 66 67 68 68 67 69
77 76 77 77 76 76 74 76 75 76 76 76 76 75 75 76 75 75 74 75 75 76 77 76 74 74 72 72 72 71 71 71 72 71 71 70 70 67 67 65 66 67 66 65 65 67 64 61 61 61 62 65 66 69 70 72 72 72 71 70 72 74 73
77 77 78 76 75 75 74 73 74 74 75 74 75 76 75 76 75 75 74 74 73 74 74 74 73 72 72 71 71 71 71 71 71 71 69 70 71 70 71 70 69 68 66 65 66 68 67 65 61 63 65 63 60 64 68 69 71 73 75 76 74 76 77
76 76 75 74 75 74 73 73 74 74 75 74 74 74 74 75 74 74 73 73 73 73 74 75 73 74 72 71 71 71 71 70 70 70 69 69 70 69 70 71 70 69 67 67 66 69 67 65 65 65 66 67 66 64 66 69 71 74 76 77 76 78 79
76 76 74 73 74 74 74 74 75 75 74 74 73 73 73 73 73 73 73 73 73 73 73 74 74 74 73 73 73 72 71 71 70 70 68 67 67 68 67 69 69 70 69 69 69 68 67 67 65 64 65 68 68 69 73 71 74 74 76 77 78 78 80
77 76 76 75 75 75 75 75 74 74 74 73 73 72 72 73 73 72 72 72 72 72 72 73 73 73 73 73 72 71 70 70 69 68 68 66 66 65 65 68 70 71 69 69 69 68 68 68 66 64 67 69 63 65 70 71 70 75 77 77 78 79 80
77 77 77 76 76 77 77 75 75 75 74 73 73 72 73 74 74 73 73 72 73 72 72 72 72 74 74 74 72 71 70 70 70 69 68 68 67 67 67 67 67 69 68 69 68 68 68 67 65 64 63 65 65 65 70 71 74 73 77 80 80 80 81
78 78 78 78 77 77 77 76 76 77 76 75 75 74 74 74 73 73 72 72 72 72 72 71 72 72 73 73 73 71 71 71 70 69 68 67 67 67 66 66 66 68 67 70 69 68 70 68 67 66 63 60 62 65 65 71 72 72 74 79 83 83 83
79 79 79 79 78 78 77 76 76 76 77 77 76 75 74 74 73 72 72 72 72 72 72 72 72 73 72 72 71 70 70 72 69 69 69 68 67 66 67 67 68 68 67 68 69 68 68 67 67 67 66 64 60 59 64 64 68 70 76 75 80 83 84
78 78 78 78 78 78 78 77 77 77 77 77 76 75 74 74 73 72 72 72 71 72 72 72 72 72 72 72 71 70 69 71 70 69 69 69 68 68 67 67 68 69 68 67 68 67 67 66 67 67 68 65 64 60 59 61 64 66 71 75 71 76 82
78 79 79 79 79 78 78 78 78 76 76 77 77 75 74 74 73 73 72 72 71 71 71 72 73 72 71 72 71 71 71 70 69 69 69 69 68 69 68 68 68 69 68 67 67 66 66 66 66 66 67 68 67 63 62 59 61 66 68 72 74 74 77
79 78 79 80 79 78 77 77 77 77 77 77 76 74 74 74 73 72 72 72 71 71 72 71 71 71 72 71 70 71 70 70 70 69 69 68 68 68 67 66 67 68 68 67 67 67 67 67 67 68 67 67 67 65 63 62 59 66 70 67 72 76 75
80 79 78 77 78 77 78 77 78 77 76 77 76 75 75 74 73 73 73 72 71 71 71 71 71 71 71 70 70 71 70 70 70 69 69 69 70 68 67 66 66 68 68 68 69 68 68 67 67 66 67 66 66 66 65 63 60 61 68 68 70 72 75
78 80 78 76 76 78 78 77 78 78 79 77 77 75 75 75 75 74 74 73 73 72 71 70 71 71 71 70 70 71 70 70 70 69 69 67 68 67 68 68 67 67 67 65 67 68 69 69 68 67 67 66 65 66 65 63 61 62 66 70 69 71 73
76 77 74 74 72 70 72 75 75 77 77 77 77 76 77 76 75 75 75 74 73 73 72 72 72 71 71 70 70 70 69 70 69 70 68 68 68 67 66 67 68 67 68 67 66 69 71 71 71 71 70 69 68 67 67 63 62 61 60 65 67 71 71
75 73 74 74 74 70 67 65 70 72 75 78 77 77 77 76 76 76 75 74 74 74 73 73 71 71 71 70 70 68 69 69 69 67 67 67 69 68 66 66 66 66 66 64 65 66 67 68 70 70 68 68 66 66 67 67 63 60 59 61 65 67 68
73 73 73 74 73 73 73 72 71 69 68 71 75 77 77 78 76 75 75 75 75 74 73 72 72 72 72 71 70 69 69 69 69 68 68 68 69 68 67 66 66 66 65 64 65 66 67 67 67 67 67 67 67 67 67 66 65 62 61 59 63 66 68
72 71 69 71 71 72 73 74 74 75 73 70 69 68 74 78 77 76 74 74 74 74 73 73 72 71 71 71 70 70 69 69 68 68 68 68 65 67 67 65 66 67 66 64 64 65 67 65 67 66 65 67 67 67 67 67 66 66 63 61 62 65 66
69 69 71 71 71 69 69 73 72 70 74 74 71 70 70 74 77 76 76 76 75 75 74 73 72 72 72 71 70 70 69 69 68 69 68 67 67 66 65 66 66 66 65 64 63 64 64 64 64 64 64 65 66 65 63 64 64 64 64 63 63 62 65
67 69 70 70 70 71 71 71 72 74 75 73 74 74 74 72 70 72 76 76 75 75 74 73 72 71 72 71 70 70 68 68 67 67 67 67 67 67 66 66 65 65 64 64 63 63 63 62 62 62 62 62 64 63 62 63 64 63 62 62 62 63 63
70 71 72 72 72 71 70 71 71 71 71 71 70 74 74 73 67 68 71 76 76 75 74 73 72 72 72 71 69 69 68 67 67 66 66 66 66 66 65 65 65 65 64 65 63 63 62 61 61 61 62 62 62 61 61 61 61 62 61 61 61 62 63
66 68 69 69 70 71 72 72 71 67 65 65 67 70 69 73 70 66 71 74 75 74 72 71 71 70 69 69 69 67 67 67 66 65 64 65 65 65 65 65 65 66 61 53 47 50 50 50 57 58 59 60 60 59 59 60 60 61 61 60 61 62 62
71 70 69 69 70 70 70 71 71 72 70 70 70 70 72 71 69 70 71 69 75 70 71 71 65 58 60 69 68 68 66 66 66 65 64 64 63 64 64 64 64 55 52 52 52 48 45 44 46 53 57 57 57 57 56 56 57 58 58 58 59 60 59
71 71 72 71 71 71 71 71 72 72 72 73 72 71 71 71 70 69 70 71 65 69 69 69 51 50 51 55 66 66 65 65 65 65 64 64 62 63 63 65 65 57 55 51 54 45 45 44 44 43 44 46 49 53 54 53 54 55 55 56 57 58 58
70 70 70 71 71 72 71 71 71 71 71 71 71 72 71 71 71 69 69 70 69 67 66 49 45 46 48 49 54 65 64 64 64 64 64 64 64 64 63 63 63 63 62 61 62 59 51 44 43 43 42 42 42 42 45 51 52 52 53 53 54 55 56
70 69 70 70 71 71 71 71 71 71 70 71 70 69 69 69 70 69 67 65 63 64 58 45 45 45 45 46 45 55 65 64 62 59 64 64 64 64 64 63 63 62 63 55 58 60 61 59 47 42 43 43 43 42 41 40 43 51 54 52 52 52 54
69 69 70 70 71 72 71 71 71 71 71 70 69 68 68 66 67 67 66 65 62 58 57 44 44 44 44 44 44 47 62 64 62 64 63 64 63 62 62 62 61 61 62 62 62 61 61 60 60 57 55 55 56 52 43 41 41 41 45 51 52 51 53
69 69 69 70 69 70 70 70 70 70 70 70 69 68 67 66 65 65 65 64 59 55 54 42 42 43 42 43 42 44 62 63 62 62 63 63 63 62 62 61 61 60 61 60 61 58 59 59 58 57 56 56 56 57 57 57 55 53 51 51 52 54 54
68 69 68 69 69 69 69 69 68 69 69 70 70 70 69 68 66 65 63 59 57 54 49 40 41 42 42 42 41 54 59 59 59 61 62 62 62 63 62 61 61 60 61 60 51 43 50 57 56 55 54 54 54 55 56 53 50 51 56 57 57 57 57
68 68 68 68 68 68 68 69 69 70 68 68 68 68 69 68 67 64 62 60 56 53 48 42 41 41 41 40 45 58 60 60 60 60 60 62 62 62 62 62 62 61 60 61 48 40 41 45 54 54 53 52 53 53 54 56 51 46 44 45 45 45 45
68 67 68 67 67 68 68 69 69 70 68 68 67 67 68 67 65 64 61 58 57 53 50 44 40 40 40 40 48 55 57 59 60 61 62 62 62 63 63 56 57 60 60 59 48 39 38 46 53 53 52 51 50 50 52 55 55 56 48 44 43 43 44
68 67 67 67 67 67 67 68 69 69 69 68 68 68 68 65 63 61 61 61 53 53 52 46 39 40 40 39 46 54 54 57 60 60 61 62 63 63 63 57 51 54 57 54 41 39 38 45 52 52 51 50 49 49 52 53 53 52 53 54 55 54 51
68 67 67 67 67 67 68 68 68 68 68 69 69 69 67 64 60 59 59 59 57 56 53 49 44 39 40 39 41 52 55 56 59 60 61 61 60 61 62 62 56 41 39 36 37 37 38 37 46 49 49 48 47 47 53 52 51 49 48 48 49 50 50
68 67 68 66 67 67 67 67 68 67 66 67 67 66 62 59 58 57 57 57 57 56 54 51 46 39 40 40 39 41 53 56 58 58 59 59 60 59 60 61 55 39 38 37 37 36 38 38 39 44 46 46 47 46 43 46 46 44 47 47 47 47 48
68 66 67 66 65 65 67 68 67 67 66 64 62 62 59 56 56 55 56 56 55 54 52 49 48 40 39 39 39 38 49 55 53 57 55 57 58 58 59 59 58 40 37 38 38 37 37 37 37 43 44 41 39 37 44 45 45 46 46 45 45 45 46
66 66 65 65 65 64 65 66 66 65 62 59 58 57 56 56 55 54 54 54 54 53 52 49 44 45 38 39 38 38 36 46 42 53 55 55 55 56 58 57 56 41 40 39 39 38 39 38 39 45 40 38 38 37 39 45 45 44 44 44 44 43 44
66 66 66 65 64 64 64 64 63 62 58 56 55 53 53 52 51 50 50 52 52 52 51 50 43 42 42 38 38 38 36 36 40 51 53 54 55 55 56 56 51 41 40 40 40 40 39 39 43 39 38 38 37 38 43 44 44 43 42 42 41 42 43

ECMWFFLT1_sfc_temp_006.txt.gz
Temp
69 68 69 69 70 70 69 69 69 70 71 72 71 71 71 70 69 69 69 68 69 71 70 68 67 68 68 69 68 68 68 67 67 63 61 61 61 59 61 60 61 63 64 61 61 58 56 55 58 62 64 64 65 66 67 68 68 67 66 67 68 67 66
70 70 70 70 69 70 68 69 69 70 70 70 71 69 69 70 69 68 67 67 67 68 70 69 68 69 68 66 66 65 65 65 65 65 64 63 64 62 61 60 62 62 62 62 62 61 58 56 58 59 59 63 63 65 66 67 69 68 68 68 69 70 67
69 70 70 68 68 69 68 67 67 67 68 68 68 69 68 70 69 68 68 67 66 67 67 67 67 66 65 66 65 65 65 64 65 64 62 63 64 63 64 64 62 62 61 61 61 61 61 61 57 60 62 60 59 61 64 64 67 68 69 69 69 71 71
69 69 68 67 67 67 67 67 67 67 68 67 68 68 68 69 67 68 67 67 67 67 68 68 66 67 65 65 65 65 64 64 63 62 62 62 63 62 62 61 61 62 61 60 60 62 61 60 59 59 61 64 62 59 61 64 65 69 71 71 70 71 71
70 69 68 67 68 68 67 67 67 67 66 67 67 67 66 67 67 67 67 67 67 67 66 67 67 67 66 66 65 64 64 63 64 62 61 60 60 61 60 61 61 63 61 60 62 61 60 59 59 57 59 61 62 63 68 64 66 68 70 72 73 73 72
70 70 69 68 69 68 68 67 67 66 66 66 66 66 66 66 67 66 66 65 65 66 66 66 66 67 66 65 65 64 63 62 62 62 60 59 60 59 60 61 62 63 62 63 63 61 62 62 60 58 61 63 56 58 64 65 63 68 71 72 74 75 75
70 70 69 70 69 69 69 68 68 67 66 66 66 65 66 67 68 68 67 66 66 66 67 66 67 67 66 67 65 64 63 63 63 62 61 61 60 60 60 60 60 60 60 62 61 61 61 60 59 58 57 58 58 59 64 65 68 67 69 74 75 76 75
70 70 70 70 70 70 69 69 69 69 67 67 67 67 68 67 67 67 66 66 66 66 66 66 68 67 66 66 65 64 64 64 63 62 61 61 61 61 60 61 60 60 61 61 61 61 62 60 59 58 57 54 55 56 57 64 66 67 68 72 76 75 75
71 71 71 71 70 70 70 69 69 69 69 68 68 68 67 68 67 66 66 66 66 66 66 66 66 66 66 64 64 64 63 67 63 62 62 61 61 61 61 60 61 60 61 61 62 61 61 60 59 60 58 56 53 51 55 55 59 63 70 68 72 74 75
71 70 70 70 70 71 71 70 70 71 70 69 68 68 67 68 67 66 66 66 65 66 66 66 66 66 66 65 64 63 63 65 64 63 63 62 62 62 61 62 60 61 60 60 60 61 60 60 60 60 60 57 57 53 51 51 54 56 64 68 66 70 74
72 72 71 71 71 71 71 70 70 70 70 70 70 69 68 67 67 68 66 65 65 65 65 66 66 66 66 64 64 64 64 64 62 63 63 63 62 62 61 61 61 61 60 60 60 60 59 59 59 60 60 60 59 55 54 51 53 57 59 64 67 66 70
72 72 72 72 71 71 71 71 70 70 70 70 69 68 67 68 67 66 66 66 65 65 65 65 65 64 65 63 64 64 64 64 62 62 63 62 63 62 61 61 61 61 61 59 59 60 60 60 59 60 59 60 59 58 56 55 50 57 61 59 62 68 67
74 74 72 71 71 71 72 71 71 70 69 70 69 69 68 68 68 67 67 66 66 65 65 65 65 64 64 64 63 64 63 64 64 62 62 63 65 63 61 61 61 60 60 60 60 60 60 59 60 59 59 59 58 58 58 55 52 53 59 59 61 65 68
72 72 72 71 70 70 70 71 71 70 71 70 70 69 69 69 69 68 68 67 67 66 65 64 64 64 64 63 63 63 64 64 64 63 62 61 64 63 62 62 61 62 62 59 59 61 62 62 60 60 60 60 59 59 57 55 53 54 57 59 60 62 65
71 70 71 70 70 69 69 68 67 69 70 70 71 71 71 70 69 69 68 69 68 68 67 66 65 64 64 63 62 65 63 63 63 63 61 61 62 63 62 60 63 60 63 61 59 63 63 63 63 63 61 61 60 59 60 58 55 53 53 57 57 62 62
70 70 70 70 69 68 68 68 69 67 68 69 70 70 71 70 70 70 69 69 69 68 67 67 65 64 64 64 64 63 63 62 62 61 61 61 63 62 61 60 61 61 61 59 60 59 60 61 62 63 60 60 59 59 60 60 56 54 54 55 58 59 59
71 70 69 69 69 68 68 68 69 68 69 68 69 70 70 71 70 69 69 69 69 68 68 67 66 66 66 65 64 64 63 62 62 62 62 62 63 62 60 59 60 61 59 59 59 59 59 60 59 60 59 59 58 59 58 58 58 55 55 54 56 59 61
69 69 69 69 66 64 64 63 64 66 68 68 69 69 69 70 69 70 68 69 69 69 68 68 67 66 65 65 65 64 63 63 62 62 62 62 62 61 60 59 60 60 59 58 59 58 59 58 61 58 57 58 58 59 58 58 57 58 55 54 55 57 58
67 66 66 64 62 61 60 60 59 62 64 64 62 67 67 67 69 69 70 70 70 70 70 69 69 67 67 66 64 64 63 63 62 62 62 62 62 62 61 60 60 61 60 57 57 58 57 58 58 57 57 58 59 58 56 55 56 55 55 55 54 54 55
65 65 63 62 62 62 63 61 62 61 62 63 63 62 64 66 67 68 69 69 70 69 69 70 68 67 67 67 65 65 63 62 62 61 62 62 62 61 60 61 61 60 60 59 58 58 58 57 57 56 55 55 57 55 54 55 56 55 54 54 54 55 55
66 66 65 63 61 61 60 60 60 60 60 60 62 63 63 64 65 66 66 67 67 67 66 66 67 68 68 67 65 64 63 62 62 61 61 61 61 60 60 60 61 60 60 58 56 54 53 52 52 52 53 53 53 52 52 52 52 53 52 53 52 52 52
65 66 67 67 66 65 63 63 62 61 60 61 60 60 59 60 62 66 67 67 66 66 65 65 66 66 67 66 65 64 63 63 61 61 60 60 59 60 59 59 60 60 56 53 50 51 50 51 52 50 51 51 50 49 50 50 50 50 50 50 51 52 52
67 66 65 65 65 65 66 64 64 63 64 64 65 64 64 64 64 65 65 64 64 64 61 61 60 55 58 67 65 64 62 61 61 60 59 58 58 58 59 58 59 55 53 51 50 48 47 46 48 51 50 50 50 49 48 47 46 47 48 47 48 49 48
67 68 67 67 66 67 68 67 66 66 66 65 65 65 65 66 65 65 65 64 64 64 62 62 53 51 50 55 63 61 60 60 60 60 58 57 56 57 58 59 56 54 53 52 51 47 48 46 43 44 46 47 49 48 48 46 46 46 46 46 47 47 47
67 66 67 67 67 67 68 67 67 66 66 66 66 66 65 65 65 65 65 65 65 63 62 56 51 49 48 50 55 62 61 59 59 58 59 58 58 58 58 58 57 56 55 54 54 52 48 45 44 44 42 43 43 43 44 47 46 45 45 46 46 46 47
67 66 66 66 65 65 66 66 66 65 65 66 66 66 66 65 64 64 64 64 61 58 56 46 47 46 46 48 51 57 61 58 57 57 58 59 57 57 57 57 57 57 59 56 57 55 53 51 46 44 44 43 42 41 40 40 42 47 48 46 46 46 47
66 66 66 66 65 66 65 64 65 66 66 65 65 64 64 64 64 62 63 62 58 55 53 45 45 46 46 46 48 53 59 58 58 58 59 59 58 57 57 56 56 56 55 54 54 54 54 54 52 49 46 45 47 47 43 42 41 41 43 45 46 46 48
65 65 65 65 64 63 63 63 64 65 65 64 63 62 62 62 62 62 63 59 54 54 52 43 43 44 44 44 46 50 57 58 58 57 58 59 59 58 56 57 56 54 55 55 55 53 54 54 53 52 50 49 49 49 50 49 49 47 46 45 45 47 48
65 65 65 65 64 63 63 62 62 64 63 64 63 64 63 63 62 62 61 56 55 52 49 41 42 43 42 43 45 54 56 56 55 55 54 55 55 54 55 54 54 54 54 55 49 48 50 52 51 50 48 47 48 49 49 50 48 48 50 50 50 50 50
65 64 64 64 63 63 62 62 62 64 63 63 62 62 62 63 63 61 57 56 54 51 47 42 40 41 41 44 47 53 54 55 54 54 54 55 56 56 57 56 55 55 54 54 44 43 45 48 49 48 48 48 48 48 48 50 48 46 44 43 42 42 42
65 64 64 63 63 63 63 62 62 63 62 62 61 61 62 62 63 61 56 55 54 50 48 42 40 40 41 45 49 53 53 54 54 54 55 56 55 56 58 57 56 57 55 49 38 40 39 44 47 47 47 46 46 46 46 49 50 50 47 46 44 43 42
65 64 63 63 63 63 62 62 62 63 63 63 62 62 62 61 60 58 56 54 51 51 48 43 40 40 41 42 48 51 50 51 52 53 54 55 56 56 56 55 52 48 44 39 38 38 38 42 45 45 45 44 43 43 45 46 46 44 44 44 45 46 46
63 63 63 63 63 62 63 62 61 62 62 63 62 62 63 61 58 56 54 52 52 51 47 45 43 39 40 40 42 48 51 50 50 52 54 56 55 57 57 51 39 38 38 37 37 38 37 40 41 42 42 41 41 41 44 42 42 42 42 43 43 44 44
63 63 63 63 62 62 62 61 61 61 61 62 61 60 59 58 56 55 55 54 52 50 49 46 43 39 40 40 40 42 48 50 50 50 51 52 53 53 54 48 43 39 39 38 38 37 40 39 39 40 40 41 42 42 40 40 41 42 41 41 41 42 42
64 64 64 63 61 60 61 61 61 61 61 60 59 57 56 56 54 54 53 52 50 49 49 47 44 39 39 40 39 39 46 48 46 48 49 50 52 52 53 51 44 39 38 39 39 39 39 38 37 39 40 39 39 38 40 41 41 40 41 41 41 41 41
62 64 62 62 61 59 60 60 60 60 60 58 57 54 54 54 54 52 50 50 49 48 47 46 43 42 39 40 38 39 37 41 40 48 48 48 49 50 52 50 42 39 40 38 38 38 38 38 38 39 39 38 38 37 37 39 39 40 40 41 40 40 40
63 62 62 61 60 59 59 59 59 59 57 56 55 53 53 53 53 51 49 48 48 48 47 46 42 41 41 38 39 40 39 37 39 46 47 47 49 50 51 49 44 39 40 40 40 40 39 39 39 39 38 38 37 37 38 39 39 40 40 40 40 40 40

ECMWFFLT1_sfc_temp_009.txt.gz
Temp
61 61 61 61 62 63 62 63 63 62 64 63 62 63 63 64 63 62 61 61 63 65 64 62 61 61 63 63 62 61 61 61 60 58 57 58 57 55 58 57 58 59 59 59 58 56 53 51 54 58 60 62 62 63 65 65 65 65 64 64 66 66 65
63 62 62 63 63 63 61 60 62 62 62 63 63 62 62 63 62 61 60 60 61 62 64 63 62 62 61 60 60 60 60 60 60 59 58 57 57 56 56 56 57 57 58 57 58 58 55 51 51 55 56 60 61 62 62 64 65 63 64 66 67 68 66
62 61 62 61 60 60 61 60 60 60 59 59 60 59 59 60 61 61 60 60 59 61 61 60 60 61 60 60 59 59 59 59 58 58 58 57 57 57 57 58 56 57 56 56 57 57 57 56 53 54 56 56 56 56 60 61 62 63 65 65 66 68 68
62 61 61 59 60 60 60 60 59 59 59 59 59 60 60 59 59 60 60 60 60 61 61 61 59 60 59 58 59 59 58 57 56 56 57 56 56 56 57 56 56 56 55 55 54 56 55 54 52 52 54 57 56 54 56 59 61 62 64 63 64 66 68
63 62 61 60 60 60 60 59 58 59 59 59 59 58 58 58 59 59 59 59 60 59 59 59 58 59 59 59 58 58 57 56 56 56 54 54 54 55 55 55 55 56 56 56 56 55 55 54 54 52 52 55 54 56 62 61 62 61 62 64 66 67 69
63 63 62 60 61 61 60 59 59 58 57 59 58 59 58 58 58 59 59 58 59 61 60 61 60 60 60 58 59 57 57 56 54 54 53 52 53 54 54 54 55 56 56 55 57 56 55 55 54 50 53 56 52 52 57 59 57 64 63 63 65 66 68
63 63 62 62 61 61 61 60 60 59 58 58 58 58 59 58 58 59 58 57 57 57 59 59 60 61 60 59 58 57 56 55 54 53 53 53 53 53 54 54 54 55 54 55 54 56 55 54 52 51 52 50 51 53 56 56 59 60 62 67 67 69 68
64 64 63 63 62 62 61 61 60 60 59 59 59 59 58 57 58 59 57 57 58 57 58 58 60 58 58 60 58 56 56 55 55 55 53 54 56 54 53 52 55 53 53 54 53 55 56 54 54 53 51 50 47 47 50 54 56 58 59 63 67 68 68
65 64 63 63 63 63 63 62 61 61 61 60 60 60 58 59 58 58 58 57 57 58 58 57 58 59 58 58 57 57 56 60 56 55 54 53 53 54 54 53 53 54 54 55 56 54 54 55 55 54 53 50 48 45 46 46 49 52 60 60 62 66 67
64 63 63 63 63 63 64 63 63 62 61 62 61 61 59 59 59 58 57 57 57 57 59 58 57 57 57 57 56 55 56 56 55 55 54 53 54 54 54 53 53 53 53 53 54 54 53 53 54 54 54 54 53 48 45 44 45 49 53 59 58 60 66
64 64 64 64 63 63 63 63 63 61 62 63 63 62 61 60 60 61 57 57 57 58 58 57 57 57 57 57 56 55 56 56 55 55 55 53 54 53 53 53 52 54 54 52 54 55 54 55 54 54 54 54 53 51 50 47 45 49 51 55 57 59 63
64 64 64 65 63 64 63 62 63 63 62 62 62 61 60 60 60 58 58 57 57 57 58 57 57 56 56 56 56 56 56 56 55 55 56 55 56 55 55 55 52 54 52 53 53 54 54 54 54 55 54 54 53 53 51 50 46 47 54 54 54 58 59
65 65 64 64 63 64 64 63 63 63 63 63 62 62 61 61 60 59 58 58 58 57 57 57 56 57 55 56 55 57 56 56 56 55 56 56 59 54 55 56 54 54 53 52 53 53 53 53 54 56 54 54 53 53 54 51 48 49 51 55 54 57 60
63 63 63 65 63 63 64 64 63 63 63 62 62 61 62 61 61 60 59 59 59 56 56 56 56 56 55 56 55 55 56 56 55 54 55 56 58 55 56 56 54 56 55 54 52 53 54 54 54 54 53 54 53 52 54 52 50 50 49 50 55 57 59
63 63 62 63 62 61 60 60 60 61 60 60 63 62 62 62 61 61 60 60 59 58 58 56 56 56 55 56 55 57 57 56 54 55 54 54 55 57 54 54 55 54 56 54 52 56 56 56 56 56 54 54 53 54 52 53 50 50 50 50 52 55 57
63 62 62 61 60 60 60 60 61 60 61 61 61 61 62 62 62 62 61 60 60 60 59 58 57 57 56 56 57 55 57 55 54 54 54 55 55 55 56 56 55 55 56 55 54 52 53 54 55 54 53 54 53 52 54 54 52 50 49 49 51 54 53
63 62 61 60 60 58 57 57 60 60 60 59 61 61 61 61 62 62 61 60 60 61 60 59 59 59 59 57 57 56 56 56 55 54 55 55 55 55 54 53 53 52 53 54 54 53 52 52 52 52 52 53 52 52 52 51 52 52 49 50 48 53 54
61 60 59 58 57 58 58 57 58 59 59 59 61 60 62 62 60 60 60 60 61 61 61 61 60 60 59 58 58 57 57 57 56 54 55 56 56 55 54 54 54 52 51 52 51 52 52 51 54 51 51 51 52 52 52 51 51 50 49 49 49 51 52
60 60 59 58 57 57 57 57 57 58 59 59 57 59 59 60 60 60 60 60 61 61 62 61 61 61 61 60 58 58 58 57 57 55 55 56 55 54 55 54 53 52 51 51 50 51 52 52 51 51 50 51 51 50 48 49 50 49 48 47 47 48 51
57 57 58 58 58 59 58 58 58 58 59 59 58 58 58 58 58 59 60 61 61 62 62 62 61 61 61 61 59 58 58 57 57 56 56 56 55 55 54 53 52 52 51 50 50 50 48 47 49 47 48 48 49 48 48 47 48 47 46 46 46 46 47
58 57 57 57 57 57 58 58 58 57 57 57 57 57 57 58 58 59 59 60 60 61 61 61 62 62 62 61 59 58 58 57 57 56 55 55 54 54 54 54 53 52 51 50 49 47 47 47 46 46 46 46 45 45 45 45 45 44 44 44 43 43 44
57 57 57 56 56 56 56 56 57 57 57 56 57 57 57 58 58 58 59 59 60 61 61 61 62 62 61 61 60 59 58 57 57 56 54 54 53 53 53 53 52 51 53 53 51 50 50 50 47 48 45 45 45 43 43 42 43 42 43 43 43 44 43
56 56 56 55 55 55 55 54 55 56 57 57 56 56 55 55 55 57 58 58 59 60 60 61 60 55 56 61 59 60 58 57 56 55 55 53 52 53 53 52 54 55 53 51 49 46 46 48 49 49 45 45 46 45 43 43 42 42 42 41 40 41 41
56 56 56 55 55 58 58 58 57 57 57 57 58 57 56 56 56 57 58 59 59 59 60 60 54 50 49 53 59 59 58 56 56 55 54 54 53 53 52 53 53 53 53 51 47 43 43 45 46 47 47 48 47 44 42 42 41 42 42 42 42 41 40
54 55 55 56 56 57 57 57 56 57 57 58 58 57 57 56 56 56 57 57 57 58 59 55 50 48 47 46 51 58 58 57 56 55 55 55 54 54 55 55 53 53 52 51 49 48 47 46 44 43 42 43 44 45 45 45 43 41 40 41 40 40 40
54 55 55 54 54 56 56 55 56 55 56 59 58 57 58 57 57 56 56 55 54 53 57 53 48 47 46 45 46 53 57 57 56 55 56 56 55 55 55 54 54 53 55 54 55 52 51 48 45 43 43 44 43 41 39 39 42 45 43 40 40 41 41
53 53 54 54 56 56 57 58 57 56 56 56 56 57 57 57 56 54 51 49 48 47 46 42 44 45 45 44 45 51 55 55 54 54 55 55 55 56 54 53 53 53 53 54 54 51 49 48 47 46 44 42 42 44 42 41 40 40 41 42 41 41 43
52 53 53 53 54 55 55 53 53 54 56 56 56 54 56 56 55 54 51 48 45 44 44 41 41 42 43 44 46 48 54 53 54 53 52 52 54 53 51 51 51 52 52 51 52 51 50 48 44 45 43 42 42 43 43 43 42 42 42 42 41 42 43
52 52 53 52 52 53 52 51 54 52 53 53 54 54 53 54 52 52 50 48 46 42 41 41 41 43 44 45 47 51 51 50 50 50 48 51 51 50 51 51 51 52 52 52 49 46 49 50 47 44 43 41 41 41 42 45 45 45 46 45 43 43 43
52 51 51 51 51 51 51 53 52 51 54 51 53 54 52 51 51 50 48 47 45 42 40 41 41 43 43 44 46 50 50 48 49 49 50 50 50 51 52 53 54 52 53 50 42 39 39 45 47 44 41 40 41 41 42 44 44 43 42 41 41 41 41
52 52 50 52 51 50 51 52 52 50 54 51 51 49 51 51 48 50 48 46 45 43 40 40 41 42 43 43 46 48 47 48 47 47 48 51 52 51 53 55 54 53 47 42 39 39 40 42 41 39 39 38 38 38 39 40 43 42 42 42 41 41 41
51 51 52 52 51 52 52 52 50 50 50 50 49 48 49 49 47 46 46 46 48 44 41 41 41 41 42 43 46 46 46 46 45 46 48 50 51 52 49 43 45 44 43 41 38 39 40 41 39 38 37 36 36 36 37 36 37 37 37 38 39 40 40
51 53 52 50 49 50 49 52 52 51 49 49 51 49 48 48 46 44 44 45 46 44 42 39 40 41 42 42 44 46 45 45 45 46 49 50 50 49 44 43 40 38 38 38 38 38 38 39 38 38 37 36 35 35 37 36 38 38 37 37 36 37 38
52 50 50 52 51 49 50 51 49 50 49 49 49 46 48 46 45 43 43 43 43 42 43 41 39 40 41 41 43 44 44 44 45 47 48 48 48 46 44 41 40 39 38 37 38 38 38 39 39 38 36 36 36 38 38 36 37 40 36 36 37 37 37
52 53 50 50 49 50 49 48 49 49 48 50 47 46 46 45 44 43 42 41 41 41 43 43 39 39 39 40 41 43 43 42 43 46 45 46 47 46 44 42 41 39 38 38 38 39 39 39 38 37 36 37 38 37 37 38 36 36 35 35 34 35 35
50 54 53 50 48 49 48 50 50 49 49 46 46 46 45 44 43 41 40 39 39 39 39 40 41 39 39 39 40 40 41 40 39 44 43 43 43 43 42 41 40 40 39 40 40 39 39 38 38 36 37 37 37 37 37 35 35 34 33 34 34 35 36
51 50 50 48 49 47 47 48 49 50 47 45 45 45 43 42 42 40 39 38 39 38 37 38 39 40 39 38 39 38 38 38 40 41 41 41 41 41 41 38 39 39 39 40 40 39 38 38 37 37 37 37 37 37 35 35 34 34 34 34 35 36 38

ECMWFFLT1_sfc_temp_012.txt.gz
Temp
59 58 57 57 57 58 58 58 59 58 59 59 59 59 59 60 58 58 58 59 59 60 60 59 58 58 60 60 58 58 59 58 57 57 55 55 55 55 57 56 56 57 57 57 54 54 49 49 51 53 56 58 58 58 60 61 61 61 63 63 65 64 64
59 59 58 59 58 58 57 56 58 57 57 57 58 58 58 59 59 57 57 59 59 59 60 59 58 59 58 58 57 57 56 56 57 56 56 54 54 54 55 55 55 55 55 56 56 54 52 49 49 51 52 55 56 58 60 61 62 61 61 61 62 66 66
59 58 57 57 56 56 57 55 55 56 55 56 56 56 57 57 57 57 57 57 57 59 59 58 57 57 57 57 56 56 56 55 55 56 55 53 53 53 54 55 53 54 54 53 52 53 53 54 52 52 52 52 51 52 53 56 60 60 60 60 60 62 64
59 58 57 55 55 55 56 55 55 55 55 55 56 56 56 56 56 57 56 56 57 59 58 58 57 57 56 55 55 56 56 56 54 54 54 53 54 54 54 54 53 54 54 52 53 52 51 51 51 51 49 52 54 52 53 56 58 59 60 59 60 61 62
60 60 59 57 56 56 55 55 55 54 54 55 54 56 55 55 56 55 55 55 56 55 55 56 56 56 56 56 55 55 54 53 53 54 53 53 53 53 52 52 52 54 54 53 53 52 51 52 51 49 49 49 49 50 56 55 54 58 60 62 63 63 63
61 61 60 58 57 57 56 55 54 55 54 56 54 56 54 54 55 56 55 56 55 55 55 56 55 54 54 54 54 53 53 52 51 52 51 49 51 52 51 50 52 53 52 52 52 52 51 51 49 48 49 52 52 49 48 53 56 56 59 61 63 63 64
61 61 60 59 58 58 57 56 56 56 55 56 55 55 55 55 55 56 55 53 54 54 55 54 54 54 54 55 54 53 53 51 52 51 50 50 50 49 49 51 51 51 50 52 51 52 51 49 48 48 49 46 48 48 49 50 53 55 57 61 63 64 63
62 61 60 60 59 58 57 57 56 55 56 55 56 57 54 55 54 54 54 54 54 54 54 55 57 54 54 55 54 53 53 52 53 53 51 52 54 52 50 50 53 51 51 51 53 52 52 52 51 50 48 48 45 41 45 46 49 52 54 57 60 63 62
62 61 60 60 59 59 58 58 57 56 57 56 57 55 55 56 55 55 54 53 53 54 53 54 54 55 54 54 53 53 53 56 54 52 50 52 52 50 49 49 52 50 50 51 52 50 51 51 51 49 48 47 45 43 42 42 43 47 52 56 56 60 62
61 61 61 60 60 60 59 58 58 58 58 58 58 57 56 55 55 55 55 54 54 53 53 54 54 53 54 55 54 52 53 52 54 52 51 52 50 50 49 49 50 50 50 50 51 50 50 49 50 49 50 49 47 45 43 42 40 45 48 54 55 55 61
62 62 62 61 60 60 59 58 56 57 57 59 59 58 57 56 56 58 55 54 53 53 53 53 53 53 53 53 52 53 53 52 52 51 52 52 52 52 51 50 50 51 50 49 52 51 51 52 51 51 49 49 47 46 45 45 42 43 47 47 53 54 57
63 63 63 63 61 61 60 58 58 59 58 58 58 57 56 56 56 54 54 53 53 53 52 53 52 52 53 52 52 53 52 52 52 52 52 54 52 53 52 51 50 51 50 50 49 49 50 50 51 51 50 49 49 46 47 45 44 43 48 50 47 51 54
64 64 64 63 61 61 61 60 60 58 58 59 59 59 58 57 57 56 55 55 54 53 53 53 52 53 52 53 53 53 52 52 52 51 52 52 55 51 50 51 51 51 50 50 50 51 50 51 51 51 50 50 49 49 48 47 46 48 47 51 50 52 55
63 64 64 63 63 62 62 61 61 61 60 59 59 59 59 58 58 57 56 56 56 54 54 53 52 52 53 51 51 52 51 52 52 51 52 53 53 51 52 51 51 52 51 50 50 51 51 51 52 50 50 49 49 48 49 50 48 49 48 46 49 52 54
63 64 63 62 63 62 61 61 61 60 60 60 59 59 59 59 58 58 58 57 56 56 55 54 52 53 53 52 51 54 53 51 51 51 51 52 52 53 49 50 53 52 51 50 51 53 51 52 52 51 51 51 49 51 48 50 47 46 47 48 49 51 52
61 62 62 60 61 60 59 60 60 60 60 59 59 60 60 59 59 59 58 58 57 56 56 55 54 54 54 54 53 52 53 51 51 51 50 51 51 50 50 50 52 51 52 51 49 48 50 51 51 51 50 49 49 48 49 48 47 45 45 47 46 51 51
58 59 60 59 59 58 59 59 60 60 60 59 60 59 58 59 59 58 58 58 58 58 57 56 55 55 56 54 54 54 52 51 51 51 52 51 50 51 51 50 50 50 50 51 52 48 48 48 49 49 49 48 48 48 47 47 47 46 44 44 43 48 50
57 57 57 57 57 57 58 58 58 60 58 58 59 58 58 57 58 58 58 58 58 57 58 58 57 56 56 55 56 55 54 53 53 52 52 52 54 52 51 51 50 49 49 50 50 49 48 47 49 48 47 47 48 47 47 47 45 45 44 44 43 43 47
57 57 57 57 56 56 56 56 58 57 59 59 58 58 59 59 59 58 58 58 58 58 58 58 58 58 58 56 56 55 55 55 54 54 52 52 53 52 52 51 50 49 49 50 49 47 47 46 46 46 46 46 46 46 45 44 44 43 43 42 42 42 42
56 56 57 57 56 57 57 56 57 57 57 58 57 57 57 58 58 58 59 59 59 59 59 59 58 58 58 57 56 56 55 54 54 54 53 53 53 52 52 52 50 50 50 50 48 47 45 45 46 45 46 45 45 44 44 43 44 44 42 42 41 41 41
55 56 56 56 57 57 56 56 55 55 56 56 56 57 57 58 57 57 58 57 57 57 58 59 59 59 59 58 57 56 55 55 55 54 53 53 53 52 52 52 52 51 51 50 49 47 47 46 45 44 44 44 43 43 42 42 42 41 42 41 40 39 39
55 55 56 56 56 56 56 57 56 55 55 56 55 56 56 56 55 56 55 55 56 55 56 57 59 59 58 58 57 56 56 55 55 55 53 52 52 52 52 52 52 50 52 53 50 49 49 49 48 47 45 42 41 42 41 39 40 40 40 41 40 40 39
55 55 54 54 55 55 56 56 55 55 56 56 55 53 53 53 53 53 54 54 55 55 54 56 56 53 54 57 57 58 57 56 56 56 55 53 51 51 52 52 53 55 54 51 49 46 45 46 49 49 45 43 43 43 43 43 40 40 40 40 39 38 40
54 54 53 53 52 53 54 55 54 55 54 53 53 52 52 53 51 52 53 51 52 54 56 58 52 48 47 50 58 58 57 57 56 56 55 54 53 52 51 51 50 52 52 51 49 45 45 44 44 45 45 46 47 46 43 43 39 39 42 40 39 38 37
53 53 52 52 52 53 53 53 53 52 51 51 52 51 52 52 52 51 51 51 51 53 53 53 49 47 46 46 51 58 57 57 56 56 56 56 56 54 52 50 49 51 50 50 49 48 46 44 43 43 43 43 43 44 45 45 42 40 38 39 38 39 37
50 49 50 51 50 51 51 52 52 52 51 52 51 51 52 51 52 52 51 51 51 51 52 45 45 46 45 44 44 51 57 56 55 55 55 56 56 53 51 50 50 51 53 53 52 49 49 46 43 42 43 43 42 41 40 41 43 45 41 39 39 38 38
49 49 49 49 49 49 51 51 50 49 50 50 51 52 51 51 51 51 50 50 49 45 44 42 45 44 45 43 42 44 53 54 54 53 53 51 51 51 51 52 52 51 51 52 51 50 50 47 44 43 43 43 44 44 42 40 39 39 41 42 41 40 40
49 48 47 47 47 48 48 48 49 47 49 50 51 52 52 51 51 50 47 45 44 42 43 40 42 45 44 43 41 42 49 48 49 49 49 50 51 51 51 52 52 51 51 50 51 50 49 47 45 44 43 42 41 40 41 41 40 40 40 39 38 38 39
48 47 47 47 49 51 47 46 50 48 48 47 48 46 48 48 48 46 46 44 41 40 39 40 40 41 41 42 44 48 47 47 47 47 47 48 49 49 50 49 50 50 50 50 48 45 47 47 44 43 41 38 37 38 40 43 41 41 41 39 39 40 38
48 47 47 49 49 49 49 50 48 46 50 45 45 47 48 47 46 47 45 42 40 38 39 41 41 41 42 43 44 46 46 45 46 46 47 48 49 49 48 49 49 49 48 44 39 39 41 44 40 39 38 38 39 39 39 41 42 41 40 40 40 40 40
49 48 46 49 47 45 43 44 45 46 52 49 48 46 47 43 45 45 45 42 41 40 39 42 42 41 43 44 45 46 45 45 44 45 44 44 45 45 46 52 50 45 42 41 39 39 40 41 39 39 38 37 36 35 36 37 39 39 40 40 40 39 39
49 48 48 47 46 45 46 46 47 45 45 46 47 43 43 43 43 42 43 42 46 42 39 42 42 41 42 43 45 45 46 47 46 43 44 43 43 42 42 43 44 43 42 41 39 39 39 41 40 40 39 39 38 35 35 34 34 35 35 36 36 37 37
46 47 48 45 44 46 45 46 47 48 45 43 43 41 42 41 41 40 41 41 42 40 40 39 40 41 42 42 43 45 45 44 43 41 42 43 40 39 40 40 40 39 38 38 38 38 39 40 40 38 37 36 37 34 34 34 36 35 33 34 34 34 35
47 46 45 46 45 45 44 46 45 48 49 42 39 41 41 40 40 39 38 38 38 38 40 38 38 40 41 41 42 43 42 42 41 42 42 41 40 39 39 40 41 40 38 38 38 38 38 39 39 37 35 35 33 36 37 33 35 39 33 34 34 34 34
48 49 46 46 46 46 44 45 44 45 42 41 39 40 38 39 39 38 38 38 37 37 41 42 38 40 40 41 41 42 42 40 42 42 42 41 41 41 41 40 39 39 38 38 37 38 38 38 38 38 34 37 37 36 34 35 35 34 33 33 32 32 33
48 50 48 45 47 46 45 45 45 44 43 39 40 39 38 38 38 37 36 36 35 35 36 39 41 39 40 40 40 41 41 40 40 42 41 41 40 39 41 41 40 39 37 38 38 38 38 38 38 35 37 36 36 36 36 34 33 34 31 32 32 32 32
48 48 47 46 45 46 45 44 44 45 42 40 40 39 37 38 37 36 36 35 36 35 35 36 39 40 40 39 40 39 38 39 40 41 41 39 39 40 40 40 40 38 37 39 39 38 38 37 36 36 36 37 37 37 35 32 32 33 32 32 30 31 32

ECMWFFLT1_sfc_temp_015.txt.gz
Temp
57 56 54 54 54 56 55 55 55 54 55 55 56 56 56 58 57 56 56 57 57 58 59 56 56 56 58 58 58 58 59 59 57 57 55 55 56 55 57 56 56 57 56 56 53 54 48 49 52 52 53 55 56 57 58 59 59 59 59 58 60 61 62
56 56 55 55 55 54 54 53 54 54 54 54 55 56 56 58 58 56 56 56 57 57 58 57 56 56 56 55 55 55 55 55 55 55 56 54 53 54 56 56 55 55 56 56 56 52 49 46 48 48 50 52 52 55 56 58 59 59 59 59 61 62 61
56 55 54 54 53 53 54 53 53 53 54 54 54 54 55 56 56 56 56 57 56 57 57 56 55 55 54 54 53 54 54 54 53 54 54 52 52 54 55 55 55 53 53 52 51 52 51 51 51 52 50 50 50 51 51 56 57 58 61 61 61 62 61
56 56 55 53 52 52 54 53 53 52 53 53 53 53 54 54 55 56 56 55 56 58 57 56 55 54 53 53 53 54 53 53 52 52 53 52 52 52 52 53 52 51 51 51 51 50 49 49 49 50 47 49 51 50 54 53 55 58 60 60 61 61 61
58 57 56 55 53 53 51 52 52 52 52 52 52 53 53 53 55 53 54 54 54 54 54 54 54 53 53 53 52 52 51 51 52 53 51 51 51 51 51 51 50 52 51 51 50 49 50 50 48 47 48 46 48 47 52 50 51 56 58 59 60 60 60
58 58 57 55 53 53 51 51 51 52 51 53 53 53 52 52 54 54 53 54 53 53 53 53 52 52 52 52 51 51 50 50 49 50 50 48 50 50 48 48 49 51 50 48 49 49 48 47 48 45 48 47 49 47 46 49 53 51 55 58 59 60 60
58 58 57 56 54 53 53 52 52 52 52 52 51 53 52 52 53 54 53 51 51 51 52 51 51 51 52 52 52 51 51 49 50 50 49 48 48 48 48 49 49 49 48 49 49 50 48 47 46 47 47 44 44 45 44 48 49 54 54 56 58 60 60
59 59 58 58 56 54 52 53 52 51 52 51 51 52 52 51 51 51 51 52 51 51 52 52 54 52 52 53 52 51 51 50 50 50 49 50 51 49 48 49 50 48 48 48 49 50 51 51 48 47 46 46 42 39 44 42 45 51 51 52 56 60 59
60 60 59 58 56 55 55 54 53 51 52 52 52 52 52 52 52 52 52 51 51 52 52 52 52 52 51 51 50 51 51 52 51 50 48 49 49 48 48 47 50 48 47 48 49 48 48 49 50 45 46 44 43 42 40 41 41 46 48 53 51 55 59
59 59 59 58 57 56 55 55 54 53 53 53 53 53 52 52 52 52 52 51 51 51 52 52 52 51 51 52 51 50 51 49 52 50 49 50 47 48 47 48 48 49 48 48 49 49 48 47 47 46 46 47 43 42 41 41 40 43 48 49 53 53 57
60 60 59 59 57 56 54 54 53 55 53 53 54 55 53 52 52 56 52 51 51 51 52 51 51 51 51 51 50 51 50 49 50 49 49 49 48 49 49 49 48 50 48 48 48 48 48 48 47 48 47 47 45 46 43 43 42 40 46 45 48 52 53
59 59 59 59 57 57 56 55 54 55 53 53 54 53 52 52 52 52 52 51 51 51 51 51 51 50 51 51 50 50 49 49 49 49 49 50 50 50 48 49 48 49 48 49 50 50 49 49 47 47 46 47 47 44 42 43 43 43 46 49 47 48 50
60 60 59 59 58 58 58 57 56 55 55 54 53 53 52 53 53 52 53 53 52 52 52 51 51 51 51 52 51 51 48 49 50 49 50 50 51 49 48 48 49 48 48 49 49 49 49 49 49 47 47 48 47 45 43 44 44 47 44 48 47 50 50
59 60 60 60 59 59 58 58 57 57 55 55 54 54 53 54 53 53 53 53 54 53 53 52 51 51 51 50 51 51 48 49 50 48 49 50 50 48 48 48 49 49 48 48 47 49 50 49 49 49 48 47 47 46 46 44 45 45 44 44 46 48 51
59 60 60 59 59 59 57 57 57 55 55 56 55 56 55 54 53 53 52 52 52 52 53 53 51 52 52 51 50 52 51 50 50 48 48 49 49 49 47 47 49 49 48 48 47 50 49 49 50 49 48 48 47 47 46 47 44 44 44 43 46 48 49
57 58 58 57 57 57 57 57 58 58 57 56 55 56 56 55 54 53 52 53 52 52 53 53 52 52 52 53 52 51 51 51 51 50 49 49 48 47 47 47 48 47 48 47 46 47 48 49 49 49 47 47 47 45 45 46 46 44 42 43 42 46 46
55 56 56 55 55 55 57 57 58 58 59 57 57 56 55 55 55 54 54 53 52 52 53 53 53 53 54 53 53 52 51 51 51 51 52 50 48 48 49 48 47 47 48 48 46 46 46 47 47 47 46 45 46 45 44 44 44 44 42 42 41 43 45
55 55 55 55 55 55 55 55 55 57 56 56 55 55 55 55 54 54 55 54 54 53 53 54 54 53 53 53 53 53 52 52 51 52 52 52 52 51 50 51 49 48 48 48 46 46 46 46 46 46 46 45 45 45 44 44 42 43 42 41 41 39 41
55 55 55 55 56 55 55 55 55 55 56 56 56 55 55 56 56 56 56 56 55 54 54 53 53 53 53 52 52 52 52 52 52 52 52 51 52 51 52 51 49 49 49 50 48 46 46 47 47 47 46 45 45 43 42 41 41 41 41 40 41 40 38
54 55 55 55 56 56 56 55 56 56 55 56 57 56 57 57 56 56 57 57 57 56 55 54 54 53 54 53 52 52 52 52 52 52 52 52 51 51 51 51 50 49 50 50 49 48 46 45 46 44 45 44 44 43 42 41 41 41 40 40 38 38 39
55 55 56 56 55 55 55 55 55 55 55 55 56 56 56 57 57 56 57 56 56 56 56 54 53 53 53 54 52 51 51 51 51 51 52 51 50 51 51 51 51 51 51 51 50 48 48 46 44 44 43 43 42 42 41 40 40 40 40 38 39 38 37
54 55 56 56 56 56 56 55 55 55 55 55 56 56 56 56 55 55 55 54 55 55 55 56 57 56 55 54 53 52 52 52 52 52 51 51 50 50 49 50 51 51 52 54 51 50 50 49 47 46 43 41 41 41 39 40 40 39 38 39 40 38 38
54 54 54 55 56 56 56 56 56 56 56 56 55 55 55 54 54 53 53 54 54 54 54 55 55 53 53 56 54 55 53 53 52 52 52 52 51 50 51 51 52 54 53 53 50 47 45 47 49 49 47 44 45 41 40 39 38 38 39 40 39 38 39
52 53 55 55 55 56 55 55 55 55 55 55 55 54 54 53 53 52 53 53 54 54 55 55 51 47 46 48 54 53 53 54 53 53 53 53 52 52 52 51 49 52 52 51 48 44 44 45 44 45 45 47 47 46 41 40 38 36 40 40 37 39 38
51 52 53 53 53 53 52 52 53 53 53 53 53 53 52 53 53 53 52 52 53 54 53 51 47 46 45 44 47 53 53 53 53 52 52 52 53 53 52 50 48 50 49 50 49 48 47 44 44 43 42 43 43 44 44 43 41 38 37 39 37 37 36
51 51 52 52 51 51 51 52 52 52 52 54 52 52 53 52 52 51 51 52 52 51 52 46 42 44 44 43 43 46 52 52 52 52 51 52 51 50 49 49 49 50 51 53 52 51 51 48 44 43 43 43 42 41 39 39 40 41 37 38 38 36 35
48 49 49 48 49 50 50 51 51 52 51 50 51 51 51 51 50 50 51 51 50 44 43 43 41 42 43 43 41 43 48 49 50 50 50 50 51 49 49 50 50 49 50 51 51 50 50 49 47 46 45 44 44 43 41 41 39 38 40 40 38 38 37
46 45 45 46 46 47 47 46 46 47 48 49 50 49 49 49 50 50 49 47 44 41 41 41 39 42 43 42 41 42 47 46 45 45 46 47 47 48 49 50 50 50 49 49 50 49 49 48 47 45 44 42 41 40 39 39 38 38 39 36 36 36 36
45 44 45 44 45 44 43 45 47 45 43 42 43 43 43 44 45 44 43 41 42 43 40 40 40 41 41 39 41 45 43 43 43 43 43 43 44 45 46 47 48 50 49 48 44 44 46 47 46 43 39 37 37 36 37 41 40 41 39 37 36 38 37
46 44 44 46 44 44 46 46 44 42 42 41 43 44 45 43 43 43 42 41 40 40 39 41 40 40 40 41 43 43 43 44 43 43 42 42 43 44 44 45 46 45 43 43 40 39 40 42 42 40 38 35 35 35 36 37 39 39 39 40 40 40 39
49 48 45 47 45 44 42 42 42 44 45 44 44 42 42 40 42 41 43 42 40 39 39 41 41 40 41 42 43 43 42 44 42 42 40 39 39 40 45 49 45 43 43 41 39 39 40 44 43 41 40 39 38 37 36 35 36 37 39 39 39 39 39
48 49 50 47 44 43 43 45 43 40 41 42 41 39 40 40 40 39 39 39 47 38 38 40 41 40 41 42 44 43 44 43 43 39 39 38 38 38 40 43 45 44 43 41 39 39 40 42 41 41 40 39 39 38 38 35 34 34 33 34 34 35 36
48 48 50 48 45 45 44 42 42 41 39 41 41 38 39 39 38 37 36 37 38 37 37 37 39 41 41 42 43 44 44 44 41 38 38 40 38 37 38 39 40 39 39 39 38 38 39 40 42 41 40 39 38 38 37 35 38 35 32 33 31 32 33
49 47 46 47 45 46 44 45 42 41 40 39 38 38 38 37 37 35 35 35 35 36 38 37 38 40 40 41 41 42 40 42 40 39 37 37 37 36 37 37 37 39 38 38 38 38 38 38 39 38 38 37 38 39 36 34 34 39 32 32 32 32 33
47 47 44 44 46 47 44 44 44 44 40 39 39 37 35 36 36 35 34 35 35 34 40 41 37 39 40 40 40 41 41 39 40 40 37 36 36 36 36 36 37 37 37 37 37 38 38 38 39 38 35 38 37 36 34 35 32 32 31 31 30 31 32
48 47 45 43 44 44 42 43 42 40 39 38 38 37 36 36 35 34 33 33 32 34 34 38 40 38 39 40 39 40 40 39 40 40 39 37 36 37 37 37 38 38 37 37 37 37 37 37 37 35 36 36 36 36 36 34 33 32 31 31 32 32 30
47 46 45 43 43 43 40 40 40 41 38 39 38 37 35 35 35 35 34 33 34 34 34 34 39 40 39 39 39 39 38 38 39 39 39 37 36 37 38 38 39 36 37 38 37 37 36 37 34 37 37 37 37 37 34 33 32 31 32 30 30 30 30

ECMWFFLT1_sfc_temp_018.txt.gz
Temp
56 55 53 53 53 55 54 54 54 53 54 55 56 56 57 57 57 56 57 58 59 61 62 61 61 60 61 61 61 60 60 60 59 59 57 57 58 56 57 57 57 57 57 56 56 56 53 55 56 56 56 56 59 59 60 60 60 59 59 60 62 61 61
55 55 55 55 54 54 54 52 54 53 54 54 55 56 56 57 58 56 57 58 58 59 60 59 59 59 58 58 57 58 58 57 59 58 57 56 57 57 57 57 56 56 56 56 56 55 53 51 52 52 56 55 58 58 58 59 60 60 60 61 63 63 62
56 54 54 53 52 52 53 52 52 53 53 54 54 54 55 55 56 57 56 57 57 58 59 56 55 55 55 55 55 56 55 55 55 57 56 55 56 56 58 56 56 54 56 56 55 54 54 54 55 55 53 55 54 55 56 58 59 60 61 61 61 62 62
54 54 53 52 52 52 54 52 52 51 52 52 54 54 54 55 56 57 55 56 57 58 56 55 54 54 54 54 54 54 54 54 54 54 54 54 55 55 55 56 56 55 55 56 55 52 52 53 53 53 53 53 55 56 57 56 59 61 62 61 60 60 61
56 56 55 53 52 52 52 52 51 52 52 52 52 53 54 54 55 54 55 54 55 54 54 54 54 54 54 54 53 53 53 52 53 54 53 53 53 53 52 53 53 53 54 55 53 52 55 53 52 51 52 51 54 54 55 53 57 59 61 61 62 61 61
56 56 55 53 52 52 52 51 52 52 51 54 52 53 53 53 54 54 54 54 54 54 53 53 53 53 53 53 53 52 52 52 52 53 53 51 53 54 52 52 53 54 52 51 52 52 50 50 51 50 51 50 52 53 54 53 55 56 59 61 62 61 61
56 56 55 55 54 54 53 52 52 52 52 52 52 53 52 53 53 53 53 52 52 52 53 52 52 53 53 54 53 53 52 51 52 52 51 51 51 50 52 53 53 52 51 51 51 51 50 52 51 52 49 48 47 51 51 53 55 58 59 60 61 62 61
57 57 56 57 56 55 53 52 51 50 53 51 51 53 52 51 51 51 52 52 52 52 53 53 54 53 53 54 53 52 51 51 52 52 51 52 52 52 52 52 51 51 50 51 52 52 53 53 52 51 49 51 50 48 50 51 51 55 54 58 60 61 60
58 58 57 57 56 56 54 54 51 50 51 51 51 51 51 51 52 52 53 51 51 52 52 52 52 52 52 52 52 52 52 54 52 52 51 51 51 51 51 50 52 51 51 52 53 52 52 52 51 50 50 49 49 50 47 50 50 54 53 57 59 60 59
57 57 56 56 55 55 54 53 52 51 51 51 52 52 51 51 51 52 52 51 51 51 51 52 51 51 52 53 52 51 51 52 53 51 51 51 50 50 51 52 53 52 52 52 53 53 52 51 51 51 53 54 49 49 46 47 49 49 56 53 55 58 59
58 57 57 56 56 55 53 53 52 52 52 52 53 54 52 51 52 55 51 51 51 51 51 51 51 51 51 51 51 51 51 51 52 51 51 51 50 51 52 52 53 53 51 52 52 52 52 52 52 53 52 51 53 53 48 48 50 48 53 53 53 54 57
58 57 57 57 56 55 54 53 53 53 52 53 55 53 52 53 52 51 51 51 51 52 51 51 51 51 51 51 52 51 51 52 52 51 51 52 52 53 52 52 51 52 52 52 52 52 51 52 52 52 51 51 51 52 51 49 50 51 51 52 53 54 53
58 58 58 57 56 56 55 54 54 53 53 54 52 52 52 53 53 52 51 52 52 52 52 51 51 51 51 52 52 52 51 52 53 53 52 52 53 52 52 52 52 52 51 52 52 52 51 51 51 52 52 52 50 49 50 49 49 52 51 52 52 53 54
57 59 57 57 58 58 57 56 55 55 54 54 54 53 53 53 53 52 52 53 53 52 52 52 51 51 52 51 52 51 50 52 53 51 52 51 51 52 52 52 51 51 50 52 52 52 52 52 51 51 51 52 52 51 52 49 49 50 51 49 51 52 53
58 58 57 57 56 56 56 55 54 54 54 54 55 55 53 52 52 52 53 52 52 52 52 52 51 51 52 51 51 52 51 51 52 51 51 52 51 52 51 52 52 51 50 52 51 53 53 52 52 52 51 52 52 51 51 50 49 49 50 49 51 51 51
57 57 56 55 56 56 55 54 55 54 54 53 53 54 53 53 53 52 52 52 52 52 51 51 50 51 51 51 52 52 52 51 51 51 52 52 52 50 51 52 52 51 50 51 51 51 51 51 52 52 50 50 50 50 50 51 49 47 48 50 47 50 49
56 56 55 54 55 55 56 55 56 55 54 53 53 54 54 54 53 52 52 53 52 52 52 52 52 52 53 53 52 52 51 51 52 52 53 52 51 52 52 51 51 51 51 51 50 50 50 50 50 51 50 49 49 49 48 49 50 49 47 49 48 49 49
55 55 54 54 55 55 55 55 56 56 54 54 54 54 54 54 53 53 53 53 54 53 53 53 53 53 53 53 53 53 52 52 52 52 52 52 52 52 52 54 52 51 51 51 49 50 49 49 50 50 50 49 49 48 48 48 48 48 47 47 47 46 46
54 54 54 54 54 54 55 55 55 55 56 55 55 55 55 55 56 56 56 56 55 55 54 54 54 54 54 54 53 53 53 53 53 53 53 52 53 53 53 53 52 52 52 53 51 50 49 49 49 49 49 49 49 47 47 46 46 46 47 46 47 48 46
54 54 54 54 54 55 55 55 56 55 56 56 56 55 55 56 55 56 58 56 55 55 55 54 54 54 54 54 54 54 53 53 53 53 53 53 53 53 53 53 52 52 53 53 51 50 49 48 49 49 49 47 47 47 46 46 46 46 47 47 45 44 46
54 54 54 55 55 55 55 55 56 56 56 55 56 56 56 56 56 56 56 56 56 55 56 56 55 55 55 54 53 53 53 53 53 53 53 53 54 53 53 54 53 53 53 53 53 52 52 50 49 49 48 48 46 46 46 45 45 45 46 46 46 46 45
55 55 55 55 55 55 55 56 56 56 56 56 56 56 56 56 55 55 55 54 54 54 54 56 56 55 55 55 53 53 54 54 53 53 53 53 53 53 53 53 54 53 53 54 52 52 52 51 51 50 48 48 47 47 46 45 44 44 45 46 46 44 44
54 54 54 55 56 56 55 55 56 56 56 56 56 55 55 55 55 54 53 53 54 55 55 55 54 51 52 55 55 54 54 53 53 54 54 53 52 52 53 54 54 54 53 52 50 47 46 47 51 52 50 48 49 48 47 46 46 46 47 47 47 45 46
52 53 53 54 53 54 54 54 54 55 55 56 55 55 54 54 53 53 54 54 54 55 55 55 50 46 45 47 54 55 55 54 54 53 53 53 54 54 54 54 54 53 53 51 51 45 44 45 45 46 46 48 48 49 48 47 46 45 47 47 44 44 45
51 51 51 52 53 52 52 52 52 52 52 52 52 53 53 53 53 53 53 54 53 54 54 51 46 45 44 44 46 53 54 54 54 53 54 54 54 54 54 54 52 53 53 53 52 49 46 44 43 43 42 42 40 40 42 47 47 44 44 46 44 44 44
51 51 51 51 50 50 50 51 50 50 51 52 51 52 53 53 53 53 53 53 52 52 53 48 44 43 42 41 41 45 52 53 53 53 53 53 53 53 53 52 51 51 52 53 52 51 51 48 43 42 42 42 41 40 38 39 42 47 46 46 46 43 42
49 49 48 48 48 49 49 49 49 50 51 51 51 51 51 51 51 52 52 52 52 51 50 46 42 42 42 41 40 42 49 49 50 51 51 51 52 52 51 52 51 50 50 52 51 51 51 50 49 48 47 46 45 43 40 39 38 39 43 45 44 44 43
48 48 47 47 47 48 48 47 48 49 50 51 51 51 51 50 51 50 50 49 50 49 47 44 42 40 40 40 39 40 47 47 47 46 46 48 50 50 50 50 51 50 49 50 50 50 50 49 48 46 45 44 43 42 43 43 44 44 44 43 44 44 43
45 45 45 45 45 45 44 45 46 45 47 46 46 46 46 47 48 48 48 48 47 47 44 41 40 40 41 39 41 45 45 45 45 44 44 44 45 46 47 48 48 48 48 47 45 44 46 49 47 45 42 41 41 41 42 42 41 42 43 43 44 44 44
44 43 44 45 44 43 44 44 43 43 44 44 44 45 45 45 45 46 45 45 46 45 43 42 40 40 39 40 43 45 45 45 44 43 41 42 43 46 46 47 47 45 45 46 42 40 42 45 46 44 42 41 41 41 41 41 40 39 39 39 39 40 39
45 45 45 47 46 45 44 44 45 44 47 45 46 45 43 42 42 43 43 41 42 43 42 42 41 40 40 41 43 45 45 44 41 41 41 40 42 44 47 47 46 45 44 43 39 40 41 45 45 44 43 42 41 41 41 40 41 40 39 39 39 38 38
49 47 47 49 48 47 46 47 44 42 43 45 44 41 43 43 40 39 41 42 46 41 40 42 41 40 40 41 44 45 45 44 42 40 41 41 41 42 43 45 45 45 44 41 38 39 40 44 45 44 43 42 41 40 41 40 40 40 40 40 39 40 40
48 49 49 47 45 45 44 44 43 43 41 43 42 41 42 41 40 38 38 39 40 39 40 41 41 40 40 41 42 46 45 45 42 40 41 42 41 41 41 42 42 38 38 38 38 38 39 40 43 42 42 42 41 41 40 40 41 40 38 38 38 38 38
48 48 48 48 46 45 45 44 42 43 42 40 40 40 40 39 38 37 37 38 39 40 41 40 40 39 40 41 41 43 45 44 42 41 40 40 41 41 41 40 41 39 38 38 38 38 38 38 40 42 42 42 41 41 38 39 39 38 38 38 38 38 38
47 49 47 46 47 46 44 45 45 42 42 41 41 39 38 39 38 37 37 38 38 37 41 42 40 40 40 40 40 41 43 43 42 41 39 39 39 40 40 40 40 39 38 38 38 38 38 38 38 41 39 36 35 35 39 39 37 37 37 37 37 37 37
46 48 46 46 47 47 44 45 43 43 42 40 40 39 38 39 39 38 37 37 37 37 37 40 40 40 39 39 39 40 40 40 39 43 41 40 40 39 40 40 40 38 37 37 37 37 37 37 38 38 36 36 35 36 37 38 37 37 37 37 36 36 36
45 46 46 44 46 45 43 43 43 43 42 42 41 39 37 38 39 39 37 37 37 36 36 37 39 39 39 38 38 38 38 38 39 41 42 40 39 40 39 40 39 37 37 37 37 37 36 37 38 36 36 36 35 36 38 38 37 36 36 36 36 36 36

ECMWFFLT1_sfc_temp_021.txt.gz
Temp
70 66 66 66 66 67 67 67 68 68 68 70 69 70 70 71 71 70 68 68 68 69 70 70 69 70 70 71 70 70 70 69 68 67 65 66 66 63 65 66 65 67 68 67 70 68 65 60 61 67 67 67 67 67 69 69 69 68 67 69 71 71 70
68 67 68 68 67 67 66 66 67 68 68 67 69 69 69 70 70 70 69 70 70 69 70 69 68 69 69 68 68 69 69 69 69 69 68 67 68 65 64 65 67 68 67 68 67 69 67 63 63 63 62 66 66 67 67 69 70 69 69 70 72 72 70
67 67 68 66 66 67 67 65 67 68 68 68 67 68 68 70 69 70 70 70 71 70 70 69 67 67 67 67 68 69 69 68 69 69 68 69 70 68 69 68 66 66 67 67 68 68 69 69 64 64 64 63 61 63 67 68 69 70 71 70 70 72 71
66 66 65 65 66 66 67 66 67 67 68 68 68 67 67 68 68 69 68 68 68 68 68 68 68 70 69 67 67 67 67 67 68 67 66 66 67 66 67 69 69 68 67 66 67 68 68 65 65 64 66 68 64 61 64 67 69 72 72 71 70 70 70
67 67 66 65 66 66 66 66 66 67 67 67 67 68 67 67 67 67 67 67 68 67 67 68 68 69 68 67 67 67 66 66 67 67 67 65 66 67 67 69 69 70 70 70 70 70 69 68 67 65 65 67 68 68 68 67 71 70 71 71 72 71 70
68 68 68 66 66 67 67 66 67 67 67 67 67 67 66 66 67 67 67 67 67 67 67 67 67 67 67 68 67 66 67 67 68 68 67 66 67 68 67 68 70 71 69 69 70 70 69 70 68 65 66 69 64 65 68 69 67 71 71 70 72 71 71
66 67 67 66 65 67 68 68 68 68 68 67 67 67 66 67 67 67 66 66 66 66 66 66 66 66 67 70 68 67 66 66 67 66 66 65 66 66 68 68 69 69 68 68 69 69 68 68 67 65 63 65 66 66 68 69 70 69 68 70 71 71 70
66 66 66 65 64 65 66 67 67 68 68 67 67 66 65 66 65 66 66 66 65 65 65 65 65 66 66 68 68 65 66 66 66 66 66 65 65 66 66 67 66 67 68 69 70 70 71 69 68 67 65 61 61 64 64 67 67 66 66 68 70 70 69
65 65 63 64 64 66 66 67 66 66 67 66 66 66 65 66 65 66 66 65 65 65 65 65 66 67 66 67 66 66 64 66 65 65 65 65 64 64 65 66 67 67 67 69 70 69 70 69 69 68 69 67 63 59 63 62 64 63 67 67 68 68 69
63 64 64 64 64 65 65 65 66 66 66 67 66 66 65 66 66 66 67 65 65 65 65 65 65 65 65 66 66 65 65 66 66 66 66 66 64 65 66 66 67 67 67 67 68 68 67 68 69 69 71 70 69 64 61 60 61 62 64 67 66 66 68
64 64 65 64 65 65 64 64 64 65 67 67 67 66 66 66 66 66 66 66 65 65 65 65 66 65 65 66 65 65 65 66 65 65 66 66 65 66 66 66 67 67 67 68 67 67 68 68 69 69 69 70 71 67 65 62 59 63 62 64 66 65 67
64 64 64 64 64 64 63 63 64 67 66 67 67 66 66 67 66 66 66 66 66 65 65 65 65 66 66 66 66 65 65 67 66 65 65 65 65 66 65 65 66 66 66 66 66 67 67 68 68 69 69 70 69 68 67 65 61 61 64 61 63 66 65
65 65 64 64 64 65 65 64 65 64 65 66 67 67 68 67 67 66 66 66 66 66 66 65 66 66 66 66 66 67 65 66 67 66 66 66 67 66 66 66 66 66 67 68 67 67 67 67 68 69 68 68 67 67 67 66 63 59 62 63 63 64 64
64 65 64 64 65 65 65 65 65 66 65 65 66 67 68 68 68 67 67 67 67 66 65 64 65 66 66 66 66 65 66 67 67 67 66 65 66 67 68 67 66 65 67 67 67 67 68 67 67 67 68 68 67 67 67 65 63 60 60 62 63 63 63
65 66 65 64 64 64 64 64 64 65 65 65 66 66 67 66 66 67 67 67 67 67 66 66 65 66 66 65 64 64 65 67 67 66 66 67 66 66 66 67 67 66 67 68 66 70 69 68 69 69 68 68 67 65 66 66 64 62 58 61 61 64 63
66 65 65 65 63 64 64 63 64 64 64 64 64 65 65 66 66 68 68 67 68 67 67 66 65 66 65 65 66 65 65 66 66 65 66 66 68 67 66 66 66 65 64 65 65 67 66 68 70 69 66 67 66 65 67 67 64 62 60 60 61 62 61
65 65 65 65 64 64 64 64 65 65 65 65 65 65 66 67 67 67 67 67 67 67 67 66 66 67 66 66 66 65 65 64 65 66 67 67 68 67 67 66 65 65 65 65 65 65 66 66 66 66 65 64 64 63 63 64 65 63 62 60 59 64 62
65 65 65 65 65 65 65 65 65 66 65 66 66 66 66 67 67 68 66 68 68 67 67 67 67 66 66 66 66 65 66 65 64 65 65 66 64 67 66 66 67 66 65 65 64 65 65 64 67 65 65 65 65 63 63 64 64 65 63 61 59 60 61
65 65 65 65 65 65 66 66 66 66 67 66 65 66 66 67 68 68 69 68 68 67 67 67 67 67 67 66 66 66 66 66 66 66 65 65 65 65 64 66 66 66 65 65 64 64 64 64 65 65 65 66 66 64 62 62 63 62 63 62 61 59 59
65 66 65 65 65 66 66 66 66 65 66 66 66 66 67 68 68 68 68 67 67 66 66 66 66 66 67 67 67 66 65 65 65 65 65 65 64 64 63 63 63 63 63 64 64 63 63 63 63 64 64 62 65 63 62 63 63 62 61 60 60 60 60
65 66 66 66 66 67 67 66 67 66 67 66 67 67 67 66 65 66 66 66 66 66 66 66 67 67 67 66 66 65 65 65 65 65 64 65 64 64 63 63 63 61 60 61 63 65 64 63 62 62 63 63 62 62 62 61 61 62 62 61 61 60 60
65 66 65 65 65 66 66 66 67 67 66 66 65 65 64 63 62 63 63 62 62 62 61 61 62 64 66 66 65 64 65 65 65 65 65 65 64 64 65 64 64 64 63 59 57 58 59 58 63 62 61 61 61 61 61 62 61 61 61 61 61 61 61
65 65 65 65 65 65 65 65 65 66 66 66 63 62 62 60 60 62 61 60 60 59 59 60 57 53 55 64 65 65 64 65 65 65 65 65 65 64 64 65 64 58 55 54 51 48 47 49 53 62 61 60 61 61 61 61 61 61 61 60 59 59 58
64 65 65 65 65 65 65 64 63 64 64 64 63 61 61 61 61 61 62 62 61 60 59 59 50 47 45 46 60 65 63 64 65 64 64 64 65 66 65 66 66 60 56 53 53 45 45 44 45 49 50 52 55 62 61 59 60 59 59 58 57 57 57
63 63 63 64 63 64 63 63 62 63 63 63 63 63 62 63 62 61 60 60 59 58 57 53 47 46 44 44 47 60 63 63 63 64 65 65 66 66 66 65 65 64 63 63 62 57 50 44 43 42 42 41 40 40 44 58 60 58 57 57 56 57 57
63 63 63 63 63 64 63 63 64 63 62 63 63 62 63 62 61 60 59 59 59 59 60 48 44 44 43 42 41 48 62 63 63 63 64 64 64 64 65 64 64 62 63 55 59 62 59 53 43 41 41 42 41 40 39 39 43 56 59 57 56 56 57
63 62 62 62 62 63 63 63 63 64 63 62 62 62 62 61 62 61 61 61 60 60 61 48 43 42 42 41 40 42 59 61 63 63 63 63 63 63 63 63 64 64 62 61 62 61 59 57 54 55 56 57 56 48 42 40 40 42 50 57 57 57 56
62 63 62 61 60 60 60 62 62 62 63 62 62 62 62 62 62 62 62 62 61 60 57 42 42 42 41 39 39 42 59 59 60 61 59 59 60 61 61 61 62 62 61 61 61 59 59 59 58 57 57 56 56 55 55 56 56 56 56 56 57 55 54
61 61 61 61 60 60 59 59 60 61 61 63 63 63 62 63 62 61 61 60 60 58 55 40 41 40 39 38 39 57 60 60 59 59 58 58 59 60 61 61 61 60 59 59 49 46 53 60 59 57 55 54 54 53 51 44 40 42 49 53 55 54 55
61 61 60 60 61 61 59 58 59 61 61 61 61 61 61 60 61 60 59 59 59 58 56 44 40 39 39 39 49 61 59 60 58 56 56 57 59 59 59 60 61 60 59 58 45 43 45 51 59 57 55 53 52 52 51 49 42 39 38 38 37 37 37
57 56 57 59 61 61 61 61 61 60 61 61 61 61 57 54 55 57 56 57 59 57 56 45 39 40 40 42 52 60 60 59 56 56 55 55 57 57 53 48 55 59 57 54 39 41 43 54 58 56 54 52 52 52 51 51 51 48 38 38 37 37 37
60 59 57 57 58 60 61 61 61 59 61 62 59 58 58 59 58 58 58 58 52 59 59 49 39 40 40 40 53 61 61 60 57 56 56 55 56 57 55 49 45 50 52 46 38 41 44 53 58 57 55 55 53 52 52 52 51 51 51 51 51 50 47
59 59 59 58 57 58 59 60 59 59 59 60 58 58 58 59 57 56 55 57 56 58 58 56 48 38 40 41 46 62 62 60 58 56 58 57 56 56 55 54 47 38 38 38 38 39 41 46 56 57 57 56 54 50 52 51 50 51 50 50 50 50 49
60 58 58 59 59 57 56 59 58 58 58 58 57 56 54 54 54 54 54 55 57 55 55 56 48 39 40 41 42 50 62 61 59 58 58 57 57 56 55 54 52 40 38 38 38 38 39 40 45 55 55 54 51 48 48 51 46 41 50 49 49 49 50
58 57 56 55 55 58 57 57 55 56 57 57 55 54 54 56 55 54 54 54 54 54 51 47 55 41 39 40 41 44 59 59 59 58 57 57 57 56 55 54 52 42 37 38 38 38 38 40 41 52 46 37 35 37 49 50 51 51 50 50 50 49 50
58 58 57 55 54 55 55 55 53 53 53 53 51 51 52 52 53 52 52 52 52 52 52 51 44 49 39 40 39 42 45 50 44 58 58 56 55 54 54 51 47 38 38 37 38 38 39 39 42 44 35 36 36 36 42 51 49 49 49 49 48 48 48
57 58 59 58 55 55 53 54 53 55 56 56 54 52 52 52 53 51 49 48 49 51 52 54 44 42 44 38 39 39 40 41 44 57 58 56 55 53 52 51 46 37 37 37 37 38 37 40 43 36 36 35 37 41 50 49 49 48 46 46 46 47 47

ECMWFFLT1_sfc_temp_024.txt.gz
Temp
76 74 74 75 76 77 76 76 77 77 77 78 77 78 78 78 77 76 76 76 76 77 78 77 76 76 76 76 75 75 74 72 69 68 68 72 70 70 72 72 71 73 74 74 75 70 69 65 66 72 73 73 73 73 75 75 74 74 74 76 77 77 77
76 75 76 76 76 76 74 75 76 78 77 76 78 77 77 78 77 77 76 76 76 76 78 77 76 76 74 74 73 72 71 71 71 70 68 70 72 71 71 71 73 74 74 74 74 75 71 67 66 65 64 70 72 72 73 75 75 75 75 76 78 79 76
75 75 76 74 74 75 74 74 75 75 77 76 76 77 77 78 77 77 77 75 75 76 76 76 75 74 74 74 73 73 72 71 72 72 72 72 74 73 74 73 72 73 73 72 72 73 74 73 67 67 66 66 66 69 73 73 75 76 77 76 76 78 77
74 74 73 72 74 74 73 74 75 75 76 76 76 75 75 76 76 77 75 75 75 75 76 76 75 76 74 74 74 73 73 72 73 73 72 72 72 71 72 74 74 74 72 71 71 73 72 70 69 68 71 73 70 66 70 74 76 78 79 77 76 76 76
74 74 73 72 73 73 73 73 75 75 75 75 75 75 74 75 76 75 75 75 75 75 75 76 76 76 76 75 74 74 74 73 73 73 72 71 71 73 72 73 74 75 75 74 75 74 73 72 71 70 72 73 74 73 74 73 77 77 77 78 79 77 76
75 75 74 73 74 74 74 74 74 74 74 74 74 74 74 74 75 74 75 75 74 74 74 76 75 75 76 76 75 74 73 73 73 73 73 72 73 72 72 71 75 76 75 76 76 75 75 75 72 70 74 76 70 70 74 75 74 78 78 78 78 78 78
75 75 75 74 74 75 75 74 74 74 74 73 74 73 74 75 75 74 74 73 74 74 74 74 74 75 76 77 75 73 73 74 74 73 73 72 73 74 75 75 75 76 76 76 76 76 74 74 73 72 72 73 72 73 75 76 76 74 75 78 78 78 76
76 76 76 76 75 75 75 75 75 75 75 75 74 74 74 73 73 74 73 73 73 73 73 73 74 74 75 77 75 73 74 75 74 74 73 73 73 74 74 75 74 75 76 78 78 77 79 77 76 74 73 68 68 71 71 75 75 73 72 75 78 77 75
76 76 76 75 75 74 74 75 74 74 75 75 74 74 73 74 73 73 73 73 73 73 73 74 74 75 74 74 74 73 73 75 73 72 73 73 72 72 73 74 75 75 75 77 78 77 78 77 77 76 75 73 69 65 69 69 71 70 75 73 74 76 76
73 74 74 73 73 74 75 75 74 74 74 74 73 74 73 73 73 73 73 72 72 73 73 73 73 74 73 74 73 72 72 73 73 73 73 73 72 73 73 73 74 74 74 75 76 75 75 76 77 77 78 75 74 70 66 66 67 68 71 75 73 73 76
73 73 73 73 73 73 74 75 74 73 73 74 74 73 73 73 73 73 73 72 72 73 73 73 74 73 73 74 73 73 73 73 72 73 73 73 72 73 73 74 75 75 74 75 74 74 75 75 76 77 77 77 77 73 71 68 65 70 69 71 74 73 74
73 73 73 73 72 73 73 74 73 73 74 74 74 73 73 74 74 73 73 73 73 73 73 73 73 73 74 73 72 72 72 73 73 72 72 72 72 72 72 71 73 73 73 73 73 74 74 76 76 77 77 77 75 74 73 71 65 67 72 67 69 74 73
75 74 73 72 72 73 74 73 73 73 73 75 74 74 75 75 74 74 74 74 73 74 73 73 74 73 73 73 73 74 73 73 73 72 73 73 74 73 72 72 72 73 73 75 74 74 74 75 75 76 76 75 74 74 74 72 68 65 70 70 70 71 72
73 74 73 73 73 73 73 73 73 74 75 74 75 74 75 75 76 75 75 75 75 73 73 72 73 73 73 72 73 73 73 74 74 73 73 72 74 73 74 73 73 72 74 74 74 74 75 75 75 75 75 75 74 73 73 71 68 65 67 70 70 71 71
74 74 72 72 73 73 73 72 73 73 73 74 75 75 76 75 75 75 75 76 75 75 74 74 74 74 73 71 71 72 72 74 73 73 72 73 73 73 72 73 73 72 74 74 73 77 76 76 77 77 75 75 74 72 74 73 70 68 64 67 69 72 70
74 72 71 71 72 73 72 72 73 72 72 73 74 75 75 75 75 76 75 75 75 75 75 74 73 73 72 72 72 71 72 72 72 71 71 72 74 73 72 72 72 72 72 71 72 74 74 75 78 76 74 75 73 73 74 74 71 68 66 67 69 70 69
72 72 71 72 71 72 73 72 73 73 73 73 73 73 74 75 75 75 74 75 75 75 74 73 74 74 74 73 73 72 72 72 72 72 72 73 74 73 72 71 71 71 71 70 72 72 73 73 74 74 72 72 72 71 71 71 72 70 69 67 68 73 71
71 71 71 73 71 72 72 73 73 74 73 73 73 73 73 75 75 75 73 75 75 75 74 75 74 74 73 73 73 73 73 73 72 72 72 72 69 72 72 71 72 72 71 70 70 71 73 70 75 73 73 73 73 71 70 71 72 72 70 67 66 69 70
71 71 71 72 72 72 72 73 73 73 75 74 74 73 73 74 75 75 75 76 76 76 76 75 75 75 75 74 73 73 73 73 73 73 72 72 73 72 71 72 72 72 71 70 70 70 71 70 72 71 72 73 74 71 69 69 70 70 70 69 68 66 67
72 71 72 72 72 73 73 73 74 74 75 74 74 73 74 74 74 75 76 76 75 75 75 75 75 74 75 74 73 73 72 72 72 72 73 73 73 73 72 72 71 71 70 69 66 66 67 69 69 69 70 69 72 70 69 70 71 69 69 68 68 68 68
71 71 72 73 73 73 73 73 74 75 75 74 74 75 74 74 75 76 76 76 75 75 74 73 74 74 75 74 73 72 72 71 72 72 71 73 73 72 72 72 72 71 70 70 68 69 67 65 69 69 70 70 70 68 69 69 69 69 69 68 68 68 69
70 71 72 73 72 72 72 73 73 74 74 74 74 76 76 76 75 75 75 74 74 73 72 71 72 71 71 71 72 72 72 72 72 72 72 72 72 72 73 72 73 72 71 65 60 61 59 59 69 68 68 69 68 67 67 69 69 69 70 68 68 68 68
70 71 71 72 72 73 73 73 73 73 73 75 75 75 76 76 76 74 73 72 71 68 69 70 63 55 59 69 70 70 70 70 71 71 71 71 71 72 71 72 72 64 61 56 55 51 50 50 53 62 68 66 66 67 67 67 68 69 67 67 67 65 65
71 70 71 71 71 72 73 72 72 72 73 73 74 74 74 74 73 72 72 71 68 67 66 67 49 46 47 51 65 69 69 69 69 69 69 69 69 69 70 73 73 65 60 57 60 48 48 47 48 48 49 48 52 63 67 65 66 66 67 66 66 65 65
70 70 70 70 71 72 72 72 71 71 71 71 71 71 70 72 72 72 71 72 69 67 68 54 45 45 44 44 52 67 69 68 67 68 69 70 70 69 67 67 71 70 69 69 69 64 53 45 46 45 44 45 42 39 43 58 65 66 64 64 64 65 63
70 70 70 70 70 70 70 70 70 69 69 70 69 69 69 69 69 70 70 70 69 68 67 48 45 43 43 43 44 55 67 65 65 65 65 66 65 63 66 70 70 69 70 58 64 68 66 57 44 41 42 42 42 41 41 39 43 58 66 64 63 62 64
71 71 71 70 70 70 69 69 68 69 69 69 68 68 68 67 68 69 69 69 69 69 69 50 44 44 43 41 41 50 65 62 64 66 66 65 64 67 68 68 69 69 68 65 67 67 66 62 59 58 59 62 61 51 44 43 44 44 54 63 63 61 62
71 70 71 71 70 70 69 68 68 69 69 68 68 67 68 68 68 69 69 69 69 67 67 44 43 43 41 40 39 50 66 64 64 64 66 69 69 69 68 67 67 69 67 67 67 64 64 62 61 61 63 63 63 63 63 63 62 63 63 63 63 62 61
70 71 71 71 70 69 69 69 69 68 68 70 70 69 69 69 68 68 68 68 68 66 65 41 42 41 40 40 42 61 63 62 63 64 65 66 68 69 69 68 68 67 67 66 53 49 56 64 64 64 62 63 63 60 56 45 41 43 52 59 60 60 60
69 69 70 70 70 69 69 69 69 70 69 68 68 67 67 68 69 69 68 68 66 66 64 46 40 40 40 38 49 67 65 63 63 64 66 67 68 67 67 68 69 67 65 64 49 46 48 54 65 64 63 62 61 61 57 53 43 39 39 39 37 37 36
69 68 69 69 69 69 70 71 71 71 69 69 68 68 68 67 68 68 67 66 67 66 64 49 38 40 39 39 52 68 68 67 66 66 66 66 67 65 58 45 57 67 63 60 42 46 45 58 65 64 63 61 60 60 58 57 56 51 37 39 39 39 40
69 68 68 69 69 69 69 69 71 71 70 70 69 70 69 68 67 67 66 66 59 63 64 51 38 40 40 40 55 71 70 69 66 66 66 65 65 64 61 54 44 54 58 50 40 44 43 53 66 64 63 62 60 60 59 59 58 57 56 56 54 51 49
68 68 69 68 68 68 70 70 69 69 70 71 70 69 68 69 67 67 66 67 64 65 65 61 50 38 42 42 46 67 71 69 66 65 66 66 64 63 62 60 51 39 38 38 39 39 40 42 62 64 63 63 62 59 60 59 57 58 59 57 58 58 57
66 67 68 67 68 68 68 69 69 69 69 70 69 68 67 68 66 65 65 65 65 66 65 62 52 39 41 43 43 49 72 69 68 68 66 66 65 63 64 62 58 40 38 39 39 39 41 40 46 63 61 60 56 53 53 59 52 43 56 57 57 57 58
65 65 66 67 66 67 68 69 68 68 69 69 66 65 66 67 67 66 65 66 66 64 60 55 59 41 40 42 44 40 64 69 68 68 66 66 66 64 63 61 58 43 37 39 39 40 40 42 44 58 49 39 38 41 55 58 59 59 58 58 58 58 58
64 65 65 66 66 65 67 68 67 67 68 67 66 66 65 66 66 65 66 66 65 64 63 59 49 52 39 42 41 45 48 59 50 66 66 65 64 63 62 58 50 38 38 38 39 39 41 41 45 47 37 38 40 37 43 59 58 56 57 57 56 56 56
64 64 65 65 65 66 65 66 67 67 67 67 66 66 66 65 66 65 64 62 64 65 64 62 49 46 47 39 41 42 45 47 49 65 67 66 65 62 60 56 48 37 38 38 37 38 39 42 46 36 37 36 37 38 54 57 56 56 53 53 54 55 55

ECMWFFLT1_sfc_temp_027.txt.gz
Temp
76 75 77 77 78 79 78 78 79 79 80 80 79 80 80 79 79 78 78 78 79 80 80 78 76 76 77 78 77 77 74 75 74 72 71 71 68 70 73 68 66 70 71 71 68 63 63 62 66 72 73 73 74 75 76 76 75 75 75 77 78 78 77
77 77 78 78 78 77 76 78 78 79 79 79 80 79 79 79 79 78 78 78 77 78 81 78 77 78 76 75 74 74 74 74 74 73 72 73 73 69 68 69 68 70 68 70 66 63 59 63 64 66 66 70 71 73 74 75 76 76 76 77 79 79 76
77 78 78 76 76 76 76 76 77 77 78 77 77 79 79 80 78 79 78 77 77 78 78 77 76 76 75 75 74 74 73 72 73 72 71 71 70 68 71 67 68 66 70 66 63 62 62 70 65 66 66 66 65 69 73 74 76 77 78 77 77 79 77
76 76 75 74 76 75 75 75 76 77 78 77 77 76 77 78 77 78 77 77 77 77 78 78 76 77 75 75 75 74 73 72 73 70 68 69 67 66 69 71 68 69 67 66 65 66 63 67 67 67 70 73 69 67 71 75 77 78 78 77 77 77 76
76 75 74 74 75 75 75 75 76 77 76 76 76 76 76 77 77 76 76 76 76 76 76 77 77 78 77 76 75 74 74 73 74 72 70 66 70 71 69 68 68 66 68 66 70 67 62 67 71 70 71 73 73 73 75 75 79 78 79 79 79 77 77
77 76 76 75 76 76 76 76 75 75 76 75 75 75 75 76 76 76 76 75 75 75 76 77 77 77 77 76 75 74 74 74 73 72 71 72 72 71 71 71 72 75 74 73 70 75 74 74 73 71 74 76 70 71 75 76 75 79 80 79 79 79 79
77 76 76 76 76 77 77 76 76 76 76 75 75 74 75 76 76 76 75 75 76 76 76 75 76 77 77 77 75 74 74 74 73 73 72 70 72 73 75 74 75 74 75 76 75 75 74 73 73 72 72 72 73 73 76 77 77 75 76 79 80 79 78
77 77 77 77 77 77 77 76 77 77 76 76 75 75 75 75 75 76 76 75 75 74 75 75 76 76 76 77 76 74 75 75 74 73 73 73 73 74 74 75 75 76 77 79 79 78 79 76 75 75 74 68 70 73 72 76 76 74 74 77 79 78 76
78 78 78 77 77 77 77 77 76 77 77 76 75 75 75 75 74 74 75 74 75 75 75 76 76 76 76 75 75 74 74 76 74 74 74 74 73 73 75 76 77 76 78 79 79 78 80 79 78 77 76 74 70 67 71 70 72 72 77 74 76 78 77
77 77 76 76 76 76 76 76 76 76 76 75 74 75 74 75 75 75 74 74 74 74 74 75 75 75 76 75 74 74 73 75 74 74 74 74 74 74 74 75 75 76 76 76 77 77 77 78 79 79 79 76 75 70 67 66 68 68 73 77 73 74 77
77 77 76 75 76 76 76 76 76 75 75 75 75 75 75 74 74 75 74 74 74 74 75 75 76 76 75 75 75 74 74 74 74 74 74 75 74 75 75 76 76 75 76 75 75 76 76 77 77 78 78 79 77 72 70 68 66 71 70 73 76 74 76
76 76 76 76 76 76 75 75 75 75 75 75 75 74 74 75 74 74 74 74 74 74 74 74 75 75 75 74 74 74 74 75 74 73 74 74 74 74 73 73 74 74 74 74 75 76 77 77 78 79 78 77 75 74 74 71 65 68 73 68 72 76 75
76 75 75 75 75 76 76 75 75 74 74 76 76 76 76 75 75 74 75 75 74 75 75 75 75 75 75 74 75 75 74 74 74 74 74 75 76 74 74 74 74 74 75 76 75 75 75 76 77 77 77 76 75 75 74 72 68 65 71 71 71 73 74
74 76 75 75 75 75 76 76 75 75 76 75 76 76 76 76 77 76 76 76 76 75 74 74 75 75 75 74 75 74 75 76 75 75 74 74 76 76 76 74 74 74 76 75 75 76 77 77 77 76 76 76 75 75 74 71 68 66 68 72 72 73 74
75 76 75 75 75 75 76 75 75 76 75 76 76 77 77 77 77 77 77 77 76 76 76 76 75 75 75 73 73 74 75 76 75 74 74 75 74 75 74 74 74 74 76 76 75 79 78 78 78 79 77 76 75 74 75 74 70 68 65 69 71 74 72
75 74 74 74 75 75 75 75 76 75 75 76 77 77 77 77 77 78 77 76 77 76 76 76 75 75 73 73 74 74 74 74 73 72 73 73 75 75 74 73 73 73 74 73 74 75 76 77 81 78 75 76 74 74 76 76 73 69 67 68 71 71 71
74 74 73 74 74 75 75 75 76 75 76 76 77 77 77 78 77 77 76 77 77 76 76 75 75 76 75 75 74 73 74 74 74 74 74 75 76 74 73 72 72 73 73 72 74 74 75 75 75 75 74 74 73 72 72 73 73 72 71 68 70 74 73
73 73 73 74 73 74 75 75 76 76 75 75 76 76 77 78 77 77 75 77 76 76 76 76 76 76 75 75 75 74 74 74 74 74 74 75 72 75 73 73 73 73 73 72 71 73 74 73 77 74 75 75 74 72 72 72 73 73 72 69 69 71 71
72 73 73 73 71 72 74 75 75 76 77 75 75 75 76 77 77 78 78 78 78 77 77 77 76 76 76 75 75 75 74 74 74 75 74 74 74 74 73 74 73 73 73 71 71 72 72 72 73 73 74 74 76 73 72 71 71 72 70 71 69 69 69
72 73 73 73 74 74 73 74 75 76 76 76 75 75 76 76 76 78 78 78 78 77 77 77 76 76 76 76 75 74 74 73 74 74 74 75 75 74 74 74 73 73 72 72 71 70 70 70 70 70 72 71 74 72 70 72 73 71 70 68 70 70 69
73 72 73 73 73 73 73 74 75 76 76 75 75 76 75 75 76 77 78 78 78 78 77 77 77 77 77 76 74 74 73 72 73 73 73 74 74 74 74 74 74 74 73 73 71 70 70 69 69 69 71 71 71 71 69 71 70 69 69 69 69 69 70
73 73 73 73 71 72 72 74 74 75 75 75 74 75 76 76 75 76 77 77 78 77 76 75 77 75 75 75 75 73 73 73 73 72 72 73 74 74 74 74 74 74 73 68 63 60 59 62 70 69 70 71 70 69 69 69 70 69 68 68 69 69 68
72 72 72 71 69 70 73 74 73 74 74 75 75 75 75 76 76 75 75 76 76 74 74 76 69 62 65 74 74 73 72 72 73 73 72 71 70 72 73 72 72 67 62 57 56 50 49 52 52 60 67 71 68 67 67 67 67 68 67 67 67 68 67
73 72 71 71 71 71 69 71 72 74 74 74 74 74 74 75 75 75 76 75 74 74 73 73 49 51 51 58 70 72 72 71 71 71 71 71 71 68 66 67 65 60 60 59 60 49 50 50 50 47 44 46 54 64 67 66 67 67 65 65 67 67 66
73 72 72 72 72 73 72 72 72 71 71 70 69 69 68 72 74 74 73 74 72 72 73 54 46 48 51 52 57 69 71 71 71 71 71 71 69 69 63 62 59 62 62 63 65 63 56 47 47 44 42 43 41 41 45 59 63 65 66 66 65 65 64
73 72 72 72 72 72 72 72 71 70 68 70 67 66 69 66 67 70 71 71 70 70 73 48 47 45 47 47 47 55 72 71 69 70 70 69 69 68 65 62 64 62 64 58 62 65 64 57 45 41 42 42 43 43 42 41 45 59 65 65 64 64 66
74 74 73 72 72 72 71 71 71 70 70 66 67 65 64 66 68 67 67 70 69 68 67 49 46 44 45 44 44 49 71 70 69 70 70 69 67 66 64 64 62 61 60 60 62 65 65 60 58 57 59 63 62 51 45 46 46 46 57 64 64 63 64
74 73 74 73 72 72 70 71 70 70 70 69 66 66 65 62 66 66 67 65 62 59 61 44 45 44 44 43 42 45 68 68 68 68 68 68 66 64 64 63 61 59 60 61 65 65 66 62 62 61 62 63 64 62 64 65 64 65 65 65 66 65 64
72 73 73 73 73 72 72 71 70 69 70 70 70 69 68 66 63 62 64 64 62 60 61 45 43 44 42 42 40 58 67 68 67 66 65 67 67 66 66 65 63 63 63 65 56 52 58 65 64 63 63 64 64 63 56 46 41 44 53 59 60 60 59
71 72 72 72 72 72 72 72 71 72 70 70 69 68 67 66 65 64 64 63 62 62 63 49 43 43 42 40 46 64 67 67 66 63 64 65 64 63 59 59 63 68 67 66 51 48 51 55 65 64 64 63 63 62 59 55 43 40 40 40 38 37 38
71 70 71 71 71 71 72 72 73 73 71 70 70 70 70 70 70 70 68 64 63 60 61 50 41 42 41 40 50 65 67 65 65 64 63 65 66 61 55 46 55 67 65 60 43 48 46 55 66 65 65 63 61 61 59 58 58 53 40 42 41 40 41
70 70 70 70 70 70 70 71 72 73 72 72 70 72 72 71 70 70 69 66 60 59 62 51 40 41 40 40 50 64 66 65 62 62 64 64 65 64 62 54 47 56 59 51 41 43 40 52 66 65 66 64 62 61 60 60 59 58 56 56 55 52 51
69 69 69 69 70 69 70 71 71 71 71 73 73 73 72 71 70 69 69 67 64 63 61 58 48 40 42 41 44 62 65 63 60 61 62 64 64 64 63 60 51 41 41 39 40 40 40 41 62 66 65 64 64 63 63 62 60 61 61 60 61 60 59
67 68 68 68 69 69 70 70 70 70 70 71 71 71 71 70 69 69 70 69 68 67 62 60 53 40 41 42 42 46 64 60 62 62 65 65 65 64 64 62 58 41 39 39 40 40 42 43 49 63 60 57 55 53 56 61 54 49 58 59 59 58 59
67 66 67 67 66 67 69 70 70 70 71 70 69 69 69 69 68 68 69 68 67 66 63 57 58 41 40 41 41 39 57 64 66 66 66 67 67 66 64 61 57 44 38 40 40 40 41 44 46 57 50 41 38 41 58 61 61 59 59 60 60 60 61
64 66 66 66 66 66 67 68 68 69 68 68 68 68 68 68 68 65 65 67 66 65 66 60 50 51 41 41 41 43 44 61 51 68 68 67 67 65 63 57 49 39 39 39 40 41 42 43 46 47 38 41 40 36 46 61 61 60 59 60 59 58 58
65 65 65 65 65 65 66 67 67 68 68 68 67 67 68 68 67 65 62 65 64 66 64 64 51 48 47 39 42 44 46 47 49 66 70 69 67 63 59 56 48 39 39 39 39 40 40 44 47 38 39 38 38 42 56 59 59 59 56 56 56 56 57

ECMWFFLT1_sfc_temp_030.txt.gz
Temp
71 70 72 72 73 73 72 73 73 73 76 75 75 76 75 74 75 74 75 73 73 74 73 71 70 71 72 73 71 70 70 68 67 64 62 63 63 63 65 65 65 66 66 66 66 62 60 57 59 66 67 66 67 68 70 70 69 68 68 69 70 69 68
71 72 72 72 71 72 72 73 73 74 73 74 75 74 75 75 73 73 73 73 72 73 74 73 71 73 72 71 69 69 69 68 67 66 65 64 63 62 62 62 64 65 64 65 65 63 60 59 58 59 61 65 66 67 68 68 69 68 69 70 71 70 67
71 71 71 70 70 72 72 71 71 71 71 71 72 74 74 74 74 74 73 73 72 72 72 72 71 71 71 70 70 69 69 67 68 67 66 64 65 64 63 62 60 62 60 60 61 61 61 62 58 60 60 61 60 63 67 66 68 68 70 68 69 70 68
70 70 69 69 70 71 70 71 71 71 72 71 72 73 73 73 72 72 72 72 72 72 72 73 71 71 70 69 69 70 69 68 67 67 66 66 64 64 64 62 61 61 59 58 60 61 60 59 61 61 63 66 63 60 63 67 69 71 71 68 68 68 67
71 70 69 68 70 70 70 70 71 71 70 71 71 70 70 71 71 71 71 71 71 71 71 71 71 72 71 71 69 69 69 67 68 67 66 65 65 65 64 64 63 62 62 62 61 61 61 61 63 61 63 66 67 66 70 65 69 69 70 70 70 69 68
71 71 71 70 71 70 71 70 70 69 70 70 70 69 71 71 71 70 70 69 69 70 70 72 71 71 70 70 70 69 69 68 66 67 65 66 66 65 64 65 64 64 63 64 63 62 62 62 64 63 67 67 61 62 66 67 65 70 70 69 71 69 70
70 71 71 71 72 71 72 71 71 70 70 69 69 69 71 71 70 70 70 70 70 70 70 70 70 71 71 72 70 69 69 68 68 67 66 67 67 67 68 66 67 66 65 65 65 63 62 62 63 64 63 64 64 65 67 68 69 67 67 70 70 70 68
71 71 71 73 72 72 72 72 71 72 70 70 69 69 70 70 70 70 70 69 69 69 70 71 72 70 69 70 70 68 69 69 68 67 67 68 68 69 68 68 68 67 67 67 67 66 67 66 67 66 64 60 59 61 62 67 67 67 66 68 71 69 67
72 72 71 72 71 72 71 71 71 71 70 69 69 69 70 70 69 69 69 69 69 70 70 71 70 69 68 68 68 68 68 72 68 68 67 67 67 68 67 67 67 67 67 69 70 67 69 69 68 68 65 62 58 57 60 59 62 64 70 66 68 69 68
71 71 70 71 71 71 71 71 71 70 69 69 69 70 69 69 69 68 68 68 68 69 68 69 69 69 68 68 68 67 66 67 67 67 66 66 66 67 66 67 66 66 66 67 68 67 68 68 68 66 69 64 63 59 56 55 57 58 65 69 64 65 69
70 71 71 70 71 71 71 71 70 70 69 69 70 70 68 68 68 69 67 67 67 69 69 69 69 69 68 67 67 67 67 66 66 66 66 66 66 66 67 68 67 66 67 66 67 66 67 67 66 68 66 66 65 61 59 56 56 59 60 64 66 65 67
69 71 71 70 70 70 69 70 70 69 69 69 69 68 68 68 67 67 67 67 67 67 68 68 69 67 67 66 66 66 67 66 65 65 66 66 67 67 66 66 66 65 66 66 66 67 67 67 68 67 65 66 65 64 63 61 55 58 62 58 62 68 66
70 71 70 69 70 70 70 70 70 69 69 70 68 69 69 69 68 67 68 67 67 67 68 69 67 68 67 66 66 67 66 67 67 66 67 68 71 68 66 66 65 66 66 67 67 67 66 67 67 66 67 66 65 65 64 61 58 56 60 60 62 66 68
69 70 70 71 70 70 69 69 69 69 70 69 69 69 69 69 69 68 69 68 68 67 67 68 68 68 68 66 66 66 67 67 67 66 66 66 69 68 68 67 66 67 67 65 66 67 68 68 67 68 68 65 65 65 64 61 58 57 60 62 62 64 65
70 70 70 70 70 70 69 69 69 69 69 69 70 70 70 69 69 70 69 70 68 68 68 68 68 68 67 66 67 70 68 67 67 67 66 66 66 69 66 66 67 66 68 68 65 72 71 70 71 69 68 67 65 65 67 63 60 57 55 61 61 65 63
69 70 70 70 70 70 69 69 70 69 69 69 70 70 70 69 70 70 70 69 69 68 68 68 68 67 66 67 68 68 67 66 65 65 65 66 68 67 66 65 64 65 68 65 65 65 68 69 72 70 67 67 65 64 66 66 62 59 58 59 61 62 61
68 68 69 69 69 69 70 69 70 70 71 70 71 70 70 70 70 69 69 69 69 69 69 68 68 68 69 68 68 67 66 66 67 67 66 67 68 66 65 64 64 65 65 64 64 64 65 66 66 67 67 65 64 65 64 63 64 60 61 59 61 65 64
66 67 68 68 69 70 70 70 70 71 70 70 71 70 70 71 70 70 69 70 70 69 69 69 68 68 68 68 68 67 67 67 68 68 68 67 67 66 65 64 65 65 65 63 63 63 65 64 69 66 65 66 65 65 64 63 63 63 61 59 59 62 63
67 67 68 69 69 70 70 70 70 70 71 70 71 72 70 70 71 71 71 71 70 70 70 69 69 69 69 68 67 68 67 67 69 68 68 67 67 66 65 65 65 65 66 63 63 63 64 66 66 65 66 67 67 64 62 64 62 61 61 61 60 59 61
68 68 68 68 69 70 70 70 71 71 71 71 70 70 71 71 71 71 71 71 71 70 70 70 69 68 69 69 68 68 66 67 68 68 67 68 68 66 67 67 65 65 66 66 64 63 62 62 63 61 63 63 67 62 62 63 63 63 61 60 60 60 59
69 69 70 70 70 69 69 69 70 71 71 70 69 69 69 70 71 71 71 71 71 69 69 69 70 69 69 68 67 67 68 66 66 67 66 67 66 65 67 67 66 66 65 66 64 63 63 62 61 61 62 63 63 62 61 61 60 60 60 61 60 59 61
67 69 69 69 69 69 69 69 69 69 70 70 70 70 70 70 70 70 70 71 72 70 70 69 71 68 68 68 67 66 66 67 65 65 65 66 66 66 67 65 62 61 63 62 56 56 54 57 62 60 61 62 61 60 61 60 61 61 60 59 57 60 59
68 67 69 68 67 68 68 68 69 69 69 70 69 69 70 70 70 69 69 70 70 69 69 71 68 62 65 67 66 68 67 65 66 65 65 65 65 66 65 61 60 62 57 55 53 50 48 48 51 56 56 58 62 59 58 59 58 59 59 57 57 56 56
69 68 67 68 68 69 69 67 66 68 68 66 64 66 68 69 69 69 70 69 69 69 68 59 49 55 54 55 68 66 65 65 65 65 65 65 64 62 60 61 60 59 58 57 52 47 48 47 45 44 43 45 51 59 59 58 58 59 58 58 57 56 54
69 69 68 69 69 69 68 67 66 66 66 64 62 63 65 66 64 62 62 61 60 58 58 52 49 46 50 54 57 64 66 65 66 65 66 66 66 61 60 59 59 60 61 60 59 55 50 46 45 44 44 43 42 43 47 56 56 55 55 55 55 55 55
69 68 69 69 69 69 68 67 66 65 64 64 63 63 64 64 62 62 62 61 59 58 59 52 50 49 46 47 49 54 66 66 65 65 64 66 63 58 59 58 58 59 62 58 60 60 58 52 44 42 42 44 43 43 43 44 48 56 57 55 55 54 53
70 69 69 68 68 68 68 67 65 64 63 64 63 63 63 63 62 61 61 60 60 60 60 51 45 47 47 46 45 47 64 64 64 65 65 63 59 57 56 56 57 59 59 59 59 59 59 55 52 51 53 54 54 48 43 42 45 47 53 58 57 55 55
69 69 70 70 68 68 67 67 66 66 63 62 64 63 63 63 63 62 61 60 60 60 59 49 44 45 45 46 45 45 59 62 63 63 61 58 59 58 58 59 59 59 59 58 59 58 58 55 54 53 53 55 55 55 57 55 54 55 56 57 56 55 53
68 68 69 68 68 68 68 66 66 66 65 65 65 65 64 63 62 62 62 61 60 58 59 48 44 43 43 44 44 53 59 61 61 59 57 58 60 60 60 61 61 60 60 59 54 48 53 58 56 55 55 55 55 51 46 44 42 45 50 51 51 51 49
66 67 67 67 67 66 66 67 67 67 65 65 65 64 63 63 64 63 62 61 61 60 58 52 47 46 43 43 44 57 60 61 60 58 58 59 59 59 61 63 62 61 60 59 52 46 46 52 58 57 56 56 56 53 50 48 42 41 41 41 40 40 39
65 65 65 66 65 65 65 65 66 67 66 65 65 65 65 65 65 64 63 62 62 61 61 55 48 47 44 43 46 58 60 60 59 56 57 58 58 57 54 52 58 61 59 56 44 45 46 55 58 58 57 56 55 53 52 52 52 47 40 41 39 39 41
64 64 65 64 64 64 64 64 65 65 65 66 65 66 66 66 65 65 64 62 59 61 61 55 44 44 43 43 46 57 61 61 59 56 57 56 58 57 56 50 51 57 55 49 43 45 47 55 58 58 58 57 55 54 52 53 52 50 49 49 47 46 45
62 63 64 63 63 63 64 64 63 64 64 66 66 66 66 65 65 65 64 61 61 60 60 60 49 42 42 42 43 56 61 59 57 55 57 58 58 57 53 52 46 42 42 41 41 41 42 46 54 57 59 58 55 54 54 54 53 52 51 51 50 49 48
61 62 63 62 62 62 63 62 63 63 63 64 64 64 64 64 64 63 64 63 61 61 61 60 56 40 41 41 41 46 60 60 59 57 57 57 58 55 54 51 48 42 41 41 41 41 42 43 47 54 53 51 48 49 52 52 49 49 52 51 51 51 50
60 60 61 61 60 60 62 63 63 63 64 63 62 63 63 63 63 63 63 64 62 60 59 55 61 44 40 40 40 41 55 60 57 57 55 58 57 55 54 51 48 42 40 40 41 42 43 43 44 49 45 40 39 44 52 53 51 50 50 52 49 49 50
58 60 60 60 59 59 60 61 61 62 61 61 61 61 62 62 62 62 61 61 62 59 59 56 51 50 41 40 41 40 43 51 48 55 56 56 58 57 52 48 44 41 40 41 41 42 42 43 44 43 39 41 41 42 45 53 50 51 51 51 50 49 48
57 57 58 58 59 59 59 60 60 61 61 61 61 61 62 62 62 61 61 59 59 55 56 56 50 47 46 39 40 40 41 39 40 53 59 59 57 53 50 47 43 39 40 40 40 41 41 42 42 38 38 39 43 45 49 50 49 50 48 49 49 48 49

ECMWFFLT1_sfc_temp_033.txt.gz
Temp
64 64 65 65 65 67 67 66 67 66 67 67 66 66 66 67 66 66 66 65 64 65 65 64 64 65 66 67 66 65 64 63 62 60 59 60 60 58 61 61 62 62 61 61 61 57 57 54 56 61 61 61 62 64 64 65 65 64 63 64 64 63 62
65 66 65 66 65 66 65 64 65 66 65 65 66 66 66 66 66 66 64 64 64 65 66 65 64 66 66 64 64 64 62 62 63 61 60 60 60 60 59 59 60 60 60 61 61 61 55 56 54 56 58 60 61 61 63 64 65 64 64 64 64 62 60
65 66 65 64 64 64 63 63 63 64 64 64 65 64 65 67 64 64 66 64 64 66 66 65 67 66 65 65 65 64 63 62 62 62 61 60 61 61 60 59 57 57 58 58 58 59 59 58 55 57 58 60 59 60 62 63 64 64 64 63 62 62 59
65 64 63 63 63 62 64 63 63 63 63 63 64 63 64 65 64 64 63 64 64 64 65 65 64 66 63 64 65 65 64 63 62 62 62 62 61 60 60 59 58 59 57 55 58 58 57 56 58 59 61 63 61 59 61 62 64 65 65 62 61 60 59
66 65 64 63 62 61 62 62 61 62 62 63 62 63 63 63 63 63 63 64 64 63 63 63 64 63 64 64 64 64 64 63 62 62 61 60 60 60 59 59 59 58 57 58 58 58 58 58 60 59 60 61 60 60 63 60 64 64 64 63 62 60 59
67 66 65 64 62 62 62 62 62 62 61 62 61 63 64 64 62 62 63 62 63 64 63 64 63 63 63 63 64 63 63 62 61 62 61 61 61 60 59 59 60 60 59 59 60 60 61 62 62 60 61 61 55 57 61 62 60 63 63 63 63 61 60
67 67 66 66 64 64 63 63 63 62 61 62 62 61 62 64 63 62 61 61 61 61 62 62 62 63 62 65 63 62 62 63 62 62 62 61 61 60 61 59 60 60 60 61 60 61 60 61 59 59 58 58 56 60 61 60 64 61 61 63 63 62 61
67 66 66 66 65 64 63 64 63 62 63 62 61 63 63 61 61 63 63 61 62 62 62 63 64 61 61 63 62 61 61 61 61 61 62 62 62 62 60 60 60 60 59 61 60 62 63 62 61 60 59 56 55 56 57 60 58 59 61 60 63 62 61
66 66 65 66 65 65 64 63 63 63 63 62 63 63 62 63 62 62 61 61 61 61 60 61 62 62 61 61 61 60 61 65 61 60 60 61 61 60 60 60 61 60 61 61 62 60 62 62 62 61 60 59 56 52 53 54 56 57 63 59 60 62 61
66 65 65 64 65 65 64 64 64 63 63 63 63 62 62 60 60 61 61 60 60 61 61 61 61 60 60 60 59 59 59 60 60 60 59 60 59 59 59 60 59 59 59 61 61 61 61 61 61 60 60 61 58 55 51 50 53 52 60 61 57 60 61
65 65 64 65 64 64 64 64 63 63 63 64 64 63 61 61 62 63 59 60 60 60 60 61 61 60 59 60 59 59 60 59 58 58 59 61 61 61 61 62 62 59 58 59 59 59 61 62 62 61 59 59 61 58 52 50 52 53 54 59 58 58 60
63 64 64 65 65 65 64 64 64 63 63 63 63 62 61 61 60 59 59 58 58 60 60 60 60 60 59 59 59 58 58 58 58 58 59 60 60 62 61 60 59 59 60 61 62 62 62 62 60 62 58 59 59 60 58 55 51 56 53 54 58 62 60
63 64 64 64 64 64 65 64 64 63 63 63 62 61 61 61 60 59 58 59 59 59 59 60 61 60 58 57 58 59 59 58 59 58 60 61 65 61 59 59 58 60 59 61 63 62 61 62 63 62 60 60 59 58 57 54 53 54 55 53 56 60 61
63 64 64 63 64 63 63 64 64 64 63 63 63 62 62 61 61 60 59 59 59 57 58 60 59 58 56 57 58 58 59 59 59 59 59 59 60 59 59 58 58 58 57 59 59 60 62 63 62 60 60 59 58 60 60 57 55 54 57 55 55 59 60
62 63 63 62 63 63 63 64 64 64 63 64 64 62 63 62 60 61 60 59 58 58 59 58 57 59 60 58 57 60 59 58 58 58 57 59 58 60 58 58 59 58 59 60 58 64 63 63 64 63 61 60 58 59 58 56 53 52 54 57 58 59 59
62 62 63 61 62 62 62 63 64 63 63 64 63 63 62 62 61 61 60 60 60 58 59 57 57 60 58 57 57 58 59 57 57 58 59 58 60 59 59 58 57 58 61 60 59 60 63 64 63 61 59 60 59 58 59 61 57 54 55 55 55 58 56
62 62 63 61 62 62 62 63 63 63 63 63 63 60 62 63 61 60 61 61 60 59 58 59 60 60 59 57 59 60 58 58 59 58 59 60 60 60 57 57 57 57 57 58 57 58 58 57 60 60 59 58 59 59 59 57 60 53 52 55 54 61 58
61 62 62 61 62 62 62 63 62 63 62 63 62 62 63 62 60 61 61 61 60 60 61 61 61 59 58 58 60 61 59 58 58 60 60 60 61 58 57 56 57 56 55 57 55 57 59 58 60 57 59 59 60 59 59 59 57 56 55 54 55 58 56
61 62 62 61 62 63 62 62 61 61 62 62 61 62 63 61 62 61 61 61 61 61 61 61 61 60 59 59 59 58 58 58 58 60 61 61 60 60 58 57 57 56 55 55 56 55 57 57 58 57 58 60 59 57 56 55 55 55 57 54 55 57 55
58 59 61 62 62 62 62 62 62 62 61 60 60 60 62 61 60 62 63 61 62 62 61 61 61 61 61 60 61 59 58 57 57 59 58 60 61 60 60 59 57 57 56 54 56 56 56 56 57 56 56 56 59 56 56 56 55 54 53 53 53 53 54
59 60 61 61 62 61 61 60 62 60 61 61 60 61 61 61 61 61 63 61 62 62 61 60 61 62 62 61 60 58 59 57 58 59 59 59 60 59 59 61 61 58 57 57 57 56 57 57 57 55 54 55 55 54 54 54 54 53 53 52 53 53 51
60 59 60 61 61 61 61 61 62 61 61 62 62 61 61 62 62 62 61 59 61 61 63 62 62 61 61 59 60 59 60 60 58 58 58 57 58 59 57 57 57 56 60 62 57 56 57 58 56 54 53 53 53 53 53 53 53 51 50 51 52 51 49
58 59 59 60 61 61 61 60 61 61 60 61 61 60 60 61 60 60 62 58 58 60 61 61 60 59 58 61 59 61 59 59 58 58 59 57 57 57 57 56 57 62 59 55 52 48 48 51 54 56 53 53 54 55 53 52 51 52 51 49 50 49 49
59 59 58 59 59 61 60 59 58 59 58 57 56 57 58 58 57 57 56 56 55 56 54 54 44 51 52 55 61 60 59 58 56 56 57 56 55 56 55 55 54 56 56 55 51 47 46 45 45 45 47 49 53 55 56 52 51 51 51 50 50 48 47
59 59 57 57 57 58 59 59 59 60 58 56 56 56 58 57 56 55 56 54 54 54 55 52 46 48 48 48 53 58 60 60 59 58 59 57 57 55 55 55 55 56 55 54 52 50 47 44 43 43 43 44 44 45 49 52 50 49 48 50 50 49 48
59 58 58 58 58 58 58 58 58 59 58 56 55 57 57 55 55 55 55 54 54 53 53 50 47 47 46 46 45 49 56 58 60 58 57 56 55 54 55 55 55 56 58 57 56 53 51 48 44 43 43 44 44 44 44 46 49 53 52 52 50 49 48
58 58 59 60 59 58 57 58 57 56 57 56 56 55 56 56 55 54 53 53 53 54 54 50 46 45 44 44 44 47 54 56 56 56 56 56 56 55 54 53 54 55 55 56 55 55 53 51 49 49 49 48 48 45 43 44 45 46 51 54 52 50 50
58 58 58 57 57 57 58 56 58 57 57 56 56 55 55 54 55 54 53 53 53 54 56 50 45 43 42 43 43 44 51 55 56 55 55 56 56 56 56 55 55 56 55 55 56 55 55 52 51 51 50 49 48 48 48 49 51 52 53 52 51 51 49
56 57 57 57 57 56 55 55 55 56 55 55 54 55 54 56 56 55 54 53 53 54 55 48 44 43 42 42 43 48 50 53 54 54 54 55 56 56 56 56 55 56 56 56 52 48 51 53 52 51 49 48 46 43 43 44 42 47 51 51 50 49 48
55 55 56 55 54 54 54 55 55 55 56 54 55 55 56 56 56 56 55 54 54 54 54 50 45 44 43 42 45 50 50 52 53 52 53 54 55 56 56 57 56 55 56 56 50 44 46 49 52 50 50 49 47 46 45 45 42 41 43 44 44 43 42
53 53 53 54 54 54 53 54 55 55 53 53 54 54 57 57 56 57 56 55 55 55 55 53 47 45 44 43 46 52 51 52 52 51 52 53 54 55 56 56 57 56 56 56 46 43 44 51 52 51 50 50 48 47 46 48 47 44 40 40 40 40 40
53 53 53 54 53 53 53 54 54 55 55 55 55 53 54 56 57 57 57 57 56 56 55 54 48 46 45 44 46 51 52 53 52 51 52 52 53 53 53 53 52 53 55 54 44 43 43 51 55 54 52 50 47 48 48 48 47 45 44 45 44 44 43
54 54 54 55 55 54 53 55 55 55 54 55 55 54 54 54 52 55 57 58 57 57 56 56 54 47 46 45 44 50 52 52 52 51 53 53 52 50 50 51 49 45 47 46 42 41 41 47 56 55 53 50 49 49 49 47 45 45 43 43 43 43 44
52 53 54 54 54 54 55 54 55 54 53 53 53 54 54 54 54 54 53 55 57 57 57 57 55 47 46 45 43 44 51 53 53 53 53 52 52 50 48 46 44 43 42 41 42 42 44 45 47 53 53 52 51 49 47 47 45 45 45 42 42 42 42
52 52 53 53 52 52 53 54 54 54 54 52 52 52 51 52 53 53 55 53 55 56 56 55 57 49 44 43 42 41 49 53 53 53 53 53 52 50 49 45 45 43 42 42 42 42 42 42 43 48 47 43 42 43 49 47 47 46 46 43 41 41 42
50 52 51 50 50 49 50 51 52 52 52 51 51 51 51 53 52 53 52 53 52 54 54 54 50 51 43 42 41 41 42 48 47 53 53 52 50 48 46 45 44 41 40 40 41 41 41 41 43 44 41 42 43 43 45 45 44 45 41 42 42 42 41
50 49 49 48 48 48 48 49 49 50 50 50 50 49 49 50 49 49 50 52 52 51 53 54 49 48 46 40 40 40 39 40 41 48 53 52 50 47 44 42 41 39 40 40 40 41 42 43 43 40 42 42 43 44 46 45 43 44 40 39 41 41 41

ECMWFFLT1_sfc_temp_036.txt.gz
Temp
64 63 63 63 62 62 63 62 62 62 62 63 63 62 62 62 61 61 61 61 62 62 63 62 62 61 63 63 63 62 61 61 60 59 58 59 59 58 59 59 59 61 60 57 58 57 55 53 54 58 57 58 60 60 61 61 61 60 59 59 59 58 57
64 63 63 64 63 63 61 60 62 61 61 61 61 62 61 62 63 62 61 61 61 62 63 62 61 62 62 62 62 61 61 60 60 59 59 59 59 58 58 56 59 59 58 59 58 57 53 53 52 54 56 57 58 58 60 61 61 60 59 59 59 58 57
63 62 64 63 62 61 60 60 60 60 60 61 62 61 62 61 61 61 60 60 61 61 62 61 61 61 61 62 62 62 61 60 59 60 60 59 59 59 59 58 57 56 57 57 55 55 57 55 55 55 54 56 55 55 59 59 60 59 59 57 56 56 55
63 63 62 61 59 59 61 60 60 60 61 61 60 61 61 61 61 61 60 61 61 62 62 62 62 62 61 61 62 62 62 61 59 59 58 58 59 59 58 58 58 59 58 56 56 57 55 54 55 55 57 58 57 55 57 60 59 59 58 56 56 55 54
64 64 63 61 61 60 60 59 58 60 59 60 59 60 60 61 62 60 60 60 60 60 60 60 60 60 60 61 61 61 61 60 60 60 59 58 58 59 58 58 58 56 56 59 57 56 57 58 59 56 56 57 58 57 59 56 58 57 57 57 57 56 54
64 64 63 61 60 61 60 59 59 58 58 61 59 60 58 59 60 61 61 60 59 59 60 60 60 60 60 60 60 60 60 60 60 59 59 58 58 58 58 58 58 58 58 58 58 57 58 59 59 57 57 57 56 55 57 57 54 57 56 56 57 55 55
63 63 62 62 61 61 61 61 60 60 59 60 58 58 58 58 59 59 59 58 58 58 59 59 59 60 60 61 59 59 59 58 58 59 58 57 57 57 57 57 57 58 58 59 60 59 59 59 57 59 57 53 54 57 56 54 57 55 57 57 57 56 55
62 62 62 62 62 61 61 61 60 59 60 59 59 58 58 59 58 58 59 58 58 58 58 59 61 59 59 60 59 58 57 57 58 58 57 57 58 57 56 57 58 58 58 59 60 61 61 61 60 58 57 54 51 52 53 54 53 52 54 55 57 56 55
62 62 62 61 61 61 61 61 60 60 60 59 59 59 58 60 59 59 58 57 57 58 58 58 58 59 58 58 58 57 58 61 58 58 57 58 57 56 57 56 58 57 57 59 60 60 61 61 60 58 60 59 55 50 50 51 50 52 57 53 57 57 55
61 61 62 61 60 60 61 61 61 60 60 60 60 59 59 57 58 58 58 57 57 57 57 57 57 57 57 57 57 56 56 56 56 56 55 57 56 57 56 57 57 57 57 57 58 58 59 58 59 56 56 59 58 54 48 46 49 47 55 53 52 56 56
61 60 60 60 60 60 60 60 60 60 60 61 61 60 58 58 59 60 58 56 55 57 57 57 57 56 57 56 55 55 55 55 55 55 55 56 54 55 55 56 56 56 57 57 57 56 57 58 57 58 56 56 58 57 50 48 48 46 51 54 51 54 55
60 60 60 60 61 61 60 60 61 60 60 59 60 58 57 57 57 56 56 55 55 56 56 56 56 56 56 55 55 55 55 56 57 55 55 57 56 57 56 56 54 55 55 56 55 56 56 58 57 58 56 56 57 58 56 53 49 51 51 53 55 55 57
61 61 60 61 60 60 60 60 60 59 59 59 58 58 57 57 56 55 55 55 55 55 56 56 56 55 55 55 55 57 55 56 57 56 56 56 60 57 57 56 54 56 56 57 57 56 55 56 58 58 57 56 54 53 55 53 53 53 49 49 52 55 57
60 61 60 61 60 60 60 60 59 59 58 58 58 57 57 56 55 55 55 56 55 55 55 56 55 54 54 54 54 55 54 56 57 55 56 55 55 56 56 55 54 55 55 57 55 56 57 56 56 57 57 56 53 54 56 52 52 51 54 51 53 55 55
61 61 61 60 60 60 60 59 59 58 59 58 58 59 58 57 56 55 55 56 55 55 55 55 54 53 54 54 55 57 55 55 54 53 54 54 54 57 54 55 55 54 55 57 57 59 59 58 59 57 57 57 56 55 57 55 50 51 50 54 56 55 54
61 61 61 60 60 60 60 59 59 59 58 58 58 59 59 57 56 55 55 55 54 54 54 53 53 54 53 53 54 56 55 53 53 54 55 54 56 54 55 55 55 56 57 57 56 57 58 59 59 59 57 58 57 56 55 57 54 51 52 52 52 55 53
59 60 61 61 60 59 60 59 59 60 59 58 59 57 57 57 57 55 56 55 55 55 54 54 54 54 54 53 54 55 53 53 53 53 55 55 55 55 55 54 53 54 56 57 56 56 55 55 57 56 56 54 57 56 55 54 57 49 49 54 51 56 56
59 59 59 59 60 60 60 60 58 60 58 58 58 58 58 58 56 56 57 56 56 55 54 54 54 54 54 54 55 54 53 53 53 54 55 55 57 54 54 55 54 53 55 56 53 55 56 56 57 57 57 56 56 56 56 56 55 54 54 54 54 53 52
59 58 58 58 59 60 61 60 59 59 60 59 57 59 60 56 59 58 57 56 55 55 55 55 55 54 54 54 54 54 54 54 54 54 54 54 54 53 54 53 53 52 53 55 53 53 53 54 54 55 56 56 57 55 55 52 53 55 56 55 54 54 52
57 57 58 59 60 60 60 61 59 59 59 57 58 57 58 57 57 59 59 57 57 57 56 56 55 54 55 54 55 56 54 53 54 54 54 55 54 54 53 53 53 52 53 53 53 53 53 53 56 55 56 56 56 55 54 53 53 54 54 54 51 51 52
56 57 57 58 59 59 59 59 59 59 58 56 57 58 58 57 57 58 59 57 58 57 56 55 55 55 55 54 54 54 54 54 54 54 54 54 54 54 53 54 53 53 54 54 54 53 55 55 54 54 52 54 54 55 54 52 52 52 52 52 51 52 48
57 57 57 57 57 58 58 59 59 59 59 58 59 58 57 55 57 56 56 57 58 56 58 58 58 56 55 55 54 54 53 54 55 55 54 54 54 54 53 54 54 53 56 59 56 56 56 56 56 55 51 51 52 53 51 52 52 49 49 51 50 47 48
57 57 57 57 57 57 58 57 58 57 57 57 57 58 57 56 56 55 55 55 55 56 57 58 60 56 56 59 54 56 55 53 54 55 56 55 54 54 55 54 55 60 58 56 53 51 51 52 55 56 54 53 53 53 52 51 50 50 50 49 48 47 48
57 57 56 57 56 57 58 58 57 56 56 56 56 55 56 57 54 53 54 54 56 58 57 57 52 49 50 53 58 56 56 54 53 53 53 55 55 55 54 53 53 57 56 55 51 47 47 47 47 48 49 52 54 56 53 51 50 49 49 50 46 46 46
56 55 55 56 57 56 57 56 56 56 55 56 55 54 55 53 53 52 52 52 53 56 55 51 42 46 48 48 54 58 57 57 55 54 55 54 56 54 54 54 53 55 55 55 52 48 47 46 45 44 43 44 47 50 51 54 51 47 48 49 47 47 47
56 55 55 55 55 55 55 55 55 56 56 55 53 55 53 53 52 51 52 52 53 52 52 44 42 44 47 47 47 53 57 58 58 56 55 56 55 54 52 52 54 54 56 57 55 51 50 48 44 44 44 44 45 44 45 45 47 54 52 51 50 46 47
54 53 54 53 53 53 54 54 53 53 53 53 54 54 53 53 52 52 52 52 51 51 50 47 40 42 43 42 42 48 56 56 56 56 56 56 56 54 54 54 54 53 53 54 53 52 51 49 48 48 49 49 48 47 45 43 43 46 50 53 51 50 48
51 51 52 52 52 52 51 52 53 52 53 53 53 53 53 53 52 52 52 51 50 51 53 48 41 40 40 41 41 44 51 53 55 54 55 55 56 56 55 56 56 55 54 53 53 52 51 50 49 50 49 49 48 48 47 47 48 51 51 51 52 51 49
49 49 50 50 50 50 50 50 51 52 52 52 52 52 51 51 51 52 52 51 51 52 53 47 43 41 40 40 40 48 50 52 52 53 53 54 55 54 54 56 56 56 55 55 52 47 50 52 51 51 50 48 47 45 44 43 40 43 48 49 50 49 49
49 49 49 49 49 48 49 49 49 50 51 50 49 50 52 51 52 53 51 50 51 52 53 50 44 42 42 40 42 49 50 52 52 52 53 54 53 54 55 55 54 54 54 54 50 43 45 47 51 51 50 48 46 46 44 44 42 42 43 44 44 45 44
49 49 49 48 48 48 48 48 49 50 48 48 49 49 49 50 51 51 51 52 53 53 54 52 47 45 43 41 45 50 50 50 49 51 51 52 52 54 56 55 56 55 55 55 48 43 43 48 52 51 49 48 46 44 43 43 45 42 41 41 42 42 42
50 49 49 49 49 49 48 48 48 49 49 49 49 49 49 49 49 49 50 52 54 53 53 53 48 45 45 43 45 50 51 50 49 49 50 51 51 52 53 53 53 54 54 53 47 43 42 47 53 52 51 50 46 45 44 44 44 44 43 43 41 41 41
50 50 50 50 50 50 50 50 50 50 50 50 50 50 50 50 49 49 49 49 51 53 52 54 53 47 45 45 44 49 50 50 50 50 50 51 52 51 51 52 51 46 45 46 44 42 42 44 52 52 51 48 46 45 46 45 46 47 45 44 43 42 41
48 49 49 48 49 49 49 49 49 49 49 50 49 50 50 50 50 50 50 50 50 51 53 53 54 48 47 46 44 45 50 51 52 51 50 50 51 52 51 51 51 48 44 43 43 42 42 42 46 51 51 49 49 47 44 45 46 45 47 46 44 43 42
47 48 47 47 45 45 46 46 47 46 46 46 46 47 47 48 49 49 50 49 48 48 50 51 53 50 48 47 45 43 48 51 51 51 50 50 51 51 52 51 50 48 44 43 43 41 41 42 44 50 51 45 42 42 47 47 46 45 45 43 43 42 41
45 47 46 45 44 43 44 44 44 44 43 42 43 43 44 45 45 46 47 47 48 46 47 49 47 49 47 46 46 43 43 47 45 50 51 51 51 51 51 49 48 46 43 42 41 40 41 42 43 45 43 41 41 42 45 47 45 45 44 44 42 41 39
44 44 44 44 44 43 43 44 44 44 43 42 43 42 41 42 42 42 43 44 45 46 46 46 46 46 47 45 44 43 40 40 42 48 51 52 52 51 49 47 46 41 41 40 41 41 40 42 44 41 41 41 41 43 46 45 45 44 41 40 40 40 39

ECMWFFLT1_sfc_temp_042.txt.gz
Temp
60 59 58 58 58 60 59 58 60 59 60 60 61 60 61 62 61 61 61 62 62 62 63 61 61 62 63 64 64 63 61 61 60 60 58 58 59 59 59 59 58 59 59 56 60 59 57 54 55 59 58 58 58 59 60 60 59 58 57 57 58 57 57
60 59 59 60 59 59 58 57 59 59 59 59 60 60 60 61 62 61 60 61 61 62 63 61 61 62 62 62 62 61 60 60 60 60 60 59 59 59 58 57 58 58 58 58 58 58 57 55 54 56 55 58 58 57 58 58 58 58 58 58 59 58 57
60 58 59 58 57 58 57 56 57 58 58 58 58 59 60 60 61 61 60 60 61 61 63 61 61 61 61 62 62 61 61 60 60 61 61 60 60 59 59 58 56 56 58 59 57 57 58 58 56 55 56 56 55 55 57 56 56 56 57 56 56 56 56
58 58 57 57 57 57 57 56 57 57 57 57 58 57 58 58 58 60 59 59 60 62 63 61 61 61 61 61 61 61 61 60 59 59 60 60 60 59 58 59 59 60 59 57 58 58 57 56 56 56 56 57 56 55 55 56 57 57 58 56 56 55 55
59 59 58 57 57 58 57 56 55 57 57 57 57 57 57 57 58 57 59 59 60 60 61 61 60 61 61 61 61 61 61 60 60 60 59 59 59 59 58 58 59 59 57 60 59 59 59 59 59 56 55 56 56 54 57 57 58 58 58 57 57 56 55
60 59 59 58 57 57 57 57 57 57 56 58 57 58 57 57 57 57 57 58 59 60 60 59 59 60 60 60 61 61 60 60 59 59 59 59 59 60 59 58 58 59 57 58 59 58 59 60 59 56 56 57 54 54 57 56 57 58 58 58 58 57 57
60 60 60 59 57 58 58 58 59 59 58 59 57 58 57 57 56 57 58 57 58 58 58 57 57 58 59 60 60 60 59 59 59 59 59 59 58 58 58 58 58 58 57 58 58 59 59 59 58 58 55 54 55 56 56 57 57 59 59 58 58 58 57
61 61 60 59 58 57 57 58 58 58 59 58 58 58 57 56 56 56 57 56 57 57 57 58 58 58 59 59 59 59 58 58 58 58 58 58 58 58 58 59 57 57 57 58 59 61 62 62 61 59 58 52 52 55 55 55 55 54 56 57 57 59 57
60 60 59 58 58 59 58 59 58 58 58 57 56 57 56 57 56 56 56 55 56 56 57 56 57 57 58 58 57 57 58 58 57 57 57 58 58 58 58 57 58 58 57 58 60 60 62 63 62 61 61 59 55 51 52 54 53 54 56 58 59 58 58
59 60 60 58 58 58 58 58 58 57 56 57 58 57 56 55 55 55 56 55 55 55 56 56 56 56 57 58 57 56 57 57 58 58 57 58 57 57 58 59 59 58 58 59 59 59 60 61 62 62 63 61 59 55 51 51 52 51 57 55 58 60 58
60 59 59 58 57 57 56 57 57 57 57 57 58 58 56 56 57 58 55 55 55 55 55 55 55 55 56 55 55 55 55 56 57 56 57 58 56 57 57 58 59 59 59 59 59 59 60 60 60 61 60 60 61 57 53 52 52 51 56 54 54 60 57
58 58 57 57 58 58 57 56 57 57 56 57 58 56 56 55 55 54 55 55 55 55 54 54 54 54 55 55 55 54 54 55 56 55 55 57 56 57 57 57 57 59 59 59 59 59 59 59 59 59 58 58 59 58 57 56 53 54 55 57 56 56 60
58 57 57 57 57 57 57 57 56 56 57 57 56 56 55 55 54 54 53 54 54 54 54 53 53 54 54 53 53 54 54 54 55 55 55 55 57 56 57 57 56 58 58 58 58 58 58 59 59 58 58 58 56 56 57 57 56 57 54 57 57 57 57
57 57 57 56 57 56 56 57 57 57 56 56 55 55 55 54 54 54 54 55 54 53 53 53 52 53 54 53 53 53 53 54 55 54 55 54 55 56 56 57 56 57 58 58 58 58 58 59 58 57 58 58 56 55 57 54 54 55 56 51 52 56 56
57 58 57 56 57 57 56 56 56 56 57 55 55 55 55 54 53 54 54 53 53 53 52 52 51 53 54 54 54 54 53 54 54 53 54 54 54 55 55 56 56 56 57 59 58 59 59 59 60 59 58 59 58 55 56 54 52 54 56 56 57 55 56
57 58 58 56 56 56 56 56 57 57 56 55 54 55 54 53 54 53 53 52 53 53 52 52 51 51 52 53 54 53 53 53 54 54 55 54 54 54 55 55 55 56 57 58 57 58 58 59 60 61 58 58 58 56 57 57 54 54 55 55 54 57 56
57 57 56 56 57 57 57 57 57 57 56 54 55 53 52 53 53 53 54 53 53 53 53 52 52 51 52 53 53 53 52 52 52 52 53 53 53 54 54 55 54 56 57 58 57 57 56 57 58 59 59 57 57 56 56 55 59 53 54 57 54 60 57
56 56 56 55 56 56 56 57 57 57 55 54 53 54 53 52 53 53 54 53 54 54 53 52 54 52 52 52 52 52 53 52 52 53 53 54 56 54 55 56 55 55 56 57 55 56 56 57 58 58 59 58 58 56 56 56 56 55 56 57 55 54 54
56 56 56 56 56 56 56 56 56 56 56 55 53 53 53 53 54 53 53 52 53 53 52 52 53 54 52 52 52 52 52 52 52 53 53 53 52 53 55 54 54 55 56 57 56 55 55 56 56 57 58 58 58 56 56 55 55 56 58 58 56 54 54
56 56 56 56 56 57 56 55 56 56 55 55 55 54 53 54 54 54 53 53 53 53 53 52 52 51 51 52 52 53 52 52 52 53 53 53 52 52 53 54 54 54 56 56 56 56 55 54 55 56 56 56 56 56 55 56 56 56 55 55 54 55 54
56 56 57 57 57 56 56 56 55 55 54 54 54 55 55 55 54 54 53 54 53 53 53 52 51 51 51 51 53 52 52 53 53 53 54 53 53 52 52 53 53 54 55 54 55 54 55 55 54 55 54 55 55 55 55 54 54 55 54 54 55 54 52
56 56 57 57 57 56 56 55 55 55 55 54 55 55 55 56 55 55 55 54 54 54 55 54 53 52 52 51 51 52 52 53 53 54 54 54 54 53 53 53 52 51 55 57 54 53 53 54 55 55 53 54 54 55 54 54 54 54 53 54 53 50 52
55 55 56 56 55 56 56 55 55 55 55 55 55 54 54 53 53 54 55 54 54 54 55 54 56 53 52 53 51 52 52 52 53 54 55 55 55 54 53 52 53 58 56 55 52 49 49 50 53 56 56 55 55 55 55 54 53 54 54 53 54 53 52
54 54 55 54 55 55 55 55 54 54 54 54 54 54 54 54 52 52 52 53 53 54 54 55 52 47 46 48 53 52 54 52 52 53 54 54 55 55 54 53 51 55 56 55 54 47 46 46 47 49 50 51 54 58 55 54 54 53 54 55 52 51 53
50 50 51 51 52 52 53 53 53 53 53 53 53 54 53 53 53 52 52 52 52 52 53 48 42 42 42 44 49 53 53 54 53 53 53 54 55 55 54 54 53 53 55 54 54 53 49 46 45 46 46 46 47 49 51 57 56 52 53 54 52 53 54
49 48 49 49 50 50 50 50 49 50 50 50 51 51 51 52 52 52 52 52 51 50 51 43 40 40 40 39 41 47 53 53 54 53 52 53 53 53 53 53 54 53 54 56 56 53 53 53 47 45 45 45 46 45 45 46 48 57 57 56 56 53 53
48 49 49 49 48 49 49 48 47 47 48 48 48 48 49 49 50 51 51 51 51 52 52 45 41 40 40 40 39 42 50 51 53 53 53 53 53 53 52 53 54 55 54 54 55 53 52 52 51 51 51 52 53 50 45 44 44 44 50 57 57 57 55
48 48 48 48 48 47 46 46 47 46 45 46 46 46 46 47 48 49 49 49 50 50 51 43 42 41 41 40 40 43 49 50 51 52 52 53 53 54 54 54 54 55 55 53 54 54 54 53 52 52 52 53 52 52 52 53 53 53 54 55 56 57 57
47 47 47 47 46 46 45 45 45 45 46 45 45 46 46 46 46 47 48 48 48 48 49 41 40 41 41 41 42 49 49 49 50 51 52 53 53 53 54 54 54 54 55 54 51 45 49 54 53 53 53 53 51 49 49 45 42 42 47 51 54 56 56
46 46 46 46 45 45 44 45 45 45 45 45 45 45 44 44 45 45 46 47 47 47 48 44 40 40 40 41 44 49 50 50 50 50 52 53 53 53 53 54 54 54 54 54 50 45 43 48 53 53 54 54 52 51 50 48 42 40 40 40 42 44 45
45 44 44 44 44 43 44 44 44 44 43 43 43 43 44 44 44 45 45 45 47 45 46 45 41 41 41 40 43 48 49 49 50 50 50 52 52 53 53 52 54 54 54 55 48 45 41 48 53 53 54 54 53 51 51 49 47 45 41 40 40 40 41
45 44 43 43 43 42 43 43 43 44 43 43 43 43 44 43 44 44 44 44 47 44 44 45 42 40 41 40 43 47 48 49 49 49 50 50 51 51 52 52 51 51 53 52 46 45 41 47 54 54 53 52 51 51 53 50 47 46 46 46 44 45 43
44 43 43 42 42 42 42 42 42 42 42 43 43 43 43 43 43 43 43 43 43 43 43 44 44 40 41 41 40 45 48 48 49 49 50 50 50 51 51 52 51 45 42 42 42 42 41 42 53 53 53 52 52 52 53 48 47 47 47 47 46 46 45
43 43 43 42 43 43 42 42 42 42 41 42 42 42 42 42 43 43 43 43 43 43 44 44 44 40 40 40 40 41 46 47 48 48 49 49 50 50 51 51 52 47 43 42 41 41 41 39 43 52 52 52 54 51 45 48 45 44 47 46 46 44 44
43 43 43 42 42 42 42 43 42 42 42 41 41 41 41 42 42 42 42 43 42 42 44 44 43 42 40 40 39 39 42 44 44 46 47 48 50 50 51 51 51 48 44 42 41 41 41 40 38 46 50 45 45 41 49 48 47 47 46 46 45 44 44
42 42 41 40 40 39 40 40 40 40 40 40 40 39 39 39 39 39 40 41 42 42 42 43 42 42 41 39 39 39 38 40 38 43 46 47 48 50 51 52 51 46 43 42 41 41 40 40 40 44 42 41 41 40 43 47 46 46 45 45 44 43 42
39 39 40 39 39 38 38 38 39 38 38 38 38 38 38 38 38 38 37 38 40 41 41 41 41 40 41 39 39 39 38 38 37 41 43 45 47 49 50 51 50 44 42 41 41 40 39 39 43 41 39 40 40 41 47 46 45 45 44 43 42 42 42

ECMWFFLT1_sfc_temp_045.txt.gz
Temp
71 69 70 71 72 72 72 72 72 72 73 74 72 72 73 72 71 68 69 69 70 70 69 69 68 68 69 70 69 70 70 71 70 69 67 67 67 66 66 68 68 69 71 71 71 67 64 57 57 61 61 60 61 62 64 65 66 66 66 67 68 68 69
72 71 71 71 71 71 70 71 71 73 73 72 73 72 72 74 71 70 69 69 69 69 69 69 69 69 68 68 67 67 68 70 70 71 70 69 69 67 66 67 69 70 70 71 70 71 66 62 58 59 57 61 62 62 63 65 67 67 67 67 69 70 68
70 70 72 70 70 71 70 70 70 71 72 72 72 72 72 74 73 72 70 70 69 69 69 71 70 69 69 68 68 68 69 69 70 70 70 71 70 69 68 68 68 67 68 68 68 69 68 68 63 59 60 62 60 62 65 65 66 67 68 67 68 70 69
69 69 69 69 70 70 71 70 71 72 72 72 71 71 71 72 71 71 70 71 71 70 70 71 70 71 70 69 69 68 67 67 68 69 70 70 70 69 69 70 70 69 66 66 67 68 68 66 64 61 64 68 65 61 63 66 67 69 70 69 69 69 69
68 69 70 69 70 71 70 70 71 71 71 71 71 71 70 71 70 70 69 70 70 70 70 70 71 72 71 71 70 68 68 67 68 67 69 69 68 70 69 71 71 72 66 64 69 71 70 68 67 64 65 67 68 67 67 66 69 69 70 71 71 70 69
69 70 71 70 71 71 71 70 70 71 71 70 71 71 70 69 70 70 70 70 70 70 71 71 71 72 72 72 71 70 69 69 69 69 70 69 69 69 70 70 71 71 67 65 69 71 71 71 69 66 68 70 64 65 68 68 67 71 71 70 72 72 72
68 69 70 71 70 71 72 71 71 72 71 72 71 72 71 70 71 71 71 71 71 71 71 72 72 72 72 72 71 70 70 70 70 69 70 69 69 69 71 70 71 71 71 72 72 71 70 70 69 68 66 67 67 67 69 70 70 69 69 72 72 72 72
68 69 70 71 70 70 71 71 72 72 72 72 73 72 70 70 70 70 70 71 70 70 70 69 69 70 70 72 72 70 70 70 69 69 69 69 69 69 69 71 70 71 70 73 73 72 73 72 71 69 67 62 62 66 65 69 69 69 69 70 72 72 72
68 70 70 70 70 71 70 71 71 71 73 72 71 71 69 70 70 70 70 71 70 70 70 70 70 72 70 71 71 70 70 71 69 68 70 70 69 69 69 70 71 70 70 72 73 73 75 74 73 72 71 68 64 61 64 64 67 67 70 69 70 72 72
67 69 69 68 69 70 70 71 71 71 70 71 70 70 69 69 70 71 71 70 69 70 70 70 71 71 71 71 71 69 70 70 70 70 70 70 70 70 70 69 71 71 71 71 72 73 73 73 74 73 74 72 71 66 62 62 63 65 67 71 69 70 73
68 69 69 68 68 69 69 69 69 69 70 70 70 69 70 70 70 70 71 70 70 70 70 70 71 70 70 71 71 71 71 70 70 70 69 71 70 71 70 70 71 71 70 71 71 71 72 72 73 73 74 74 74 70 68 65 64 67 67 69 72 71 72
70 70 69 68 68 69 69 69 69 70 69 69 69 69 70 70 70 70 70 70 70 70 70 70 69 70 70 70 70 71 69 70 71 70 70 69 69 70 70 69 70 70 70 70 70 71 71 71 72 74 73 73 72 72 70 70 64 66 70 67 69 74 72
69 68 67 68 69 70 70 70 69 68 69 70 70 70 71 71 71 70 70 70 69 70 70 70 70 70 70 70 70 71 69 68 70 70 70 70 70 69 69 69 70 70 70 71 70 70 69 71 72 73 72 71 71 71 72 70 68 65 68 70 71 71 73
66 68 68 69 70 70 69 70 70 70 69 69 69 69 70 71 71 71 71 71 71 70 70 69 70 70 71 69 69 69 69 70 70 70 69 67 69 69 70 70 70 70 70 70 70 70 71 71 71 71 72 72 71 71 71 70 69 66 66 68 70 72 72
67 68 68 68 69 69 69 69 68 68 69 68 70 70 71 70 70 71 71 71 70 71 70 71 70 71 71 69 68 68 69 70 70 68 67 68 68 68 68 70 70 69 71 71 70 72 72 72 73 73 72 72 73 71 72 72 71 69 65 66 68 71 70
67 67 67 68 68 68 68 68 69 69 69 68 69 71 70 70 71 71 71 70 71 71 71 71 70 71 70 71 70 69 68 69 69 68 68 68 69 68 68 68 68 68 68 69 70 72 72 73 75 75 73 74 73 72 73 74 71 69 67 67 69 69 70
65 66 67 67 67 67 67 68 69 69 69 69 70 68 70 71 71 71 70 71 71 71 71 70 70 72 72 71 71 70 70 69 70 70 69 70 70 69 69 68 68 68 68 68 70 70 71 72 72 74 73 72 72 71 71 70 72 72 70 68 67 72 71
64 64 64 65 65 66 66 66 67 68 68 68 69 69 69 70 70 71 70 72 72 72 72 72 71 70 69 70 71 70 70 71 70 70 70 69 66 69 68 69 68 69 69 69 68 70 71 70 73 72 72 73 73 72 70 70 72 72 70 69 68 70 71
62 63 63 64 64 65 65 66 66 66 69 68 68 69 70 70 72 72 72 72 72 72 72 71 72 72 71 70 70 70 70 71 70 71 70 70 70 69 69 69 68 69 70 69 69 69 70 70 71 71 72 73 74 72 69 69 70 70 71 72 70 66 68
60 60 61 63 64 66 67 66 67 66 66 66 67 67 68 70 70 71 72 71 71 71 71 71 70 70 70 71 70 70 70 70 70 69 70 70 70 69 70 70 69 68 69 71 70 69 68 68 69 70 70 69 72 70 68 69 71 70 70 70 70 70 68
59 59 61 63 64 65 66 66 66 67 68 68 67 67 67 67 67 69 69 70 70 70 70 70 71 70 71 71 70 70 70 70 71 71 70 70 69 69 68 69 70 69 70 70 70 70 69 69 69 69 69 69 69 68 68 68 68 69 69 69 70 68 69
62 61 61 62 63 63 64 64 65 65 65 64 64 67 68 69 69 68 68 68 68 67 68 68 69 69 70 69 70 70 70 70 70 71 71 71 70 70 70 68 68 70 68 64 59 61 62 63 69 69 68 68 68 67 68 68 68 68 69 68 68 69 68
61 61 60 60 60 60 61 61 61 60 59 59 61 63 65 66 68 68 68 68 67 65 65 64 54 45 50 65 69 69 68 69 70 70 71 70 70 70 70 69 67 59 57 56 53 50 49 51 56 66 70 68 67 67 67 67 67 68 68 67 68 68 66
58 56 57 57 58 59 59 59 60 60 61 61 60 61 63 65 65 66 66 66 63 61 57 51 40 41 42 46 63 66 67 67 67 68 68 69 70 70 69 69 69 62 59 57 57 45 46 46 47 49 52 57 62 69 69 67 68 68 68 68 69 68 68
52 52 52 53 55 55 55 56 58 59 59 59 59 60 60 61 62 63 64 63 61 58 52 43 40 40 40 41 51 65 66 67 66 67 68 68 70 69 69 69 68 68 69 70 71 64 53 45 45 45 45 46 47 48 51 66 70 68 67 68 67 67 68
54 55 56 56 56 57 57 57 57 57 56 57 58 58 59 59 60 61 62 61 59 56 51 41 40 40 40 40 39 54 68 66 67 67 67 67 67 67 68 68 68 67 69 59 63 70 70 64 46 43 45 43 44 44 45 44 48 68 71 68 68 67 67
54 54 55 55 55 55 55 54 54 55 56 56 56 56 57 57 58 59 60 60 58 55 51 42 40 40 40 40 40 50 65 64 65 66 66 66 66 66 66 67 68 68 68 67 68 68 68 69 68 64 63 64 66 57 44 44 44 43 54 68 69 68 69
53 53 53 54 53 52 51 52 54 55 55 54 55 55 56 56 56 57 58 59 58 54 50 40 40 39 39 40 41 50 62 62 64 65 65 65 65 65 66 65 66 67 68 68 68 65 67 67 67 66 66 67 68 68 67 65 64 65 64 65 68 69 70
52 52 52 52 52 52 53 52 53 54 54 53 52 53 54 56 55 56 56 57 57 55 51 40 40 40 40 39 43 61 62 62 63 65 65 64 65 65 66 66 66 66 67 67 59 48 53 66 66 66 66 67 67 67 67 58 48 49 58 64 67 67 68
49 49 49 49 50 50 50 50 51 54 54 54 54 53 53 54 55 56 56 56 56 55 53 44 39 40 40 39 49 62 61 64 63 63 63 63 64 64 64 65 65 66 66 67 56 43 42 49 65 65 66 66 66 67 68 60 42 40 39 39 39 40 41
49 49 49 49 49 50 51 52 52 53 52 52 52 53 54 54 54 54 54 54 54 55 53 45 39 40 40 38 45 59 61 62 61 62 63 63 64 65 63 54 57 64 64 66 49 45 41 50 63 65 65 65 65 65 66 64 59 54 39 39 39 40 41
50 50 50 50 50 50 51 52 53 53 53 54 53 54 55 55 54 54 53 52 49 53 54 48 40 39 39 39 47 58 59 61 60 60 61 62 62 64 64 59 52 54 58 55 42 45 41 49 63 64 64 64 63 64 66 67 61 59 59 59 57 54 52
48 49 49 49 49 49 51 52 52 52 53 55 54 54 54 54 53 53 53 53 52 52 52 52 46 38 40 39 39 53 58 57 56 56 58 59 59 62 62 63 58 44 40 39 39 39 41 41 57 63 65 64 63 61 66 66 63 63 62 62 63 61 61
46 46 48 48 49 49 49 49 50 51 52 53 52 52 51 52 52 52 52 52 52 51 50 51 48 39 39 39 38 43 56 52 52 53 55 57 59 59 61 61 63 50 43 42 41 39 40 40 41 57 61 63 64 62 59 65 60 48 62 61 61 60 60
46 45 46 47 46 46 47 47 47 48 51 51 50 50 50 51 52 51 52 51 51 51 49 45 50 42 39 39 38 38 50 50 46 49 51 55 57 58 58 59 60 52 42 40 40 40 40 40 39 50 57 49 47 46 59 63 63 61 61 60 60 58 59
46 47 46 47 47 47 47 47 47 47 47 49 49 49 49 49 50 50 51 52 52 51 51 50 42 47 41 39 39 37 36 43 38 47 50 51 53 54 56 56 56 44 38 38 39 39 40 39 40 47 43 42 42 40 46 60 60 59 58 57 55 55 56
48 49 49 49 49 48 48 48 49 48 48 48 48 48 50 49 50 49 49 50 50 51 51 51 46 41 44 39 39 38 37 36 36 46 47 50 52 53 53 53 48 39 37 38 38 39 39 39 45 42 40 40 40 41 52 56 55 56 55 53 53 55 56

ECMWFFLT1_sfc_temp_048.txt.gz
Temp
75 75 76 77 78 79 77 77 78 78 79 80 79 80 79 78 77 76 77 77 77 78 77 76 75 76 77 77 75 75 76 77 75 74 73 75 72 73 73 71 72 75 76 72 72 73 71 63 60 64 65 67 69 70 70 71 73 72 73 75 76 76 77
77 77 78 78 78 77 76 77 77 79 79 79 79 78 79 78 77 76 76 77 76 76 78 78 77 77 75 74 73 73 74 74 75 74 74 74 74 74 72 71 75 75 75 75 74 71 71 64 63 61 59 65 66 67 68 71 72 74 74 75 77 77 75
77 78 78 77 76 76 76 76 77 77 78 78 78 79 79 78 77 77 77 77 76 77 77 78 77 75 74 73 73 73 73 73 75 74 73 73 73 74 75 72 73 73 73 73 73 69 71 71 67 66 64 64 63 65 69 71 74 74 75 74 75 78 77
76 76 75 75 76 75 75 76 76 77 78 78 78 77 78 79 77 78 77 77 77 76 77 77 75 76 74 73 73 73 72 72 74 74 73 73 73 74 75 74 73 72 68 67 65 67 67 69 69 68 68 71 68 65 69 74 75 76 77 76 76 76 76
76 75 75 74 75 76 76 76 77 78 77 77 77 77 76 77 76 76 77 77 77 76 76 77 76 76 76 75 73 73 73 73 73 73 73 73 72 73 73 76 71 69 73 69 68 65 67 64 69 69 70 73 73 74 74 72 77 77 78 78 79 77 77
76 77 76 76 77 77 77 76 76 76 77 76 76 76 76 76 77 76 76 76 77 76 77 78 77 77 77 75 75 73 73 72 73 73 74 72 72 73 74 75 70 67 71 75 75 71 66 65 69 69 74 76 71 71 74 74 73 78 78 78 79 79 79
76 76 77 77 77 78 78 77 77 78 77 76 76 76 77 77 78 77 77 77 78 77 77 77 77 77 77 76 76 74 73 73 73 72 73 72 72 73 73 73 76 67 72 76 76 73 68 68 68 70 70 73 73 73 75 76 77 75 76 80 80 81 80
76 77 78 78 77 77 78 77 78 78 78 78 78 78 78 77 77 77 77 76 76 76 76 76 77 77 77 77 77 75 75 74 74 73 72 73 72 73 72 72 72 73 73 78 78 76 73 70 67 72 72 69 69 72 71 76 76 76 75 78 80 80 79
74 77 78 77 76 76 77 78 78 78 79 79 78 78 77 77 77 77 77 77 77 76 77 77 77 78 76 75 76 75 75 77 74 73 74 74 73 73 73 74 69 72 76 78 80 78 73 75 75 77 75 73 69 66 70 70 73 74 78 75 78 80 78
74 76 76 74 74 76 78 78 78 78 78 78 77 77 76 77 77 77 77 76 76 76 76 77 77 77 76 75 76 75 75 76 75 75 75 75 75 75 74 73 73 76 77 77 78 79 79 77 76 77 77 73 73 70 67 67 69 70 74 78 74 76 79
75 77 77 76 77 77 77 78 77 77 77 77 77 77 77 76 77 77 76 76 76 76 76 77 78 78 76 76 76 76 76 76 75 76 75 76 75 75 75 74 73 75 77 77 78 77 78 77 75 70 73 73 76 72 72 69 68 73 73 76 78 76 78
75 76 77 77 77 77 76 77 76 77 77 77 77 76 76 77 76 77 77 77 76 76 77 76 76 76 77 76 75 76 76 76 76 75 75 75 75 75 74 73 74 75 76 76 77 77 78 77 78 71 68 74 77 76 76 75 68 72 76 72 77 80 78
76 76 76 76 76 77 77 77 77 76 76 77 77 77 77 77 77 76 77 77 76 77 77 76 77 76 76 76 76 75 75 75 75 75 76 76 77 76 75 74 74 75 75 77 77 77 77 78 78 79 78 76 77 76 77 76 71 69 75 75 76 78 79
73 76 76 76 76 76 77 77 77 77 78 77 77 76 77 77 78 77 78 77 78 77 76 76 76 76 76 75 76 76 77 78 77 76 76 75 77 76 76 75 75 75 76 76 77 77 77 77 78 78 78 78 78 76 77 76 73 70 73 77 76 78 78
73 75 75 76 76 77 76 76 77 77 76 77 78 78 78 77 77 77 78 78 78 78 77 77 77 77 77 75 75 76 76 77 78 77 76 76 76 76 75 75 76 75 77 77 75 77 76 78 80 80 79 78 78 77 78 78 75 72 68 73 75 79 77
71 73 74 75 75 76 76 76 77 76 76 76 77 78 77 77 77 78 78 77 78 77 77 77 76 76 76 76 76 76 76 77 76 75 75 76 77 77 75 75 75 75 75 74 74 75 77 78 80 80 78 80 79 78 80 81 77 73 71 72 75 76 75
73 73 73 74 75 75 76 76 77 76 77 77 77 76 77 77 77 77 77 77 77 77 77 76 76 78 77 77 77 76 77 76 77 77 76 77 78 76 75 74 74 74 75 73 74 74 76 78 78 78 78 78 78 78 78 78 78 76 74 72 73 78 77
71 68 68 73 74 75 75 76 76 78 76 76 76 76 77 78 77 77 75 77 77 77 77 77 77 76 76 77 77 76 77 77 77 77 76 76 74 76 75 75 75 75 74 74 73 75 76 75 79 78 77 78 79 78 77 77 78 78 76 73 73 77 78
69 69 69 71 73 74 75 75 76 76 77 76 76 76 76 77 78 78 78 79 78 78 78 78 78 78 78 77 76 76 76 77 77 78 77 77 77 77 76 76 76 76 75 74 72 73 76 75 78 77 78 79 80 78 76 76 77 77 77 76 75 73 76
72 70 70 71 73 74 75 74 75 75 76 76 76 75 76 77 77 78 78 78 78 77 77 77 77 76 77 78 77 76 76 76 76 76 77 78 78 77 77 77 76 75 75 76 74 75 75 75 75 76 77 76 80 78 75 75 77 76 75 75 76 75 74
70 70 70 71 72 73 74 74 74 75 75 74 74 76 76 76 76 78 77 78 77 77 77 77 77 77 78 77 76 76 76 75 76 76 76 77 77 77 76 77 76 76 76 77 77 76 75 74 75 74 75 75 76 75 74 74 74 75 74 73 73 74 75
71 70 70 70 70 71 72 73 73 74 74 74 74 75 76 76 76 76 76 75 76 75 75 74 72 69 75 76 76 75 75 76 76 76 76 76 77 77 77 77 77 78 72 64 57 62 63 65 74 74 74 75 74 73 73 75 74 74 74 73 73 73 74
71 71 70 70 69 70 70 71 71 72 73 74 75 75 76 76 76 75 75 75 74 71 69 64 50 42 46 68 76 76 75 75 76 76 76 76 76 76 77 76 73 59 57 58 57 53 52 56 58 66 75 76 75 74 74 73 73 73 72 71 72 73 72
71 70 70 68 67 68 68 68 69 70 70 71 70 72 74 74 74 74 74 72 69 64 60 54 41 39 42 39 63 75 74 74 75 75 76 75 75 76 76 77 75 65 62 59 60 46 50 48 49 49 51 54 60 73 75 72 73 74 73 73 73 73 72
65 64 64 64 63 62 62 63 62 63 65 66 67 69 70 71 70 69 68 68 65 61 56 44 39 41 40 39 44 66 75 75 74 75 75 75 77 76 75 75 76 75 76 73 75 67 56 46 46 46 45 48 50 49 50 67 73 74 73 72 72 73 73
58 58 58 58 59 59 58 59 59 60 61 63 66 67 68 68 68 67 66 65 64 62 59 41 40 39 41 40 42 52 77 75 74 75 74 74 75 74 75 74 74 74 75 61 69 76 76 68 47 42 45 45 44 44 47 45 46 64 74 72 72 72 74
56 56 56 57 58 57 58 59 59 62 64 65 66 66 67 66 67 67 66 64 62 60 56 43 40 39 40 39 41 47 76 72 73 74 74 74 74 74 73 74 74 74 75 74 75 74 75 75 72 67 66 68 71 62 45 43 44 40 51 69 72 72 74
54 56 58 58 59 60 60 60 62 63 64 63 63 64 65 63 64 66 66 65 62 58 52 39 40 39 40 39 40 46 73 71 73 73 72 72 73 73 73 73 73 74 75 74 75 70 74 74 74 73 73 73 74 75 74 71 69 71 70 70 73 74 74
56 56 56 56 54 54 55 55 57 58 60 61 61 61 61 62 62 64 64 64 62 59 53 39 39 40 39 40 39 66 72 71 71 72 72 72 73 74 74 73 74 73 74 75 57 47 56 69 73 73 71 73 74 74 75 65 59 63 69 73 75 75 74
55 56 56 56 56 55 54 53 56 60 58 58 58 58 58 59 61 62 62 63 61 59 56 44 39 40 40 38 51 72 70 73 72 71 72 71 73 73 72 73 73 73 72 73 50 47 43 48 70 71 71 72 72 73 74 69 46 43 40 40 40 39 39
55 54 54 54 54 55 54 54 54 57 57 57 56 57 57 57 57 56 56 56 59 58 55 45 39 40 40 38 47 67 71 72 70 71 71 71 73 73 69 52 60 70 71 62 40 44 39 51 67 70 71 70 70 71 72 73 67 61 39 39 40 40 40
54 54 53 53 54 54 55 55 56 58 60 62 62 63 63 61 59 59 58 58 54 58 58 50 40 39 39 40 49 65 69 71 69 69 70 70 71 72 71 62 50 54 57 49 38 41 39 48 65 69 70 69 69 70 71 73 71 69 66 65 64 61 58
54 54 53 54 55 55 56 57 58 59 60 63 63 63 63 62 60 59 59 60 59 59 59 56 47 39 39 40 39 55 67 66 66 65 67 68 68 71 70 70 53 40 40 39 41 38 42 39 53 64 68 69 68 67 72 71 71 72 70 69 69 68 67
51 53 54 55 56 56 57 56 57 57 57 58 59 59 58 60 60 60 60 60 60 58 57 57 50 38 40 39 38 44 64 61 61 62 64 65 68 68 70 71 65 40 38 37 38 37 38 39 40 52 60 65 68 55 52 69 70 56 70 69 69 68 68
50 50 51 53 53 54 55 56 56 56 57 56 55 56 58 60 61 60 60 59 59 58 54 48 56 42 39 40 38 36 55 57 52 57 59 64 65 66 67 67 68 45 37 37 38 37 37 38 39 47 54 46 43 42 55 59 66 68 68 68 69 68 67
50 51 51 52 52 52 54 55 55 56 56 57 56 56 56 57 58 58 59 61 61 59 58 54 44 50 39 39 37 36 35 45 39 51 58 59 60 62 65 64 60 41 38 37 38 38 38 37 39 48 42 41 41 40 44 58 60 61 63 66 65 64 65
53 53 53 53 53 52 53 54 56 56 56 56 56 56 58 57 57 56 57 58 58 59 59 60 46 43 46 37 39 38 37 33 34 50 53 56 59 60 62 60 51 38 38 38 37 39 39 39 42 40 39 39 39 40 48 52 54 56 56 60 62 61 63

ECMWFFLT1_sfc_temp_051.txt.gz
Temp
67 70 71 76 78 79 79 79 79 79 81 81 80 81 81 80 80 79 79 78 78 78 78 78 77 78 78 79 78 78 77 77 72 70 70 73 70 69 74 74 74 74 73 71 73 69 64 62 65 69 70 71 72 72 74 74 74 74 75 75 77 78 79
69 73 74 77 77 78 77 78 78 81 80 80 81 80 80 81 79 79 79 78 78 79 80 80 79 80 78 76 75 76 75 76 74 74 71 71 74 71 72 72 73 72 71 73 72 69 65 65 65 66 64 69 69 70 72 73 74 75 76 77 79 79 76
72 73 76 76 77 77 76 77 78 78 80 78 79 80 80 80 80 79 79 79 78 79 79 80 79 78 77 76 76 75 76 75 75 76 74 72 74 72 72 73 72 67 66 67 66 66 66 67 66 67 67 65 63 67 70 71 74 76 77 76 77 79 78
70 71 72 73 76 75 76 77 77 78 79 79 79 79 79 80 79 79 79 79 79 78 79 80 78 79 77 76 76 76 75 75 75 75 75 74 75 74 72 73 72 71 67 66 65 70 67 62 63 67 68 69 68 65 69 74 75 77 78 78 78 77 77
69 71 70 70 75 76 76 77 78 78 78 78 78 78 78 80 78 78 79 79 79 78 78 79 79 79 78 77 76 75 75 75 76 75 74 73 74 75 72 69 69 70 70 71 70 72 70 68 66 66 68 70 72 73 75 74 79 78 78 79 79 78 78
70 72 73 75 77 77 78 77 77 77 77 76 77 77 77 77 78 77 77 78 78 78 78 79 78 78 78 77 76 76 75 75 75 75 74 73 74 73 73 72 70 68 70 70 72 71 72 71 69 66 70 75 68 71 76 78 75 79 80 79 80 80 80
71 75 76 76 77 78 78 77 78 78 77 76 76 76 77 78 78 78 78 79 79 79 78 78 78 78 78 78 77 76 75 75 75 75 74 74 74 74 73 71 73 71 74 74 70 70 71 71 71 70 70 73 74 74 75 75 77 76 77 81 81 81 80
74 76 77 78 78 78 79 78 78 79 78 78 78 78 78 78 78 78 78 79 78 78 78 77 78 77 77 78 78 76 76 76 76 75 74 71 72 75 74 74 71 73 75 78 74 73 75 75 74 73 72 68 69 72 71 76 76 76 75 79 82 81 80
77 77 77 78 79 79 79 79 78 79 79 79 79 79 78 79 78 78 78 78 78 78 78 78 78 78 77 76 77 75 74 77 75 74 74 73 72 73 74 75 74 74 75 74 74 72 74 74 74 72 74 72 69 67 71 70 73 74 79 76 79 81 79
76 77 77 77 78 79 79 79 79 79 79 79 79 78 78 78 78 78 78 78 77 78 78 78 79 79 78 76 76 75 74 76 76 75 74 73 72 71 72 74 74 74 73 73 71 73 73 73 71 71 70 73 74 71 68 67 69 69 75 79 75 77 80
77 77 78 77 77 78 78 78 79 78 78 79 79 78 78 78 78 78 78 77 77 78 77 78 79 79 77 76 76 77 76 77 75 76 75 74 73 76 75 74 73 74 73 72 69 73 72 70 68 70 69 75 76 73 71 68 67 72 73 77 78 76 78
77 77 77 77 77 77 77 78 77 78 78 78 78 77 77 78 77 78 77 77 77 77 78 78 78 78 78 77 76 76 77 77 76 76 76 76 76 75 75 75 75 73 73 70 74 71 72 70 68 70 75 78 77 75 73 72 67 72 77 73 77 80 78
77 76 76 77 77 77 78 78 77 77 77 78 78 78 78 78 78 78 78 78 77 78 78 78 78 79 77 77 76 76 76 76 76 76 76 77 78 76 75 75 74 74 73 74 75 75 73 74 73 74 75 76 76 77 74 73 71 69 76 76 77 79 79
75 77 77 77 77 77 77 77 77 78 79 77 78 78 78 78 79 78 79 79 79 78 77 77 78 78 77 76 76 76 77 77 77 76 76 75 77 76 77 76 76 76 77 76 74 76 76 74 75 74 75 75 75 77 75 73 71 70 74 78 77 78 78
75 77 76 76 76 76 76 77 77 78 76 78 78 79 79 79 79 79 79 80 79 80 78 78 78 78 78 76 76 77 77 78 78 78 76 76 76 76 75 75 76 76 78 76 76 79 80 75 75 74 73 74 78 77 77 77 73 72 69 74 76 79 77
75 76 75 75 75 76 75 76 78 76 77 77 79 79 79 79 79 80 79 79 80 79 79 78 78 78 77 77 77 77 78 78 77 76 75 76 78 77 75 75 76 76 76 75 75 75 76 78 78 76 76 79 79 78 80 81 74 72 71 72 75 76 75
74 74 74 75 75 76 75 77 78 77 77 77 78 78 79 79 79 79 78 79 79 79 79 77 78 79 78 78 78 77 78 77 78 77 77 78 80 77 76 75 75 75 75 74 75 75 77 77 76 77 77 79 78 78 78 79 76 75 73 71 74 78 77
72 72 73 75 74 75 76 76 77 78 77 77 78 78 78 79 79 79 77 79 79 79 78 78 78 78 78 78 78 78 78 78 78 78 78 78 76 78 76 75 76 76 75 74 73 75 77 75 79 78 78 79 79 79 78 79 78 77 74 72 73 77 77
70 71 72 74 74 75 76 77 77 77 78 78 77 77 78 79 79 79 79 80 80 79 80 79 79 79 79 78 78 77 78 78 78 79 78 78 79 78 76 75 76 76 75 74 73 75 76 76 79 78 77 79 81 78 77 77 78 78 76 75 73 73 76
68 70 72 74 74 75 76 77 77 77 78 77 77 77 78 78 78 79 80 80 79 79 79 79 79 78 79 79 78 78 77 77 78 78 79 79 79 79 78 77 73 74 72 74 74 75 75 76 77 77 77 77 81 76 75 76 78 77 76 76 75 74 75
67 72 72 74 75 76 77 76 77 77 78 77 76 78 78 78 78 80 79 79 79 79 78 79 79 78 79 78 77 77 77 76 76 77 77 79 78 78 78 76 76 71 70 74 75 75 75 75 76 76 77 77 78 75 74 75 75 76 75 74 75 74 75
65 71 72 74 75 75 75 75 76 77 76 76 76 78 78 78 78 78 79 78 78 78 75 69 62 60 66 76 78 76 77 77 77 76 76 77 77 78 78 78 75 67 65 62 54 57 60 63 75 74 75 77 76 75 75 75 74 74 74 74 73 74 74
67 72 71 72 74 74 74 74 75 74 75 76 76 77 77 77 77 76 76 76 76 72 68 62 48 42 45 58 70 78 76 77 77 77 76 76 76 78 78 76 71 60 57 57 55 52 51 52 54 64 71 75 75 74 74 73 74 74 73 72 73 73 71
70 71 72 73 73 74 75 74 73 73 74 75 75 76 76 76 76 76 76 74 70 67 62 54 40 40 41 40 58 73 75 76 77 77 76 76 76 76 77 77 75 70 67 65 63 47 49 49 50 48 47 49 56 68 74 72 73 74 73 73 73 73 73
70 71 70 73 73 73 73 73 72 71 70 71 73 74 74 73 71 69 68 67 65 62 57 43 39 40 40 40 44 60 74 76 75 76 77 76 77 77 76 76 75 75 75 73 75 70 62 50 50 49 47 47 47 45 48 65 71 72 73 73 72 73 73
61 62 65 66 67 67 68 68 67 67 65 67 69 69 69 67 66 65 65 64 62 60 57 41 40 39 41 39 41 50 74 77 75 76 76 76 77 77 76 76 75 75 76 64 72 76 74 67 48 41 45 48 48 47 49 47 49 64 70 70 72 72 73
58 58 59 60 60 61 62 63 63 64 65 65 65 65 65 64 64 64 64 63 60 57 52 42 40 39 41 38 39 44 72 76 75 77 76 76 75 74 75 75 75 74 75 74 75 75 76 75 70 66 67 70 73 63 47 45 44 42 52 68 70 70 74
55 55 56 56 57 57 57 58 60 60 59 60 61 60 60 61 62 64 65 63 60 56 50 39 40 40 40 40 39 45 72 73 75 75 75 75 75 75 75 75 74 75 75 76 70 66 75 75 75 74 73 73 74 74 74 73 70 72 71 71 72 73 73
55 55 55 55 54 54 54 56 56 57 59 58 61 62 63 65 64 64 64 63 61 58 53 39 39 40 40 40 42 65 73 72 72 73 73 74 74 76 76 75 75 74 75 66 48 39 46 63 72 73 72 73 74 74 75 69 64 65 72 74 75 75 76
55 56 56 55 55 54 54 54 56 59 57 57 57 58 59 60 62 62 62 62 60 59 55 43 39 40 41 39 49 69 72 72 73 72 72 73 74 74 74 74 72 73 66 59 42 39 40 47 69 70 71 72 72 74 73 75 57 52 55 54 46 42 40
51 52 54 54 53 53 53 54 54 56 56 57 57 56 56 55 55 56 57 58 60 58 55 45 39 40 41 39 46 64 71 72 72 72 73 73 74 75 67 55 66 71 64 53 39 40 39 52 66 69 69 69 70 70 72 74 71 63 47 43 45 44 43
50 51 51 53 55 54 55 55 55 55 56 58 59 59 59 57 56 55 54 55 55 55 53 48 40 40 40 40 47 62 69 72 71 71 72 73 73 74 67 51 45 49 50 44 37 39 38 48 60 64 66 66 66 67 69 67 63 62 63 63 64 64 60
53 53 52 53 55 56 57 56 58 59 60 61 60 61 61 60 58 57 57 59 59 59 56 51 46 39 39 41 39 54 67 68 67 67 69 70 70 72 71 57 47 37 38 37 37 36 38 37 50 56 59 63 64 64 60 59 63 65 65 62 63 64 66
51 52 54 54 55 56 57 56 56 57 57 59 60 61 60 60 59 59 61 61 60 58 58 56 46 40 40 40 39 44 64 61 60 61 64 66 68 69 72 66 56 40 38 37 38 37 37 37 38 50 55 59 61 50 47 59 60 52 63 66 67 65 67
52 52 54 56 56 55 56 58 58 57 58 58 58 58 59 61 61 60 60 61 61 58 55 52 54 42 40 40 39 38 54 54 50 55 59 64 66 68 69 68 56 45 39 39 39 38 37 38 37 46 54 45 41 40 49 53 57 61 64 66 67 67 66
52 53 53 54 54 54 56 57 58 58 58 58 58 58 59 60 61 62 62 63 63 62 59 55 47 50 40 40 37 39 36 46 40 53 58 59 61 63 66 65 56 43 40 40 40 39 39 37 40 50 42 40 40 38 42 53 56 57 59 61 60 60 61
54 54 55 55 55 54 55 57 58 58 58 59 59 59 60 60 61 62 62 62 63 63 63 59 48 46 46 37 40 37 38 35 35 50 53 57 59 61 61 56 51 40 41 41 40 40 39 38 45 40 39 39 38 39 48 54 56 57 55 56 57 59 60

ECMWFFLT1_sfc_temp_054.txt.gz
Temp
69 68 69 69 69 70 72 72 74 74 75 77 76 78 77 76 75 74 74 74 74 74 74 72 72 73 73 74 73 74 72 71 69 67 67 67 65 65 68 67 67 69 68 66 65 62 61 56 58 64 64 63 66 67 67 69 69 68 68 70 70 69 69
71 70 70 71 69 70 71 72 73 76 76 76 77 77 76 77 75 75 75 74 74 74 75 75 74 75 72 72 72 71 71 70 70 69 68 66 66 65 66 65 67 67 67 67 67 66 63 59 58 59 59 64 65 65 66 68 69 69 69 70 71 72 70
69 70 70 70 70 70 69 71 73 72 73 73 75 76 75 77 75 75 75 75 74 75 74 76 74 73 72 71 72 71 71 70 70 70 67 67 68 68 68 66 64 64 65 64 64 63 62 62 59 59 61 60 59 62 66 66 69 70 71 69 70 72 70
68 69 67 69 70 68 68 71 72 72 73 73 73 74 75 75 74 75 74 74 74 74 75 75 73 74 73 72 72 72 72 71 69 69 69 69 68 67 67 66 65 67 64 63 61 61 62 61 61 60 62 64 63 60 64 68 68 71 72 69 70 69 69
69 68 67 68 70 71 71 71 72 72 72 72 72 72 72 74 73 73 74 74 73 73 74 74 74 74 73 73 72 71 71 71 71 70 69 68 68 68 67 67 67 68 67 65 64 63 64 63 64 62 62 65 66 65 68 67 72 71 71 72 71 69 69
68 70 69 69 71 71 71 71 71 71 71 71 72 72 73 72 72 72 73 73 72 73 74 74 74 74 73 72 72 71 71 70 70 70 69 69 69 67 66 68 67 67 67 68 68 67 67 66 65 62 65 67 63 65 69 68 67 72 72 71 73 72 70
67 68 68 70 72 72 72 72 72 72 71 71 72 72 73 74 73 73 74 73 73 73 74 74 73 73 73 73 72 71 71 70 71 70 70 69 69 69 69 67 67 66 67 69 68 68 66 64 62 63 63 65 67 66 69 69 72 68 69 73 73 73 71
67 66 66 66 69 70 72 73 73 73 72 72 72 73 74 73 73 73 74 73 73 73 73 73 74 71 71 71 72 71 71 71 71 70 69 69 69 70 68 67 68 67 67 69 68 68 70 67 65 65 64 62 61 63 64 70 69 69 68 70 74 72 69
66 66 65 65 66 69 72 73 72 73 73 72 73 73 73 73 73 73 74 73 73 73 72 73 73 72 72 71 70 70 70 74 70 70 69 69 68 69 68 69 68 67 68 68 69 68 69 68 66 66 67 65 60 59 61 61 64 66 73 69 71 71 69
66 65 64 65 67 70 73 73 72 73 73 73 73 73 72 73 73 72 73 72 73 73 73 73 73 73 72 71 70 70 71 72 71 71 70 69 69 69 68 68 67 67 68 69 68 67 68 68 67 67 66 66 66 62 58 59 60 61 69 72 66 68 71
66 66 66 66 68 70 72 73 73 72 72 73 74 74 73 72 73 74 72 72 72 73 73 74 74 74 72 71 71 69 70 71 71 70 70 70 69 69 69 69 68 68 69 67 65 67 67 67 66 67 66 65 66 65 61 59 59 63 62 67 70 67 69
68 68 68 69 71 72 73 73 73 72 73 73 72 72 72 72 71 72 72 72 72 72 73 73 73 72 72 71 70 68 70 70 70 69 70 70 69 69 68 68 67 68 67 66 65 65 67 67 65 66 67 66 65 67 66 62 58 63 66 63 66 72 69
70 71 71 72 72 73 74 74 73 72 72 73 72 73 73 72 72 72 72 72 72 72 73 73 73 72 71 70 71 70 70 70 70 70 69 70 72 71 69 68 67 68 68 67 66 65 67 67 68 67 67 67 68 68 67 63 62 60 65 63 66 69 70
66 70 72 73 72 72 72 73 73 72 73 71 72 72 73 73 73 73 73 73 73 72 71 72 71 71 71 70 70 71 72 72 72 70 70 70 72 71 71 70 69 70 69 67 65 65 68 68 68 68 68 68 68 67 67 64 62 62 65 64 65 68 70
66 68 70 72 72 73 73 72 72 73 71 72 73 74 74 73 73 73 73 74 72 73 72 72 72 72 71 70 70 73 72 71 70 71 69 69 69 71 70 70 71 70 71 70 67 69 69 69 70 70 69 69 68 68 69 68 64 60 59 64 64 69 68
67 67 68 69 71 72 72 72 73 72 72 72 73 73 73 73 74 74 74 72 73 73 73 72 71 72 70 70 70 70 71 70 70 69 69 69 72 71 69 70 69 69 70 69 68 67 66 69 71 71 70 70 69 69 71 71 66 62 62 62 64 67 66
70 70 70 71 71 72 72 72 73 72 73 72 73 72 73 74 74 73 73 73 74 73 73 71 72 73 73 72 71 71 72 71 70 70 70 70 73 71 69 68 67 69 69 67 68 66 65 65 64 66 68 69 69 70 69 69 69 65 62 62 64 68 67
70 70 70 71 71 72 72 72 72 73 72 71 73 73 73 74 73 74 73 74 74 72 72 73 73 73 72 72 72 71 72 71 71 71 71 70 72 70 69 68 68 65 65 66 67 68 66 65 68 67 67 70 71 70 69 69 68 68 65 62 63 66 67
70 70 71 71 71 71 72 72 72 72 74 73 72 73 72 73 75 74 74 75 74 73 73 72 73 73 73 73 72 70 72 71 72 72 70 71 72 71 69 68 64 65 64 63 64 66 69 68 68 68 69 71 74 69 66 67 68 67 67 64 64 62 66
70 70 70 70 70 69 72 71 71 72 73 73 72 71 72 72 73 73 74 74 74 73 73 74 72 72 74 73 73 72 70 70 71 71 70 71 72 71 71 67 64 64 63 63 64 65 67 68 68 68 70 68 73 68 67 67 68 68 66 65 64 63 63
69 70 70 71 71 70 71 71 71 71 72 71 71 73 72 72 72 73 73 74 73 70 65 62 60 62 65 70 71 71 70 69 71 70 70 71 70 70 69 66 65 65 65 65 65 65 67 67 68 67 68 70 67 65 64 65 65 65 65 63 62 62 62
69 68 68 67 67 66 67 70 71 71 71 71 72 73 72 73 72 73 73 71 67 65 61 55 51 49 56 61 66 71 71 71 69 69 71 71 70 71 69 67 66 65 64 62 55 56 56 59 66 66 66 66 65 65 66 66 66 65 65 64 63 64 63
67 65 65 65 64 64 63 67 69 70 71 71 71 71 71 71 72 72 70 66 65 61 57 53 45 42 44 51 60 67 70 69 70 70 69 69 69 71 67 66 65 62 59 58 54 50 47 49 54 59 60 62 64 64 64 64 64 66 65 64 62 62 61
66 64 63 63 63 63 63 61 66 70 70 70 70 70 70 70 69 68 66 64 60 57 53 49 42 40 40 42 55 61 65 67 70 69 68 69 67 69 67 66 63 61 61 60 57 49 48 46 45 46 46 49 54 61 64 62 62 65 64 63 63 63 61
64 64 64 63 62 62 62 61 65 68 68 68 68 66 64 64 64 63 62 60 57 55 51 43 40 41 41 41 43 55 63 67 68 67 69 69 70 69 67 66 65 66 66 66 65 62 56 48 46 47 46 46 46 45 49 60 62 61 61 61 61 61 62
59 59 60 61 61 61 62 64 64 65 65 66 65 64 63 62 61 61 59 57 55 53 51 42 41 41 41 41 39 48 65 66 68 67 69 70 68 68 67 67 67 68 70 66 68 66 64 60 46 43 47 53 55 52 48 48 52 61 62 60 60 60 62
58 58 58 58 58 59 60 62 63 64 64 64 63 62 61 60 60 59 58 56 54 51 48 42 40 41 41 40 40 44 63 67 67 69 68 68 68 67 67 66 66 67 66 65 59 59 66 62 61 60 61 62 63 61 54 47 43 43 50 60 60 60 62
56 56 56 55 55 55 57 57 58 58 60 60 60 59 59 58 57 57 57 56 54 51 46 40 41 41 41 41 42 47 63 67 67 67 68 67 68 68 69 68 66 65 60 53 48 44 55 62 63 63 62 62 63 63 63 64 61 60 58 60 60 62 62
54 54 53 53 53 53 53 54 54 55 56 56 57 58 57 57 56 56 56 55 53 52 49 40 40 41 41 41 46 61 65 66 66 66 66 67 66 66 67 67 66 60 55 50 43 40 43 52 63 63 63 64 64 64 65 64 59 59 64 63 62 61 60
51 52 52 51 51 51 51 52 52 53 53 53 52 53 53 54 56 56 56 55 53 51 49 42 40 41 41 40 48 60 64 66 66 66 66 66 67 61 58 62 64 58 52 47 39 39 41 48 62 62 62 62 63 63 64 65 49 48 48 48 47 45 43
50 50 50 51 51 50 51 51 51 52 51 50 50 51 52 52 53 54 55 55 54 51 49 44 40 41 41 40 46 57 62 64 64 65 66 66 62 54 50 49 54 52 47 42 37 37 39 51 58 58 59 58 60 61 59 57 62 61 53 51 49 47 47
49 49 49 50 50 50 50 50 51 52 52 51 51 52 52 52 52 53 54 54 53 51 48 46 41 40 41 41 46 55 61 62 60 59 63 64 62 53 50 44 42 42 42 38 36 36 37 47 54 53 54 55 56 58 52 53 55 56 56 58 60 61 59
48 49 49 49 49 49 50 50 51 51 52 52 52 55 55 54 53 53 54 54 52 50 47 46 43 41 41 42 43 53 56 54 54 55 58 59 61 55 52 49 44 39 39 38 38 37 37 38 47 51 52 52 53 53 50 51 53 54 54 55 57 59 60
47 48 49 49 49 50 50 50 50 50 50 51 52 51 52 53 54 53 54 52 52 51 50 48 44 40 42 42 42 47 52 50 50 53 55 57 59 59 54 50 47 41 40 40 40 39 38 37 38 46 50 51 52 46 43 49 50 48 53 55 56 58 59
49 48 49 49 49 49 50 51 51 51 51 51 52 51 53 52 54 54 55 54 53 52 51 49 48 42 41 41 41 42 49 49 46 50 53 55 57 57 56 52 49 43 40 41 41 40 40 40 37 43 49 46 42 40 45 46 48 51 53 54 55 55 56
49 51 49 50 50 50 51 53 54 54 54 54 53 53 54 55 55 55 55 55 54 52 52 50 45 45 41 41 40 40 39 44 41 50 50 51 53 54 54 51 50 44 40 41 41 40 41 39 40 46 44 42 40 37 38 45 48 50 49 52 52 52 52
50 51 52 53 53 53 53 53 54 54 54 54 54 55 55 56 56 56 56 56 55 53 52 51 45 43 43 39 40 40 38 36 37 45 48 51 53 52 50 49 46 41 41 41 41 40 40 41 43 42 40 39 36 37 42 45 47 49 47 47 48 49 51

ECMWFFLT1_sfc_temp_057.txt.gz
Temp
63 63 65 65 66 67 67 68 68 68 70 70 68 69 70 70 70 69 69 68 68 68 67 67 67 67 68 69 68 67 66 67 65 63 62 63 61 61 63 63 62 64 64 60 61 60 59 56 57 61 61 61 61 61 62 64 64 64 64 63 64 64 63
65 65 65 66 66 67 66 67 68 69 69 70 71 70 71 71 69 69 68 68 69 68 69 69 67 68 67 67 65 66 65 65 66 65 64 63 62 62 61 61 61 62 62 62 63 61 57 56 56 58 57 60 60 61 62 63 65 65 64 64 65 65 63
66 66 65 65 65 65 66 67 68 68 68 68 68 71 70 70 69 69 68 68 69 69 69 69 69 68 67 67 66 65 66 65 65 66 65 63 64 63 63 62 61 60 60 60 59 59 59 60 57 57 57 57 56 58 62 62 65 65 66 65 64 66 64
66 66 64 64 64 65 65 67 68 68 69 69 69 69 69 70 69 69 68 68 68 69 69 69 67 68 67 68 67 67 66 66 64 64 64 63 64 63 63 62 62 62 60 58 59 59 59 56 57 56 58 59 59 58 62 64 64 66 68 66 65 64 62
66 66 65 64 65 65 65 66 67 67 68 68 68 67 68 69 68 67 68 68 67 67 66 68 68 68 67 67 66 66 66 66 66 65 64 63 63 63 63 62 62 63 61 61 60 60 60 59 59 57 58 60 61 60 65 63 65 67 66 67 66 63 62
65 66 66 66 66 66 66 66 67 67 67 67 67 68 66 67 68 67 67 67 66 66 67 68 67 68 68 67 66 66 65 65 65 65 63 64 64 63 63 62 63 63 62 63 62 61 61 61 60 58 59 62 58 59 63 63 62 66 67 65 65 64 62
65 65 65 66 67 67 67 67 67 67 67 67 67 66 67 68 68 67 67 67 67 66 66 67 67 68 68 67 67 66 66 65 65 65 64 64 64 64 64 62 63 63 62 64 63 62 61 61 59 60 59 60 61 60 62 63 65 64 63 65 65 63 62
65 65 65 67 67 67 68 68 68 68 68 67 67 66 68 67 67 67 67 67 68 66 66 66 68 67 66 67 68 66 66 66 65 65 63 64 65 64 63 63 62 63 62 63 63 63 63 64 62 62 61 57 56 57 58 62 63 62 63 62 65 63 61
65 64 63 64 65 67 67 69 68 68 68 67 67 68 68 68 67 67 67 67 66 66 66 66 67 67 66 65 65 66 66 69 66 64 64 65 65 64 64 63 63 62 63 64 65 63 63 63 63 63 62 61 58 55 56 56 59 60 66 60 62 62 61
64 64 63 63 64 66 67 68 68 69 69 68 67 68 68 67 67 66 66 66 67 67 66 66 66 66 65 66 66 65 65 66 66 65 64 65 63 64 63 64 63 63 63 64 64 63 63 64 63 62 63 63 60 58 55 54 54 56 61 64 58 60 61
64 65 64 64 64 66 66 67 68 67 67 68 69 69 67 67 67 68 66 66 66 67 67 67 67 66 65 64 65 64 65 65 65 65 65 65 64 64 64 64 63 62 64 64 63 62 62 63 62 63 62 62 61 60 56 55 54 57 57 60 61 59 59
62 63 64 64 64 66 66 67 68 67 67 68 68 67 67 67 66 66 67 66 66 65 65 64 66 66 65 64 64 63 63 64 64 64 65 65 64 64 63 63 61 62 63 62 63 62 62 63 63 63 61 62 61 60 59 57 56 58 62 58 60 64 61
62 64 64 64 65 66 68 69 68 67 67 68 67 67 67 66 66 66 66 66 65 65 64 64 66 65 64 64 64 65 65 64 64 65 65 65 67 65 63 63 63 63 62 62 62 62 62 63 62 61 62 62 61 60 60 60 59 58 58 59 60 61 62
63 64 64 65 66 66 67 69 69 68 68 67 67 66 66 65 66 67 66 66 66 64 63 64 63 64 64 63 63 64 64 65 65 64 65 64 66 65 65 65 63 63 63 62 61 62 62 63 62 62 63 62 62 62 62 59 58 57 58 60 60 61 62
63 64 65 66 66 66 68 68 68 68 67 67 67 67 67 66 66 66 65 66 64 64 64 63 62 64 64 63 62 66 65 64 64 64 63 64 64 66 65 63 63 63 64 63 61 63 62 63 64 63 63 63 63 63 64 60 56 55 57 57 57 61 61
63 64 65 66 67 68 68 67 68 67 67 67 66 66 67 65 66 66 65 65 63 64 64 63 63 62 63 62 62 63 64 62 62 63 62 63 64 64 64 63 62 62 64 62 61 62 62 64 65 64 63 62 63 63 66 66 60 56 58 56 58 60 60
63 64 66 66 67 68 69 68 68 68 67 66 66 65 67 66 66 64 66 64 64 63 64 64 63 64 65 63 63 62 61 62 63 64 63 63 63 63 62 62 61 61 61 61 61 61 61 61 61 62 63 62 62 63 64 64 65 60 57 58 58 62 61
63 63 63 64 67 68 68 68 68 68 67 65 65 67 67 66 65 66 66 65 65 64 64 63 63 63 64 62 62 62 62 63 64 61 61 62 66 63 62 61 61 61 60 60 60 60 60 60 63 61 62 62 63 63 63 63 63 63 61 59 58 60 61
63 61 61 62 66 68 68 68 68 68 68 66 65 67 67 68 67 66 65 66 66 65 62 61 61 63 63 62 62 62 62 61 62 63 61 64 64 63 62 60 60 61 60 59 58 59 60 61 62 61 61 63 65 63 61 61 62 62 62 60 60 58 56
62 61 61 62 66 68 68 67 68 68 67 67 67 67 67 67 65 66 65 64 62 59 58 58 58 59 61 62 61 62 61 61 61 63 62 62 63 62 61 61 60 60 61 60 59 59 59 60 62 61 60 61 65 63 62 61 62 61 60 59 56 58 58
60 62 62 63 65 67 67 67 68 67 67 67 67 67 66 65 63 62 61 60 58 56 55 53 53 54 58 58 59 61 61 61 60 61 61 62 61 61 61 60 60 59 59 60 60 59 59 61 62 61 61 62 63 61 61 60 60 60 59 58 56 57 57
61 61 61 61 62 66 67 67 66 67 67 67 67 65 65 64 62 61 59 57 55 54 51 49 48 47 52 55 58 60 60 61 60 61 61 61 61 61 60 60 60 59 61 60 56 57 59 61 61 58 58 59 59 58 58 58 60 58 57 58 56 56 55
61 61 61 61 60 61 63 63 65 67 67 66 65 64 64 62 61 59 57 54 52 51 49 48 45 43 44 49 54 60 59 58 60 62 61 60 60 60 60 59 61 62 58 57 54 49 49 53 57 60 59 59 58 59 57 56 56 57 58 56 55 56 54
60 60 60 60 60 62 62 62 63 64 63 62 61 61 61 60 58 57 55 53 50 49 46 45 42 40 41 44 54 57 58 58 58 59 60 60 59 59 57 57 57 59 58 57 52 47 46 47 48 49 50 54 59 60 57 56 56 55 55 55 55 56 55
60 59 60 60 60 61 61 61 61 61 61 60 59 59 58 57 55 53 52 51 49 48 45 43 40 41 41 41 46 55 58 58 59 58 59 62 61 59 57 56 56 58 58 57 55 52 49 45 44 45 46 45 46 48 53 58 57 54 53 54 53 54 54
58 57 58 58 59 60 60 60 59 58 58 59 59 57 55 54 53 51 50 48 46 46 45 42 41 41 41 42 42 50 58 59 59 58 59 61 61 58 56 57 58 59 56 54 54 54 55 51 46 46 47 47 46 47 46 47 52 58 53 55 58 54 56
55 55 56 56 57 58 59 58 58 57 57 57 56 55 54 53 51 50 49 48 46 45 44 42 41 42 41 42 42 48 56 58 58 58 59 60 59 59 58 59 56 52 50 48 47 49 52 54 54 55 55 55 55 51 46 47 47 48 52 57 56 57 54
53 53 54 54 54 55 55 55 55 55 55 54 54 53 52 51 51 50 49 48 47 46 43 41 41 41 41 43 46 51 57 58 59 59 59 58 59 60 58 56 52 49 48 46 43 43 48 52 55 57 56 57 57 57 57 56 54 54 53 54 54 55 55
51 51 51 52 52 52 52 53 52 52 52 52 53 52 52 51 49 49 48 48 47 46 45 41 41 42 42 43 48 56 57 57 56 59 55 53 53 55 56 53 50 47 46 44 42 42 46 55 56 56 55 56 57 57 55 52 46 47 51 53 53 52 52
49 50 50 50 50 50 50 50 50 51 51 50 50 50 50 50 51 50 49 48 47 47 46 42 41 42 43 44 50 57 57 57 57 55 51 50 49 50 50 49 48 46 45 44 41 42 44 49 53 53 53 53 54 54 50 53 49 47 46 46 46 46 46
48 48 49 49 49 49 49 49 49 50 50 49 48 49 50 49 49 49 49 48 48 47 46 43 42 42 43 45 50 55 55 55 55 55 51 50 48 46 48 51 49 46 44 42 40 41 43 49 51 51 51 51 51 51 49 50 52 52 49 48 48 48 48
48 48 48 48 48 49 49 49 49 50 49 49 49 49 50 50 49 48 48 48 50 47 46 45 42 42 43 44 49 51 52 52 52 51 51 49 48 46 46 46 46 45 45 41 38 40 41 47 49 49 48 49 49 48 47 46 48 49 50 51 52 52 53
48 48 48 48 48 48 49 49 49 50 50 49 49 49 49 49 49 48 48 47 47 47 46 45 44 42 43 43 45 50 50 49 50 51 52 51 48 46 46 46 44 40 40 39 39 38 37 41 47 46 47 47 46 49 45 45 46 45 46 46 48 50 50
48 48 48 48 48 48 48 49 49 49 49 49 49 49 49 49 48 47 47 47 47 47 47 45 43 42 42 43 43 46 47 46 47 50 50 49 48 47 46 45 43 41 39 40 40 39 38 36 38 43 45 48 47 42 41 43 44 44 44 45 46 47 49
48 48 48 48 48 48 49 49 49 49 48 49 49 49 49 48 47 46 46 48 47 46 48 48 46 42 41 42 41 43 48 46 45 48 47 47 46 46 45 44 43 41 40 40 40 39 40 41 37 40 41 40 38 38 41 41 42 42 44 45 44 44 46
47 48 47 47 48 47 48 48 49 48 49 49 49 49 49 48 47 46 47 48 48 48 47 47 44 44 41 41 41 40 40 42 41 47 46 45 44 44 45 44 45 43 39 40 39 39 40 40 40 40 39 37 36 34 36 40 40 42 42 44 44 45 44
46 46 46 46 47 46 46 47 47 47 48 49 48 48 48 48 48 46 46 47 48 48 47 46 43 42 43 40 41 40 39 38 39 44 46 44 44 44 43 43 42 40 40 40 39 40 41 42 41 39 37 36 35 35 38 39 39 41 40 41 42 43 45

ECMWFFLT1_sfc_temp_060.txt.gz
Temp
63 63 64 64 65 65 65 65 65 66 66 66 65 66 66 67 66 66 66 66 66 66 66 66 66 65 65 65 65 66 64 65 64 62 61 61 61 61 60 59 59 60 61 57 59 58 57 55 57 60 60 60 59 60 60 61 61 61 61 61 62 61 59
64 64 63 64 64 65 65 64 65 66 66 66 66 66 66 67 67 66 66 66 66 66 67 66 66 65 65 64 64 63 63 63 64 64 63 61 61 60 59 57 59 59 58 58 60 58 57 56 56 58 57 59 58 59 59 59 61 61 62 62 62 62 60
63 63 63 63 64 64 65 65 66 65 65 65 65 66 67 67 67 67 66 66 67 67 66 67 66 65 65 65 64 64 64 63 63 63 63 62 62 61 61 60 59 58 57 57 57 56 58 60 56 57 58 57 56 57 58 59 60 61 62 61 61 62 60
63 63 62 63 64 64 64 65 65 65 65 65 64 65 66 67 67 67 66 66 66 67 67 66 65 66 65 65 65 64 64 64 63 63 63 63 62 61 61 61 61 61 59 56 57 57 57 56 56 57 58 57 56 56 58 59 60 62 63 61 61 60 59
64 64 63 63 64 64 65 65 64 63 63 64 64 64 65 66 66 65 66 66 66 66 66 66 66 66 66 65 64 64 64 63 64 63 62 62 61 62 61 60 61 62 60 60 59 59 58 57 58 57 56 57 58 57 61 59 61 62 62 62 62 60 59
64 64 64 64 65 65 65 65 63 61 62 62 63 64 65 65 65 65 65 64 65 65 65 65 65 66 65 65 64 64 64 63 63 63 62 62 62 62 61 60 61 61 60 60 60 60 59 58 59 56 57 58 55 56 59 60 58 61 62 62 61 60 60
64 64 64 65 65 66 66 66 65 65 64 65 64 65 65 66 65 65 66 66 65 65 65 65 65 66 66 65 64 64 64 63 63 63 62 62 62 62 62 60 61 61 60 60 61 60 59 58 56 57 56 57 56 57 58 59 60 59 59 61 61 60 59
62 62 62 65 65 64 65 66 65 66 66 66 66 65 66 66 65 65 66 65 64 64 64 65 66 66 65 65 65 64 64 63 63 62 62 62 62 61 61 62 61 62 60 60 60 60 61 61 60 59 58 55 54 56 56 58 59 58 57 57 59 59 57
63 63 62 63 64 65 66 67 66 66 66 64 64 65 65 66 65 65 65 65 63 64 64 65 65 65 65 64 64 64 63 65 63 62 62 62 62 61 62 60 61 61 61 61 61 60 62 62 61 61 60 60 57 53 53 54 54 56 60 56 58 58 57
63 63 63 63 64 65 66 66 67 66 65 66 66 66 65 65 64 65 65 64 63 64 64 65 65 64 64 64 64 62 63 63 63 63 62 62 62 61 60 61 61 61 60 61 62 61 61 61 61 62 63 62 60 57 53 51 51 50 56 57 55 56 58
62 63 63 63 64 65 66 66 67 65 66 67 67 66 65 64 64 66 64 63 63 64 64 64 64 63 63 63 62 62 63 63 63 62 63 63 62 62 61 61 60 62 61 61 60 61 61 61 61 62 61 59 59 59 56 54 52 51 54 56 54 54 55
61 62 62 63 63 64 65 67 66 68 67 66 66 65 64 64 63 63 64 63 63 64 63 63 64 64 65 62 62 61 62 62 62 62 62 63 62 62 61 61 59 61 60 61 61 60 61 61 61 61 60 60 60 57 57 56 52 53 57 56 55 58 57
62 62 62 63 63 63 64 66 67 67 66 67 66 66 65 64 63 63 64 64 63 63 62 62 63 62 62 63 62 61 61 62 62 62 62 62 64 62 61 61 60 61 60 60 61 61 60 61 61 61 60 61 60 59 56 56 56 55 54 56 55 57 57
62 63 63 63 63 62 63 64 66 68 67 67 66 65 65 64 64 64 64 64 64 61 61 61 62 62 62 61 62 63 62 63 63 62 62 61 62 62 62 62 60 61 60 60 60 61 61 61 61 61 61 60 59 59 59 57 56 52 56 53 54 55 56
62 62 63 63 61 62 63 63 65 67 67 66 67 66 65 64 65 65 64 64 62 62 62 62 62 62 61 61 60 63 63 62 62 62 62 62 61 63 62 61 61 61 61 61 60 61 61 60 61 60 60 62 62 59 60 60 55 55 54 53 53 54 54
62 62 62 61 62 62 62 63 65 66 67 66 66 66 65 65 66 65 65 64 62 62 62 62 61 61 61 61 61 61 62 62 61 61 61 62 62 62 61 61 61 61 61 59 59 61 60 61 61 61 60 61 62 60 61 61 58 55 55 52 53 54 54
62 62 62 61 61 62 62 63 64 65 67 67 66 65 66 66 65 65 65 63 63 62 61 61 61 62 63 61 61 61 60 60 61 61 61 61 60 60 60 59 60 60 60 59 59 58 59 59 60 60 61 60 61 62 61 59 62 56 52 53 53 56 55
62 61 60 60 61 62 62 62 64 66 66 65 66 65 65 66 65 65 64 64 62 62 62 61 62 62 61 60 61 61 61 60 61 60 61 61 62 60 60 60 60 60 60 59 58 58 59 58 60 59 60 60 61 62 60 61 60 59 57 56 54 54 54
60 60 59 60 61 62 62 62 63 65 66 65 65 65 65 65 66 64 64 64 62 59 58 58 60 61 60 59 59 59 59 60 60 60 59 59 61 61 61 60 60 60 60 59 58 58 58 59 59 58 58 59 62 61 59 57 57 58 59 57 55 53 52
60 60 59 60 61 62 62 62 63 63 63 65 65 65 65 64 62 63 62 61 59 57 56 56 56 55 57 58 58 57 57 58 58 57 58 61 61 60 60 59 59 59 60 59 59 58 58 57 59 57 57 58 61 60 57 58 59 58 56 55 54 55 55
60 60 60 61 62 62 62 62 62 62 62 64 65 65 63 61 60 61 59 58 56 55 54 53 52 53 55 56 57 58 59 59 59 58 58 59 60 59 59 59 58 57 58 58 59 57 57 58 57 58 57 58 60 59 56 55 58 57 55 54 55 53 51
60 60 60 60 61 61 61 62 62 61 62 64 63 62 61 60 58 57 56 55 54 53 51 49 48 48 53 56 55 57 57 59 59 59 59 59 58 57 56 56 55 55 58 61 57 57 57 58 59 59 57 56 57 57 53 55 56 55 53 54 53 53 52
60 60 59 60 60 60 60 61 60 61 62 62 61 61 59 59 57 56 54 52 51 50 48 47 47 45 47 53 55 58 57 56 58 58 59 58 56 56 57 56 57 61 58 57 54 51 51 54 57 60 58 57 57 56 55 54 53 53 54 53 53 52 51
60 59 60 60 59 59 60 60 59 59 60 60 59 59 58 56 55 54 53 52 50 48 45 46 43 42 42 49 55 56 56 55 56 58 58 58 58 56 55 55 54 57 56 54 50 46 46 47 50 50 51 54 58 61 58 55 53 52 52 54 49 50 51
59 59 59 59 59 58 58 58 58 57 58 57 56 56 55 54 52 51 50 50 49 48 46 43 40 42 42 45 53 56 55 56 57 57 58 58 57 55 54 54 53 53 53 54 53 52 51 47 45 45 45 45 44 44 47 54 54 52 51 52 51 52 52
59 58 58 58 58 58 58 57 56 56 56 55 55 53 52 52 50 50 50 49 47 47 47 42 40 42 42 44 49 54 56 56 56 55 56 56 55 54 53 52 50 50 50 53 51 50 52 51 49 47 46 48 47 46 43 43 45 53 53 52 52 51 49
57 57 57 57 57 57 57 55 54 53 54 54 53 51 50 49 49 48 49 48 47 47 46 42 41 43 44 45 47 52 56 56 55 55 55 55 55 53 52 50 49 48 47 47 47 48 50 52 53 55 55 55 54 51 47 46 46 46 50 53 52 52 52
54 55 56 56 55 55 54 53 53 51 51 51 50 49 48 48 48 48 48 48 48 47 45 41 41 43 44 46 47 50 54 53 52 51 52 52 51 50 49 49 48 47 47 47 47 47 53 54 54 54 54 54 52 51 50 50 50 51 51 52 51 50 51
50 52 53 53 53 52 52 52 51 50 49 49 48 48 47 47 46 47 47 48 48 47 46 41 41 43 45 47 49 53 52 50 49 49 49 49 49 49 49 48 48 47 48 47 45 44 47 52 52 52 51 52 51 49 49 49 45 46 48 48 49 49 49
48 49 50 50 50 50 50 50 50 50 49 48 47 47 47 46 47 47 47 48 47 46 46 42 41 43 45 47 49 52 51 49 48 47 46 47 48 49 49 50 49 47 47 46 43 42 44 49 51 50 50 49 49 49 48 49 47 45 45 45 44 44 45
47 48 49 48 49 48 49 49 48 48 48 47 46 46 46 45 46 47 47 47 47 46 45 43 42 43 44 46 50 53 52 50 48 47 46 46 46 46 48 50 50 47 45 44 40 41 43 49 50 49 49 48 48 47 47 47 48 49 47 47 46 46 46
47 47 48 48 48 48 48 48 48 49 49 48 46 46 46 46 45 46 47 48 49 47 46 45 42 42 42 45 50 53 53 51 49 48 47 46 47 46 46 45 45 44 44 41 39 40 40 46 48 47 46 47 46 45 43 42 44 45 46 47 48 49 49
47 47 47 48 48 48 48 48 48 48 48 48 47 46 45 46 45 45 46 46 47 47 46 45 43 41 42 43 45 52 52 51 49 48 48 48 47 47 46 45 44 39 39 39 38 38 38 40 45 44 45 45 44 43 42 42 43 42 42 43 44 45 46
47 47 47 47 48 48 48 48 48 48 47 47 46 45 45 45 45 45 45 46 46 47 47 45 43 40 41 42 43 46 49 49 48 48 47 46 46 45 46 45 44 40 38 39 39 39 39 38 41 43 43 43 43 41 40 41 41 42 42 43 43 44 45
46 46 46 46 46 46 47 48 48 48 48 47 46 45 45 44 44 43 44 45 45 44 45 45 44 41 40 41 41 43 46 46 47 47 45 46 45 45 45 44 44 40 38 39 39 39 39 39 40 43 39 36 34 35 39 40 41 41 42 42 42 42 43
45 46 45 45 46 45 45 46 47 47 47 47 46 45 44 44 43 43 43 43 43 43 43 43 42 42 40 40 40 40 41 43 42 46 45 44 43 43 44 43 43 40 38 39 40 40 40 40 41 39 35 35 34 33 37 39 39 41 40 40 42 42 42
45 45 45 45 45 44 45 45 45 45 46 46 46 44 44 44 43 43 42 42 43 43 43 42 41 40 40 39 39 39 39 39 41 44 45 44 43 43 42 41 41 38 39 40 40 40 40 41 41 38 36 35 36 38 40 41 41 41 40 39 41 40 42

ECMWFFLT1_sfc_temp_063.txt.gz
Temp
62 62 63 64 64 64 64 64 64 65 65 66 65 65 65 65 65 64 65 65 65 65 65 64 64 64 64 65 64 65 64 63 62 61 60 59 59 59 59 57 57 58 59 56 59 57 56 55 56 60 60 60 58 59 60 59 59 60 60 60 60 60 61
63 62 63 64 64 64 64 64 64 65 65 65 65 65 65 65 65 65 65 65 65 64 65 65 65 64 64 64 63 62 62 62 63 62 61 60 60 59 58 54 57 57 55 56 58 54 55 55 56 57 57 59 58 58 57 57 59 60 60 60 60 60 59
62 61 63 63 63 63 63 63 64 64 64 63 63 64 65 65 65 65 65 65 65 65 65 65 64 64 64 64 64 63 63 63 62 62 62 61 61 60 60 57 55 55 55 55 56 54 57 57 56 56 57 57 56 58 57 57 59 60 60 60 59 59 58
61 61 61 62 62 62 63 62 63 62 63 63 62 63 64 64 65 65 65 65 65 65 65 64 64 64 63 64 64 64 63 63 62 61 61 61 61 60 59 59 59 59 58 54 56 56 54 53 55 57 58 59 57 56 57 57 59 60 60 59 59 58 57
62 61 61 62 62 62 63 62 62 62 62 62 63 63 63 64 64 64 65 65 65 65 65 65 64 64 64 64 63 63 63 63 63 62 61 60 60 60 59 59 59 60 58 57 58 58 57 56 57 56 57 58 57 55 57 56 59 59 59 59 59 58 57
62 62 61 62 62 63 63 62 62 61 61 61 61 62 62 63 63 62 62 63 64 65 65 64 64 64 63 63 63 63 62 62 62 62 61 61 61 60 60 59 59 60 59 57 59 58 56 57 57 56 57 59 54 55 57 56 56 59 59 59 59 58 57
61 62 62 62 62 63 63 63 62 62 62 62 61 61 63 63 63 64 64 64 65 64 64 64 64 64 64 64 63 63 62 63 62 62 61 61 61 61 61 59 59 59 58 59 59 58 57 57 56 56 56 56 53 55 55 56 57 57 58 59 58 58 57
61 61 62 62 62 62 63 63 63 63 63 62 62 63 64 64 64 64 64 64 64 64 64 64 64 64 64 64 63 63 63 62 62 62 61 61 61 60 59 60 60 58 58 58 59 59 59 59 58 57 57 55 53 53 54 54 55 56 55 56 57 57 56
61 62 61 61 62 62 63 63 64 64 64 63 63 63 64 65 64 64 64 64 63 63 63 63 63 63 63 63 62 62 62 63 62 61 61 61 61 60 60 59 59 59 59 59 59 59 59 59 59 59 59 59 56 52 52 53 52 53 57 55 57 56 56
61 61 61 61 61 62 63 64 64 64 64 64 64 64 64 64 64 64 63 62 62 63 63 63 64 63 63 63 62 61 61 61 62 61 60 60 60 60 60 59 60 60 59 59 60 59 59 59 59 60 61 60 59 55 52 51 50 50 54 54 54 55 56
61 61 62 62 62 62 62 62 62 62 62 64 64 64 64 63 63 65 63 62 62 62 63 63 63 63 63 62 62 61 62 61 61 60 60 61 60 60 59 59 58 58 58 59 59 59 59 59 59 60 60 59 59 58 55 53 52 50 52 53 53 54 53
61 61 61 61 61 62 62 62 62 62 62 62 63 63 63 63 63 63 63 61 61 62 62 62 63 62 63 61 61 60 60 61 61 60 60 61 59 60 59 59 57 58 58 59 59 58 59 59 59 59 58 59 59 56 56 54 52 51 53 55 54 53 55
61 61 61 60 60 61 63 63 63 62 62 63 62 62 62 63 63 62 62 62 61 61 61 62 62 62 62 62 61 60 60 60 60 60 59 59 61 60 59 59 58 59 58 58 59 58 58 59 59 58 58 58 56 56 55 54 54 55 52 54 54 53 55
62 62 61 61 61 62 62 63 63 62 62 62 62 61 61 62 63 63 62 62 62 61 61 61 61 62 61 60 60 60 60 60 60 59 60 59 59 60 60 60 59 58 59 59 59 59 59 59 59 59 59 57 56 55 57 54 54 51 53 50 51 52 52
62 61 60 60 61 61 62 61 62 62 62 62 62 62 62 62 62 63 63 62 62 61 61 61 60 61 61 60 59 61 60 60 60 60 59 60 59 60 60 60 60 59 59 60 59 59 59 59 59 58 58 58 58 56 56 58 52 52 52 52 51 50 51
62 61 60 60 61 61 61 62 62 62 62 61 62 62 61 62 63 63 63 62 62 61 61 61 60 60 60 60 60 60 60 60 60 60 59 60 60 60 59 59 59 59 59 58 58 58 57 59 59 59 58 59 59 59 58 59 56 53 52 51 49 51 51
62 62 59 60 61 60 61 61 62 62 62 61 61 61 61 62 63 64 63 62 61 61 61 61 60 61 61 60 60 60 60 60 61 61 61 61 60 60 60 59 59 59 58 59 58 57 57 58 58 58 58 58 58 60 59 57 58 57 54 54 51 54 52
62 61 59 59 60 61 61 62 62 63 61 61 61 60 61 61 63 64 63 62 61 60 61 61 61 60 60 60 60 60 60 60 60 60 60 60 61 60 59 60 60 59 58 58 56 56 57 57 58 59 59 59 59 61 59 57 58 56 54 55 52 51 50
61 60 60 60 60 61 61 61 61 61 62 62 61 61 60 62 64 63 63 62 61 60 60 60 61 60 59 58 58 59 59 59 59 59 59 59 60 60 60 60 59 59 59 59 57 57 57 58 58 58 58 59 60 60 58 56 56 56 56 56 53 50 48
61 60 60 60 60 61 61 61 61 61 62 62 61 60 61 62 63 63 61 60 59 58 59 59 59 58 57 57 57 57 57 58 58 58 58 58 59 59 59 59 58 59 59 59 59 57 57 57 58 57 58 58 59 59 56 56 56 56 55 54 50 51 50
60 60 60 60 60 60 60 61 61 62 61 61 61 61 60 61 60 60 58 57 54 54 54 54 53 54 56 57 56 56 56 57 57 56 56 57 58 59 59 58 58 58 59 59 59 58 58 58 57 57 56 58 58 57 55 54 54 54 53 51 51 49 48
59 60 60 60 60 60 60 60 61 61 61 61 60 60 60 59 57 56 54 53 53 52 52 51 50 52 55 54 55 56 56 57 57 56 55 56 56 55 55 54 54 53 57 59 54 54 57 58 58 56 55 55 57 58 56 53 54 54 52 52 51 50 49
60 59 59 60 60 60 59 59 60 60 60 59 58 57 57 56 56 55 53 51 51 50 49 48 48 48 52 54 55 56 56 55 56 56 56 55 54 55 55 54 57 58 56 54 51 47 47 51 53 56 57 55 56 57 57 55 53 54 54 52 51 50 49
59 58 59 60 60 60 60 59 59 60 59 57 56 56 55 55 55 55 54 52 50 48 46 47 44 44 46 50 55 55 56 55 54 56 57 56 55 53 52 52 52 55 54 54 51 46 45 44 42 44 48 52 56 59 57 54 54 53 53 52 49 49 49
56 58 59 59 60 60 59 59 59 58 56 55 54 54 54 53 53 53 52 51 49 47 46 43 41 44 45 48 52 56 56 56 56 55 55 55 54 52 50 50 49 51 52 53 51 50 49 45 44 44 43 43 42 42 46 53 54 51 50 50 49 50 49
53 57 58 59 59 59 59 58 57 55 54 53 52 53 52 51 50 50 51 50 48 47 46 41 41 44 44 46 48 52 54 54 54 53 53 53 52 51 49 49 48 48 49 54 52 51 52 50 47 46 46 46 45 45 43 43 45 50 52 53 51 46 46
50 52 57 58 57 58 58 56 54 53 51 51 51 51 50 50 49 49 49 49 48 46 45 42 42 44 44 44 46 50 54 54 53 53 52 51 50 49 48 48 47 47 47 48 48 52 52 52 52 51 50 49 49 49 47 45 45 46 49 52 51 49 49
49 50 51 55 57 56 54 51 51 49 49 48 48 49 49 48 48 48 48 48 48 46 44 41 43 43 44 44 45 48 52 51 50 49 48 48 47 47 47 47 47 46 46 47 48 50 54 53 52 51 49 49 49 48 48 49 49 51 52 51 50 50 48
48 48 50 50 51 51 50 49 48 48 47 46 45 45 47 48 47 47 48 48 47 46 45 41 43 43 44 44 47 51 50 49 48 47 47 47 46 46 46 47 46 45 45 45 45 45 49 52 52 51 49 48 47 46 46 46 43 44 47 49 49 48 46
47 47 48 48 48 48 48 47 47 47 46 45 44 43 45 46 47 47 47 47 46 45 44 42 42 43 43 45 47 50 49 48 46 45 45 45 46 47 47 46 45 45 44 43 41 42 46 49 50 50 48 47 46 46 45 47 45 43 42 42 43 42 43
47 47 47 47 47 47 47 47 46 46 44 43 43 43 44 46 47 47 46 46 46 44 44 42 41 42 43 44 48 51 50 48 46 45 44 44 44 45 47 49 48 44 43 42 40 41 44 48 48 47 47 46 46 45 44 44 46 46 44 43 42 42 42
47 47 46 46 47 47 47 46 45 45 44 44 43 44 44 44 45 46 47 47 48 45 44 43 41 41 43 45 49 51 50 49 47 45 45 44 44 44 44 44 44 43 43 41 39 40 42 46 46 46 46 47 46 45 42 41 42 43 43 45 45 45 45
47 47 47 47 47 47 47 46 45 45 45 44 44 44 44 44 43 43 45 45 46 45 44 43 42 41 42 43 45 50 50 49 47 46 46 46 45 45 44 43 42 39 39 39 39 40 41 43 47 46 47 47 46 45 42 42 42 43 43 43 43 43 43
45 46 47 47 47 47 47 46 45 45 44 44 44 44 44 43 43 43 43 43 44 44 45 43 41 41 41 42 43 46 49 48 47 46 45 44 45 44 44 44 43 41 39 39 39 40 40 41 43 45 45 45 42 42 40 42 42 44 43 43 43 43 43
45 45 46 47 47 46 47 47 46 45 45 44 44 43 43 43 42 42 42 43 43 42 44 44 42 40 40 40 41 43 46 46 46 45 44 44 44 44 43 43 42 40 39 39 40 40 40 40 40 40 35 35 34 37 41 41 41 43 43 43 43 42 42
44 44 44 45 46 45 46 46 46 46 45 44 44 43 43 43 42 41 41 41 42 42 42 42 41 40 39 39 39 39 40 42 41 46 45 43 42 42 43 42 43 41 39 39 39 40 40 40 40 37 36 36 36 37 40 42 43 43 42 42 42 42 41
43 43 43 44 44 44 45 45 45 45 45 44 43 43 43 42 42 41 40 40 41 41 41 41 40 39 39 38 38 38 38 38 40 43 44 42 42 42 42 42 41 39 39 39 39 39 38 39 39 38 39 39 39 40 42 42 41 41 40 40 41 40 40

ECMWFFLT1_sfc_temp_066.txt.gz
Temp
61 61 62 63 63 63 63 64 64 65 65 65 65 65 65 65 65 64 64 64 64 64 64 64 64 64 64 65 65 65 64 64 63 62 61 61 60 61 61 60 59 59 61 60 62 59 58 55 56 61 62 61 61 61 62 62 62 63 62 62 63 64 63
62 62 62 63 63 64 63 64 64 64 65 65 65 65 65 65 66 64 64 64 64 64 64 64 64 63 64 64 63 63 63 63 63 63 62 61 61 60 58 56 59 59 59 59 61 58 58 56 56 57 58 60 61 61 60 60 62 63 63 63 64 64 63
62 61 62 62 63 63 63 63 63 63 63 64 64 65 64 65 65 65 64 64 64 64 64 64 64 64 64 64 64 64 64 63 63 63 63 62 62 61 61 59 57 57 58 58 58 58 60 59 57 56 58 57 57 59 60 61 61 62 63 63 63 63 63
61 61 61 62 63 63 63 62 62 62 64 64 64 64 64 64 64 65 64 64 64 65 64 63 63 64 64 65 64 64 64 63 63 62 62 62 62 61 61 61 61 61 59 57 58 58 57 56 57 57 58 60 60 57 60 60 61 63 63 63 62 62 61
61 61 61 61 62 63 63 62 62 63 63 63 63 63 63 64 64 64 64 64 64 64 64 63 64 64 65 65 64 64 64 64 64 63 62 61 61 61 61 61 61 62 60 60 60 61 60 59 60 58 58 60 60 60 61 60 62 62 63 64 63 62 61
62 62 61 61 62 63 63 62 61 61 61 61 62 62 63 63 63 63 63 63 63 63 64 63 63 64 65 65 64 64 63 63 63 63 62 62 62 61 61 61 61 61 62 60 61 60 59 59 60 57 60 61 58 59 60 61 60 62 63 62 63 62 61
62 62 61 61 62 62 62 63 63 62 61 62 62 62 63 64 63 64 64 63 64 63 63 63 63 64 65 65 64 63 63 64 63 63 63 63 62 63 62 61 61 61 61 60 61 60 59 59 58 59 58 58 59 60 59 61 60 60 61 63 63 62 61
62 62 61 61 62 61 62 62 62 62 62 62 62 63 63 63 63 63 63 63 63 63 63 63 64 63 64 64 64 64 64 63 63 63 62 62 61 61 61 62 61 61 61 60 61 61 62 62 61 60 59 55 56 58 58 59 60 61 60 60 62 61 61
62 62 62 61 61 62 62 62 62 62 62 62 61 62 62 63 63 63 63 63 63 63 64 64 64 63 63 63 63 63 63 64 63 63 62 62 62 62 62 61 61 61 61 61 61 62 62 62 61 61 61 60 57 53 56 57 58 59 60 61 60 61 61
61 62 62 61 61 61 61 61 62 62 62 62 62 62 62 62 62 63 63 63 63 63 64 64 63 63 63 63 63 62 62 62 63 63 62 62 62 62 61 61 62 62 61 61 61 61 61 61 61 62 63 62 62 58 54 54 56 57 60 60 60 60 60
61 61 61 61 61 61 61 62 61 61 61 62 62 63 63 62 62 64 62 63 63 63 63 63 63 63 62 63 63 63 63 63 62 62 62 62 61 61 61 61 61 61 61 61 61 61 61 61 61 62 62 63 63 61 58 56 56 57 58 58 60 61 58
60 61 61 62 61 61 61 61 61 61 61 62 62 62 61 62 62 62 62 62 62 62 63 62 63 63 63 63 62 61 61 62 62 61 61 62 61 61 60 60 60 61 60 61 60 60 61 61 61 62 62 62 62 62 60 59 57 57 58 59 59 59 60
61 61 61 61 61 61 61 62 62 61 61 62 62 62 62 61 61 62 61 61 61 62 62 62 63 63 62 63 62 61 60 61 61 61 60 61 61 61 61 60 60 61 60 61 60 60 60 61 61 61 62 62 62 60 61 59 58 59 56 59 59 58 59
60 61 61 61 61 61 62 61 62 62 62 62 62 62 62 61 62 61 61 60 60 60 61 61 62 62 62 62 61 62 61 62 62 61 61 60 61 61 61 61 60 61 61 61 60 60 60 61 61 61 62 62 60 59 61 59 59 56 56 54 56 58 57
61 61 61 61 61 61 61 62 62 62 62 62 62 62 62 61 61 61 60 60 61 61 61 62 61 62 62 61 61 61 61 62 62 61 60 61 60 61 61 61 60 60 61 62 60 60 60 60 61 61 61 61 62 59 61 62 58 58 56 56 56 55 56
61 61 61 60 60 61 61 61 62 61 62 61 62 62 61 61 61 61 60 60 60 61 61 62 61 62 62 62 61 61 61 62 62 61 60 61 61 61 61 61 61 60 60 61 60 61 60 61 61 61 60 61 61 61 61 63 60 58 56 56 55 56 56
62 61 61 61 60 61 61 61 61 62 62 61 61 61 61 61 61 61 60 60 60 61 61 61 61 62 62 62 61 61 61 61 62 62 61 61 61 61 61 60 60 60 60 60 59 59 60 60 60 60 61 60 61 61 60 60 63 61 57 58 54 58 56
61 61 61 61 60 61 61 61 61 62 61 61 61 61 61 61 60 60 60 60 61 61 61 61 61 61 61 61 62 61 61 61 61 62 62 62 62 61 61 61 61 60 60 60 58 59 59 59 61 61 61 61 62 62 61 60 61 61 58 58 56 55 55
57 59 61 61 61 61 61 61 61 61 61 61 61 60 61 60 61 60 61 61 61 61 61 62 62 62 61 61 61 61 61 61 61 62 61 61 62 61 61 61 60 60 60 60 59 59 59 60 60 60 61 61 62 62 61 59 59 59 60 60 58 54 54
54 57 59 61 61 61 61 61 61 61 61 61 60 60 60 60 60 61 61 61 61 61 61 61 61 61 60 60 60 60 60 60 60 60 61 61 62 61 62 62 61 60 61 61 60 59 59 59 60 60 61 61 61 61 58 59 59 59 59 58 56 56 55
53 55 58 60 61 60 60 61 61 61 61 61 60 60 60 60 60 60 60 61 61 61 60 60 60 60 60 59 59 59 60 60 60 60 60 60 60 60 60 60 60 60 61 61 61 60 60 60 60 60 60 61 60 59 59 58 57 57 57 57 57 55 54
53 54 57 60 60 60 60 61 61 61 60 60 60 60 60 60 59 58 58 58 58 58 59 59 59 59 59 58 59 59 59 60 60 59 59 58 57 57 56 56 56 57 60 60 56 56 57 58 60 59 58 59 59 58 58 58 58 57 56 56 55 54 54
51 53 56 58 60 60 60 60 60 61 61 60 60 60 59 59 58 57 56 55 56 56 56 55 55 53 55 59 58 59 58 59 59 59 57 56 55 55 55 56 59 59 57 55 52 51 51 52 55 60 59 58 58 59 58 57 56 57 57 55 56 54 53
51 51 53 57 59 60 60 60 60 60 60 59 59 59 58 57 56 56 56 55 55 54 53 53 48 45 48 51 57 58 58 57 58 58 58 57 54 54 54 54 55 56 55 54 50 45 45 46 48 51 52 55 58 61 59 57 56 55 56 55 50 51 54
50 50 52 53 57 60 60 60 59 60 59 58 57 57 57 57 56 55 55 55 54 53 51 48 43 44 45 46 52 58 58 57 57 57 57 56 55 54 52 52 52 54 54 52 51 49 47 43 42 43 43 42 43 44 51 59 59 56 56 53 50 52 54
49 50 51 52 54 58 59 59 59 58 57 57 56 55 56 55 54 53 54 53 52 51 51 43 42 44 44 45 47 53 57 57 56 56 56 55 54 53 52 52 51 51 55 55 53 52 53 51 46 45 45 46 45 42 39 43 50 60 58 57 54 52 53
48 49 49 50 51 53 57 58 58 57 55 53 54 53 52 52 52 52 52 52 50 49 49 44 42 43 43 44 45 50 56 55 55 54 54 53 52 52 52 53 52 51 52 53 54 53 53 53 52 52 52 51 52 50 46 45 43 45 52 56 55 55 53
47 48 49 49 49 49 48 48 51 50 51 51 50 50 50 50 50 51 50 50 49 48 45 42 42 42 42 44 45 48 54 52 52 50 49 49 50 49 50 50 51 51 51 53 54 53 53 52 51 51 50 50 50 50 49 49 51 54 54 55 55 52 50
47 47 47 47 47 46 46 46 46 46 46 46 45 46 46 48 48 48 48 49 49 47 45 41 41 42 43 44 47 52 51 50 50 48 48 48 48 48 49 49 50 49 51 52 49 46 49 52 51 50 49 49 49 49 48 46 42 44 49 52 51 50 48
46 46 46 46 46 45 45 44 44 45 44 44 43 43 44 44 45 45 47 47 47 45 45 42 41 42 43 45 48 51 50 49 48 47 47 47 48 49 48 48 48 48 48 49 45 43 44 48 51 50 48 47 48 49 48 49 44 42 42 41 41 41 41
45 46 45 45 45 45 45 45 44 44 43 43 43 43 44 43 44 44 44 45 46 45 44 42 41 42 44 45 49 51 50 48 47 46 45 46 46 47 48 49 48 47 47 47 42 43 44 50 51 50 49 48 48 46 46 48 48 47 43 42 42 42 42
45 45 45 45 45 45 45 44 45 45 44 44 44 44 44 43 43 43 44 44 47 45 45 44 41 41 42 45 49 51 50 48 46 46 45 45 45 46 45 45 44 44 45 43 40 42 43 49 51 51 50 49 47 46 46 47 48 48 49 50 49 49 47
45 45 45 45 45 45 45 45 45 44 44 44 43 43 43 43 42 42 43 43 43 43 43 43 42 41 42 43 46 51 51 49 47 46 47 47 45 45 45 45 43 39 39 39 39 40 40 42 48 49 50 49 48 45 46 47 48 48 47 47 46 47 46
44 44 45 46 46 46 46 45 45 44 44 44 43 43 43 42 42 42 42 42 42 42 43 42 41 40 41 42 43 46 50 49 48 47 46 45 45 45 44 44 44 40 39 39 39 39 39 40 42 47 47 47 47 45 44 47 46 45 47 46 46 46 47
44 44 45 46 46 45 46 46 45 45 44 43 43 42 43 42 42 41 42 42 42 41 43 43 41 40 40 41 41 43 47 47 47 47 45 44 44 44 43 43 42 40 38 39 39 38 38 38 39 41 38 37 37 39 45 46 47 47 47 47 46 46 46
43 44 44 45 45 45 45 45 45 45 44 43 43 42 42 42 41 41 41 41 41 41 41 42 40 40 39 39 40 41 41 44 43 48 45 43 42 42 43 42 42 39 38 38 38 39 39 39 40 39 37 37 38 39 42 47 46 46 46 46 46 45 44
43 43 43 43 44 44 44 45 45 44 44 43 42 41 41 41 41 40 40 40 40 40 41 41 41 40 39 38 39 39 39 40 41 44 44 43 43 42 41 41 40 38 38 38 38 38 37 38 39 38 38 39 39 41 45 45 45 45 44 44 44 44 43

ECMWFFLT1_sfc_temp_069.txt.gz
Temp
65 65 66 66 68 68 67 67 67 66 66 66 66 67 68 69 69 69 72 73 72 71 68 67 66 66 67 66 67 68 69 71 69 69 67 67 66 67 69 68 68 69 71 70 71 69 67 62 61 66 67 67 66 66 68 69 69 69 69 69 72 72 72
65 65 66 67 67 68 66 66 66 65 65 66 66 66 66 67 68 69 71 72 71 69 68 69 67 67 67 67 66 67 68 70 71 69 69 68 68 69 68 67 69 70 70 70 71 71 69 67 64 64 63 64 65 66 66 68 69 70 70 70 72 74 72
65 64 65 66 66 66 65 66 66 65 65 65 65 66 66 67 67 69 70 71 70 69 68 67 66 66 67 69 69 68 69 70 69 69 70 70 71 72 71 69 68 68 69 68 69 69 68 70 67 65 65 62 62 66 68 67 68 69 70 70 71 73 73
66 65 64 65 66 64 63 64 64 65 65 65 66 65 65 66 68 69 69 68 69 69 69 68 66 67 68 70 70 69 70 70 70 69 70 71 72 71 70 70 70 70 69 68 69 69 68 66 68 66 65 67 67 64 65 68 70 71 71 70 71 72 71
65 65 65 66 67 65 65 64 64 65 64 65 65 65 65 66 67 68 69 66 66 68 69 68 67 68 70 71 70 70 70 70 70 69 70 70 69 70 70 71 71 72 72 72 72 71 70 70 69 68 66 67 69 70 68 66 71 71 70 71 72 72 72
64 65 66 66 66 66 67 65 63 63 63 63 64 64 65 66 66 66 67 67 67 67 67 67 67 69 70 69 70 70 70 69 70 70 70 70 70 70 70 71 72 72 72 74 74 72 72 72 71 69 70 69 65 66 68 67 68 71 71 70 72 73 73
65 66 67 67 67 66 68 67 65 63 63 64 64 65 64 64 64 65 67 68 69 68 66 67 67 68 69 69 70 70 71 70 70 69 70 71 71 71 71 70 71 72 72 74 73 73 71 70 70 70 67 66 67 68 70 67 70 67 67 70 72 72 72
67 67 67 67 67 66 66 67 65 64 62 63 64 65 66 65 64 64 65 66 67 67 67 66 67 67 68 69 69 69 70 71 70 69 69 71 71 71 68 69 69 69 69 73 73 73 74 73 72 71 68 63 62 66 65 67 68 68 70 71 72 71 72
67 67 67 66 66 66 66 66 66 64 64 64 65 65 65 65 64 64 64 64 66 67 67 67 67 67 67 67 67 67 67 71 70 69 69 70 70 70 70 70 70 70 71 71 73 74 75 75 74 73 71 69 65 61 64 63 65 67 72 71 72 73 73
65 65 65 66 66 66 66 66 66 66 66 66 65 65 66 64 64 64 64 65 64 65 66 67 67 68 68 67 68 68 68 69 70 71 71 69 69 67 67 68 71 72 72 72 73 73 73 73 74 74 74 72 71 67 63 63 64 65 70 74 71 72 75
65 66 66 66 67 67 66 67 67 66 66 67 66 65 65 64 63 65 64 65 65 64 65 66 67 69 68 67 68 69 70 70 69 70 69 69 68 68 67 69 70 71 72 71 72 72 73 73 73 73 73 74 74 70 68 65 66 69 70 72 74 73 72
66 67 67 66 66 66 66 66 66 66 67 67 66 66 65 64 63 64 64 65 64 65 65 65 65 66 66 66 67 67 69 69 69 69 68 66 68 68 67 69 69 71 71 71 71 71 72 72 73 74 73 74 73 72 71 70 67 69 73 68 72 76 74
67 66 66 65 65 65 66 66 67 66 66 67 67 67 67 65 65 64 65 64 64 64 65 65 64 64 65 65 67 68 69 69 70 70 68 68 70 69 69 69 70 71 71 72 71 71 72 72 73 74 74 73 73 72 72 71 69 67 70 72 72 73 74
64 65 64 65 65 65 67 66 67 68 68 67 68 68 68 67 67 67 67 65 64 64 65 65 66 65 65 64 67 70 70 70 70 71 69 67 69 70 69 71 72 72 72 71 72 72 72 73 72 72 74 73 72 72 71 70 69 69 68 68 71 73 73
64 64 64 65 65 66 66 67 68 68 68 69 68 68 69 69 69 68 67 67 66 66 66 67 67 65 65 66 67 70 70 68 69 72 70 70 70 71 71 72 73 72 72 72 72 73 73 73 74 73 73 73 73 72 72 72 71 70 67 67 68 72 70
62 62 62 63 64 65 66 67 68 66 66 68 69 69 68 69 68 69 68 67 68 67 66 67 67 67 66 65 66 69 70 70 70 71 71 71 72 72 70 71 72 71 70 71 71 72 71 73 74 74 73 74 73 72 74 74 72 70 69 69 69 70 70
59 59 60 61 62 64 66 67 68 67 68 68 68 67 66 68 69 69 68 67 66 66 66 66 67 68 68 67 68 69 71 71 71 72 72 73 73 72 71 71 71 70 71 70 70 70 71 71 71 73 73 73 72 72 72 72 72 72 71 69 68 73 72
56 56 56 58 60 62 64 66 67 67 67 68 69 68 67 68 69 69 67 67 67 66 66 67 67 67 68 69 70 70 71 71 71 72 72 73 71 73 72 72 72 71 70 69 69 70 70 69 73 72 72 73 73 73 71 71 72 73 71 70 69 70 70
56 56 56 56 57 60 63 64 66 66 67 67 69 69 68 68 69 70 69 69 69 68 69 68 68 67 68 69 70 70 71 71 72 73 73 72 73 73 72 73 72 72 71 70 70 70 70 69 72 71 72 73 74 73 70 71 71 71 71 71 71 66 67
55 56 56 56 57 59 62 63 65 66 66 66 67 67 68 69 68 70 71 71 70 69 69 68 68 67 68 68 69 69 70 71 71 71 69 66 67 72 73 74 73 72 71 72 71 71 70 69 70 70 71 71 73 72 70 70 72 70 69 70 70 70 69
55 56 57 58 58 59 61 63 64 65 65 65 65 66 67 67 69 69 70 71 71 70 70 69 68 67 68 68 68 68 70 70 71 70 69 68 69 70 71 72 71 72 72 73 73 72 71 70 71 70 71 71 71 70 69 70 70 70 69 69 70 69 70
56 56 57 58 58 58 60 62 64 64 64 64 64 65 66 67 68 69 70 69 69 68 69 68 68 67 67 68 69 69 70 70 71 71 71 70 69 70 70 70 69 68 70 67 62 64 64 65 71 70 70 70 70 69 69 70 68 67 69 68 67 68 67
55 56 56 56 57 58 59 61 62 63 64 64 65 65 65 65 66 67 68 69 69 67 66 67 63 57 59 67 68 70 69 70 71 71 70 69 69 68 67 69 69 64 60 58 56 53 52 54 58 68 72 70 70 69 69 68 68 68 68 67 68 66 64
55 55 55 56 57 57 58 60 61 62 62 63 63 64 63 64 65 66 68 68 67 66 66 65 52 48 50 55 65 68 69 70 71 71 70 68 69 69 69 71 69 61 60 58 59 48 48 48 48 51 54 58 63 70 71 68 68 69 68 69 66 58 58
54 54 54 55 56 57 57 56 56 58 60 61 61 62 61 62 64 65 66 68 67 66 65 56 47 47 48 50 56 68 70 71 69 69 69 68 68 68 67 66 66 65 66 66 66 61 54 47 46 44 45 46 46 46 48 64 69 68 67 68 64 61 60
53 53 53 54 56 56 56 55 53 52 53 57 60 60 60 60 62 62 63 65 66 66 63 48 44 46 46 47 50 60 72 71 70 69 69 69 69 68 67 65 64 64 64 57 62 65 64 57 45 42 44 45 43 42 43 43 46 64 71 67 65 59 62
51 52 52 53 54 55 54 53 52 51 51 52 54 57 59 59 58 58 60 62 64 63 60 45 42 44 44 44 46 56 70 69 69 69 69 68 67 67 66 66 65 63 63 64 65 65 65 63 62 62 63 64 63 56 48 46 48 45 57 69 67 66 65
50 51 52 53 53 53 52 51 51 50 49 48 48 49 50 53 53 54 55 56 57 56 52 41 42 42 42 44 45 54 65 65 66 66 65 65 66 66 66 66 66 65 64 64 64 63 64 64 63 62 61 61 61 60 57 58 61 66 66 67 68 66 63
49 51 52 52 51 51 51 50 49 50 49 47 47 46 47 48 50 50 51 53 52 50 48 40 40 41 42 44 48 59 61 62 61 62 61 62 63 64 66 66 66 65 64 63 52 48 56 64 63 62 60 60 59 56 52 45 42 48 55 58 58 58 55
49 50 51 51 50 50 49 49 49 49 48 47 46 45 45 46 47 48 48 49 49 47 46 42 40 41 42 45 51 58 56 56 57 57 57 57 59 60 62 65 66 65 63 61 48 44 47 54 63 62 60 59 58 57 55 52 44 41 41 40 40 40 40
49 50 51 50 49 50 50 50 49 49 47 45 44 44 45 45 45 46 46 46 46 46 45 42 40 41 43 46 51 56 55 54 53 54 54 55 56 58 55 49 58 64 62 58 42 44 46 57 62 61 59 57 56 55 54 54 53 49 42 42 41 42 42
49 50 51 50 50 49 49 49 49 49 47 46 45 45 45 44 43 44 44 44 46 44 43 42 40 40 41 44 52 54 54 53 51 51 52 51 52 53 53 50 45 51 57 50 40 43 44 56 62 60 57 56 54 53 53 55 55 55 56 56 55 56 54
48 49 50 50 50 49 49 49 48 47 47 46 45 44 44 44 42 42 43 43 43 43 42 41 41 40 41 41 43 52 54 52 50 51 51 51 49 50 51 51 47 39 39 40 40 41 45 50 61 60 59 56 52 50 53 54 53 53 52 53 53 55 57
47 48 50 50 50 49 49 48 47 47 46 46 45 44 44 43 43 42 42 43 42 42 43 42 41 39 40 41 41 45 51 51 52 51 50 49 49 48 48 48 48 40 38 39 39 39 40 42 48 61 62 61 59 54 52 54 52 49 54 53 54 56 57
48 47 49 50 49 48 49 49 48 46 46 45 45 44 43 43 42 42 42 42 42 42 43 43 42 40 40 41 40 42 46 47 48 50 48 47 46 45 44 44 45 40 38 38 39 39 40 41 43 54 49 42 41 44 57 57 58 59 59 59 59 58 58
48 49 49 49 48 48 48 48 48 47 46 45 43 43 42 42 42 41 41 41 41 42 42 42 40 41 39 39 40 40 41 43 42 47 45 43 42 42 43 42 42 39 38 38 39 39 40 40 44 45 39 41 41 42 50 59 59 59 59 58 57 56 56
51 51 50 50 51 50 49 48 47 46 46 44 43 42 41 41 41 41 40 40 41 41 42 42 41 40 40 39 39 39 39 40 41 43 43 42 42 42 42 41 40 38 38 38 37 38 38 40 42 38 40 40 42 46 57 56 56 56 54 55 55 53 53

ECMWFFLT1_sfc_temp_072.txt.gz
Temp
70 71 72 71 72 72 73 73 73 75 75 75 74 73 72 70 69 68 67 67 66 66 69 73 72 72 73 75 74 74 74 70 66 69 70 72 66 70 74 73 73 74 76 76 76 74 71 66 68 73 73 73 73 74 76 77 77 76 75 76 79 78 78
74 73 74 73 72 72 72 74 73 73 72 71 71 70 71 70 68 67 67 67 66 67 69 72 72 71 70 71 70 71 73 71 72 69 68 67 70 70 72 72 74 75 76 76 76 75 72 70 70 69 68 72 72 73 74 76 78 76 76 76 78 79 78
73 72 73 73 73 73 73 73 74 73 70 69 69 70 70 69 67 67 67 67 67 67 68 68 71 70 69 70 70 71 72 71 71 69 67 70 71 73 72 74 72 73 74 74 73 74 73 74 70 70 71 66 64 69 74 74 75 77 77 77 77 79 79
69 70 70 71 73 72 73 74 73 73 73 72 69 68 68 68 67 67 67 68 67 68 68 68 68 70 71 70 71 72 71 70 68 66 67 70 71 68 68 74 74 75 74 72 73 73 73 72 72 73 74 74 73 69 71 74 75 78 79 77 77 78 79
68 69 69 69 72 73 74 73 74 71 71 72 72 70 69 69 68 67 68 69 68 68 67 68 68 69 71 72 71 72 72 71 69 69 70 72 71 67 70 75 76 77 76 75 71 75 75 74 73 73 74 75 75 77 74 74 76 77 78 79 79 79 79
69 70 71 71 73 74 74 74 73 72 71 71 71 69 68 69 69 68 68 67 67 67 67 67 67 69 71 69 71 72 71 71 69 71 71 68 70 65 68 75 77 77 77 77 76 75 76 77 75 73 76 78 72 74 76 74 74 79 80 80 81 81 81
70 71 71 72 73 74 74 74 73 73 72 70 72 71 72 71 70 69 68 68 68 68 68 69 69 70 71 71 71 70 69 70 70 71 73 74 74 70 74 75 75 77 78 78 76 75 75 75 74 74 73 74 74 74 76 75 77 76 77 80 82 81 80
71 72 73 73 73 73 74 74 73 73 73 73 72 72 73 72 71 70 69 68 69 69 69 68 68 69 69 70 72 69 68 69 67 67 73 74 71 72 69 70 76 77 76 72 76 76 79 77 76 75 74 69 69 72 72 76 77 76 76 78 81 80 80
72 72 73 73 74 74 73 73 73 73 73 73 74 73 73 73 72 71 71 70 70 70 70 70 70 70 69 68 68 67 67 71 68 67 72 73 72 73 69 74 76 77 77 78 79 78 79 79 78 77 75 73 69 67 71 70 73 74 79 76 79 80 80
70 70 70 72 72 72 74 73 72 73 73 73 73 73 73 73 73 72 69 68 69 69 70 71 72 72 71 69 68 68 70 71 71 71 72 73 71 72 66 69 74 76 77 77 78 78 77 77 79 78 77 76 75 71 68 68 69 70 75 78 74 76 80
69 70 70 70 71 70 71 73 73 72 72 74 74 73 73 73 73 72 70 69 70 70 70 71 72 72 70 68 67 67 71 72 70 69 69 70 71 73 70 71 67 70 75 74 74 75 74 75 77 78 78 79 79 74 73 69 69 73 74 78 79 77 79
68 69 70 70 69 69 70 71 72 72 73 73 73 73 73 73 72 72 72 71 70 69 69 70 71 70 70 67 68 67 68 70 69 70 71 70 73 73 73 74 72 71 70 70 71 73 73 69 73 79 79 79 78 77 74 72 64 70 79 74 77 82 80
69 68 69 69 69 70 70 70 71 71 72 74 74 75 75 74 74 72 72 72 70 69 68 69 70 70 69 69 69 69 70 70 70 67 69 72 73 73 73 73 74 72 70 68 68 70 70 70 73 79 79 78 78 77 75 72 70 63 74 76 77 80 81
65 68 67 68 68 70 70 70 70 71 72 72 73 73 73 74 74 73 73 73 72 70 68 68 69 70 70 69 70 71 73 73 70 70 65 67 73 73 74 75 74 74 73 69 68 74 78 76 77 78 79 79 78 77 76 74 73 69 72 78 79 79 81
66 66 65 66 66 68 68 69 71 71 70 72 73 73 74 73 74 74 74 74 73 73 70 70 70 70 69 68 69 70 71 72 71 69 66 67 66 70 73 74 75 73 73 72 70 73 80 79 79 79 78 78 78 77 77 77 74 69 65 72 76 81 79
65 64 64 64 64 64 65 66 69 70 70 71 72 73 73 74 73 74 74 73 74 73 74 72 72 71 69 69 70 70 72 73 72 67 67 71 69 72 74 72 74 74 71 69 70 75 78 79 81 80 78 80 78 78 79 80 75 71 68 69 75 78 77
64 63 62 63 63 63 64 65 67 67 69 70 72 73 74 74 74 74 73 73 73 73 73 73 72 72 72 71 71 72 73 72 72 71 69 70 74 70 72 72 72 71 70 69 72 73 77 78 78 78 79 79 78 78 78 77 77 74 75 72 74 78 79
63 62 62 62 62 63 64 64 65 67 67 67 71 72 73 74 74 73 72 73 72 72 73 73 72 71 71 71 73 73 74 74 72 70 68 70 69 67 69 68 70 71 70 71 73 75 78 76 79 78 78 79 78 78 78 78 78 77 76 74 73 77 78
63 63 63 62 62 64 64 65 65 65 66 66 68 70 71 73 73 73 74 73 73 71 72 72 73 73 72 72 72 73 73 71 72 71 70 71 69 75 75 72 72 71 72 75 75 75 76 76 78 77 78 79 80 79 77 77 77 77 78 76 73 74 77
63 64 63 63 63 65 65 65 65 65 66 66 67 68 69 70 72 72 74 72 74 73 76 76 74 73 72 72 72 72 71 72 71 70 70 70 73 72 72 71 71 72 73 76 76 76 75 75 75 76 77 76 78 77 75 76 77 77 76 76 75 75 75
65 65 65 65 63 64 65 65 65 66 66 65 66 67 67 68 70 74 73 72 69 73 77 77 75 73 71 71 70 71 70 68 70 70 70 71 74 75 75 71 70 69 74 77 78 77 76 74 76 75 75 76 76 74 73 74 75 76 75 74 75 75 76
64 65 65 64 63 62 63 63 63 64 64 65 66 66 67 67 69 71 72 71 69 68 67 73 76 73 71 70 70 69 69 73 73 70 69 72 76 76 77 77 74 74 69 64 58 58 59 61 69 72 73 74 72 71 72 74 74 74 74 73 70 75 74
64 64 63 63 63 63 62 62 62 62 61 62 63 66 67 66 67 68 69 69 69 67 67 69 68 59 61 71 71 71 72 71 72 70 70 73 74 75 75 76 75 66 60 61 59 54 52 54 56 64 67 69 70 71 69 68 72 72 71 73 71 68 72
63 62 62 62 62 62 61 61 61 61 61 61 61 62 63 66 65 66 67 67 68 67 67 68 56 51 51 55 69 70 69 69 71 73 74 73 74 74 75 76 76 68 65 62 63 51 51 50 51 53 53 54 57 66 68 66 69 69 67 72 68 69 72
61 61 61 61 61 61 60 59 59 59 58 58 59 61 60 61 64 65 66 68 67 66 65 60 51 48 49 49 55 70 69 68 71 73 73 72 73 75 73 73 72 73 72 73 73 66 57 49 50 48 46 47 47 43 46 61 66 67 70 66 62 64 60
60 60 60 60 60 60 59 57 56 56 56 58 58 57 57 56 57 60 65 68 67 67 66 51 46 47 47 48 48 58 69 69 73 71 72 72 72 74 74 73 73 72 75 64 70 73 70 62 47 42 43 45 46 47 47 45 47 61 67 68 63 66 66
59 59 59 59 59 59 57 56 56 56 56 56 56 55 54 52 53 55 58 62 66 67 65 45 44 44 44 44 46 50 68 72 73 70 72 72 73 74 74 74 72 71 72 70 73 73 73 70 67 65 66 69 69 56 49 49 49 44 57 69 71 66 68
58 59 59 58 58 57 55 55 55 55 55 54 53 52 51 51 51 52 53 55 59 61 55 40 42 43 43 42 43 47 65 67 71 71 71 71 71 72 73 73 72 71 72 72 73 71 72 71 71 70 71 71 71 69 67 66 67 71 72 69 71 71 69
58 58 58 57 57 56 55 54 53 53 53 53 53 52 52 51 49 49 51 52 53 54 55 40 39 41 41 42 42 55 66 67 68 68 68 69 70 69 69 69 65 66 70 73 59 53 62 73 72 71 70 69 66 62 57 47 41 45 59 65 64 64 61
57 58 58 56 56 55 54 53 52 52 51 51 50 50 50 49 49 48 48 48 48 50 53 45 38 41 40 41 44 58 64 66 66 64 64 66 67 68 68 69 73 71 72 71 53 49 51 59 70 69 67 65 64 63 59 55 44 41 41 40 40 40 41
57 58 57 56 55 55 54 54 53 52 51 49 48 49 49 49 49 48 47 46 47 47 48 46 39 40 43 41 47 58 61 63 63 61 60 62 64 62 56 48 58 73 70 67 44 47 47 62 70 69 67 64 62 61 59 59 58 51 42 42 42 42 43
57 57 56 56 56 56 55 54 53 52 51 51 49 50 49 49 48 48 48 47 46 46 46 46 41 40 39 42 50 57 56 59 60 59 58 56 58 58 55 52 45 53 63 52 42 46 46 59 70 68 67 65 63 61 60 61 60 60 61 62 61 62 59
57 57 57 56 56 55 55 55 53 52 51 51 49 48 48 49 47 46 47 47 46 46 44 44 44 39 41 42 45 54 55 58 55 54 55 55 54 51 51 50 48 40 40 40 42 42 44 50 67 68 67 66 62 60 63 64 64 64 63 62 61 61 61
57 56 57 56 56 56 56 53 52 51 50 50 49 48 47 48 48 47 46 46 45 45 44 43 42 40 41 41 42 46 51 51 52 53 52 50 49 47 46 46 47 40 38 38 39 39 40 45 54 66 66 64 62 58 56 59 56 52 60 58 58 59 60
58 56 57 57 56 56 56 57 55 53 51 49 48 48 47 47 47 47 46 44 44 43 44 42 41 40 40 40 41 43 46 46 47 49 46 44 44 43 43 43 42 39 38 38 39 39 41 42 46 63 56 45 43 46 57 58 59 59 59 59 59 59 60
58 58 58 58 57 56 56 56 56 55 53 50 48 46 46 46 46 45 45 45 44 44 43 42 40 40 39 39 39 40 40 42 41 45 43 42 42 42 42 41 41 39 38 38 38 39 40 43 46 48 42 43 44 45 52 61 60 60 60 61 60 59 59
60 60 59 59 58 57 56 56 55 55 54 52 49 48 47 46 46 44 44 45 45 43 43 43 41 40 39 38 38 38 38 38 40 42 42 42 42 42 41 41 40 38 39 39 39 39 38 40 43 39 41 42 44 49 62 62 62 62 59 60 60 60 61

ECMWFFLT1_sfc_temp_075.txt.gz
Temp
75 74 75 76 77 77 77 77 78 78 78 79 78 79 79 77 73 70 71 70 69 68 66 66 67 68 68 68 68 70 73 76 75 74 72 73 68 69 73 72 72 73 76 73 72 68 67 63 64 70 74 74 73 73 74 75 77 75 76 76 77 77 77
76 76 78 78 77 77 76 77 76 78 79 78 79 78 78 77 74 71 70 67 68 68 66 67 68 69 68 68 67 68 70 74 74 74 73 69 70 70 70 68 71 73 74 74 73 72 64 68 65 66 68 72 73 73 72 74 73 75 74 75 76 79 78
75 76 76 76 76 77 76 76 76 77 78 78 77 77 77 78 76 75 72 70 69 67 66 67 68 69 68 69 69 68 69 68 72 73 73 68 70 73 72 70 67 69 72 71 70 70 73 70 69 71 69 67 64 70 72 72 71 77 76 75 78 81 79
73 73 73 74 76 76 75 76 77 77 77 78 77 76 76 77 76 75 72 71 69 67 66 66 67 68 68 68 69 68 67 67 68 69 69 69 75 74 72 72 71 71 69 68 69 71 71 70 69 70 70 73 71 68 71 72 72 77 77 76 77 78 78
73 73 72 72 74 76 76 75 77 77 77 77 77 77 75 76 75 74 74 72 69 67 65 65 67 69 70 70 69 67 67 67 68 68 68 67 73 73 72 73 73 73 71 69 70 72 72 73 72 70 69 73 74 74 74 71 74 76 76 78 79 79 79
73 73 74 74 75 75 76 74 74 73 75 76 76 75 75 75 74 73 72 71 71 69 68 68 69 70 70 70 69 69 67 67 66 68 66 70 72 71 72 73 72 72 70 72 73 71 72 74 74 72 72 72 68 71 75 74 70 79 80 76 78 78 80
72 73 74 74 75 76 76 73 71 69 68 71 75 74 75 75 75 74 73 72 73 73 71 70 70 70 70 69 69 68 68 68 68 66 68 71 70 70 72 72 72 72 71 70 69 70 74 74 72 72 73 74 74 69 73 74 75 73 76 78 79 80 80
71 72 72 73 74 74 73 74 72 69 69 69 72 76 76 75 75 75 74 73 72 72 73 70 70 70 70 71 70 69 70 68 69 68 68 69 68 70 70 72 71 71 70 69 70 74 77 76 75 76 73 67 71 70 67 71 72 72 73 78 79 80 79
69 70 71 73 74 74 73 72 72 71 70 69 68 68 71 74 75 74 74 74 73 73 73 71 70 68 71 71 70 69 67 68 67 69 70 70 69 69 68 69 71 71 72 71 72 71 72 76 78 77 75 73 68 66 70 70 72 74 80 76 79 79 80
67 67 68 70 72 73 73 74 74 73 72 68 68 69 71 69 72 74 74 74 73 73 73 73 73 72 72 71 70 68 68 70 71 72 70 70 68 67 66 67 70 72 71 70 70 70 72 76 76 77 78 75 75 71 67 66 68 71 76 79 75 79 80
67 68 69 70 71 71 73 74 73 74 72 72 69 68 68 69 72 75 74 73 74 73 72 73 73 73 71 69 71 69 70 71 71 71 70 69 67 66 66 68 70 70 72 70 70 72 74 75 77 77 75 75 78 73 71 68 69 73 71 78 78 77 80
68 68 68 68 69 69 70 71 71 69 71 70 69 69 69 71 74 75 75 74 73 73 73 73 71 69 68 66 67 66 70 71 69 68 68 68 68 65 66 67 70 69 70 68 70 70 73 75 76 76 73 77 77 74 72 72 64 70 79 73 77 81 80
70 69 69 67 67 68 69 69 69 70 69 70 67 68 69 73 71 69 72 75 74 74 73 72 70 68 67 66 65 67 73 71 72 69 68 69 70 68 68 67 67 66 69 68 68 70 74 76 76 76 75 75 76 74 72 68 66 67 73 74 76 77 80
68 68 67 67 67 67 67 67 68 68 70 70 71 72 70 73 76 75 72 75 76 75 74 72 72 69 67 67 66 66 72 73 73 72 73 71 70 70 69 67 67 69 72 69 73 72 72 77 76 75 75 74 72 73 71 69 64 68 73 75 76 77 77
69 68 66 66 66 66 67 67 68 69 69 70 72 73 75 72 73 72 74 71 74 76 74 75 73 71 70 68 68 69 70 70 69 71 70 71 70 69 70 67 67 68 71 72 72 74 75 76 77 76 76 74 73 72 72 75 73 69 69 73 73 79 75
68 67 66 66 65 66 66 67 69 68 68 69 71 72 72 73 73 72 68 70 68 67 70 71 72 72 69 70 70 69 70 70 68 67 67 68 70 71 70 70 69 68 67 67 69 70 74 75 76 77 75 75 72 71 76 74 72 70 71 70 73 75 77
67 68 67 66 65 65 67 67 68 68 68 68 69 71 73 72 71 70 68 69 71 69 67 69 72 73 73 68 68 69 71 69 67 68 70 69 70 71 72 71 70 69 67 65 68 69 74 74 71 71 73 74 72 72 74 75 74 71 72 71 74 76 77
66 67 66 66 66 67 67 67 67 67 67 67 69 70 72 72 69 70 71 71 73 73 70 68 67 69 70 68 68 70 69 70 68 69 69 70 69 70 72 72 72 71 68 66 67 69 73 73 74 71 69 71 71 72 73 75 75 74 71 72 73 77 78
67 67 66 66 67 67 67 66 66 66 67 66 66 67 69 70 70 70 70 71 71 71 71 68 67 67 67 68 67 69 73 72 71 69 67 67 68 73 73 73 70 70 69 68 67 70 72 74 75 73 70 70 70 75 74 74 76 75 75 73 73 73 75
66 66 66 66 66 66 67 66 66 66 66 65 65 65 66 67 70 69 68 68 65 67 69 70 69 68 68 67 68 74 72 73 69 68 68 66 69 71 74 74 72 72 72 72 69 70 73 72 72 73 73 72 73 74 72 72 76 74 72 71 73 73 74
66 66 66 67 66 66 66 66 65 65 65 64 64 64 64 64 64 68 69 67 66 66 68 69 70 70 70 68 66 68 71 70 70 70 69 71 70 71 72 72 72 72 73 74 73 73 68 67 70 71 73 71 70 69 72 71 68 71 72 70 71 71 74
66 66 66 66 65 65 65 64 65 64 63 63 62 63 63 62 62 61 63 65 66 65 65 66 67 67 66 67 67 67 67 67 67 68 67 68 68 72 72 71 71 71 71 70 63 64 64 63 68 69 71 70 68 65 68 67 66 66 71 71 62 70 73
65 65 65 64 64 64 65 64 63 63 62 62 62 62 62 61 60 59 59 61 63 66 66 68 65 56 55 62 65 67 68 67 69 71 70 71 72 71 72 71 70 65 63 60 56 52 51 52 56 64 69 70 68 67 64 64 66 67 65 64 62 65 66
64 63 64 64 63 64 64 63 61 61 60 60 59 59 60 59 58 58 57 58 58 61 65 67 56 50 49 49 60 65 64 66 67 66 65 64 71 68 70 71 68 65 63 61 60 50 50 48 48 51 52 59 64 70 69 67 68 67 64 64 62 61 63
62 62 63 63 62 63 62 61 60 59 58 58 58 58 57 57 57 56 55 55 56 58 60 54 46 46 47 47 49 60 65 64 65 67 67 66 67 70 70 70 67 65 65 67 70 62 55 48 46 46 46 47 48 47 50 65 68 65 66 65 62 62 64
61 61 61 62 61 61 61 60 59 58 57 57 57 56 55 54 54 54 53 52 53 55 57 45 43 41 41 41 44 51 64 65 65 65 65 65 66 66 67 66 65 64 66 63 67 70 67 58 48 45 44 44 43 45 46 46 50 66 72 68 68 68 68
60 61 61 61 61 60 59 59 58 58 57 57 55 55 54 53 53 53 52 51 50 51 53 46 41 41 41 40 41 45 60 63 65 65 66 66 65 64 64 64 64 64 64 65 67 68 69 67 62 61 62 66 66 52 44 43 44 46 59 70 68 68 70
59 60 60 60 60 59 59 58 58 57 57 56 54 53 52 52 51 51 51 51 50 49 50 44 41 40 40 40 40 43 57 61 64 64 65 66 66 65 64 65 65 64 65 65 67 68 70 68 68 68 68 68 69 66 67 65 66 68 68 69 69 70 70
58 59 59 59 58 57 57 57 56 57 56 56 56 55 53 53 51 50 50 50 49 47 49 43 41 40 39 39 39 50 57 61 64 65 65 67 64 63 63 63 62 63 62 64 57 52 58 67 69 68 66 67 63 61 55 46 40 42 57 69 71 68 63
58 58 58 58 57 56 55 55 55 56 56 56 55 54 53 52 52 50 49 49 47 46 47 45 41 40 39 39 42 54 58 61 63 65 66 65 65 63 59 63 63 62 65 67 53 48 49 53 68 65 65 64 65 63 60 55 44 41 41 41 40 41 42
59 58 58 57 57 57 57 56 55 55 54 55 55 54 54 54 53 51 49 48 47 45 45 45 41 39 38 39 41 49 54 58 61 61 61 61 60 54 52 49 59 63 61 61 46 49 48 60 69 64 66 66 63 60 58 59 57 52 43 43 42 42 44
60 59 58 58 58 57 56 56 56 56 55 55 54 55 54 54 53 51 50 48 47 45 45 45 42 39 38 39 42 51 54 58 60 59 59 57 57 55 52 50 45 51 58 49 43 46 44 56 72 70 69 66 62 60 59 61 59 58 60 59 59 59 57
60 60 60 60 60 59 58 58 57 56 55 55 54 54 54 53 52 51 50 48 47 46 44 44 43 38 39 39 39 48 56 55 54 54 54 54 53 50 49 49 47 40 40 40 40 40 42 42 65 69 68 65 62 59 61 62 62 63 62 62 62 62 62
60 61 62 61 61 60 59 57 57 56 56 55 54 52 52 52 52 51 51 49 47 47 46 44 43 39 39 39 39 42 51 51 52 50 49 46 46 45 45 45 45 40 39 40 41 41 43 43 53 67 66 65 63 60 59 62 60 55 62 60 60 60 61
61 60 61 61 60 59 60 59 57 56 57 56 54 52 51 51 51 50 50 50 49 47 47 45 43 41 39 39 39 39 43 45 46 47 45 43 43 43 43 42 42 40 39 40 40 42 43 44 46 52 50 45 45 48 60 61 62 63 62 62 62 61 61
60 60 60 61 60 59 60 59 58 56 56 55 55 53 51 51 50 49 49 49 49 48 47 46 42 43 41 39 39 39 38 40 40 45 44 42 42 42 44 43 42 40 39 39 40 41 43 43 46 48 44 45 45 46 52 61 61 61 61 62 61 60 60
60 60 60 60 59 59 58 58 58 56 55 54 54 53 52 51 50 47 46 46 46 47 47 47 45 42 42 40 40 39 39 39 39 41 42 40 41 41 42 42 41 39 39 40 39 40 40 41 42 40 42 43 46 47 54 55 56 57 55 58 57 56 56

ECMWFFLT1_sfc_temp_078.txt.gz
Temp
72 72 73 73 75 74 74 74 75 75 75 75 74 74 76 74 74 73 72 71 70 70 69 67 67 67 67 68 68 68 66 66 65 63 63 63 62 62 64 63 64 68 70 69 66 61 62 59 60 65 67 67 65 68 70 70 72 70 69 68 71 70 70
73 73 74 75 74 74 73 73 72 73 73 74 74 74 73 73 73 72 72 69 68 67 68 68 67 67 67 67 66 65 64 65 65 65 64 63 63 61 63 62 63 67 68 68 69 68 63 61 60 61 61 65 66 66 69 70 71 71 70 69 71 71 70
72 72 73 72 72 73 72 71 67 69 72 72 73 73 73 74 69 69 70 70 69 68 67 67 67 67 65 66 66 65 66 66 66 65 64 64 64 64 64 64 64 66 66 66 66 65 65 64 60 62 63 61 59 64 68 68 68 71 72 71 70 69 68
70 71 70 70 72 72 72 71 69 69 70 71 72 71 69 69 69 70 68 70 70 68 67 66 66 66 66 66 67 66 66 66 65 65 64 64 64 64 65 66 67 67 65 64 64 65 64 61 60 61 63 64 64 63 66 69 69 71 73 71 71 69 69
69 69 69 69 70 71 70 70 71 71 70 70 70 68 68 68 67 67 68 68 70 69 68 67 67 67 66 66 66 65 66 67 66 65 64 63 64 63 64 66 67 68 67 66 68 67 66 64 64 62 61 65 63 67 69 68 71 71 72 72 73 72 71
67 67 69 69 69 69 70 70 69 69 69 68 69 68 69 68 67 68 67 65 68 69 69 68 67 67 67 66 66 67 66 67 66 65 64 64 64 64 64 65 65 66 67 68 69 67 67 67 65 62 64 61 60 64 68 67 66 71 73 72 73 74 74
66 66 67 68 68 69 69 68 69 68 68 68 68 68 68 68 67 68 68 68 69 70 70 70 69 68 68 67 67 66 67 67 67 66 66 66 65 66 66 64 64 64 66 65 67 68 66 66 65 64 62 62 64 61 67 67 69 67 69 72 74 75 73
66 66 67 68 68 68 68 69 69 69 68 69 68 69 69 67 67 66 66 66 68 69 70 70 69 69 68 67 66 66 66 67 66 66 65 66 65 66 65 65 64 64 65 64 66 67 68 67 66 65 61 60 60 61 63 66 68 68 68 71 75 74 75
66 66 67 67 67 67 67 67 67 68 69 68 69 68 68 68 67 65 65 66 67 68 68 68 68 67 67 66 65 64 65 67 66 66 65 66 66 66 66 67 66 64 66 66 68 67 68 67 66 67 65 63 61 59 62 63 63 66 73 71 74 76 75
66 66 66 66 66 67 67 67 66 67 69 69 69 70 69 68 68 67 66 65 66 66 67 67 66 66 68 67 65 64 64 65 66 65 65 65 66 66 66 67 67 65 64 68 69 68 67 66 67 66 66 65 64 62 60 60 62 63 70 73 69 72 76
66 66 66 66 66 66 66 67 67 66 67 68 69 69 69 69 68 68 66 66 66 66 66 66 65 64 65 65 65 65 65 65 65 64 65 66 66 66 66 67 67 66 67 65 68 68 67 66 66 67 66 66 67 62 64 62 62 66 66 70 73 71 73
67 66 66 66 65 65 65 65 66 66 67 67 68 68 68 69 68 68 67 66 65 65 65 65 65 65 65 64 64 63 64 64 64 63 64 65 65 66 66 66 66 66 68 68 68 68 68 67 66 67 67 66 65 66 66 64 60 65 70 66 70 73 73
67 67 66 65 65 65 65 65 65 65 66 67 68 69 69 68 68 68 66 66 65 65 65 65 66 66 65 64 64 64 65 65 64 64 64 64 65 66 66 66 65 66 67 68 68 67 67 68 67 63 63 63 63 67 66 64 62 61 63 65 68 70 73
65 66 66 65 65 65 65 65 65 66 67 66 67 68 68 68 68 67 67 66 65 65 65 65 65 64 64 64 65 66 66 65 65 64 64 64 65 65 65 66 66 67 68 66 67 66 66 67 66 63 64 64 66 69 68 65 63 61 62 64 66 70 73
66 66 65 65 64 65 65 65 65 66 65 66 67 67 68 67 67 67 66 65 66 66 65 65 64 64 64 63 64 66 66 66 64 64 63 63 65 64 64 66 67 67 67 66 66 66 67 67 67 65 64 64 67 68 68 68 63 62 61 63 63 66 65
65 64 64 64 64 64 64 64 66 64 64 65 66 66 66 66 66 66 66 66 65 65 64 63 65 65 64 63 64 65 65 65 63 63 63 63 64 65 64 65 67 67 66 66 65 66 66 66 66 66 65 66 65 66 69 69 64 63 63 63 67 67 68
64 63 62 63 62 63 63 63 64 64 64 64 64 65 66 66 65 64 63 64 65 65 65 64 65 66 65 64 63 64 65 64 64 64 64 63 63 64 64 63 65 67 66 65 65 65 65 66 65 64 64 64 63 64 67 67 68 65 63 63 67 70 69
62 62 62 62 62 63 63 63 63 63 63 62 62 63 63 64 63 63 62 62 62 63 65 65 65 65 65 64 64 64 65 64 64 64 65 64 64 64 64 64 65 66 66 65 65 64 66 65 66 65 63 63 63 64 67 68 68 68 65 64 66 70 69
61 61 62 62 62 62 62 62 62 62 62 61 61 61 61 61 62 61 61 61 61 62 63 65 65 65 64 64 64 64 64 64 63 64 64 64 64 64 64 64 64 64 65 65 65 65 65 66 65 65 66 65 65 63 66 67 67 68 67 66 67 66 68
61 61 61 61 61 62 62 61 61 60 61 60 59 59 59 59 59 59 59 59 59 60 60 62 63 56 55 59 62 64 64 63 63 63 64 64 65 64 64 64 64 65 64 64 65 65 65 65 64 63 64 65 66 64 64 65 64 63 61 61 61 65 64
61 61 61 61 61 61 61 61 60 60 60 58 58 58 57 57 57 58 57 57 57 58 58 60 51 50 49 50 51 57 62 63 63 64 64 65 64 64 64 64 64 64 65 65 65 66 65 64 64 63 64 63 63 64 62 62 61 60 61 60 60 58 59
61 61 61 61 60 60 60 60 59 59 59 58 58 57 57 56 56 55 56 55 55 55 56 56 49 47 46 46 48 51 56 61 63 63 63 63 64 64 64 63 64 64 64 66 62 62 64 63 65 63 64 63 62 62 62 61 61 60 60 59 58 59 58
61 60 60 60 60 60 59 59 58 58 58 58 58 57 56 56 55 54 53 54 54 53 53 54 49 45 44 45 46 48 51 56 62 62 61 61 62 63 64 64 64 64 61 60 57 54 53 55 60 65 66 63 63 63 63 62 61 59 59 58 58 58 58
60 59 59 59 59 59 59 58 58 57 57 57 56 56 55 55 54 53 53 52 52 52 52 52 44 42 41 42 44 45 48 51 58 61 62 62 62 62 62 63 63 63 61 59 58 53 51 50 53 54 56 60 62 65 64 63 62 59 59 59 58 58 58
59 59 59 59 59 59 58 58 57 56 56 56 56 56 54 54 53 53 52 51 50 50 50 48 41 41 41 40 41 43 45 51 55 59 62 62 61 60 61 63 63 64 64 63 62 58 53 49 48 48 49 51 53 55 56 64 63 60 61 60 58 58 60
58 58 58 59 59 58 57 56 55 55 55 56 56 54 53 53 53 52 51 50 49 49 50 45 41 41 40 39 39 41 44 49 54 56 60 61 61 61 60 60 61 62 64 62 63 62 61 55 48 46 47 48 47 46 45 45 52 64 63 61 60 60 61
58 58 58 58 58 58 56 55 55 55 55 55 54 53 53 53 53 51 50 49 48 48 49 44 41 40 39 39 39 39 44 49 53 57 58 61 62 61 61 60 60 61 62 61 62 63 61 58 56 54 55 58 58 50 45 43 44 51 59 64 63 61 63
58 58 58 58 57 57 56 55 55 54 54 54 53 52 52 52 52 51 50 49 48 47 47 42 41 40 39 39 39 40 46 51 54 56 58 60 62 62 61 62 61 60 61 61 61 61 62 59 58 58 59 60 59 60 60 60 61 62 64 65 63 64 62
58 58 58 58 57 56 55 55 54 55 54 54 53 53 53 53 51 50 49 49 47 46 47 42 41 40 39 39 39 44 47 50 53 55 57 60 61 61 61 61 61 60 61 61 56 51 55 61 60 60 59 58 56 54 50 44 40 40 47 60 63 62 64
57 58 58 57 57 55 55 55 55 55 54 53 52 52 51 51 52 51 49 48 47 46 46 44 41 40 40 39 40 44 48 50 52 54 56 59 60 61 61 62 61 60 61 61 54 48 48 53 61 60 60 57 57 55 52 50 42 41 41 41 42 43 41
58 57 57 57 56 56 56 55 55 55 54 53 52 52 52 51 51 51 49 48 47 46 46 45 42 40 40 40 41 45 48 50 53 54 56 55 52 51 51 48 56 61 60 60 50 45 46 53 61 60 58 57 55 53 53 54 53 48 43 43 43 43 44
58 57 57 56 57 56 56 55 55 55 55 55 53 53 52 51 51 50 49 48 48 46 46 45 42 40 40 40 41 44 44 45 48 48 49 50 50 48 48 48 44 45 55 56 47 45 45 53 60 59 58 57 54 53 52 53 53 54 55 56 56 56 54
57 57 57 56 57 56 57 56 54 54 54 55 54 53 53 52 50 49 49 48 47 46 45 45 44 40 40 40 40 42 43 42 43 44 44 45 45 45 45 45 44 40 38 39 43 43 44 48 59 58 58 56 54 52 54 55 55 56 55 56 57 56 56
57 57 57 57 57 57 56 55 55 54 53 54 53 52 51 51 50 49 48 48 47 46 46 45 44 41 40 40 40 40 41 41 42 42 42 41 42 42 42 42 43 40 39 39 39 42 46 46 49 59 59 56 55 53 53 55 54 53 56 54 53 53 52
58 57 57 57 56 56 56 56 55 54 54 53 51 51 51 50 50 49 49 48 47 46 46 45 43 42 40 40 40 40 40 40 41 42 41 40 40 40 40 41 41 40 39 39 40 40 41 44 47 55 53 46 46 47 55 55 56 56 56 55 54 53 53
57 58 57 57 56 55 56 55 54 54 53 52 51 50 50 49 49 48 48 48 47 46 46 45 43 42 41 40 40 40 39 40 39 42 41 40 39 39 40 41 41 41 39 39 39 40 41 43 45 46 44 44 45 46 51 56 55 56 55 55 53 52 52
58 57 57 57 56 55 55 54 54 53 53 52 51 50 50 49 49 47 46 46 47 47 46 45 44 42 42 40 40 40 39 39 39 41 42 41 40 40 40 40 40 38 39 40 40 40 39 41 42 41 42 43 45 47 52 50 49 49 47 47 48 48 49

ECMWFFLT1_sfc_temp_081.txt.gz
Temp
65 65 67 67 68 68 67 68 67 68 69 69 68 69 69 67 66 66 66 66 65 65 65 65 65 66 65 65 65 66 64 63 63 62 62 62 60 60 63 62 62 63 63 62 61 58 57 56 59 62 63 63 63 65 66 67 67 66 66 66 67 67 67
67 67 68 68 67 68 67 66 66 66 67 68 68 68 67 68 66 66 65 64 64 64 65 65 65 65 65 65 65 64 63 64 64 63 63 62 62 61 61 61 61 62 62 62 62 62 58 56 57 58 60 61 62 63 64 66 66 67 67 67 68 68 67
64 65 66 66 66 66 66 66 65 65 66 66 67 67 66 67 66 65 65 64 64 65 65 65 65 65 65 65 65 64 65 64 63 64 63 63 63 63 62 61 60 60 60 60 60 60 61 60 56 58 59 59 59 62 64 64 65 66 68 67 67 67 67
63 63 63 64 66 66 66 66 65 65 66 65 66 67 66 66 64 65 64 64 63 64 65 65 65 65 64 64 65 65 65 64 62 63 63 63 63 63 62 62 61 61 60 59 59 60 60 59 58 58 59 60 61 60 62 64 65 67 68 67 67 66 66
63 63 63 64 65 65 65 65 66 66 65 65 65 64 65 65 65 63 64 63 63 64 64 65 65 65 65 65 65 65 65 64 63 63 63 63 63 63 63 63 62 62 62 62 63 64 62 61 61 58 58 60 61 62 64 64 66 66 67 67 68 67 67
61 62 63 64 64 64 65 65 65 65 65 64 64 64 64 65 65 64 63 63 63 64 65 65 65 66 65 64 65 65 65 64 63 63 63 63 63 62 63 63 64 64 63 65 66 64 64 63 62 59 60 61 59 59 63 64 63 67 68 67 68 68 68
60 62 63 64 64 64 64 64 64 64 64 64 64 64 65 65 64 64 63 63 64 64 65 65 65 65 65 65 65 64 65 65 64 63 63 64 63 63 63 63 63 63 64 65 65 65 62 59 60 60 59 59 59 59 60 61 64 63 65 68 69 69 68
61 61 62 63 64 63 64 63 63 64 64 64 64 65 66 65 65 64 64 63 63 63 64 64 65 64 63 64 64 64 64 64 64 63 63 63 63 63 62 63 63 63 64 63 63 65 64 62 63 62 60 57 55 56 57 59 61 63 64 67 70 69 69
61 60 60 61 61 62 63 63 62 62 63 64 65 66 66 66 65 65 64 63 63 63 63 64 64 64 63 62 62 63 63 64 63 63 62 63 63 63 63 63 62 62 64 64 63 63 64 64 65 63 63 61 57 54 55 56 58 60 67 65 68 70 69
60 59 59 59 59 61 62 62 61 61 61 62 64 66 66 67 66 66 65 64 63 63 63 63 63 63 63 63 63 63 63 63 63 63 63 63 63 63 63 64 63 63 63 65 64 63 64 64 64 63 64 63 61 57 54 54 57 58 64 68 64 68 71
60 60 58 59 59 60 60 60 60 60 61 63 64 64 65 66 66 67 66 65 63 63 63 63 63 63 62 62 62 63 63 62 62 62 63 63 63 63 63 63 63 63 64 64 64 64 64 64 63 64 64 63 61 59 58 57 57 61 62 67 68 67 70
60 61 60 60 60 60 60 61 61 61 61 62 62 62 62 64 64 65 65 64 63 63 63 62 62 62 63 62 62 61 62 63 63 62 62 63 63 63 63 63 63 63 64 63 64 64 64 63 63 63 61 62 62 63 61 58 56 60 65 63 67 70 70
60 60 60 59 59 59 60 60 60 60 60 61 61 62 62 62 62 63 63 62 62 62 63 63 62 62 62 62 61 61 62 62 62 62 62 63 63 63 63 63 63 62 63 63 63 63 64 63 63 62 62 62 62 63 61 58 57 58 60 64 65 68 71
59 59 59 59 58 58 59 60 59 59 60 59 60 60 61 61 61 61 61 61 61 61 61 62 63 62 62 62 62 62 62 62 62 62 62 62 63 63 63 63 64 64 64 63 62 63 63 63 63 62 62 62 61 61 61 60 58 57 59 60 61 64 70
58 58 58 58 58 58 58 58 58 58 58 58 58 58 59 60 60 59 58 58 59 60 60 61 59 56 56 57 60 63 62 62 62 63 62 61 63 63 63 63 63 64 64 64 63 63 63 63 64 63 61 61 62 62 64 62 60 58 57 58 60 64 63
58 57 57 57 57 57 57 57 58 57 57 57 58 58 57 58 57 57 56 56 56 57 58 56 52 52 51 52 52 54 59 62 62 62 62 61 62 63 62 62 63 63 64 63 63 63 63 63 64 64 63 62 62 62 62 62 61 59 59 59 61 62 64
57 57 56 56 56 57 57 57 58 57 57 57 57 57 57 56 56 55 54 54 53 54 56 52 51 49 49 49 50 50 53 56 61 62 61 61 62 62 62 62 62 63 63 63 63 62 63 63 62 62 64 63 62 62 61 63 65 62 60 59 59 62 64
56 56 55 56 55 56 57 57 58 58 57 56 56 56 56 56 55 54 53 53 52 52 54 50 49 47 48 48 47 48 50 52 55 60 62 62 63 62 62 62 63 63 63 62 62 62 62 62 63 62 62 63 62 63 62 61 62 62 61 60 60 63 64
55 55 55 55 55 56 56 57 57 57 57 56 56 55 55 54 54 53 53 52 52 52 53 49 48 47 46 46 46 46 47 49 52 56 61 62 62 62 62 62 63 62 62 61 62 62 63 63 63 63 63 63 63 62 61 61 60 60 60 62 60 59 60
55 55 55 55 55 56 56 56 57 56 57 56 55 54 54 54 54 53 52 52 51 51 52 49 47 46 45 45 44 45 45 47 49 53 57 61 63 63 63 63 63 63 63 62 62 62 63 63 63 63 63 63 62 61 61 60 60 59 59 59 59 59 59
55 55 55 56 56 56 56 55 55 56 56 55 54 54 54 53 53 53 52 51 51 51 51 49 47 46 44 43 43 43 44 45 47 50 54 58 62 63 63 63 63 63 63 63 63 63 63 63 63 63 63 63 62 61 60 60 60 59 59 59 58 56 57
55 55 55 55 55 55 55 54 55 55 55 55 54 54 54 53 52 51 51 50 50 50 49 48 47 45 43 43 43 42 43 44 45 47 51 55 60 63 63 62 63 63 63 64 60 60 61 61 63 62 62 62 61 61 60 59 59 59 58 58 57 57 56
54 54 55 54 54 55 54 54 53 54 54 54 54 54 54 53 52 51 50 50 49 49 48 48 47 44 44 43 42 42 42 43 44 46 49 53 57 61 62 62 62 62 59 58 57 54 53 54 58 62 63 62 61 61 60 59 58 59 58 57 57 57 56
53 53 54 54 54 54 54 53 53 52 52 52 52 53 53 52 51 50 49 49 48 48 48 47 43 41 41 42 43 42 42 42 43 45 49 51 55 58 61 62 61 62 60 59 58 53 51 50 50 52 55 57 60 62 60 59 59 60 59 58 57 57 57
52 51 52 53 53 53 53 53 52 52 52 51 51 52 52 51 50 49 49 49 48 48 47 45 41 41 41 41 42 43 42 42 43 45 48 51 54 57 59 61 61 61 61 61 61 60 55 50 49 49 49 51 51 52 55 59 60 59 60 59 57 57 58
51 51 50 51 52 52 51 51 51 51 51 51 50 49 50 50 49 49 48 47 47 48 47 44 41 41 41 41 41 42 44 45 45 46 49 52 54 56 59 60 59 60 62 60 62 61 61 58 50 47 47 50 50 48 48 50 53 61 63 61 59 58 59
51 51 50 50 51 51 50 50 50 50 51 50 49 49 48 48 48 48 48 47 47 47 47 44 41 40 41 40 41 42 46 47 48 49 51 53 54 55 57 58 59 59 60 61 61 61 61 60 58 54 54 56 58 54 47 46 49 51 55 60 59 59 61
50 50 50 49 49 49 49 49 50 48 48 49 48 47 47 47 48 48 47 47 46 46 46 43 40 40 40 40 41 43 45 46 48 49 49 51 52 53 54 57 59 59 59 60 61 60 60 59 57 56 56 57 58 57 57 56 59 59 59 61 60 60 59
49 49 49 49 48 47 47 48 48 49 47 47 48 47 46 47 46 46 47 46 45 44 45 42 41 40 40 39 41 44 44 45 45 46 47 48 48 48 49 48 49 53 58 60 56 51 54 59 58 56 57 57 56 54 51 49 47 51 51 58 60 60 59
48 48 48 48 48 46 45 46 46 48 46 45 46 46 45 45 45 45 45 45 43 43 43 43 41 40 40 40 42 44 44 44 44 44 45 46 46 46 46 47 47 45 45 53 53 48 48 52 59 57 57 56 54 53 50 48 41 40 41 43 42 41 41
47 47 46 46 46 47 46 44 45 46 45 44 45 45 44 44 45 44 44 43 44 43 42 44 42 40 40 40 41 42 43 42 42 43 43 44 45 44 45 47 48 44 43 43 39 40 45 52 59 58 58 55 53 52 50 49 48 45 42 43 42 42 42
47 46 45 45 46 46 46 46 44 44 44 44 44 44 45 43 43 43 43 44 47 44 43 43 42 40 40 40 41 41 42 41 41 42 42 42 43 43 44 45 45 43 42 40 38 38 40 49 60 58 57 56 53 52 50 50 50 50 51 52 51 52 50
45 45 44 44 45 46 46 46 45 44 42 44 44 42 43 43 42 43 42 42 43 43 43 43 43 41 40 40 40 41 41 39 38 40 41 41 41 41 42 42 43 41 38 39 39 38 39 42 58 58 57 56 54 52 52 52 52 52 52 51 50 51 50
45 45 45 45 45 45 45 45 45 44 43 43 41 41 42 41 42 42 42 42 42 43 44 43 42 41 40 40 40 40 40 39 39 40 41 40 40 39 40 40 41 41 39 39 39 39 39 39 46 58 57 56 56 52 50 52 50 49 50 49 48 48 48
47 49 46 46 45 45 45 46 46 44 43 43 41 41 40 41 41 41 41 42 41 42 44 45 42 41 40 40 39 40 39 39 39 40 40 40 39 39 39 39 40 40 39 39 39 39 38 40 43 56 54 44 43 45 52 51 50 49 49 48 48 47 47
47 49 48 46 45 44 45 45 44 44 43 43 42 41 41 40 41 40 41 41 40 41 42 43 42 40 40 39 39 39 39 39 39 40 39 39 38 38 39 39 40 40 39 39 39 40 39 39 45 47 42 43 44 44 47 49 48 49 48 47 47 46 46
47 45 46 46 45 44 44 44 43 44 43 42 41 41 41 41 39 40 40 41 41 42 42 41 41 40 40 39 39 39 39 38 39 39 40 39 39 39 38 38 39 38 39 39 39 39 39 39 40 40 42 42 44 45 48 47 46 46 45 45 45 45 45

ECMWFFLT1_sfc_temp_084.txt.gz
Temp
63 63 65 66 66 67 66 65 65 66 67 66 64 64 65 65 64 64 64 64 64 64 64 64 64 64 64 65 65 64 64 63 62 61 61 61 60 60 63 62 61 62 62 60 59 58 56 56 59 61 62 62 62 62 64 64 64 65 64 64 64 65 65
64 64 65 66 65 65 65 65 65 65 65 66 67 66 65 65 65 64 64 63 63 63 64 64 64 64 64 64 64 63 63 63 63 63 61 61 61 61 61 61 61 61 61 61 61 60 56 55 55 58 59 61 61 61 62 64 65 65 65 65 66 66 65
63 63 64 64 63 63 63 63 64 64 64 64 65 65 65 65 65 65 64 64 63 63 64 64 64 64 64 64 64 63 63 62 63 62 62 63 62 62 62 61 60 60 60 59 59 59 59 58 55 57 60 59 58 60 62 63 64 64 65 65 66 66 65
62 62 61 61 61 61 61 62 63 64 65 64 64 64 64 64 65 65 63 63 63 64 64 63 63 63 63 64 64 63 63 63 62 63 62 63 63 62 62 61 61 60 59 59 59 59 59 57 56 56 58 61 61 60 61 63 63 65 65 65 65 66 66
61 61 60 59 60 60 61 61 63 63 63 64 63 62 63 64 65 64 64 62 62 62 62 62 63 63 64 64 64 63 63 64 64 64 62 62 62 62 62 62 62 62 62 61 62 61 60 59 59 58 57 59 60 61 62 62 64 64 65 65 66 66 66
58 58 58 59 60 61 61 61 62 61 62 62 63 63 63 64 65 64 64 63 62 63 63 63 63 63 64 64 64 64 64 64 64 64 63 62 62 61 62 62 62 62 62 63 64 62 61 61 59 57 57 59 58 59 60 61 61 64 65 65 66 66 66
57 58 58 58 59 59 60 60 61 61 61 61 61 61 63 64 64 65 65 64 64 64 63 63 63 63 64 64 64 64 64 65 64 64 63 63 63 63 63 62 62 62 62 63 63 61 60 59 59 59 57 56 56 57 58 59 61 61 62 65 67 67 66
57 57 57 58 57 58 59 59 59 59 59 59 59 61 63 63 63 63 64 64 63 64 64 63 63 63 63 62 62 63 63 63 63 63 63 63 62 62 62 62 62 62 62 62 62 61 63 62 62 61 59 56 55 55 56 57 58 61 62 64 67 66 66
58 57 57 57 57 58 58 57 57 57 57 57 58 60 60 62 62 62 62 62 62 62 63 63 63 63 63 62 62 61 61 63 63 63 63 62 62 62 62 62 62 61 62 62 63 63 63 62 63 62 61 60 57 54 55 55 57 59 64 62 65 67 66
56 55 55 56 56 57 57 56 56 57 57 57 58 59 59 59 60 60 60 59 60 61 61 61 59 60 60 62 61 61 61 63 63 62 62 61 62 62 62 62 62 62 62 63 63 63 62 62 62 61 61 60 60 57 55 55 56 57 61 64 61 64 67
56 56 55 55 56 56 56 56 56 55 55 56 57 57 58 58 57 58 57 57 58 59 60 56 55 54 54 54 56 58 61 62 62 62 62 62 62 62 62 62 62 62 62 62 62 63 62 62 62 62 61 61 60 58 57 56 56 58 58 62 64 63 66
56 56 56 56 55 55 54 55 54 54 55 55 55 55 55 56 55 55 55 54 55 56 56 53 53 52 53 52 53 53 55 57 60 61 62 62 62 62 62 62 62 62 63 62 62 63 63 62 62 62 61 61 60 61 59 56 54 57 62 59 63 66 66
56 55 55 54 54 54 54 54 54 53 54 55 54 54 53 54 54 53 53 53 53 54 54 52 52 50 50 50 50 51 52 53 54 57 61 62 62 62 62 62 62 62 62 62 62 62 63 63 63 62 61 61 60 61 60 58 57 57 58 61 62 66 67
54 55 54 54 53 53 54 55 54 54 55 54 54 53 53 53 53 53 52 52 52 53 51 50 50 49 49 48 48 49 50 51 52 53 56 59 62 62 62 62 62 63 63 62 62 62 62 62 62 62 61 61 60 60 60 58 57 57 58 57 60 62 67
53 53 53 53 53 53 54 55 55 54 53 54 54 53 53 53 53 52 52 52 52 53 50 49 49 48 47 46 46 48 48 48 49 50 53 55 58 62 62 61 62 63 63 62 62 62 62 62 62 62 61 61 60 60 61 60 59 58 57 57 57 60 61
52 52 52 52 52 53 53 54 55 53 52 53 54 53 53 53 52 52 51 51 51 51 49 48 48 48 47 46 45 45 46 47 47 48 49 52 54 58 61 61 62 62 63 62 62 62 62 62 62 61 61 61 61 61 61 61 60 58 59 58 59 59 60
52 52 52 52 51 52 52 53 54 52 52 52 52 53 53 52 51 51 50 50 50 50 49 48 48 47 46 46 45 45 45 46 46 47 48 50 52 55 58 60 61 62 62 62 62 62 62 62 62 61 61 61 61 61 61 61 61 61 59 58 58 60 60
52 51 51 51 51 52 52 53 54 53 52 51 52 52 52 51 51 50 49 49 49 49 49 48 47 46 46 46 45 45 44 45 45 46 47 49 52 53 55 58 61 62 62 61 61 61 62 61 62 62 61 61 61 61 61 61 60 61 58 58 58 60 60
51 51 51 51 51 51 52 52 52 52 52 51 52 52 51 51 51 50 50 50 50 50 49 48 46 45 45 45 45 45 45 45 45 45 46 48 49 51 53 56 60 62 62 61 61 62 62 62 62 61 62 62 61 61 60 60 60 60 60 59 59 57 59
49 50 50 50 51 51 51 51 51 51 51 51 51 51 50 49 50 50 50 50 49 48 47 47 45 44 44 44 44 44 44 44 44 45 45 46 48 50 52 55 58 61 62 62 61 61 62 61 61 61 62 62 62 61 60 60 60 60 59 59 58 58 58
50 50 50 49 50 50 51 51 51 51 51 50 50 50 49 48 48 49 48 48 48 48 46 46 45 44 43 43 43 44 44 45 44 45 45 46 47 49 51 53 57 60 62 62 62 62 62 61 61 60 61 62 62 61 59 59 59 59 59 58 58 57 58
50 50 50 49 49 49 49 50 50 50 50 49 50 49 49 48 47 47 47 47 47 47 46 45 44 43 42 42 43 43 45 45 45 45 46 47 48 49 51 53 55 59 62 63 59 58 59 59 61 61 61 62 61 61 60 59 59 59 58 58 57 57 57
50 50 50 49 49 48 48 49 49 49 49 49 48 49 48 48 47 46 46 46 46 46 45 45 45 43 43 42 42 43 44 46 46 46 47 47 48 50 51 53 55 57 56 56 56 53 52 52 56 60 62 62 62 61 61 59 58 58 58 57 57 56 56
48 49 49 49 48 48 48 48 48 48 48 47 47 47 47 46 46 46 45 44 44 45 44 45 43 41 40 41 43 43 44 45 46 47 48 48 48 49 51 53 54 57 58 58 58 52 50 50 49 50 53 56 59 62 61 59 59 58 57 57 57 56 56
47 47 48 48 48 47 47 46 47 47 46 46 46 46 45 45 45 44 44 44 43 44 44 45 41 41 40 40 42 43 43 44 45 47 47 47 47 48 48 48 50 51 54 56 58 60 56 51 48 47 48 49 50 50 52 59 59 58 58 57 57 57 57
45 45 45 46 46 47 46 45 45 45 45 46 44 44 44 44 44 44 44 43 43 43 43 43 41 41 40 40 40 42 43 44 45 45 46 46 46 46 46 46 47 49 50 50 52 55 60 60 52 48 48 48 48 48 47 47 51 60 60 58 58 57 57
45 43 44 44 44 45 45 44 43 43 44 44 43 43 43 43 43 43 43 42 42 43 43 43 41 40 40 39 39 41 43 43 44 45 46 46 46 45 45 45 45 46 47 47 48 48 48 52 59 59 56 54 55 54 48 46 46 49 55 60 59 58 59
44 44 43 43 42 43 43 42 43 43 43 42 41 41 41 41 43 43 42 42 42 42 43 42 41 40 40 39 40 41 42 42 43 44 45 45 45 45 45 45 45 45 45 45 46 45 43 43 45 54 59 57 57 57 58 56 55 56 57 60 60 60 60
42 42 43 43 42 41 41 41 41 42 42 41 41 41 41 41 41 41 41 41 41 41 42 42 41 40 40 39 40 42 41 41 41 42 44 45 45 45 45 45 45 44 44 44 44 41 41 41 43 49 55 58 57 58 58 56 52 53 58 60 61 61 61
42 41 41 43 42 41 40 41 41 42 41 40 40 40 40 41 41 40 41 41 41 41 41 42 41 40 40 39 41 41 42 41 41 41 42 44 45 45 44 45 45 44 43 43 42 39 39 40 42 48 53 56 57 57 55 53 47 47 48 49 51 51 51
41 41 41 42 42 42 41 41 41 41 39 39 40 40 41 41 41 41 40 40 42 41 40 42 41 40 40 39 41 41 41 41 40 40 40 43 44 44 44 46 46 43 42 41 40 38 39 40 41 47 51 54 56 54 54 51 49 46 43 44 46 48 47
41 41 42 42 42 42 42 42 41 40 40 39 40 39 43 40 41 41 41 41 45 41 40 42 42 40 40 40 41 41 41 40 39 38 39 41 43 42 42 43 43 43 42 40 38 39 38 40 41 45 50 53 55 54 54 51 50 49 49 50 49 49 47
42 42 43 42 43 42 42 42 41 41 41 40 39 38 39 40 39 40 40 40 40 40 40 41 42 40 40 40 40 41 40 39 37 38 39 40 40 40 41 41 41 40 39 38 38 38 39 38 40 43 49 53 55 55 53 51 52 52 52 52 52 52 52
43 41 42 42 42 42 41 41 40 40 39 40 39 39 38 39 39 39 39 39 39 40 42 42 41 40 40 40 39 39 39 39 38 38 38 38 38 38 38 39 39 41 39 38 38 39 39 39 39 42 47 54 56 55 49 51 50 49 51 50 49 49 49
44 45 42 43 42 41 40 41 41 39 38 38 39 39 38 38 38 38 39 39 39 39 41 44 41 41 40 40 39 39 39 38 39 38 37 37 38 38 38 38 39 40 38 38 38 39 39 39 39 43 46 47 48 44 51 51 51 49 49 48 48 47 47
43 45 42 41 41 40 40 40 40 39 38 38 38 38 38 37 37 37 38 38 38 38 39 41 42 40 40 39 39 39 38 38 38 39 37 36 37 37 38 38 39 40 38 38 38 38 39 39 40 40 38 41 43 43 46 49 48 48 47 47 47 46 46
41 40 41 40 40 40 39 39 39 39 37 38 37 37 37 37 36 37 36 38 38 39 39 39 41 41 40 39 39 38 38 38 39 38 38 37 37 38 37 38 38 37 38 38 38 38 39 39 39 38 39 40 42 43 48 47 47 46 45 45 45 45 45

ECMWFFLT1_sfc_temp_087.txt.gz
Temp
62 62 63 64 65 65 64 64 65 65 65 65 64 64 65 65 65 64 64 64 64 64 64 64 63 63 64 64 65 65 64 63 62 61 61 61 60 60 63 62 62 62 61 61 61 58 56 55 57 61 62 62 62 63 63 63 63 63 62 62 63 63 63
63 63 64 64 63 64 63 63 64 64 65 65 65 65 65 65 66 65 65 64 64 63 64 63 63 63 63 63 63 63 63 63 63 62 61 61 61 60 61 61 61 61 60 61 61 59 57 55 56 58 59 61 62 62 63 63 63 63 63 63 64 64 63
62 62 62 62 62 62 62 62 61 63 64 64 64 64 64 65 65 65 64 64 63 63 64 63 63 64 64 64 64 64 64 63 63 63 62 62 62 62 61 61 60 60 60 59 59 59 58 58 56 56 59 59 58 61 63 62 63 63 64 64 63 64 63
60 60 59 59 60 60 60 60 61 61 62 62 62 62 63 63 64 65 64 64 64 64 63 63 63 63 63 63 64 64 64 63 63 63 62 62 62 62 62 61 61 60 59 58 58 59 58 57 56 56 58 60 60 60 62 63 63 63 64 64 64 64 64
57 57 56 56 58 58 58 57 58 60 60 61 61 60 60 62 62 62 63 63 62 62 62 63 63 63 63 64 64 64 64 64 64 63 63 63 63 63 62 62 62 62 61 60 61 60 59 58 58 57 57 58 59 61 62 61 63 63 64 64 65 65 65
55 55 56 55 55 55 55 55 55 55 57 57 58 58 59 60 60 60 60 60 60 61 62 61 60 60 60 61 63 63 63 63 63 63 63 63 63 62 62 63 62 62 61 62 61 60 60 60 59 57 58 59 57 58 60 60 59 63 64 64 65 65 65
54 55 54 54 55 55 55 54 54 54 54 54 55 56 57 59 58 58 58 58 59 60 58 56 56 56 56 57 60 60 61 62 63 62 62 63 63 63 63 62 62 62 62 62 62 61 60 59 58 58 58 57 58 58 57 58 60 59 62 65 65 66 66
54 54 54 54 54 54 54 53 53 53 53 53 53 55 56 55 55 56 56 56 57 57 55 55 54 54 55 55 56 56 57 58 58 60 61 62 62 62 63 62 62 62 62 62 62 61 61 60 60 59 58 56 56 57 57 58 58 60 62 63 66 65 65
55 54 53 54 53 53 53 52 52 52 52 52 53 53 53 53 53 53 53 53 55 55 54 54 53 52 53 53 53 54 54 56 55 56 59 61 62 62 62 62 62 62 62 62 62 62 61 61 60 60 60 58 56 54 56 56 57 59 64 61 62 65 65
52 52 51 52 52 53 52 52 51 52 52 52 52 53 52 52 52 52 51 52 53 53 52 53 52 51 51 51 50 51 51 53 53 54 56 58 60 62 62 62 62 62 62 62 62 62 62 62 61 61 61 59 59 56 55 54 56 58 61 63 59 62 66
52 52 51 51 52 52 51 51 51 51 51 52 52 52 52 51 51 52 50 51 53 52 51 50 50 50 49 49 49 49 50 51 51 52 54 55 56 59 61 62 62 61 62 62 62 62 62 62 62 61 61 61 60 58 57 55 57 60 59 61 63 62 64
52 51 51 51 51 51 51 51 50 50 51 51 51 51 51 50 50 50 50 51 52 50 50 48 49 48 48 47 48 47 49 49 49 49 51 52 54 56 57 59 61 62 63 62 62 62 62 62 62 62 61 61 60 60 59 57 55 58 62 59 62 65 64
52 52 51 50 51 51 51 50 50 50 50 51 50 50 50 51 51 50 51 51 51 49 48 48 47 47 46 46 46 46 47 47 47 47 48 50 52 53 54 56 58 60 62 62 62 62 62 62 62 61 61 61 61 60 60 58 56 56 59 61 62 64 65
50 51 51 51 50 50 51 51 50 50 51 50 50 49 49 50 51 51 51 51 49 48 47 46 47 46 46 45 46 46 47 47 45 45 47 47 50 51 52 54 55 58 62 62 62 62 62 62 62 62 61 61 60 61 60 58 56 56 58 58 59 61 65
49 49 49 49 49 49 50 50 50 50 49 50 50 49 49 49 50 49 49 49 48 48 47 46 46 45 44 44 44 46 46 46 46 46 45 45 47 48 50 51 53 55 58 61 62 62 62 62 62 62 61 61 61 60 61 59 58 57 57 57 57 60 61
49 49 49 49 48 49 49 49 50 48 49 49 49 49 48 48 48 48 48 47 47 46 46 45 45 44 43 43 43 44 45 45 45 45 45 45 45 47 48 49 51 53 55 56 60 62 62 62 62 61 61 61 61 61 61 60 59 57 57 57 59 59 60
50 49 49 49 48 48 49 48 50 48 48 49 48 48 49 48 48 47 47 47 46 46 45 45 44 44 43 43 43 43 44 45 46 46 45 45 46 47 47 47 49 51 52 53 56 60 62 62 61 61 61 61 61 61 61 61 60 59 58 57 58 59 60
48 48 48 48 48 48 48 48 49 49 48 48 48 47 48 48 47 47 46 46 46 45 45 44 44 43 43 43 42 43 44 45 46 46 47 47 48 47 47 47 48 50 51 51 54 57 61 61 62 61 61 61 61 61 61 61 60 60 59 58 58 59 59
46 46 47 47 47 48 48 48 47 48 48 47 47 47 46 47 48 46 46 46 45 45 45 44 44 43 42 42 42 42 43 44 45 47 47 48 48 48 48 48 49 50 51 51 53 55 58 60 61 61 61 61 61 61 60 60 60 60 59 59 59 57 58
45 46 46 47 47 47 47 47 47 47 48 47 46 46 46 45 46 46 45 45 45 45 44 44 44 42 42 42 42 42 42 43 44 46 47 48 49 49 49 50 50 51 51 52 53 54 55 55 57 59 61 61 61 61 60 60 60 59 59 59 59 59 58
46 47 46 46 46 46 46 46 46 47 47 46 45 45 45 45 45 45 45 44 45 45 44 44 43 42 42 42 42 42 42 42 43 45 47 48 49 49 50 50 50 51 52 53 52 51 52 51 52 54 58 61 61 60 60 59 59 59 58 58 58 57 58
46 47 46 46 46 45 46 45 45 45 45 45 46 45 45 44 44 43 44 44 43 44 43 43 43 42 41 42 42 41 41 42 42 44 46 47 48 48 49 49 49 50 51 52 50 50 49 49 49 49 52 57 60 60 60 59 59 58 58 58 57 58 57
46 45 45 45 45 45 44 45 45 44 44 44 43 45 43 44 43 43 42 42 43 43 43 43 45 43 43 42 41 42 41 42 42 43 44 45 46 47 47 48 48 50 49 50 49 47 46 46 47 47 46 48 52 58 60 59 58 58 58 57 57 57 56
45 45 44 44 44 44 44 44 44 44 43 43 43 44 43 42 42 42 42 42 41 42 42 44 42 40 40 41 42 41 41 41 42 43 44 44 44 45 46 47 47 49 49 49 49 46 45 44 43 43 43 44 46 48 55 59 59 59 57 57 57 57 57
43 43 44 43 43 43 43 43 43 42 42 42 43 43 42 41 42 41 42 41 41 42 42 44 40 41 40 40 42 42 41 41 41 42 43 44 44 45 45 46 46 47 47 48 48 47 46 44 43 42 42 42 42 44 45 52 58 58 58 57 57 57 57
41 42 42 41 41 42 42 42 41 41 41 42 41 41 40 41 41 41 41 40 40 41 41 43 41 41 40 40 40 41 41 41 41 41 42 43 44 44 44 44 44 45 46 48 48 46 45 44 43 43 43 43 44 46 45 43 45 54 60 58 58 58 58
40 40 40 40 40 40 40 40 39 40 41 41 40 40 40 40 40 40 41 40 39 41 41 43 41 41 40 40 39 41 41 41 41 41 41 42 43 43 43 43 43 43 45 45 45 45 43 42 42 42 43 44 46 48 48 46 45 44 48 56 59 58 59
40 39 39 39 38 38 38 38 39 39 39 39 39 39 39 38 40 40 39 39 39 40 41 42 40 40 40 39 39 41 41 41 41 41 41 42 42 43 43 43 43 43 43 43 44 43 41 40 40 41 41 43 45 48 52 56 56 54 53 53 57 59 60
39 38 39 39 38 38 37 36 37 39 39 38 39 38 39 39 38 38 39 38 38 39 41 41 40 40 40 39 40 41 40 40 40 40 40 41 42 43 44 43 43 43 43 42 43 40 40 40 40 40 41 42 45 48 51 54 52 53 56 57 58 59 60
39 38 38 38 37 37 38 38 37 39 37 37 37 37 38 38 38 37 38 39 38 39 39 41 41 40 40 39 40 40 40 40 40 40 40 41 42 42 43 43 44 43 42 42 41 39 38 40 39 40 40 41 43 45 48 53 51 47 47 48 49 50 51
38 38 37 38 37 37 37 37 38 37 36 36 37 36 37 37 38 38 38 37 39 39 38 41 41 40 40 39 40 39 39 39 38 38 39 41 41 42 42 44 45 42 41 41 39 38 38 39 39 40 40 40 41 43 46 51 55 53 47 45 46 46 47
38 38 38 37 38 37 37 37 37 36 36 35 36 36 40 37 37 38 37 38 43 39 37 40 41 40 40 40 40 39 39 38 37 38 38 39 41 40 40 42 43 42 41 40 38 38 38 39 39 39 40 40 40 41 44 48 52 53 52 51 51 51 50
39 38 38 37 37 38 38 37 36 36 36 36 36 36 36 37 36 37 37 37 38 38 37 39 41 40 40 40 40 40 38 37 36 37 38 39 38 39 39 40 40 39 38 38 37 37 38 38 39 40 41 40 40 41 46 48 51 53 53 53 53 53 53
39 38 38 38 39 38 36 36 36 36 36 37 35 37 36 36 36 36 37 37 36 37 40 39 40 40 40 40 39 39 37 37 37 37 37 37 37 37 37 38 39 40 38 38 38 38 38 38 39 40 41 39 40 41 42 44 49 50 53 52 52 52 53
39 41 39 38 37 37 37 36 36 35 35 35 35 36 36 36 35 36 36 36 37 36 39 42 39 40 40 40 39 39 38 38 38 37 36 37 37 37 37 37 38 39 38 37 37 38 38 38 38 40 39 38 38 39 41 43 48 51 51 50 50 49 49
40 41 40 38 36 36 36 35 35 35 34 35 35 35 35 35 35 35 36 37 36 37 37 39 41 40 40 39 39 39 38 38 38 38 36 36 36 36 37 37 39 39 37 37 38 38 38 38 39 38 38 38 39 39 43 47 48 50 48 48 47 46 46
37 38 38 37 36 35 35 36 36 36 34 34 34 35 35 35 34 34 34 36 37 37 38 37 39 40 39 39 39 39 38 38 38 38 37 36 36 36 36 37 38 37 37 37 37 37 38 38 37 37 38 38 39 40 42 43 45 45 44 44 45 44 44

ECMWFFLT1_sfc_temp_090.txt.gz
Temp
61 60 61 62 63 64 63 62 63 64 64 63 62 63 64 64 65 64 64 64 63 64 64 63 63 63 64 64 65 65 64 64 63 62 61 62 60 61 63 62 62 63 63 62 61 58 57 56 59 62 62 62 63 63 64 64 65 65 64 64 65 65 66
62 61 62 62 62 62 60 61 61 62 62 62 63 62 62 63 63 63 63 62 62 62 63 62 62 63 63 63 63 63 63 64 64 63 62 61 62 61 61 61 62 61 62 62 62 61 58 56 56 58 59 61 62 63 64 65 66 65 65 65 65 65 66
60 60 61 59 59 60 58 58 59 59 60 60 60 61 60 61 61 61 60 60 60 60 59 59 58 58 59 61 62 63 63 63 64 63 62 62 63 63 62 62 60 61 60 60 60 60 59 59 56 58 59 59 58 61 63 63 65 66 66 65 64 66 66
57 57 56 56 57 56 56 56 56 57 57 57 58 58 57 58 58 59 57 58 59 57 56 55 55 55 56 57 60 61 62 62 62 63 63 63 63 62 62 62 61 61 60 59 60 60 59 58 57 57 59 60 60 59 61 64 65 66 66 66 65 65 66
53 53 53 53 54 53 53 52 54 54 54 55 55 55 54 55 56 55 56 56 56 55 55 55 55 55 55 56 57 57 58 59 59 59 60 61 61 62 62 63 62 62 61 61 61 61 60 59 58 58 58 60 60 60 62 62 65 65 65 65 66 67 67
53 52 52 51 52 52 51 51 51 51 51 51 52 52 52 53 53 53 53 54 54 54 55 55 54 54 54 54 55 55 55 56 55 56 56 58 60 60 61 62 62 62 62 63 62 61 61 60 59 57 59 60 57 58 61 62 61 65 66 65 66 67 67
52 52 51 51 51 51 51 50 50 50 50 50 51 50 52 52 52 52 53 53 53 53 53 53 52 52 52 52 53 52 53 54 54 54 55 56 57 59 61 61 62 62 62 63 62 62 61 60 58 58 58 58 59 58 59 59 62 61 63 66 67 67 67
52 51 52 52 51 50 50 50 50 50 50 50 50 51 52 51 51 51 53 51 51 51 51 51 51 51 50 50 50 50 51 52 52 52 53 54 55 57 57 59 60 61 62 63 62 62 62 61 60 60 58 56 57 58 57 59 59 61 63 64 67 67 67
53 52 51 51 51 51 50 50 49 49 50 50 51 51 50 51 51 51 51 51 50 50 49 49 49 49 49 48 48 48 48 50 49 50 51 52 53 54 54 56 58 59 62 62 63 62 62 62 61 61 60 58 56 55 57 56 58 59 64 63 65 67 68
51 50 50 50 50 50 50 50 49 49 50 50 50 51 50 51 51 51 51 50 49 49 48 48 48 48 48 47 47 47 47 48 48 47 48 48 49 51 52 54 55 56 59 61 62 62 63 62 62 61 61 59 58 56 55 54 56 57 61 63 62 64 67
50 50 50 49 50 50 49 49 49 49 49 49 50 51 51 51 51 51 50 49 49 48 48 48 47 47 47 46 46 47 48 49 48 48 48 48 48 49 50 51 53 54 56 57 58 61 62 62 62 62 61 61 60 57 57 55 56 58 58 62 64 64 65
50 50 50 50 50 49 49 49 49 48 49 49 49 49 49 49 49 49 49 48 48 47 47 47 47 46 46 45 45 46 47 48 48 47 48 48 48 48 48 48 50 51 53 55 56 58 61 62 62 62 61 61 60 60 58 57 55 58 60 59 61 64 65
50 49 49 48 49 49 49 49 49 48 48 49 48 49 48 48 48 48 48 48 47 47 46 46 46 45 45 44 44 45 46 47 47 47 47 49 49 49 48 47 48 49 51 52 54 55 56 59 61 62 61 61 61 61 60 58 57 57 59 60 61 62 64
48 49 49 49 48 48 49 49 48 49 49 48 48 48 48 48 48 48 47 47 46 46 45 45 45 45 44 44 44 45 46 46 46 47 47 48 49 49 48 48 49 50 51 51 51 53 54 56 58 61 62 61 61 61 60 59 57 57 59 60 60 61 63
48 48 48 48 48 48 48 48 49 48 47 48 48 48 48 48 48 47 47 47 46 46 45 45 45 44 43 43 43 44 44 44 45 46 47 47 48 49 48 48 49 50 52 51 51 52 53 54 56 58 60 61 61 61 61 59 58 57 57 58 58 60 61
48 48 47 47 47 47 48 48 49 47 47 47 48 48 47 47 47 47 46 46 46 45 45 45 45 44 43 43 43 43 44 44 44 45 45 46 48 49 49 49 49 50 51 50 51 52 53 54 56 57 58 59 59 60 61 61 59 58 58 58 60 59 59
47 47 47 47 47 47 47 47 49 47 47 47 46 47 48 47 46 46 45 45 45 45 44 44 44 44 43 43 43 43 43 43 44 45 45 46 48 48 48 48 49 50 50 50 51 52 53 54 53 53 54 55 56 57 60 61 61 59 59 58 59 59 60
47 47 46 47 46 47 47 47 48 47 46 46 46 46 46 47 46 45 44 44 44 44 44 44 43 43 43 43 43 43 43 43 44 45 45 46 48 48 48 48 48 49 49 48 49 50 51 50 50 50 50 51 53 55 56 58 60 61 59 58 59 60 60
46 46 47 46 46 46 46 46 46 47 47 45 45 45 45 45 46 44 44 44 45 44 44 44 43 43 43 43 43 43 43 43 43 44 45 47 47 48 47 47 48 48 48 47 48 49 49 49 49 48 48 49 50 51 52 54 57 60 60 59 59 59 59
46 46 46 46 46 46 45 45 46 45 46 45 45 44 45 44 45 44 44 44 44 44 44 44 43 43 43 43 43 43 43 43 43 44 45 46 47 47 48 47 47 48 47 48 48 47 47 47 47 46 47 47 48 47 48 50 53 56 59 59 59 60 59
46 46 46 45 45 45 45 45 45 45 46 44 44 44 43 43 44 44 44 44 44 45 44 44 44 43 43 42 42 42 43 42 43 43 44 45 46 47 47 48 48 48 48 49 48 47 47 46 46 45 46 46 45 45 45 46 49 52 55 58 58 58 59
46 46 45 44 44 44 44 44 45 45 45 44 45 44 44 44 43 43 44 43 43 44 44 44 44 43 42 42 42 42 42 42 42 42 43 44 45 46 47 47 47 48 49 50 48 48 48 47 45 43 44 44 43 43 43 44 46 48 52 55 58 59 58
44 44 44 43 43 43 44 44 44 44 44 44 44 45 44 44 43 43 42 43 43 43 43 44 45 43 43 42 42 42 42 42 42 42 43 43 44 45 46 46 47 49 48 48 47 46 44 44 45 44 43 42 42 41 42 42 43 46 49 51 55 57 57
43 43 43 43 43 43 43 43 43 43 43 43 43 43 43 42 42 42 42 42 42 42 43 45 42 40 40 41 42 42 41 42 42 42 42 42 42 43 45 46 46 47 47 47 47 45 44 43 42 42 42 43 43 42 41 41 42 44 46 49 53 56 57
42 42 42 42 42 42 43 43 43 42 42 42 42 42 41 41 41 41 42 42 41 42 42 44 40 41 40 40 41 42 42 41 42 42 42 42 42 43 43 44 45 46 46 47 47 46 45 43 42 41 41 41 41 42 42 42 42 42 44 46 49 53 57
41 41 41 41 41 42 42 42 41 41 41 42 41 41 40 40 40 41 41 40 41 42 42 43 40 41 40 40 40 42 42 42 42 42 42 42 42 42 43 43 43 44 45 47 47 45 44 43 43 42 42 42 42 42 41 40 42 44 45 45 46 49 54
40 39 39 40 40 40 40 40 39 40 41 40 40 40 40 39 40 40 40 40 40 41 42 43 40 40 40 40 39 40 42 41 42 42 42 42 42 42 42 42 41 42 44 45 44 44 43 42 41 41 42 43 43 44 43 43 42 42 44 45 46 48 53
40 39 39 39 39 39 38 38 39 40 39 39 38 38 38 38 40 40 39 39 39 40 42 41 40 40 40 40 39 41 42 42 41 42 42 42 42 42 42 42 42 42 43 43 43 42 41 40 40 40 41 42 43 44 45 45 47 47 48 49 50 51 53
39 38 39 39 38 38 38 37 37 39 40 38 39 38 39 39 39 38 39 39 39 39 41 40 40 40 40 39 40 42 41 41 41 41 41 41 42 42 42 42 42 42 42 42 42 40 40 40 39 39 40 41 42 43 44 46 44 45 46 47 48 49 52
39 38 38 38 38 37 37 38 37 39 38 37 38 38 38 38 38 38 39 39 38 39 40 40 40 40 40 39 41 41 41 41 40 40 40 41 42 42 42 43 43 42 41 41 41 38 38 39 39 39 39 39 40 41 42 46 45 44 43 43 42 43 43
39 38 37 38 37 37 37 37 37 38 36 36 38 37 38 38 38 38 38 38 40 39 38 40 40 40 40 39 41 40 40 40 39 39 39 41 41 41 42 43 44 42 41 41 39 38 38 39 39 39 39 38 39 39 41 44 45 45 44 43 43 43 43
37 37 38 37 38 38 38 38 37 36 36 36 37 36 40 37 38 38 38 39 42 39 38 40 40 39 40 39 41 41 40 40 39 39 39 39 40 40 40 42 42 41 41 40 38 38 38 39 39 38 39 38 37 37 39 42 41 41 42 44 46 49 48
38 37 37 37 37 38 39 36 36 36 36 36 37 36 37 37 36 38 38 38 38 38 38 39 41 39 40 39 39 41 40 39 38 38 38 39 38 39 39 40 40 39 38 38 38 37 38 38 38 39 39 37 36 35 40 40 41 42 42 43 44 47 50
39 37 37 38 39 39 36 35 36 36 36 36 36 37 36 37 37 37 37 37 38 38 40 40 40 39 39 39 39 39 40 39 39 39 38 38 37 37 38 39 40 40 38 38 38 38 38 38 38 39 39 37 37 38 39 40 42 43 45 45 45 46 50
38 40 39 38 37 37 36 36 37 35 34 35 35 36 36 37 36 37 37 38 38 37 40 41 40 40 39 39 39 39 39 40 40 39 38 38 38 38 38 39 39 40 38 38 38 38 38 38 38 39 37 37 37 37 39 42 43 44 45 46 46 49 51
40 40 40 38 36 37 36 35 36 36 35 36 35 36 36 36 36 36 37 38 38 38 38 39 40 40 39 38 38 39 38 39 38 40 38 37 37 38 39 39 40 40 38 38 38 38 38 37 38 37 36 36 37 37 39 41 41 42 43 44 45 44 44
38 38 38 37 37 36 37 36 36 36 34 34 35 36 36 35 36 36 36 37 38 38 38 38 39 39 39 38 38 38 38 38 38 39 40 38 39 39 39 40 40 38 38 38 38 38 37 37 37 36 36 36 37 38 38 39 40 40 40 40 41 42 42

ECMWFFLT1_sfc_temp_093.txt.gz
Temp
64 63 64 65 66 67 67 66 67 66 65 65 64 64 65 65 64 63 65 64 63 63 62 60 61 62 63 64 65 65 66 67 67 64 65 67 64 66 68 67 67 67 68 68 66 62 60 58 64 71 72 71 71 71 70 71 71 69 69 71 72 72 70
66 66 65 65 65 65 63 64 63 64 63 63 63 62 63 63 63 62 62 62 63 62 61 60 60 61 60 61 62 61 61 62 63 64 64 64 65 64 64 66 66 66 67 68 68 67 61 59 61 64 66 72 71 70 69 69 69 68 68 68 70 71 70
65 64 64 63 63 63 62 61 62 62 62 62 62 62 62 64 62 62 62 61 61 61 60 59 60 60 59 60 60 60 61 61 61 60 60 62 64 65 64 65 64 65 66 66 66 64 63 63 58 61 65 64 64 69 71 68 69 69 68 67 67 70 70
61 61 61 60 61 61 60 60 60 61 61 61 62 61 60 62 61 62 60 60 60 59 59 59 59 59 59 59 60 60 59 59 59 59 59 61 62 62 63 64 64 62 61 61 63 64 62 60 60 61 65 67 66 65 69 70 69 69 68 67 66 66 68
60 59 58 58 59 59 58 58 60 60 60 60 60 59 58 59 60 59 59 59 58 58 57 58 57 57 58 59 59 59 59 59 59 58 58 58 59 59 60 62 62 63 64 63 63 62 61 61 60 59 62 65 67 70 71 69 69 68 67 66 66 66 66
59 59 58 57 58 58 58 57 57 58 58 57 57 57 57 57 58 57 56 56 56 57 57 57 57 57 57 58 58 57 57 57 57 56 56 56 56 57 58 60 60 62 62 63 64 63 64 63 62 59 65 67 61 65 70 69 68 70 69 66 66 65 66
58 58 57 57 57 57 58 57 56 56 56 55 55 55 56 58 58 57 56 56 56 56 56 56 56 56 56 57 57 56 55 55 55 54 54 54 54 56 56 56 58 59 61 63 64 64 63 62 61 61 61 63 65 64 69 67 69 68 69 69 68 68 67
58 58 57 57 57 56 57 56 55 56 55 55 55 56 57 57 56 56 56 55 55 55 55 55 55 56 55 56 56 55 56 55 54 54 53 53 52 52 52 54 55 57 59 61 61 62 63 62 61 61 59 57 60 63 65 68 68 66 68 72 72 71 71
58 58 58 58 58 57 56 56 55 54 55 55 56 56 56 56 55 55 56 55 55 55 55 55 55 55 54 54 55 55 54 55 54 54 53 53 53 52 53 54 54 55 57 58 60 60 59 60 60 62 61 59 56 56 62 62 64 64 69 68 70 70 70
57 56 56 56 56 56 56 56 55 55 55 55 55 56 55 56 56 55 55 54 54 54 54 54 54 54 54 54 54 54 53 54 54 54 54 54 54 54 53 53 53 54 55 56 57 57 58 59 60 60 60 58 58 56 56 57 61 63 70 69 63 64 68
57 57 57 56 56 56 55 56 56 55 55 55 55 55 56 55 55 55 54 54 54 54 54 54 54 54 54 54 54 54 54 54 54 56 55 54 53 54 54 54 54 54 56 56 56 56 58 58 57 58 58 59 60 57 57 56 59 66 66 68 67 64 66
57 57 56 57 56 55 55 55 55 54 55 55 55 55 55 55 55 54 54 54 54 54 54 53 53 53 53 53 53 53 54 53 53 54 54 53 53 54 54 53 54 54 55 55 56 56 57 57 57 57 57 58 59 59 58 58 56 62 68 65 66 67 66
58 57 56 56 55 55 54 54 54 54 54 55 55 55 55 54 54 54 54 54 53 53 53 53 53 53 53 52 52 52 52 52 52 53 54 54 53 54 54 53 54 54 55 55 55 55 55 57 58 57 57 57 58 58 57 57 55 58 67 67 67 67 69
56 56 56 55 54 54 54 54 54 55 55 54 55 54 54 54 54 54 54 54 53 53 53 52 52 52 52 52 52 52 52 53 52 52 53 53 54 53 53 53 54 55 55 54 54 55 55 56 56 55 55 54 53 55 54 54 53 54 61 68 66 66 67
56 56 55 54 54 54 54 54 54 55 53 54 54 54 54 53 54 54 54 54 53 53 53 53 52 52 51 51 51 52 51 52 52 52 52 52 53 53 53 53 53 53 54 53 53 54 55 54 54 54 54 53 52 52 54 52 51 52 53 60 64 68 66
55 54 54 54 54 54 54 54 55 54 54 54 54 54 53 54 53 54 54 53 53 53 53 53 52 52 51 51 51 51 51 52 52 51 51 52 53 53 52 52 52 52 52 51 52 53 54 53 53 52 52 53 51 52 52 52 50 49 50 53 58 61 65
54 54 53 53 53 54 54 54 55 54 54 54 53 54 54 54 53 53 52 53 53 53 52 52 52 52 51 51 51 51 52 52 52 52 52 53 52 52 52 51 51 51 51 50 51 52 52 52 51 51 52 53 52 51 51 51 50 48 50 50 56 59 61
53 53 53 53 53 54 54 54 54 54 54 53 53 54 54 54 53 53 52 53 53 53 52 52 52 52 52 52 52 51 52 52 52 52 52 52 52 52 52 51 51 51 51 49 50 50 50 49 50 51 50 51 51 51 51 50 49 49 48 49 51 56 59
53 53 53 53 53 53 54 54 54 54 54 53 53 53 53 53 53 53 53 53 53 53 53 52 52 51 52 52 52 52 52 52 52 53 53 53 53 53 52 52 51 51 50 49 49 49 49 49 49 49 49 49 49 49 48 49 50 49 48 48 50 51 56
53 53 53 53 54 54 54 53 54 53 54 54 53 53 53 54 53 53 53 53 52 52 52 52 51 51 51 51 51 51 51 52 52 52 53 53 53 53 53 53 52 51 50 50 49 48 48 47 47 47 48 47 48 47 47 49 49 49 48 47 49 51 53
53 53 54 54 54 54 54 54 54 54 54 53 53 53 53 53 53 54 53 53 52 52 52 51 50 50 50 50 51 51 52 52 51 52 52 53 53 53 53 53 52 52 51 51 49 49 48 47 47 46 47 47 47 46 45 46 47 48 48 48 48 49 52
54 54 54 54 53 53 53 53 54 54 54 53 53 54 54 53 53 53 53 52 52 52 51 50 48 47 48 49 51 51 51 51 51 51 52 52 53 53 53 52 52 52 51 50 48 48 47 47 46 44 45 46 45 44 44 45 46 46 47 48 48 51 51
54 54 54 54 54 54 54 54 54 53 53 53 53 53 53 53 53 52 51 52 51 50 50 49 45 42 43 46 49 50 51 51 51 51 51 51 52 52 52 51 50 49 47 47 47 46 44 44 45 45 45 45 44 43 43 43 44 45 46 45 47 49 49
54 54 54 54 54 54 54 54 53 53 53 53 52 53 52 52 52 51 51 51 50 50 50 48 41 40 40 41 46 49 50 50 51 51 52 51 51 50 50 51 50 49 48 47 48 45 44 43 42 42 42 43 44 43 42 41 42 44 44 44 47 48 48
54 53 54 54 54 55 54 54 53 53 52 52 52 52 51 51 51 51 50 51 50 50 50 44 40 40 40 40 42 47 51 51 51 51 51 51 50 49 48 48 48 48 48 48 48 47 45 43 42 41 41 41 41 41 42 43 43 42 43 43 44 45 46
54 54 54 54 54 54 54 53 53 52 51 52 52 51 51 51 50 50 50 50 50 50 50 43 40 40 40 40 40 44 52 50 51 50 51 50 49 48 47 46 46 47 47 47 48 47 46 45 43 42 42 42 43 44 42 41 41 45 46 44 43 43 45
53 54 54 54 54 54 53 52 52 52 52 52 51 50 50 50 50 50 50 50 50 50 50 43 40 40 40 39 39 42 51 50 51 52 52 50 48 48 47 45 45 45 47 47 47 46 44 44 43 44 45 46 48 47 45 44 43 42 44 45 44 43 46
54 54 54 54 54 53 52 52 52 52 52 51 50 50 50 49 49 49 50 50 50 49 49 41 40 39 39 39 39 44 51 51 51 51 51 50 49 48 47 46 46 46 46 46 47 44 43 43 42 43 44 45 46 47 48 49 49 49 48 48 47 47 48
53 54 54 54 53 52 52 51 51 51 52 52 52 51 51 50 49 49 49 49 49 49 50 41 40 40 39 39 41 51 51 51 50 50 50 49 50 49 48 47 46 46 46 46 45 40 40 43 43 43 42 43 44 45 47 47 45 45 46 47 47 48 48
53 54 54 53 53 52 51 51 51 52 51 51 50 50 50 50 50 49 49 49 48 49 50 45 40 39 39 38 44 51 51 51 50 49 49 49 50 50 49 49 48 47 47 47 43 38 39 40 42 41 41 41 42 43 44 47 45 43 42 41 41 41 41
54 53 54 53 52 51 52 52 51 51 50 50 50 50 51 51 51 50 49 48 48 48 49 46 40 40 39 38 42 49 51 50 49 49 50 50 51 51 50 47 48 48 47 47 40 38 38 41 42 41 40 39 39 40 42 44 44 44 42 42 42 41 41
54 54 53 52 52 52 52 51 51 52 51 52 51 51 51 51 50 50 50 49 46 47 49 47 42 39 39 39 43 50 50 50 49 48 49 49 51 51 50 49 47 46 45 43 38 39 38 41 43 41 40 39 37 38 39 40 39 41 43 44 46 48 48
54 54 53 52 53 52 52 52 51 51 51 52 52 52 51 51 50 50 50 50 49 49 48 49 47 39 39 39 39 46 50 48 47 48 49 49 49 50 49 50 49 43 40 39 39 38 39 38 42 42 41 37 35 34 38 39 41 42 42 42 44 47 48
53 53 54 53 53 52 52 52 51 51 51 52 51 51 50 50 50 50 50 50 50 50 48 47 47 40 40 39 39 40 49 47 47 48 49 48 49 48 48 49 49 44 40 39 39 39 39 39 39 42 41 37 35 36 38 39 40 41 41 41 43 45 46
53 53 53 53 53 52 52 52 52 51 52 51 50 50 50 50 50 50 51 51 50 50 49 45 47 43 40 39 39 39 44 47 44 47 48 48 48 48 48 48 48 44 39 39 39 39 39 39 39 43 40 37 36 36 38 40 40 40 40 40 41 42 43
52 53 52 52 53 52 52 52 52 51 51 51 50 50 50 50 50 50 50 51 51 51 50 50 42 45 41 39 38 39 38 42 39 47 47 47 47 47 48 48 47 42 39 39 39 39 39 39 41 42 37 37 37 36 38 38 38 38 37 38 39 39 41
53 53 53 53 53 53 52 52 52 52 51 51 51 51 51 50 50 49 49 49 50 51 51 51 46 41 43 39 39 38 38 38 39 44 47 49 48 48 47 47 45 39 39 39 40 40 40 40 41 38 38 37 37 38 38 37 36 36 36 36 36 36 38

ECMWFFLT1_sfc_temp_096.txt.gz
Temp
70 68 69 69 70 70 69 69 70 70 71 72 72 72 70 69 68 69 69 68 68 69 70 69 66 66 68 69 69 69 70 69 68 66 65 67 66 67 70 70 71 72 72 70 69 64 65 63 69 78 79 78 79 78 79 80 80 79 78 78 80 79 78
70 70 71 71 69 69 68 68 68 69 69 68 69 69 68 69 69 68 68 67 67 68 69 70 69 69 68 67 67 67 67 67 68 67 66 66 66 66 66 67 69 69 70 71 72 70 66 63 66 69 71 76 77 78 78 78 79 79 79 79 79 78 78
70 70 70 69 69 69 67 67 67 68 68 67 66 66 67 68 67 68 67 66 66 66 67 67 67 67 66 67 67 66 66 65 68 67 65 66 67 67 66 66 65 65 66 67 68 68 69 69 63 67 69 69 69 74 77 78 79 79 79 78 77 79 78
68 68 68 68 69 68 67 67 67 66 66 66 65 64 65 66 65 66 65 65 66 65 65 65 65 66 66 66 66 66 65 64 65 64 64 64 64 64 64 66 65 64 62 62 63 64 63 62 65 67 69 73 73 71 75 79 79 81 81 80 77 76 77
68 68 67 66 68 67 67 67 67 67 65 64 63 63 63 65 65 64 65 65 64 64 64 65 65 65 66 67 66 65 64 63 62 61 61 60 59 60 61 62 62 64 65 65 67 65 63 62 62 64 66 71 72 75 77 77 80 80 80 80 80 79 77
66 66 66 65 66 65 66 66 65 64 64 62 62 62 62 63 64 63 63 63 63 63 63 64 64 64 64 66 65 64 63 62 62 60 60 58 58 58 58 61 62 63 63 65 65 64 65 64 63 61 65 67 64 69 75 77 77 82 83 81 81 80 79
65 64 64 64 63 64 65 64 63 63 62 61 61 61 63 63 63 63 63 62 63 63 63 63 63 64 63 65 64 62 62 62 62 62 61 60 59 59 60 59 60 61 61 62 62 62 61 61 61 62 60 61 63 64 70 75 79 78 81 83 84 83 80
65 64 64 64 63 63 63 62 63 63 62 62 62 62 63 62 62 63 62 62 62 62 63 62 62 63 62 64 64 62 62 62 62 62 62 61 59 59 59 59 59 61 60 60 60 60 61 60 59 61 59 56 57 60 62 70 73 76 77 82 84 83 81
64 64 64 63 63 63 63 63 62 62 63 63 62 62 62 62 62 62 63 62 62 62 62 62 62 63 62 62 62 62 61 62 61 61 62 61 60 59 60 60 60 60 61 61 61 60 60 60 60 60 60 58 54 52 58 60 65 71 78 76 81 83 83
62 61 61 60 62 64 63 62 61 61 62 62 62 62 62 62 62 62 62 62 62 62 62 62 62 62 62 62 61 61 60 61 62 62 62 61 61 61 61 60 62 63 63 62 62 61 60 60 60 60 61 59 56 53 52 53 57 61 70 76 71 77 80
62 62 62 62 63 62 62 62 62 62 61 62 62 62 62 62 61 62 62 61 62 62 61 61 62 62 62 62 61 62 61 61 61 62 62 61 61 62 61 62 62 62 63 62 61 61 61 60 60 60 59 59 57 52 51 49 51 59 63 68 70 66 66
62 63 63 63 62 61 61 61 61 61 62 62 62 62 62 62 62 61 61 61 61 61 61 61 61 61 61 60 61 61 61 61 61 61 61 61 61 61 61 60 62 62 61 60 61 62 61 60 60 60 60 60 59 57 54 52 48 56 62 61 66 71 67
64 62 62 62 61 61 61 61 61 60 61 62 62 62 62 61 61 61 61 61 61 61 61 60 61 61 61 60 60 60 60 61 61 60 61 62 61 61 60 60 61 60 60 61 60 59 60 60 59 59 60 59 59 59 57 54 51 52 61 60 62 64 68
61 62 61 61 61 61 61 61 61 61 62 61 62 61 61 62 62 61 61 61 61 61 60 60 60 60 60 59 60 59 60 61 60 60 61 61 61 60 60 60 61 60 61 59 59 59 59 59 59 60 60 59 58 59 57 54 51 52 58 61 60 61 65
62 62 61 61 60 61 61 61 61 62 60 61 62 61 62 61 62 61 61 62 61 61 61 61 60 60 59 59 59 59 59 60 59 60 60 60 60 60 59 60 60 60 60 60 59 59 59 58 58 58 57 57 57 57 58 55 53 52 52 58 60 63 63
61 60 60 60 60 61 60 61 62 61 61 61 61 61 61 61 61 62 62 61 61 61 60 60 59 59 58 59 59 59 59 59 58 58 58 59 60 60 59 59 59 59 59 58 58 57 57 56 56 55 54 56 55 55 56 56 53 51 52 54 59 60 62
60 60 60 60 59 60 61 61 61 60 61 61 61 61 62 62 61 61 60 61 61 60 59 59 59 59 59 59 59 59 59 59 59 59 59 59 59 59 59 58 58 58 59 57 57 56 56 55 54 55 54 55 54 54 54 55 55 53 53 52 57 59 61
59 59 59 60 59 60 60 60 61 62 61 61 61 61 62 62 61 61 59 60 60 59 59 58 58 58 58 58 59 58 59 59 59 59 59 59 58 59 58 58 59 59 58 55 55 54 54 52 54 55 54 55 54 54 53 54 54 54 53 52 54 58 60
59 59 59 59 59 60 60 60 61 61 62 61 61 61 61 61 61 61 61 60 60 59 58 58 57 57 58 58 59 59 59 59 59 59 59 59 59 59 58 58 58 59 56 53 52 52 52 51 52 52 52 53 53 53 52 52 53 53 53 53 54 54 58
59 59 59 59 60 60 60 60 61 61 61 61 61 61 61 61 60 60 60 59 58 58 57 56 55 55 56 57 58 59 58 58 58 59 59 59 60 60 60 59 59 57 54 53 51 50 50 50 50 50 51 51 52 51 50 51 52 52 52 52 54 56 57
60 60 60 60 60 60 60 60 60 61 61 60 60 61 60 60 60 61 59 59 58 57 57 55 54 53 54 54 55 57 58 58 58 58 58 60 60 59 59 59 59 56 54 53 51 51 50 48 49 48 50 50 50 50 49 50 51 51 51 51 52 53 56
61 61 61 60 59 59 60 60 61 61 61 60 59 61 61 60 60 60 60 58 58 57 55 53 51 49 50 51 54 56 58 58 58 58 58 59 59 59 59 58 57 55 53 51 48 48 48 47 48 47 49 49 49 48 48 48 48 48 49 49 49 53 53
61 61 60 60 60 60 60 60 60 60 60 60 60 60 60 59 60 59 58 58 57 55 53 52 45 42 43 48 53 56 57 58 58 58 58 57 57 58 58 58 56 52 51 50 49 46 45 45 46 48 48 48 48 47 46 45 46 47 47 46 47 48 48
61 60 60 60 60 61 60 60 60 59 59 59 58 59 59 58 58 58 58 57 56 55 53 50 40 40 40 40 48 55 57 57 58 58 58 57 56 56 56 57 56 54 53 51 52 47 46 45 44 44 44 44 45 46 45 44 45 46 45 45 46 47 46
59 59 60 61 61 61 60 60 59 59 58 58 58 58 57 57 57 57 57 57 56 54 53 43 40 40 40 39 42 50 58 57 58 58 58 57 56 55 54 54 54 54 54 53 53 53 50 46 44 44 43 43 43 43 43 45 46 45 45 44 44 45 45
59 59 60 61 60 60 60 59 59 58 57 57 58 57 57 56 56 57 57 56 55 54 53 42 40 40 40 39 40 44 59 57 57 57 57 56 56 54 54 53 52 53 54 52 53 54 52 51 47 45 45 45 46 46 43 42 43 47 48 46 45 45 46
59 60 60 60 60 60 59 58 58 58 58 58 57 56 56 55 56 56 56 56 55 54 52 43 40 39 40 39 39 42 59 57 57 57 57 57 56 55 54 52 52 52 54 54 54 51 50 49 49 49 50 51 52 50 46 45 45 44 47 48 47 45 48
61 60 60 60 59 59 58 58 58 59 58 57 57 56 56 55 55 56 56 56 56 54 51 40 40 39 39 39 38 44 59 57 58 57 58 58 58 57 55 53 53 53 53 54 53 47 47 47 47 47 49 50 50 50 50 51 51 51 50 49 48 48 48
60 61 60 60 59 58 57 57 57 58 58 58 58 58 57 57 56 55 55 55 55 54 52 40 40 40 39 39 39 57 58 58 56 57 58 58 60 59 57 55 54 54 54 53 48 41 42 45 47 48 48 48 48 49 49 49 46 45 47 48 48 47 47
60 60 60 59 58 57 57 57 58 59 58 58 57 57 57 56 57 56 55 54 54 54 54 45 40 40 39 38 44 56 57 58 58 57 57 58 60 59 59 57 55 54 53 53 46 39 39 42 47 47 46 45 46 46 47 49 46 43 42 42 41 41 41
60 60 60 58 57 57 58 58 58 59 58 57 57 57 58 57 57 56 55 53 54 54 54 47 40 40 39 39 43 54 56 55 56 57 58 58 59 59 56 51 52 54 52 51 42 39 39 44 48 47 45 44 43 43 44 46 46 46 44 43 43 42 42
61 60 59 58 58 57 58 58 59 59 59 59 58 59 59 58 57 57 56 55 51 53 54 50 42 40 39 39 44 53 56 55 55 55 57 57 59 58 57 54 49 49 49 46 39 40 39 43 47 46 45 43 40 40 41 43 42 43 45 46 47 48 47
60 60 59 58 59 58 59 59 58 59 59 61 60 60 59 58 57 57 57 56 55 54 53 54 50 39 40 40 39 48 56 53 52 53 56 56 56 57 56 56 54 46 42 41 40 39 39 39 45 47 46 41 38 36 41 42 44 44 44 44 45 46 46
60 60 60 59 59 59 59 58 58 59 59 59 59 58 57 58 57 57 57 57 56 55 53 53 51 40 41 40 39 42 54 52 51 52 56 56 56 55 55 55 56 48 42 40 40 39 40 40 40 48 47 42 40 40 40 42 43 43 43 43 44 45 45
60 59 60 60 58 58 59 60 59 59 60 59 57 57 57 58 58 57 58 57 57 56 53 48 54 45 41 41 40 39 49 52 49 51 54 55 55 55 54 54 54 48 41 40 39 40 40 40 40 50 46 39 38 38 42 44 44 43 43 43 42 41 41
59 59 59 59 59 58 59 59 58 59 58 58 57 57 57 57 57 57 58 58 58 57 57 55 44 51 44 41 40 40 39 45 42 50 55 54 53 54 55 54 53 46 41 40 40 40 41 39 45 48 39 39 39 39 42 44 42 41 40 40 39 38 38
60 60 59 59 59 59 58 59 59 59 59 59 59 58 59 58 58 57 57 57 58 59 58 59 47 42 48 43 41 39 39 39 39 50 52 55 54 54 54 53 50 41 40 40 41 41 41 43 48 41 40 40 40 42 44 43 41 40 39 38 36 36 35

ECMWFFLT1_sfc_temp_099.txt.gz
Temp
70 69 70 70 71 71 70 70 71 70 70 70 70 70 71 71 71 71 71 70 70 71 72 71 69 70 70 71 70 70 70 70 68 67 66 68 66 67 69 69 69 70 71 70 70 66 64 62 67 75 77 77 77 77 79 81 81 79 78 79 81 80 78
71 70 71 71 69 69 67 68 69 70 68 68 69 69 70 70 70 69 69 69 69 69 71 70 69 69 68 68 68 68 68 67 68 67 66 65 65 65 64 65 67 69 70 70 70 70 65 63 64 67 69 73 74 76 78 79 80 80 80 80 81 79 79
70 70 70 69 69 69 68 68 68 68 69 68 68 69 69 70 69 69 69 68 68 68 68 68 68 68 68 68 67 68 67 66 66 66 64 63 64 64 64 64 64 64 65 66 67 66 67 66 62 64 67 66 65 71 75 76 78 80 81 81 80 81 78
69 69 68 68 69 69 69 69 68 68 68 67 68 67 68 69 68 68 68 68 67 67 67 67 67 68 68 68 68 68 66 65 65 65 65 63 63 62 62 63 63 62 61 60 62 63 62 61 62 62 65 69 69 67 71 74 74 78 80 80 81 81 79
70 69 68 68 70 70 69 68 69 68 67 67 67 66 66 67 67 67 67 67 67 66 66 67 67 67 68 69 67 67 66 65 65 65 64 62 62 62 61 62 63 62 62 61 61 61 60 60 60 60 62 66 67 69 71 71 75 75 78 80 83 83 81
70 70 69 68 69 69 69 68 67 66 66 65 65 65 65 65 66 65 65 65 66 66 66 66 67 67 67 69 67 66 65 64 64 64 64 62 62 61 61 63 63 64 63 62 61 60 60 60 60 58 61 63 60 63 68 71 71 76 78 79 82 83 84
68 69 68 68 68 68 68 66 66 65 65 64 64 64 65 66 66 66 65 65 66 66 66 66 66 66 67 69 66 65 65 65 65 64 64 63 63 63 64 63 64 65 65 64 63 62 60 58 57 56 56 58 61 61 67 69 72 70 74 78 79 80 78
68 68 68 67 66 66 66 65 66 66 65 65 65 65 66 65 65 65 65 65 65 65 66 65 66 66 66 67 66 64 65 65 65 64 64 64 63 63 63 63 64 66 65 65 65 63 63 61 58 57 56 53 55 59 60 65 67 67 68 71 75 75 78
68 67 67 66 66 67 66 65 65 65 65 65 65 65 65 65 65 65 66 65 65 65 65 66 65 66 65 65 65 64 63 65 65 64 64 64 63 63 63 64 64 64 64 64 64 64 65 63 62 61 59 56 52 50 56 56 60 62 68 66 71 74 74
66 65 65 66 66 66 65 65 64 64 65 65 65 65 65 65 65 65 65 65 65 65 64 65 65 65 65 65 64 63 62 64 64 64 64 63 63 64 63 63 63 64 63 63 63 63 63 62 62 62 62 59 57 52 50 51 55 56 62 67 64 69 73
66 66 66 65 65 65 65 65 65 64 64 65 65 65 65 65 65 65 65 64 65 64 64 64 65 65 65 64 64 64 64 64 64 64 64 64 63 63 63 63 63 63 63 62 62 63 62 62 62 62 62 62 61 56 54 51 52 57 59 63 66 65 69
66 66 65 65 65 64 64 64 64 64 65 65 65 65 65 65 65 64 65 65 64 64 64 64 64 64 64 63 63 63 64 64 64 63 64 63 63 63 62 62 62 62 62 62 62 63 63 62 61 61 61 61 60 59 56 55 51 57 61 58 62 66 66
66 65 65 65 64 64 64 64 64 64 64 65 65 65 65 65 65 65 65 65 64 64 64 64 64 64 63 63 63 62 63 64 63 63 63 64 63 62 62 62 61 61 61 62 61 62 62 61 60 60 60 59 59 58 57 55 52 52 59 59 60 62 65
64 65 64 64 64 63 64 64 64 64 65 64 65 64 64 65 66 65 65 65 65 64 64 62 63 63 63 62 63 62 63 63 62 62 62 62 63 62 62 62 62 61 62 61 61 61 61 60 60 59 60 60 58 58 57 54 52 52 56 60 60 61 63
65 64 63 64 63 64 64 64 64 65 63 64 65 65 65 65 66 65 65 65 64 64 63 63 63 63 62 61 62 62 62 62 61 62 61 61 61 61 61 61 61 61 61 60 59 60 60 58 58 58 58 57 58 58 58 55 53 52 51 56 57 61 61
64 63 63 63 63 63 63 64 65 64 64 64 65 65 65 65 65 65 65 64 64 63 62 62 62 62 61 61 62 61 62 61 61 60 60 60 61 61 60 60 60 60 59 58 57 56 57 56 56 56 55 56 55 56 57 57 54 51 51 52 56 57 59
63 63 62 62 62 63 64 64 65 64 65 65 64 64 65 65 64 64 63 64 63 62 61 61 61 61 61 61 61 61 62 61 61 61 61 61 61 61 60 59 59 59 58 56 55 54 54 54 53 54 53 54 54 54 55 55 55 53 52 51 54 56 58
62 62 62 62 62 63 63 64 65 65 64 64 65 64 64 65 64 63 62 62 62 61 60 60 59 59 60 60 61 61 61 62 61 61 61 61 60 60 60 59 60 59 57 54 53 52 52 51 53 53 52 53 54 54 54 54 54 54 53 51 53 56 58
62 62 62 62 62 63 64 64 64 64 65 64 64 64 63 64 64 63 63 62 61 60 59 58 57 57 58 59 60 60 61 61 61 62 61 61 61 61 59 60 60 58 56 53 52 51 52 51 52 52 52 53 53 53 52 52 53 53 52 52 52 52 55
62 62 62 62 63 64 64 64 64 64 65 64 64 63 64 63 63 63 62 61 59 58 57 56 55 55 56 58 59 61 61 61 61 61 61 61 61 61 60 60 59 57 55 54 53 52 52 51 51 51 52 52 53 51 50 50 51 50 50 49 50 51 52
63 63 63 63 63 63 63 64 63 64 64 63 63 64 63 63 62 63 61 60 58 57 56 55 53 53 54 55 57 61 61 60 60 61 60 61 61 60 60 60 59 57 55 55 54 54 53 51 51 51 51 52 50 49 48 49 49 48 47 47 47 48 50
63 63 64 63 63 63 63 63 64 64 63 62 62 64 64 63 63 62 61 59 58 56 54 52 50 49 50 53 55 60 60 61 60 60 60 60 60 60 60 59 59 57 56 54 51 51 50 49 51 49 50 50 49 48 47 47 47 47 47 47 46 48 48
64 63 63 63 63 63 63 62 62 61 62 62 62 62 62 62 63 61 60 59 57 55 53 51 45 42 42 48 52 57 60 60 60 60 59 58 59 59 59 59 58 55 53 53 52 48 46 47 48 49 49 49 48 47 47 46 46 46 46 45 46 46 45
64 63 63 63 62 63 62 61 61 61 61 61 61 61 61 61 60 60 59 57 56 54 52 49 41 40 40 40 48 53 58 59 60 59 59 58 58 58 59 59 58 58 58 55 57 48 47 46 45 45 45 46 46 47 46 45 46 46 45 44 45 45 44
63 62 63 63 63 63 62 61 60 60 60 60 60 60 59 60 60 60 58 57 55 53 52 43 40 40 41 40 42 48 58 59 59 60 59 59 60 59 58 57 58 58 58 57 57 54 51 47 45 45 44 44 44 44 43 46 46 45 45 44 44 44 45
63 63 62 62 61 60 60 60 61 60 59 60 60 59 59 59 59 59 59 57 54 53 53 43 40 40 41 40 40 44 60 59 59 59 59 59 60 59 59 58 57 57 57 55 56 53 52 51 47 46 47 47 48 47 44 43 44 47 48 46 44 44 45
62 61 61 61 62 62 61 61 61 61 61 60 59 58 58 58 58 58 58 57 55 53 52 44 40 40 41 39 40 42 60 59 59 60 59 59 60 59 58 56 55 55 56 56 54 51 51 50 49 51 52 52 52 51 48 47 46 45 47 48 46 44 47
62 63 63 63 62 62 61 61 61 61 61 60 59 59 58 57 57 58 58 58 55 53 50 41 41 40 40 40 40 44 60 60 60 60 60 60 60 59 57 56 56 55 55 55 53 48 48 48 49 50 51 51 52 52 52 52 52 51 50 49 48 48 48
63 63 62 62 61 61 60 60 60 61 61 61 60 60 59 59 57 57 58 58 56 54 51 40 40 40 40 40 41 57 59 59 59 60 60 59 61 61 60 58 56 55 55 54 50 42 43 46 49 50 49 50 51 51 52 51 47 46 48 49 49 48 47
62 62 62 61 61 60 60 60 61 62 60 60 60 59 59 58 59 57 57 57 56 55 53 45 40 40 40 40 45 57 58 58 58 58 59 59 60 61 59 58 57 56 54 54 47 41 41 42 49 50 49 49 50 50 51 52 48 45 44 43 42 42 42
63 62 62 61 60 60 60 61 61 62 61 60 60 60 61 60 59 58 56 55 56 55 53 47 40 41 41 40 45 55 58 56 56 57 59 60 60 61 59 51 54 56 53 52 44 41 41 44 49 49 48 49 49 48 49 50 49 48 46 45 45 44 43
63 62 62 61 60 60 60 61 61 62 62 62 61 62 62 60 59 59 57 56 53 55 55 50 42 41 41 41 46 54 57 56 54 54 57 58 59 60 59 56 49 49 51 48 42 42 40 44 48 49 49 50 48 48 48 48 47 47 48 49 49 48 47
63 62 62 61 61 61 62 61 61 62 63 64 63 62 62 60 59 59 59 58 56 56 56 54 49 41 41 42 41 50 56 53 52 53 55 58 57 58 58 58 55 45 43 43 42 41 41 40 46 49 51 51 49 47 50 48 49 49 48 48 47 46 45
62 62 62 61 61 61 62 61 61 61 61 62 61 60 60 60 60 59 59 59 58 57 56 56 50 41 43 42 41 43 54 53 52 52 54 57 57 56 57 57 58 49 44 43 42 41 41 41 41 47 52 52 51 48 44 49 50 47 48 46 44 44 44
62 62 62 62 61 60 61 62 62 62 62 61 60 59 60 61 60 60 60 60 59 58 55 51 57 45 42 43 42 40 50 53 51 52 52 55 56 56 56 57 56 50 43 43 41 41 41 41 40 47 53 45 41 40 45 52 52 50 47 45 42 42 42
61 62 61 61 61 60 61 61 61 61 60 60 60 59 59 60 60 60 60 61 61 61 59 54 46 53 44 42 42 42 39 45 43 51 52 53 55 55 57 56 55 48 43 42 41 40 42 41 44 52 44 41 41 40 43 54 52 49 46 43 41 39 39
62 61 61 62 61 61 61 61 62 62 62 62 61 61 61 61 61 60 60 60 61 61 61 60 47 45 51 44 43 41 41 39 39 50 52 54 56 56 55 55 52 44 41 41 41 41 42 43 50 44 42 41 41 44 54 53 52 48 45 41 39 38 37

ECMWFFLT1_sfc_temp_102.txt.gz
Temp
67 66 67 67 68 68 68 68 67 66 67 68 67 67 68 68 67 66 66 65 65 66 66 64 63 64 65 65 65 65 63 63 62 60 59 59 57 58 60 60 61 63 63 63 63 59 57 55 58 65 66 66 67 67 69 70 72 71 71 71 74 75 69
69 68 68 68 67 68 67 67 66 66 65 66 67 66 66 67 66 65 65 64 64 64 66 64 64 65 64 63 63 62 61 61 61 61 59 58 58 57 57 58 60 60 60 61 61 60 56 53 55 57 58 63 63 65 66 68 70 70 70 71 73 73 74
68 68 68 67 66 67 66 66 66 65 65 64 65 65 65 66 65 65 64 64 63 64 64 63 63 64 64 63 63 62 61 60 60 61 59 58 59 59 58 58 57 57 57 57 57 56 56 56 52 53 56 56 55 60 63 65 66 68 70 71 71 74 74
68 67 66 66 67 66 65 65 64 64 64 63 63 63 64 65 64 65 64 63 63 63 63 63 62 63 63 62 62 62 62 61 60 60 59 59 59 58 58 58 57 57 56 54 55 56 55 53 53 53 55 58 57 55 60 64 65 68 71 71 71 72 69
69 68 67 66 68 67 65 64 64 63 63 63 63 62 62 63 63 62 63 63 62 62 62 62 62 63 63 63 61 61 61 61 61 60 59 58 58 58 58 58 57 59 58 57 57 57 55 54 54 53 53 56 56 58 60 62 66 67 68 69 70 69 70
68 69 68 67 67 66 65 64 63 62 62 61 61 61 61 62 62 61 61 61 61 61 62 62 62 63 63 62 61 61 61 60 60 60 58 58 58 57 57 58 59 60 59 59 58 57 57 56 55 53 55 56 52 54 58 60 60 64 67 67 68 69 69
67 67 66 66 66 65 64 63 62 62 61 60 60 60 61 62 62 62 62 61 62 62 62 62 62 62 62 63 61 60 60 60 60 59 59 59 58 59 59 58 59 59 58 58 58 58 56 55 53 53 52 53 54 53 57 58 61 59 62 65 67 67 68
66 66 65 65 65 64 64 63 62 62 61 60 60 61 62 62 62 62 62 61 61 61 62 61 62 61 61 62 60 60 60 60 60 59 58 58 58 59 58 58 58 58 57 58 58 57 58 56 55 54 52 49 50 52 52 55 57 57 58 62 65 65 66
65 65 64 64 64 64 63 62 61 61 61 61 61 61 61 62 61 61 61 61 61 61 61 62 61 61 60 59 59 59 59 62 59 59 58 58 58 58 58 58 58 57 57 58 58 57 57 57 56 55 54 52 48 45 49 49 51 53 59 58 61 64 64
64 63 63 63 63 63 62 61 61 61 61 61 62 62 61 61 61 61 60 60 60 60 61 61 61 61 60 59 59 58 58 59 59 59 58 58 58 58 58 58 57 57 56 57 58 58 57 57 56 56 56 53 51 47 45 44 47 48 54 58 54 59 62
63 63 63 63 63 62 62 61 61 61 61 62 62 62 61 61 61 62 60 60 60 60 60 60 61 60 60 58 59 59 59 59 58 58 58 58 57 58 58 58 57 56 57 57 57 57 57 56 55 55 54 54 54 49 48 45 46 51 51 55 56 55 59
64 64 63 63 62 61 61 61 61 61 61 61 62 61 61 61 60 60 60 60 60 60 60 59 60 59 59 57 58 57 59 59 58 57 58 58 58 58 57 57 56 55 56 56 56 56 56 55 54 54 54 54 53 52 50 49 45 50 53 50 54 57 57
64 63 62 62 61 61 61 61 61 60 60 61 61 62 61 62 61 60 61 61 60 60 60 59 59 59 58 58 57 57 58 58 58 57 57 58 59 58 57 57 56 55 55 55 54 54 54 53 53 52 53 52 52 52 51 49 46 45 52 52 53 55 58
62 62 62 62 61 61 61 61 61 61 62 60 61 61 61 62 62 61 61 60 60 59 59 58 58 58 58 58 57 58 58 59 58 57 57 57 58 57 57 57 56 56 55 53 52 53 52 52 52 51 52 51 50 50 50 48 45 45 49 53 53 53 56
62 62 61 61 60 61 61 60 61 61 60 61 62 62 62 61 62 61 60 60 59 59 59 58 58 57 57 57 57 59 58 58 57 57 56 56 56 57 56 56 55 54 54 53 51 52 51 51 51 51 51 50 49 49 51 48 47 46 45 50 50 54 54
61 61 60 60 60 61 61 61 62 60 60 60 62 61 61 61 61 61 60 58 58 57 57 57 56 57 56 57 57 57 58 57 56 56 56 56 57 56 55 55 54 53 53 51 51 51 51 50 51 50 50 51 49 50 51 50 48 45 45 46 50 50 51
60 60 59 60 60 60 61 61 62 61 61 61 61 61 61 61 60 59 58 58 57 56 55 55 55 56 56 56 57 57 57 57 57 57 57 56 56 56 55 54 53 52 52 50 50 50 51 51 50 50 50 50 50 49 50 50 49 47 46 44 48 48 50
59 59 59 59 59 60 61 61 61 62 61 60 61 61 61 61 59 58 56 56 55 54 54 53 53 54 55 56 57 57 57 57 57 57 56 56 57 55 55 54 53 52 52 50 49 50 50 49 50 49 49 49 49 49 49 49 48 49 47 45 46 49 51
59 59 59 59 60 60 60 61 61 61 62 61 60 60 59 60 59 57 57 55 54 54 53 52 51 51 53 54 56 57 56 57 57 57 57 56 56 56 54 54 53 52 51 50 49 50 50 48 49 48 48 48 48 48 47 47 48 48 47 47 47 46 49
59 59 59 59 60 61 61 60 61 61 61 61 60 59 59 59 58 57 56 54 53 52 51 51 49 49 51 52 52 56 56 56 56 56 56 56 56 55 55 54 53 52 52 51 50 48 47 47 47 47 47 46 47 46 46 47 48 47 47 46 47 48 47
60 60 60 60 60 60 60 60 60 60 60 59 60 60 59 58 57 57 55 54 52 52 50 49 48 47 48 49 51 52 56 55 56 55 55 55 55 54 55 54 54 53 53 52 49 48 47 46 47 45 46 46 46 46 46 46 46 46 46 45 45 45 46
60 60 61 60 60 59 60 59 60 60 59 59 59 60 60 59 57 56 55 53 52 51 49 48 45 44 44 46 48 51 53 56 55 55 54 55 55 55 54 54 53 54 55 54 49 49 49 48 46 44 45 45 45 45 45 46 45 45 45 45 44 46 45
60 60 60 59 59 59 59 58 58 58 58 59 59 59 59 58 57 55 53 53 51 50 48 47 44 42 43 43 45 50 51 54 55 55 54 54 55 54 55 54 55 57 54 54 49 48 47 46 47 47 45 45 45 44 45 45 45 45 44 43 43 43 42
60 60 59 59 58 59 59 58 57 57 57 57 57 58 58 57 56 54 53 51 50 49 48 46 42 40 41 41 44 47 49 53 55 55 54 54 53 54 54 54 53 55 54 53 51 48 46 46 45 45 45 46 46 45 45 44 45 45 44 43 44 43 42
60 59 59 59 59 59 58 58 57 57 56 56 57 57 57 57 55 54 52 51 50 49 48 43 40 41 41 41 42 44 49 54 54 54 54 54 54 53 52 52 52 53 53 53 51 50 49 47 45 45 45 44 44 45 45 45 44 44 44 43 43 43 43
60 59 59 59 58 58 58 57 57 56 56 56 56 56 56 56 55 54 52 51 49 49 48 43 41 41 41 40 41 43 49 55 54 54 54 54 54 52 51 51 51 52 53 54 52 49 48 47 47 46 46 48 48 47 44 43 44 47 47 44 43 43 43
59 59 58 58 58 59 58 57 57 57 56 56 55 55 55 55 55 54 52 51 49 49 47 43 41 41 41 41 41 42 51 54 54 54 55 54 54 53 52 50 50 50 50 51 49 48 47 46 45 46 48 49 50 50 47 46 45 45 47 47 45 43 46
58 58 59 59 58 58 57 56 57 56 56 56 55 54 54 53 54 54 53 52 50 48 47 41 41 41 41 41 41 45 54 55 55 54 54 54 54 54 52 52 51 49 49 49 49 47 45 44 44 46 47 48 49 50 50 50 50 49 48 48 47 47 47
59 59 59 59 58 57 57 56 56 56 56 55 55 55 54 54 53 54 54 52 50 48 47 41 41 41 42 41 43 51 53 53 53 53 54 54 55 54 53 52 51 49 49 49 48 44 44 44 44 45 46 47 47 49 50 51 48 46 48 48 48 48 48
59 59 59 58 57 56 56 56 56 57 55 55 54 54 53 53 53 53 53 53 50 48 47 43 40 42 42 41 44 50 52 52 52 52 52 53 54 53 52 52 51 49 49 49 47 42 42 43 45 45 45 45 46 47 49 51 49 47 45 44 43 44 44
59 59 58 57 57 56 57 57 57 57 55 55 55 55 55 54 53 53 52 52 52 49 47 44 41 41 42 41 44 48 51 50 50 50 51 52 54 53 51 53 53 49 49 49 45 42 42 44 44 44 44 44 44 46 48 50 50 50 47 46 46 46 45
60 59 58 57 57 56 56 56 57 57 56 57 56 56 56 54 53 53 52 52 54 51 49 46 42 41 42 41 44 48 51 50 48 48 49 50 53 53 52 51 49 48 49 47 43 43 42 43 44 44 44 43 43 45 47 48 47 46 46 48 49 49 47
59 58 58 57 57 57 57 57 57 57 57 58 57 57 56 55 54 53 53 52 53 53 51 49 47 42 42 42 41 46 50 48 47 47 48 50 51 51 51 52 51 46 44 44 43 42 42 41 43 44 44 43 44 45 48 47 47 47 46 48 48 48 46
58 58 58 57 57 57 57 57 57 57 57 57 56 55 55 55 54 54 54 54 53 53 53 50 47 43 43 43 41 43 48 48 48 47 48 49 50 50 50 51 51 48 45 44 43 42 42 41 41 43 44 46 46 45 43 44 47 47 48 49 47 46 45
59 58 58 58 57 57 57 58 57 57 57 56 55 55 55 55 55 54 54 55 54 53 53 51 50 43 43 44 43 41 46 48 47 47 47 48 49 49 49 50 50 48 44 43 42 42 41 41 41 43 46 44 42 42 44 45 47 50 49 48 47 44 42
58 58 58 58 57 56 57 57 57 57 56 56 55 55 55 55 54 54 55 55 55 54 52 50 47 49 43 44 42 42 41 44 41 45 47 46 48 49 49 49 50 48 43 42 41 41 41 40 43 47 43 42 43 42 43 49 50 49 48 47 45 41 40
59 58 58 57 57 56 56 57 57 57 56 56 55 55 55 56 55 54 54 54 56 54 52 51 47 47 48 44 43 42 42 41 40 44 46 47 49 49 48 48 47 43 41 41 42 40 40 43 46 44 42 42 42 45 49 49 49 47 46 45 42 40 39

ECMWFFLT1_sfc_temp_105.txt.gz
Temp
63 62 63 64 65 65 63 62 62 61 62 62 61 61 61 61 61 60 60 59 59 60 60 58 57 58 59 59 59 58 57 57 56 53 52 52 51 52 55 54 54 55 55 55 54 50 48 46 50 55 56 57 58 58 60 60 61 61 62 64 66 67 64
64 64 64 64 64 65 62 62 62 61 60 60 60 59 60 60 61 59 59 58 58 58 60 58 58 58 58 57 56 56 56 55 56 55 53 52 52 52 51 52 52 52 52 53 53 52 50 47 47 50 51 55 55 56 58 59 61 62 62 63 65 65 66
64 63 64 64 63 63 62 61 60 59 58 58 58 58 59 59 59 59 58 58 57 59 59 57 57 57 57 56 56 56 56 55 55 55 54 52 53 53 52 53 51 51 51 51 51 51 52 53 48 49 50 50 49 53 56 58 59 61 62 63 63 64 64
63 63 62 61 62 61 59 58 58 57 57 56 56 57 57 58 58 59 57 57 58 58 58 57 56 56 56 56 56 56 56 55 53 54 54 54 53 53 53 52 52 51 49 48 49 51 51 49 48 48 50 51 50 50 54 57 58 60 61 62 62 62 62
63 63 62 61 62 60 59 57 57 57 56 56 55 55 56 56 57 56 57 56 57 56 56 56 57 56 56 56 55 55 55 55 55 55 53 53 53 53 53 53 53 53 52 50 51 51 49 48 48 47 47 50 50 51 54 55 58 58 59 60 61 61 61
63 63 62 62 62 60 58 57 56 55 54 54 54 54 54 55 56 55 55 55 55 56 56 56 56 56 56 55 55 55 54 54 54 53 53 52 52 52 51 53 53 52 52 51 52 51 51 50 49 46 48 50 46 48 51 53 53 56 59 58 59 60 60
61 61 60 60 60 59 58 57 56 54 53 53 53 53 54 55 56 56 56 56 56 56 57 56 56 56 56 56 55 53 54 54 54 53 53 53 53 53 53 52 53 52 51 52 52 52 51 49 47 46 46 47 48 47 50 51 53 51 54 57 59 59 59
60 59 59 59 58 58 57 57 55 55 53 54 53 54 55 55 55 56 56 55 55 55 55 55 56 55 54 55 55 54 54 54 54 53 53 53 53 53 52 52 52 52 51 52 53 51 52 50 48 47 46 43 44 46 46 49 49 50 51 55 58 58 58
60 59 59 59 58 58 57 56 55 54 54 53 54 54 55 55 55 55 55 55 55 55 55 55 54 55 53 53 53 53 53 56 54 53 52 53 52 51 52 52 51 51 52 52 52 51 50 50 49 48 47 45 41 39 43 42 45 46 52 51 54 56 56
59 58 57 57 57 57 56 55 54 54 54 54 56 54 54 54 55 54 54 54 54 54 54 54 54 54 54 53 53 52 52 53 53 53 52 52 52 51 51 52 51 51 51 51 51 50 50 49 49 49 48 45 44 40 38 38 41 42 47 51 48 52 55
59 58 58 57 56 56 55 55 54 55 54 55 55 56 54 55 55 56 54 54 54 54 53 53 53 53 53 52 52 52 52 52 52 53 53 53 52 52 52 52 51 50 50 50 49 50 49 48 47 47 47 47 46 41 40 38 39 45 45 49 50 49 53
59 59 57 57 56 55 54 54 54 53 54 54 55 53 54 55 54 53 53 53 53 53 53 53 53 52 52 51 52 51 52 52 51 50 52 53 53 52 51 50 50 49 49 49 48 48 48 48 47 47 46 47 46 44 42 41 38 44 47 45 48 51 51
59 58 57 56 55 54 55 54 54 54 54 55 54 55 54 54 54 54 53 53 52 52 52 52 52 51 50 51 51 52 51 50 51 50 51 52 53 51 50 49 49 48 48 47 47 46 46 47 47 46 46 46 46 46 44 43 40 41 47 47 48 49 52
55 56 55 55 54 54 54 55 53 53 54 54 54 54 54 54 54 53 53 53 51 51 51 51 51 51 50 49 50 50 50 50 50 50 51 51 51 51 50 49 48 48 47 46 46 47 46 47 47 46 47 47 46 46 45 43 41 41 45 49 48 48 50
55 55 54 54 54 54 54 53 53 54 53 54 54 54 54 53 53 52 51 51 50 50 50 50 50 50 50 49 49 53 51 50 50 49 50 50 50 50 49 48 47 47 46 46 46 46 46 46 47 47 46 46 45 45 46 44 42 42 42 47 47 50 50
54 54 53 53 53 54 53 54 55 53 53 53 54 54 53 53 52 51 50 49 49 48 48 48 48 49 49 49 48 49 50 50 49 49 49 49 49 49 47 47 46 46 48 45 45 45 46 46 46 46 45 46 44 45 45 45 43 42 43 44 47 47 48
54 53 52 52 52 52 52 52 53 53 53 54 54 54 53 52 51 50 49 48 47 47 47 47 47 47 48 48 48 49 48 49 49 49 49 49 48 48 46 45 45 45 45 45 45 45 45 45 45 45 44 44 44 44 45 45 45 44 44 42 45 46 48
53 52 52 52 52 53 53 53 54 53 52 52 53 53 53 52 50 49 48 47 46 46 45 45 45 45 46 47 47 48 48 48 48 48 49 49 51 47 46 45 46 46 45 44 44 44 44 43 44 44 43 43 43 44 44 44 44 45 44 43 44 46 48
52 52 52 52 52 53 53 53 53 53 54 53 52 52 51 51 50 48 47 47 46 45 45 44 44 44 45 45 46 47 48 49 49 48 48 48 48 47 46 46 47 46 45 43 43 43 43 43 44 43 43 43 43 43 42 43 44 44 44 44 44 44 46
52 52 52 52 52 52 52 52 52 53 54 53 52 51 50 49 49 48 47 46 45 44 44 43 42 41 42 44 44 46 47 47 48 48 48 48 48 47 47 47 47 46 44 43 43 43 43 43 44 42 43 42 43 42 42 42 43 43 43 43 44 44 44
52 52 52 52 52 52 52 52 52 52 53 52 52 51 50 49 48 48 46 45 45 44 43 42 41 40 41 42 43 45 46 47 48 47 47 48 48 47 48 48 46 45 44 44 44 44 44 43 43 42 43 43 42 42 41 41 41 42 42 42 42 42 43
52 53 53 52 52 52 52 52 52 52 52 52 52 51 50 49 48 46 46 45 44 43 42 42 42 40 40 41 41 44 45 46 47 47 48 47 47 48 48 47 47 47 51 51 50 48 48 47 44 42 42 42 42 42 41 41 41 41 41 41 41 43 42
52 52 52 51 51 51 51 50 51 51 51 52 51 51 49 49 47 46 45 43 42 43 42 42 43 43 43 41 40 43 44 45 46 46 47 46 46 47 46 46 50 55 52 50 49 46 46 46 47 45 44 43 42 41 41 41 41 41 41 41 41 41 40
52 51 51 51 50 51 50 50 50 50 50 50 50 50 49 47 45 45 44 42 41 43 42 43 42 40 41 42 43 41 42 44 46 46 47 45 45 46 45 46 45 50 50 49 46 46 45 44 44 44 44 45 46 44 42 42 42 42 41 41 42 41 41
52 51 51 51 51 50 50 50 49 48 48 49 50 49 47 46 45 43 43 41 40 42 41 43 40 41 41 41 43 42 42 44 47 46 47 45 46 45 45 45 45 47 47 46 45 44 45 45 44 44 43 44 44 44 44 44 43 42 42 42 41 42 41
51 50 50 50 50 50 49 49 48 48 48 48 49 48 47 46 44 43 42 40 40 40 40 42 41 42 41 41 42 44 44 45 45 47 45 47 45 45 46 46 44 46 46 52 49 43 42 42 45 44 44 45 45 45 43 43 44 45 45 42 42 42 43
50 50 50 50 50 49 49 49 48 48 48 48 47 47 46 45 45 43 42 40 40 40 40 42 41 41 41 41 42 44 45 47 46 47 47 47 45 44 46 44 43 44 42 43 43 43 43 41 41 42 42 43 44 45 45 45 44 44 45 45 44 42 45
51 51 51 49 49 49 49 48 49 48 47 46 45 46 46 45 45 44 42 41 41 41 42 41 41 41 41 42 43 44 45 47 46 46 47 46 46 46 45 45 43 43 43 42 46 46 43 41 41 42 42 42 43 44 44 45 46 46 47 47 46 45 46
51 51 49 49 50 49 47 47 47 47 47 45 45 44 45 46 44 43 42 41 41 40 40 41 41 41 41 41 43 45 44 45 44 45 45 46 47 45 44 43 43 44 42 43 47 44 43 42 42 42 42 42 42 43 44 47 46 46 46 46 46 46 47
50 49 49 49 48 47 48 47 47 48 46 45 44 43 43 44 44 43 42 42 40 38 39 41 40 41 41 41 42 42 43 44 43 43 43 44 46 46 45 44 45 43 43 44 46 42 42 43 42 42 41 40 41 42 43 46 47 46 45 44 44 44 43
50 50 49 49 48 48 48 48 48 49 46 45 45 44 44 44 44 44 42 41 41 39 40 42 41 41 41 42 43 41 41 42 41 42 42 44 45 44 45 54 51 44 45 46 44 41 42 43 41 40 40 39 40 41 43 46 46 46 46 45 45 45 45
51 50 49 49 49 48 48 49 49 48 47 47 46 46 46 44 42 42 42 42 48 42 39 43 42 41 41 41 43 41 42 41 41 40 41 42 44 44 44 47 50 48 47 45 42 42 41 42 41 40 39 38 39 40 43 44 44 43 44 45 47 48 47
50 50 49 48 48 48 48 49 48 48 48 48 47 46 46 45 44 43 43 44 45 42 40 41 42 41 42 41 42 42 41 39 39 39 39 43 42 43 43 43 45 44 42 42 42 41 41 41 40 40 39 38 39 41 44 43 45 45 44 45 46 46 47
50 50 50 49 49 49 49 48 47 47 46 47 47 46 45 45 44 44 44 43 44 42 43 40 42 42 43 42 41 42 39 39 38 37 37 40 40 40 40 41 42 45 43 42 41 40 40 40 41 41 40 41 42 42 42 44 45 46 45 45 45 45 46
52 51 50 50 49 49 47 48 48 47 47 47 47 46 45 45 44 44 44 43 42 42 46 46 40 42 42 43 40 42 41 39 39 39 39 38 39 40 40 40 42 44 42 41 40 40 40 40 40 43 43 41 41 41 44 45 44 44 45 44 44 44 44
52 52 50 50 49 48 47 48 48 48 48 47 46 45 45 45 44 44 44 43 42 42 42 43 43 41 43 42 41 41 41 40 39 40 38 38 38 40 40 41 43 44 41 40 40 40 40 40 43 44 41 41 41 42 44 45 44 44 43 43 42 41 42
51 50 49 49 49 48 47 47 48 49 48 47 45 45 44 45 44 43 43 41 43 42 42 41 43 44 42 41 41 41 40 40 40 39 40 40 39 39 41 41 42 40 40 40 40 40 40 42 43 41 41 41 42 44 44 43 43 42 42 41 41 40 41

ECMWFFLT1_sfc_temp_108.txt.gz
Temp
61 60 61 60 61 61 60 59 59 59 59 59 58 58 58 58 58 56 57 57 57 57 58 55 55 55 55 56 56 54 54 53 52 51 49 50 49 50 53 52 53 53 52 51 49 46 45 43 45 50 52 53 53 53 54 55 55 56 56 57 59 59 58
62 61 62 62 60 60 58 58 58 58 57 57 57 57 57 57 58 56 56 56 56 56 57 55 55 55 54 53 53 53 52 52 53 53 51 50 50 49 50 50 51 50 50 50 50 49 46 42 42 44 46 49 50 51 53 54 55 56 56 56 58 58 58
62 61 61 59 58 58 57 57 56 56 56 56 56 56 56 56 56 56 56 55 55 56 57 54 54 54 53 53 53 52 52 52 52 52 52 50 51 50 50 49 48 47 47 47 46 46 45 46 42 43 45 44 43 47 51 52 53 55 55 56 56 56 56
61 60 58 57 57 57 56 56 55 55 55 54 54 55 55 55 55 56 55 55 56 56 55 53 52 52 52 53 53 53 52 52 51 52 52 52 51 51 49 48 47 47 45 45 45 45 44 42 41 42 43 45 45 45 48 52 53 54 54 55 55 55 55
61 60 58 57 57 56 55 54 54 54 53 53 53 53 53 54 55 54 55 54 54 53 53 53 53 53 53 53 52 52 52 52 52 52 51 50 50 50 49 49 48 49 48 47 46 46 44 43 42 41 42 44 44 46 49 50 51 52 52 54 54 54 54
60 59 58 57 57 56 55 54 53 52 52 52 52 52 52 53 54 53 53 53 53 54 53 53 52 53 52 52 52 52 52 51 51 51 50 49 49 49 48 49 49 48 47 48 47 46 45 44 43 40 42 44 40 42 46 47 47 51 53 52 53 54 54
58 58 57 57 56 56 55 54 53 52 52 52 52 51 52 53 53 53 53 52 52 53 53 52 52 53 53 52 52 51 51 51 51 50 50 50 49 49 49 48 48 47 47 47 46 46 44 43 42 41 40 41 41 41 44 44 47 45 47 51 53 53 53
57 57 56 56 56 55 55 54 53 53 53 52 52 53 53 52 52 53 53 52 52 52 52 52 53 52 52 52 52 52 51 51 51 51 50 50 49 48 48 48 48 47 46 47 46 45 45 44 43 42 40 38 38 39 40 42 43 44 45 49 52 52 52
58 57 56 56 55 55 55 54 53 53 52 52 53 52 52 52 52 52 52 51 51 52 52 52 51 51 51 51 50 51 51 53 51 50 50 49 48 48 47 47 47 45 46 46 46 45 45 45 45 44 42 40 36 34 39 38 40 41 47 45 48 50 51
56 55 55 54 54 55 55 54 53 52 52 53 53 53 52 51 51 51 51 51 51 51 51 51 51 51 51 51 50 50 50 50 51 50 49 48 48 48 47 47 46 45 45 45 45 46 46 45 45 43 43 41 41 35 34 34 38 38 44 46 43 47 50
55 55 55 55 55 54 53 53 52 53 53 54 53 53 51 51 51 53 50 50 50 50 49 50 50 51 51 50 50 49 49 49 49 50 50 48 47 48 47 46 45 44 45 45 44 46 46 45 43 44 42 42 42 38 36 35 36 41 41 45 46 45 49
55 55 55 55 54 53 52 52 52 51 51 52 52 51 51 50 50 49 49 49 49 49 49 49 49 49 49 49 50 49 49 49 49 48 48 48 48 47 46 45 44 44 45 45 45 45 45 45 44 44 42 43 43 40 39 38 36 41 44 41 45 48 48
55 55 54 54 53 52 52 51 51 51 51 52 51 51 50 49 49 48 48 48 48 48 48 48 48 48 48 48 48 48 48 49 49 47 47 48 48 47 45 44 44 44 44 44 44 44 43 44 44 42 42 42 42 41 40 39 37 38 43 43 45 47 49
53 54 53 53 52 51 52 52 51 51 51 50 50 50 49 48 48 48 47 48 47 47 47 47 47 47 47 47 48 48 48 49 48 46 47 46 46 46 45 44 44 45 44 43 43 43 43 43 43 42 43 41 40 41 40 39 37 38 42 45 45 46 48
53 53 52 52 52 51 50 50 51 52 50 50 50 49 48 48 47 47 46 46 45 45 46 46 46 46 46 46 47 50 48 48 47 46 45 44 44 46 43 43 44 44 43 43 42 42 42 42 42 41 41 42 40 41 42 40 38 38 37 43 43 46 46
52 52 51 51 51 51 50 51 52 51 50 49 49 48 47 47 46 46 45 44 44 44 44 44 44 45 45 45 45 45 47 47 47 46 45 43 43 43 43 44 43 42 44 41 41 41 41 41 42 41 41 41 40 40 41 41 39 37 38 40 43 43 45
52 52 51 50 50 50 50 50 51 50 49 49 48 48 47 46 45 44 44 43 43 43 43 43 43 44 44 44 44 44 45 46 46 45 45 43 43 43 43 43 41 41 41 40 39 40 40 40 40 41 40 41 41 41 41 41 41 39 39 38 41 42 44
51 50 50 50 49 50 50 50 51 50 48 48 47 47 47 46 44 44 43 42 42 42 42 42 42 42 43 43 43 44 44 45 44 45 44 45 49 43 44 42 42 41 40 39 39 39 39 39 40 40 40 40 40 41 42 41 41 41 39 38 40 43 44
50 49 49 49 49 50 50 50 50 49 49 47 46 46 45 45 45 43 43 42 42 41 41 41 41 41 41 42 43 44 43 44 45 45 44 44 44 44 43 42 42 41 40 39 39 39 38 39 40 40 39 40 40 40 40 40 41 40 40 40 40 40 43
50 49 50 49 50 50 50 50 50 48 49 47 46 45 44 44 44 43 42 42 41 41 40 40 39 39 40 41 41 43 43 42 43 44 44 44 44 43 43 42 41 41 40 41 40 39 39 39 41 40 40 40 40 39 39 40 41 40 40 39 40 41 41
49 49 48 49 49 49 49 49 49 49 48 46 45 45 44 43 43 43 42 42 41 41 40 40 39 39 39 39 40 41 41 43 42 43 43 44 45 44 43 43 42 41 40 42 42 40 40 40 40 40 40 40 40 40 39 40 40 40 39 39 39 40 41
49 49 50 49 49 49 49 48 49 48 48 47 46 45 44 43 43 42 41 40 40 41 40 41 41 39 39 40 39 40 41 42 42 43 43 43 44 44 44 43 41 41 46 51 49 47 47 46 42 39 40 39 40 39 39 39 40 39 39 39 39 41 41
49 49 49 49 48 48 48 49 48 47 46 46 45 44 43 43 42 41 40 40 40 40 40 41 44 43 43 40 39 40 41 41 42 43 44 43 44 43 44 42 48 53 51 50 49 46 45 45 46 44 42 41 40 39 39 39 39 39 39 39 39 39 39
49 49 48 48 47 48 48 48 47 46 45 45 44 45 43 42 41 40 40 39 39 40 40 42 42 40 40 42 42 39 41 42 42 41 42 42 42 44 44 43 42 48 48 48 45 46 44 44 44 43 44 45 45 42 40 39 39 40 39 39 39 39 39
48 48 48 48 48 48 48 48 46 45 45 44 44 43 42 41 40 39 39 39 38 39 39 43 40 41 41 42 45 42 41 43 44 41 41 41 42 42 42 43 42 43 45 44 45 42 43 44 43 43 43 43 43 43 43 41 39 38 39 39 39 39 39
48 47 47 47 48 48 47 47 45 45 44 44 43 42 40 40 39 39 39 39 38 38 38 42 40 41 41 41 42 44 42 42 43 41 41 41 39 40 43 42 42 43 43 50 47 41 40 42 44 44 44 44 44 44 42 41 42 43 42 40 39 40 41
47 47 47 47 47 47 46 46 45 45 45 44 43 41 40 40 39 38 39 39 38 38 38 42 40 41 42 41 41 42 40 41 41 41 41 41 40 40 40 40 41 43 42 42 42 42 41 41 41 41 41 41 41 43 43 43 43 43 44 43 41 40 43
47 47 47 47 46 46 45 45 45 45 44 43 42 41 40 38 39 39 38 37 38 38 39 41 40 41 41 42 41 42 39 41 41 40 40 40 41 40 40 40 41 41 42 41 44 44 41 40 40 40 40 40 40 41 41 42 43 44 44 43 43 42 43
47 47 46 46 46 45 45 45 44 44 44 42 42 41 39 40 39 38 37 37 37 35 38 40 40 40 41 41 42 42 39 39 38 39 40 40 41 41 40 39 40 42 41 41 45 42 42 41 39 39 39 39 39 40 41 46 45 45 45 44 44 44 44
47 47 46 46 45 44 44 43 43 44 43 42 41 41 40 40 40 38 38 37 37 36 37 40 40 41 40 40 40 38 38 38 38 38 38 39 40 40 40 42 42 41 41 42 44 41 40 41 39 39 38 38 39 40 41 44 45 44 44 44 43 43 43
47 47 46 46 45 44 43 43 43 45 43 42 42 42 41 41 39 39 39 37 39 38 38 42 41 41 40 41 41 37 38 38 36 37 37 38 39 38 41 50 48 41 41 42 42 40 40 40 38 38 37 37 38 39 41 43 43 44 45 44 44 44 43
47 47 46 45 45 45 44 44 44 44 43 43 43 42 43 41 39 37 38 38 47 40 37 42 42 40 41 42 40 37 37 36 36 35 36 38 39 40 39 42 46 45 43 42 40 40 39 40 38 38 37 36 38 39 40 40 40 41 42 42 43 44 44
47 47 46 45 45 46 46 45 44 44 43 44 43 42 42 41 40 40 39 40 43 39 38 39 40 41 41 41 42 37 37 37 36 35 35 38 39 38 37 39 42 42 40 40 39 39 39 40 39 38 38 38 38 39 41 40 42 43 41 41 41 43 42
47 47 47 46 47 47 46 46 45 44 43 43 41 40 41 41 41 41 40 40 40 38 40 37 39 40 40 40 41 40 35 35 34 35 34 36 34 36 38 38 39 42 40 39 39 39 39 40 40 40 39 38 39 40 41 40 41 43 41 41 41 42 42
48 48 48 47 47 47 47 47 46 45 43 42 42 41 40 41 41 41 39 40 39 39 42 45 37 41 40 40 41 41 39 38 37 36 35 35 35 36 36 36 38 41 39 39 39 39 39 40 41 42 40 40 40 40 41 42 40 40 40 40 40 40 40
49 49 48 48 48 47 45 46 45 44 43 42 42 41 40 40 40 39 39 38 38 39 39 42 42 39 40 39 39 39 39 38 40 38 35 36 35 37 36 37 39 42 38 38 39 39 40 40 42 41 40 40 40 40 41 40 40 39 38 38 38 38 39
50 49 49 48 48 46 44 44 44 44 44 43 41 41 41 41 39 39 39 38 39 39 39 38 41 42 39 39 39 39 38 38 39 38 38 37 35 35 36 36 38 38 38 39 39 39 39 41 40 40 40 40 40 41 40 39 38 37 37 37 37 37 37

ECMWFFLT1_sfc_temp_111.txt.gz
Temp
58 57 59 58 58 58 57 56 56 55 56 56 56 56 57 57 57 56 56 56 55 55 56 53 53 53 53 54 54 52 53 52 50 49 48 48 47 47 51 49 49 49 48 47 45 43 41 39 40 46 47 48 48 47 49 50 51 50 51 52 53 53 52
60 59 60 60 58 57 55 55 55 54 55 55 55 55 55 56 57 56 55 55 54 55 55 53 53 53 52 52 51 51 51 51 52 51 49 47 47 45 46 46 47 46 46 46 46 45 42 38 37 40 41 45 45 46 48 49 50 51 51 51 53 52 52
59 59 58 57 56 55 54 54 53 53 53 53 53 54 54 55 55 55 54 54 54 55 55 52 53 52 52 51 51 51 51 50 50 50 49 47 48 47 46 45 44 44 44 43 43 42 40 41 37 38 40 39 39 43 47 47 48 50 50 51 51 51 51
59 57 56 55 54 53 53 52 52 52 52 51 52 53 53 54 54 55 54 54 54 55 53 52 51 51 51 51 51 51 51 50 49 49 49 48 48 47 46 45 44 43 41 40 39 40 39 37 37 38 39 41 40 40 44 47 48 49 49 50 50 50 50
58 57 55 54 54 53 52 51 51 51 50 51 51 51 52 53 53 53 53 53 53 52 51 51 51 51 51 51 51 51 50 50 50 49 47 46 46 46 45 45 44 44 43 42 42 42 40 40 38 37 38 40 39 40 45 45 46 47 47 49 49 49 50
58 57 55 54 54 53 52 51 50 49 50 51 50 51 51 52 53 52 52 52 51 52 51 51 51 51 51 51 51 50 49 48 48 47 46 45 45 45 44 45 44 44 43 43 43 42 42 41 40 37 39 39 36 38 41 43 43 47 47 48 49 49 50
56 56 55 54 53 52 52 51 50 50 50 49 50 50 51 52 52 52 52 51 51 52 52 51 51 51 51 51 50 49 48 48 48 47 46 46 45 45 45 44 44 43 42 44 43 43 41 40 39 38 37 38 37 38 40 40 43 42 43 48 49 49 49
56 55 54 54 53 52 52 51 50 50 50 50 50 50 51 51 51 51 51 50 51 50 51 51 51 50 51 51 50 49 49 48 48 47 46 46 45 44 44 44 45 43 42 43 42 43 42 41 40 39 37 35 36 36 38 39 39 40 41 46 48 48 49
56 55 54 54 53 53 52 51 50 50 50 49 50 50 50 51 50 50 50 49 50 50 50 50 50 50 50 49 49 49 48 50 47 46 46 45 44 43 43 43 43 43 44 43 44 42 42 42 42 41 39 37 34 32 36 36 38 38 43 43 46 47 49
54 54 53 52 52 52 52 51 50 50 50 50 50 50 50 50 49 49 49 49 49 49 49 49 49 49 49 49 48 47 47 47 47 45 45 44 44 43 43 43 43 43 43 44 43 43 43 42 41 41 40 37 37 34 32 31 35 35 42 44 41 45 49
54 54 53 53 52 52 51 51 50 50 49 50 50 51 49 49 49 50 48 48 48 48 48 48 48 48 48 48 47 47 47 47 46 46 46 45 44 44 44 44 43 42 43 42 42 43 42 41 40 41 39 40 39 35 34 33 33 37 39 43 44 43 47
54 54 53 53 52 52 51 50 49 49 49 50 50 49 48 48 48 47 47 47 47 47 47 47 47 47 48 47 47 46 46 46 45 44 44 45 44 45 43 43 42 41 42 42 42 42 41 42 40 41 39 40 40 38 36 35 33 38 41 39 43 46 46
54 53 53 52 52 51 50 49 49 49 48 49 48 48 47 47 47 46 46 47 46 46 46 46 46 47 47 47 46 46 46 45 45 44 42 43 45 43 42 42 41 41 40 41 41 41 40 41 41 40 40 40 39 38 38 36 34 35 41 41 42 44 46
52 52 52 52 51 49 50 50 49 48 48 47 47 47 47 46 46 46 46 46 45 45 45 45 45 46 46 46 46 46 45 45 44 42 44 42 43 43 43 41 40 40 40 40 39 40 40 40 40 40 41 39 38 39 37 36 34 36 40 43 42 43 46
52 52 51 50 50 49 49 48 48 48 47 46 47 46 46 45 45 45 45 44 44 44 44 44 44 45 46 45 45 47 45 44 42 41 42 41 41 43 41 40 40 40 39 38 38 39 39 40 39 39 39 40 37 39 39 37 35 35 36 41 42 44 44
51 51 50 49 49 49 48 48 48 47 46 45 46 45 44 44 44 44 43 43 43 43 43 42 42 43 44 45 44 44 45 44 43 42 42 41 41 40 40 40 39 40 41 38 38 38 38 38 39 39 39 39 38 39 39 39 36 35 36 38 41 41 43
51 50 49 48 48 48 48 47 48 46 45 45 44 44 44 43 43 43 43 42 42 41 42 42 42 42 43 44 44 44 43 43 42 42 42 41 41 40 39 39 40 39 39 38 37 37 38 38 38 39 39 39 39 39 39 40 39 36 36 36 39 40 42
50 49 48 48 47 48 47 47 47 46 45 44 44 43 43 43 42 42 42 41 41 40 40 41 42 41 41 42 43 43 42 42 42 42 42 42 45 40 41 39 40 39 38 38 37 37 38 37 39 39 38 39 39 39 40 39 39 38 37 36 38 41 42
49 48 48 47 47 47 47 46 46 45 45 43 43 42 42 42 42 40 40 40 40 40 39 40 40 40 40 41 42 41 41 41 42 41 41 42 41 40 40 39 40 39 39 39 38 38 37 37 39 39 38 39 39 39 38 38 39 38 38 38 38 39 41
49 48 48 47 47 47 46 46 45 44 45 43 42 42 41 41 41 40 40 40 40 40 39 39 39 39 39 40 40 41 41 41 41 41 41 41 41 40 40 39 39 38 39 39 39 38 38 38 40 39 40 39 39 37 37 38 38 38 38 37 38 39 40
48 47 47 48 47 46 46 45 45 44 44 42 42 41 41 41 41 40 39 40 40 40 39 39 37 37 38 38 40 40 40 41 41 41 41 40 41 41 40 40 39 38 38 38 39 39 38 40 39 39 39 39 38 38 37 37 37 37 37 37 37 38 39
47 48 48 47 47 46 45 45 44 44 44 43 43 41 40 40 40 39 38 38 38 39 40 40 39 38 38 37 37 40 40 40 41 42 41 41 40 40 41 40 39 37 43 51 51 48 47 46 42 39 39 38 39 37 37 37 37 36 37 36 37 39 38
47 47 47 47 46 45 45 44 44 43 42 42 41 41 40 40 39 39 39 38 38 40 40 40 43 44 45 39 38 40 41 40 40 40 42 41 42 41 41 39 43 51 52 51 49 46 44 44 45 43 41 39 38 37 37 36 36 36 36 36 36 37 36
47 47 47 46 45 45 44 44 43 42 41 41 40 41 40 38 38 38 38 38 38 39 39 41 42 40 42 44 41 41 41 40 39 39 39 41 41 42 42 41 38 44 47 45 45 45 43 43 43 42 43 44 44 41 37 36 36 37 36 36 37 37 37
47 46 46 46 45 45 44 43 42 41 40 40 40 39 38 38 37 37 38 37 37 38 38 43 40 42 42 43 45 42 41 41 40 38 37 37 39 39 38 38 39 41 41 43 43 40 42 43 42 42 42 42 42 42 42 39 37 36 37 36 36 37 37
46 45 46 46 45 44 43 42 41 41 39 40 38 38 37 37 36 36 37 38 37 37 37 42 41 42 41 41 42 42 41 40 41 38 37 37 37 38 38 40 39 42 42 47 45 39 38 39 42 42 43 43 42 43 41 40 41 41 39 37 37 37 38
46 45 45 45 45 44 43 42 41 41 40 39 38 37 36 37 36 36 36 37 36 36 36 42 41 41 41 40 41 41 38 39 39 38 38 37 38 37 38 39 37 40 40 40 39 39 39 38 37 38 38 38 38 41 41 42 42 42 43 40 38 37 40
45 45 45 45 44 43 42 41 41 41 40 39 38 38 37 36 37 37 36 35 37 36 38 41 40 40 40 40 40 40 38 40 39 38 37 37 38 38 38 38 37 37 38 38 41 41 38 37 36 37 37 37 38 38 38 39 41 41 41 41 40 40 40
45 45 45 44 44 43 42 42 40 40 39 37 37 37 36 37 36 35 35 35 37 34 36 40 40 40 40 40 41 40 36 37 37 37 37 37 38 38 38 39 38 37 37 38 42 40 40 39 36 37 37 37 37 38 39 43 43 43 43 41 41 41 42
45 45 44 44 43 42 41 40 40 40 39 38 37 37 37 36 35 34 35 35 36 33 35 39 40 40 39 39 39 36 35 37 36 35 36 37 36 36 37 41 40 37 37 38 42 39 39 40 35 36 36 36 36 37 39 42 43 42 42 42 42 42 42
46 45 44 44 43 42 42 41 40 42 40 39 38 38 38 37 35 35 34 34 36 36 35 40 40 40 40 40 39 35 35 36 33 34 35 36 35 35 38 48 46 38 37 38 40 39 38 39 35 36 35 35 36 36 38 40 39 41 43 42 42 42 42
46 45 45 43 43 42 42 42 41 41 41 41 40 39 40 37 35 35 35 36 46 37 35 40 41 39 40 40 38 33 35 35 35 32 32 35 35 37 36 40 44 42 40 40 38 39 38 39 36 35 34 34 35 35 37 37 37 38 39 39 40 41 41
46 46 44 43 43 43 42 42 41 41 41 41 40 38 40 37 35 36 37 38 39 35 35 37 39 40 40 40 40 34 34 35 35 34 33 37 38 36 35 36 39 40 39 38 38 38 38 39 36 36 34 35 35 35 38 36 39 39 38 38 38 39 39
46 46 45 44 44 43 42 42 41 41 41 41 39 39 38 37 36 36 35 37 37 35 37 35 38 39 40 40 40 38 32 33 32 32 31 34 31 33 35 35 35 40 39 38 38 38 39 39 40 38 36 35 35 38 38 36 38 41 37 38 38 39 39
47 46 45 45 44 42 42 43 43 42 41 40 40 39 38 37 36 35 35 36 37 35 40 44 34 40 40 40 40 40 35 35 33 33 33 33 31 32 33 34 35 39 38 38 38 38 38 39 39 39 38 38 39 38 38 38 36 37 36 36 36 37 38
47 47 45 45 45 43 42 42 42 42 41 40 40 39 38 36 35 35 35 35 35 36 34 39 42 39 40 39 39 39 39 36 38 37 35 37 34 34 33 34 36 40 38 37 38 38 38 39 40 38 38 38 39 38 39 36 36 35 35 35 35 35 36
48 47 46 45 45 43 42 42 42 42 41 41 40 39 36 37 35 36 37 36 39 37 36 35 40 41 39 39 38 38 38 38 39 35 35 34 32 33 34 32 36 38 37 37 37 38 38 39 37 38 38 38 39 39 36 35 34 34 34 34 34 34 34

ECMWFFLT1_sfc_temp_114.txt.gz
Temp
58 56 57 57 58 57 56 55 55 55 56 56 56 56 57 57 56 55 55 55 54 55 55 53 52 52 53 53 53 52 52 51 50 48 47 48 47 47 50 48 48 48 47 46 46 45 44 42 45 49 48 48 49 49 50 50 51 51 51 51 53 53 52
58 57 58 58 57 57 55 55 54 54 54 55 55 55 55 56 57 55 54 54 54 54 55 53 52 52 52 51 51 50 50 50 50 49 48 46 46 45 46 46 46 46 46 45 45 45 43 42 42 43 43 47 48 48 49 50 50 51 51 51 53 52 52
58 57 56 55 55 55 54 53 53 53 53 54 54 54 54 55 54 55 54 54 53 54 54 52 52 52 51 51 50 50 50 49 49 49 47 47 47 46 46 45 44 44 44 44 43 43 42 43 41 42 41 41 41 45 48 48 50 50 51 51 51 52 52
57 56 54 54 54 54 53 53 52 52 52 52 53 53 53 54 54 55 53 53 54 54 53 52 51 51 51 50 50 50 49 48 48 47 48 47 47 46 46 45 44 44 42 41 41 42 41 40 40 41 41 43 43 42 48 49 50 50 51 51 51 51 51
57 56 54 54 54 53 53 52 51 52 51 52 52 52 52 53 53 52 53 52 52 51 51 51 51 51 51 51 50 49 48 48 48 48 47 46 46 46 45 45 45 45 44 44 44 43 42 41 40 39 40 42 42 44 47 48 49 50 50 51 52 51 51
57 56 55 54 54 53 52 52 51 51 51 51 51 51 51 51 52 51 51 51 51 52 51 51 51 51 51 50 49 48 48 47 47 47 46 45 46 45 45 45 45 45 44 45 44 43 43 43 41 39 42 43 41 42 45 46 46 50 50 51 52 52 52
56 56 55 54 53 53 53 52 51 51 50 50 50 50 50 51 51 52 52 51 52 52 52 51 51 51 51 50 49 48 47 47 47 47 46 46 45 45 46 45 45 45 45 45 44 44 42 42 41 39 39 42 42 42 45 45 47 46 48 51 52 52 52
57 56 55 54 53 52 52 51 50 50 50 50 50 51 51 50 51 51 51 51 51 51 51 51 51 50 50 50 49 48 48 47 47 47 46 46 45 45 45 45 45 45 44 45 44 44 44 42 42 41 40 38 40 41 42 44 45 44 45 49 51 51 52
57 56 55 54 53 52 52 51 50 50 50 50 50 50 50 51 50 50 51 50 51 51 51 51 50 50 49 49 48 48 48 49 46 46 46 46 45 44 45 45 45 44 44 45 45 44 44 44 43 42 42 40 37 37 39 40 42 43 46 45 49 51 52
56 55 54 52 52 52 51 51 50 49 50 50 50 50 49 50 50 50 50 49 50 50 50 50 50 49 49 49 48 47 46 47 47 46 46 45 45 45 45 44 44 44 44 44 44 44 44 44 43 43 43 41 41 37 36 36 39 39 45 47 44 49 51
56 54 53 52 52 51 51 50 50 50 49 50 50 51 50 49 50 51 49 49 49 49 49 49 49 49 48 48 47 47 47 47 47 47 47 46 45 46 45 44 44 44 44 44 43 44 44 44 43 43 43 43 43 40 38 36 37 41 42 46 47 46 49
54 53 53 53 52 51 50 50 50 49 49 50 50 49 48 48 48 48 48 48 48 48 49 49 49 48 48 47 47 46 46 47 46 45 46 46 46 45 44 43 43 43 44 43 43 44 44 44 43 43 43 43 43 42 40 39 36 42 45 42 45 49 48
54 54 53 52 51 51 50 50 49 49 48 49 48 48 48 48 48 47 47 48 48 48 48 48 48 48 47 47 46 46 46 46 46 45 45 45 45 44 44 43 43 43 43 43 43 43 43 44 44 44 43 43 43 42 42 40 37 38 44 44 45 46 48
53 53 53 52 51 50 50 50 49 49 49 47 48 47 48 47 47 47 47 48 48 47 47 47 48 47 47 46 46 46 46 46 45 45 45 44 44 44 44 43 43 43 42 43 43 43 43 43 43 43 43 43 42 43 41 40 38 39 43 46 45 45 47
52 52 51 50 50 49 49 48 48 48 47 47 47 47 47 47 46 46 46 46 46 47 47 47 47 47 47 46 46 46 45 45 44 44 44 44 44 44 43 43 43 43 43 43 42 43 43 43 43 43 43 43 42 42 43 40 39 38 38 43 44 47 46
51 51 50 49 49 48 48 48 48 47 46 46 46 46 46 46 46 46 45 45 46 46 46 46 47 47 46 46 46 46 45 45 45 44 44 44 44 43 43 43 43 43 43 43 43 43 43 43 43 43 43 43 42 42 43 42 40 38 38 40 43 43 45
50 50 49 49 48 48 48 47 48 46 45 45 45 45 45 45 45 45 45 44 45 45 45 46 46 47 47 46 46 45 45 45 45 45 44 44 43 44 43 43 43 42 43 43 42 43 43 43 43 43 42 43 42 42 42 42 42 39 39 38 41 43 44
49 49 48 48 47 47 47 46 47 46 45 44 44 44 45 45 44 45 44 44 44 44 45 45 45 45 45 45 45 45 44 44 44 44 44 44 46 44 45 44 44 42 42 43 43 43 43 42 43 43 42 43 42 42 42 42 42 41 39 38 40 43 44
49 48 48 47 47 46 46 46 45 45 45 44 43 43 44 44 44 43 43 43 43 43 44 44 45 45 44 44 44 44 45 45 44 45 45 45 44 44 44 44 44 43 43 43 43 43 43 42 43 43 42 42 42 42 41 41 42 41 40 40 40 40 43
48 48 48 47 46 46 46 45 45 44 45 44 43 43 43 43 43 42 42 42 42 43 42 43 43 43 43 43 44 45 44 44 44 44 44 44 44 43 43 43 44 42 44 44 44 44 43 43 43 42 43 41 42 41 41 41 41 40 40 40 40 41 41
48 48 47 47 46 45 45 44 44 44 44 43 42 42 42 42 42 42 42 42 42 42 42 42 41 41 42 43 44 44 44 45 45 44 44 43 44 43 43 43 43 43 43 44 45 46 45 44 43 42 43 42 42 41 40 40 40 40 40 40 40 40 41
48 48 47 46 45 44 44 44 44 44 44 43 42 41 41 41 41 41 41 41 42 42 42 42 42 42 42 41 42 44 44 45 44 44 43 43 42 43 44 43 42 42 49 51 49 47 46 45 44 42 42 42 42 41 40 40 40 40 40 40 40 41 40
48 47 46 45 45 44 44 43 43 42 42 41 41 41 41 41 41 41 41 41 41 42 42 43 46 44 44 43 42 43 43 44 44 44 45 44 44 44 44 41 43 51 49 48 47 45 43 43 44 44 43 43 42 41 40 40 40 40 39 39 39 39 38
47 46 46 45 44 44 43 43 42 42 41 41 41 42 41 40 40 40 41 41 41 41 42 44 43 41 41 43 43 43 44 44 44 44 44 44 44 46 43 43 42 47 47 45 46 44 42 42 41 41 42 43 44 43 41 40 39 40 39 39 39 39 39
47 46 45 44 44 44 43 42 42 41 40 40 41 40 40 40 39 40 40 40 40 41 42 44 40 41 41 42 44 43 43 44 43 43 43 42 43 43 43 43 43 44 45 47 46 43 42 42 41 41 41 41 41 41 41 41 40 39 39 39 38 39 39
46 45 45 44 44 43 42 42 41 41 40 40 40 39 39 39 39 39 40 41 41 42 42 42 40 41 41 41 42 43 42 42 43 42 41 41 41 41 42 44 45 44 43 45 44 42 42 41 41 41 41 42 41 42 40 39 41 42 42 40 39 39 40
46 45 45 44 43 42 42 41 41 41 41 40 39 38 38 39 39 39 40 40 40 40 41 42 40 41 41 40 40 41 41 42 41 41 42 41 42 42 43 44 43 43 43 42 42 42 41 41 40 41 41 41 42 42 41 41 41 41 42 42 40 39 41
45 45 44 44 43 42 41 40 40 40 40 39 39 38 38 38 39 40 40 39 40 40 41 41 40 40 40 40 40 41 41 42 41 41 41 41 42 42 42 41 42 42 41 40 43 43 41 40 40 40 40 41 41 41 41 42 43 43 43 42 42 41 42
46 45 44 44 43 42 41 41 40 40 39 38 38 38 38 39 39 38 38 39 40 38 39 39 39 40 40 39 41 42 41 41 41 41 41 41 41 42 41 42 42 42 41 40 42 39 40 41 40 40 40 40 40 41 42 44 42 42 43 43 43 43 43
46 45 44 43 42 41 40 39 39 40 38 38 38 38 38 39 39 38 39 39 39 38 39 40 39 39 39 39 40 40 40 41 41 41 41 40 40 40 41 45 43 41 41 41 41 38 38 40 40 40 39 39 39 40 41 43 42 41 41 41 40 40 40
46 45 45 44 42 42 41 41 40 41 40 39 39 39 39 38 37 39 39 38 40 39 38 40 39 39 39 39 40 39 40 40 39 40 40 40 39 39 42 48 46 42 41 41 39 38 38 41 41 40 39 38 39 39 40 41 41 41 42 41 41 41 41
46 46 46 44 43 42 41 41 41 41 40 40 40 39 40 38 37 37 38 39 44 40 38 41 40 39 39 39 39 38 39 40 40 38 37 41 39 38 39 41 44 43 42 41 37 38 37 40 41 40 39 38 39 39 40 40 39 40 41 41 41 42 42
46 45 45 44 44 43 43 42 41 40 40 41 40 39 40 39 38 38 39 41 42 39 39 39 41 39 39 39 38 38 38 41 40 39 39 42 41 40 39 39 41 39 38 38 37 37 37 38 40 41 40 39 39 39 41 39 41 41 40 39 40 41 41
46 46 46 45 45 44 43 42 41 41 40 40 39 39 39 38 39 38 38 38 38 37 39 38 40 38 39 39 39 38 38 39 38 38 37 39 36 38 40 40 40 40 38 38 37 37 38 38 39 42 41 40 40 40 40 39 40 40 39 39 40 40 41
48 47 46 46 44 43 43 43 42 42 41 41 40 39 39 39 39 38 37 38 39 38 42 43 36 41 39 39 39 39 39 40 38 37 37 38 36 37 38 39 40 40 38 38 37 37 37 38 38 43 41 38 37 37 40 41 40 39 39 39 39 40 41
46 46 46 46 45 43 43 43 42 42 41 41 40 39 38 38 38 38 37 38 37 38 36 41 42 40 40 39 39 39 38 38 36 40 40 43 40 39 38 38 38 39 37 37 37 37 38 37 40 41 37 37 38 37 39 40 39 38 38 39 38 38 39
46 45 45 45 45 44 43 43 43 42 42 41 40 39 38 38 38 38 39 39 39 38 38 37 40 40 40 39 39 38 38 37 38 38 39 39 38 37 38 38 39 37 37 37 37 37 37 38 40 37 37 37 38 38 40 39 39 38 37 38 37 37 37

ECMWFFLT1_sfc_temp_117.txt.gz
Temp
62 61 61 60 61 62 62 62 63 63 64 65 65 66 66 65 65 64 64 63 63 63 63 62 61 61 61 61 60 60 60 60 60 59 58 59 58 55 57 57 56 57 58 57 58 60 59 58 58 61 60 57 59 58 59 59 59 59 58 59 62 61 61
61 61 62 62 62 62 61 62 62 63 63 63 64 64 65 65 64 64 63 63 62 62 63 61 60 60 59 59 59 59 58 58 58 58 58 57 58 57 57 56 57 57 57 56 56 58 57 58 57 55 55 57 57 58 58 59 60 60 60 60 61 61 61
61 62 63 62 62 62 61 60 61 62 63 63 63 64 64 65 64 64 63 62 61 62 62 60 60 59 59 58 58 58 57 56 57 57 56 56 57 56 57 57 57 57 57 56 55 56 56 56 54 55 55 55 56 57 58 58 59 60 61 60 60 62 61
60 61 62 61 62 62 60 60 61 62 63 62 63 62 63 63 63 63 62 62 62 61 61 60 60 60 59 58 58 57 57 56 56 56 56 56 56 56 56 56 55 55 54 53 53 54 54 53 56 55 56 58 57 56 58 58 59 61 62 61 61 61 60
63 63 62 61 62 62 61 61 62 62 61 62 62 62 61 62 62 61 61 61 61 60 60 60 60 60 60 60 59 58 57 56 57 56 56 55 55 56 55 56 55 55 55 54 54 54 54 53 54 54 55 56 58 60 59 58 60 60 61 61 62 62 61
63 64 63 62 63 62 62 61 61 61 61 61 61 60 60 61 61 60 60 60 60 60 60 60 60 60 59 59 58 57 57 56 56 56 55 54 55 55 55 55 56 55 54 55 55 55 54 55 54 53 56 57 54 57 60 59 59 62 61 62 63 63 63
62 63 62 62 62 62 62 61 62 61 61 60 60 60 61 61 62 61 60 60 60 60 60 60 59 60 59 59 58 57 56 56 56 55 55 55 55 55 56 55 55 55 54 55 55 55 54 54 52 51 52 56 55 56 59 60 60 60 62 64 64 63 63
61 60 60 61 60 60 61 61 61 61 61 61 60 60 61 61 60 60 60 60 60 60 60 59 59 58 58 59 58 56 57 57 56 56 55 55 54 54 54 55 55 55 54 55 55 54 55 53 52 52 52 51 54 57 56 59 60 57 56 61 63 63 63
61 60 59 59 59 60 61 61 60 60 60 60 60 60 60 61 60 60 60 60 60 60 59 59 59 59 58 57 57 56 55 57 56 55 55 55 54 54 54 55 55 54 54 55 55 55 55 55 54 54 53 52 50 50 53 54 56 57 60 58 61 63 62
60 60 59 58 58 60 61 61 60 60 60 60 60 60 60 60 60 60 60 59 59 59 59 59 58 58 58 57 57 56 56 57 56 55 55 55 54 55 54 54 54 54 54 55 55 55 55 55 55 55 55 52 51 49 48 49 52 52 58 59 55 60 62
61 59 58 58 59 60 60 60 60 60 60 60 60 59 60 59 59 59 59 59 59 59 59 59 59 58 58 57 57 57 57 57 56 56 56 56 55 55 55 55 55 54 55 55 55 55 55 55 55 55 54 54 53 50 49 47 49 54 53 57 58 57 60
60 59 58 59 60 60 60 60 60 59 59 60 60 59 59 60 59 59 59 59 59 58 58 58 58 58 58 56 56 56 57 57 56 55 55 55 55 55 54 53 54 54 55 55 55 55 55 55 55 56 55 55 53 51 50 49 47 54 55 52 55 59 57
59 58 58 59 60 60 60 60 59 59 59 60 60 60 60 59 59 59 59 59 58 59 59 58 58 58 57 57 57 57 57 57 56 55 55 56 56 55 55 54 54 54 55 56 55 55 55 55 55 55 55 54 54 52 51 50 48 48 55 54 54 56 59
57 59 59 59 60 60 60 60 60 60 60 59 60 59 59 60 60 59 59 59 59 58 58 57 58 58 57 57 57 57 57 57 56 56 55 54 55 55 55 55 55 55 56 55 55 56 56 56 56 55 55 55 54 54 52 50 48 49 53 56 55 56 57
58 58 58 58 59 59 60 59 59 59 59 59 60 60 60 59 60 60 60 60 60 60 59 59 58 58 57 56 56 57 57 57 56 56 55 55 55 55 55 55 55 55 55 55 55 56 56 56 56 56 55 54 54 53 53 50 49 49 48 54 54 57 57
57 57 57 58 58 59 59 58 60 59 58 58 60 60 59 59 59 60 60 59 60 59 59 59 58 58 57 57 57 56 57 57 56 55 55 55 56 56 55 55 55 55 55 55 54 55 55 55 56 55 54 55 53 53 53 52 50 49 48 50 54 54 55
57 57 58 58 58 58 58 58 59 59 58 58 58 58 59 59 59 59 59 59 59 59 59 58 58 59 58 58 58 57 57 57 57 57 56 56 56 56 55 54 54 55 55 54 54 54 55 55 55 55 54 55 54 53 53 52 52 50 50 49 52 53 54
57 58 58 58 57 58 58 58 58 59 58 58 58 57 58 59 59 59 58 59 59 59 59 59 58 58 58 59 58 57 58 58 57 57 56 56 55 56 56 55 55 55 55 54 54 54 54 53 55 55 54 55 54 54 53 53 53 52 51 50 51 54 55
58 58 58 57 57 57 58 58 58 58 59 58 57 58 58 58 59 59 60 60 60 60 60 59 59 59 59 58 58 58 58 57 57 57 57 57 57 56 55 56 55 56 55 54 53 53 54 53 54 54 53 53 54 54 52 53 53 52 52 51 51 51 54
59 58 57 57 57 57 58 57 58 57 58 58 57 57 58 58 58 59 59 59 59 59 59 59 59 58 59 59 58 58 57 57 57 57 57 57 57 56 56 56 56 55 55 55 54 53 53 53 53 53 53 52 53 52 52 53 53 52 52 51 52 53 52
58 58 57 57 57 57 57 57 57 57 57 57 57 57 57 57 57 58 58 59 59 59 58 58 59 59 59 59 58 58 58 57 57 56 56 57 56 56 56 56 56 56 56 55 54 54 53 52 53 53 53 53 52 51 51 52 52 52 51 51 51 51 52
58 57 57 57 56 56 56 56 56 56 56 56 56 58 57 57 56 56 57 57 57 57 58 57 58 58 58 58 59 58 58 58 57 56 56 56 56 56 57 56 56 56 53 50 47 47 46 47 51 52 52 52 51 51 51 51 52 52 51 51 51 52 51
57 56 56 56 56 56 56 55 55 55 55 56 56 56 56 56 57 56 56 56 56 55 56 57 53 49 52 58 58 58 57 57 57 57 56 56 56 56 56 57 55 50 49 49 47 44 43 43 43 47 49 50 50 50 50 50 50 50 50 49 50 50 49
56 55 56 56 55 55 55 55 55 55 54 54 54 54 55 55 56 56 56 56 55 55 56 56 45 42 43 47 57 58 57 57 57 57 57 56 56 56 57 57 57 53 53 52 52 45 44 42 42 42 42 43 45 47 48 48 49 49 49 49 50 50 49
56 55 55 56 56 56 55 54 54 54 53 52 53 54 53 55 55 55 55 56 55 55 56 48 41 41 42 43 49 58 58 57 57 57 57 57 57 57 56 56 56 55 54 53 54 55 51 45 43 42 42 42 42 42 42 45 46 48 48 48 48 49 49
55 54 56 56 55 55 54 54 54 53 52 52 53 52 54 53 53 54 55 55 55 56 56 43 41 41 41 42 43 52 59 58 57 57 57 57 57 57 57 56 56 55 54 49 54 56 55 55 48 45 45 46 46 44 41 40 41 46 49 48 48 48 50
54 55 55 55 54 54 54 54 53 53 52 52 52 52 52 52 53 53 55 56 55 56 55 43 40 41 41 41 41 48 59 57 58 57 57 57 56 56 56 56 56 55 55 55 55 54 54 54 54 54 54 55 54 52 46 44 44 43 46 49 49 48 50
53 54 55 54 54 54 54 53 52 52 52 52 52 51 51 52 52 53 54 55 55 54 53 41 40 40 40 40 40 47 57 56 57 57 56 56 56 56 56 55 55 55 55 55 52 47 53 53 53 53 54 53 54 54 54 53 52 51 50 50 50 50 50
53 53 54 54 53 53 52 52 51 52 51 51 52 52 52 53 52 52 53 54 54 53 51 39 40 40 40 40 41 56 57 56 56 56 56 56 56 57 56 56 56 54 55 55 46 38 43 50 54 53 52 53 54 54 55 51 45 44 48 49 50 50 50
48 49 50 51 51 51 50 49 50 50 49 49 48 50 51 52 53 53 52 54 54 53 51 42 39 40 40 39 46 58 56 57 56 55 55 55 56 56 56 56 56 55 55 55 43 37 38 42 54 53 52 52 53 54 54 54 48 44 43 42 41 41 40
47 49 49 49 49 48 48 48 48 48 48 48 49 51 52 52 53 53 53 53 55 53 53 45 38 40 40 40 49 56 57 56 55 55 55 55 56 56 54 48 51 55 54 54 39 38 37 46 53 52 52 51 52 52 53 53 52 52 46 45 44 43 43
47 49 49 49 48 48 47 47 47 48 49 50 50 52 53 52 52 53 53 54 50 53 53 47 38 39 39 40 49 56 57 57 55 54 55 54 55 56 54 51 45 47 51 46 36 38 36 45 53 52 51 51 51 51 51 52 51 50 51 52 53 54 52
48 47 48 48 49 48 48 47 47 47 49 51 51 52 52 53 51 52 52 53 52 53 52 51 45 38 40 39 43 55 56 56 54 54 55 55 54 55 55 55 48 38 38 37 37 36 38 38 49 52 52 52 50 49 52 50 51 50 50 50 51 52 52
48 49 48 45 44 45 44 44 46 47 49 50 50 50 51 52 51 51 51 53 53 53 53 51 47 38 39 39 40 45 56 55 56 55 55 55 56 56 56 57 58 42 37 38 37 37 37 38 39 50 52 52 51 47 43 49 51 47 51 51 52 53 54
50 50 51 48 46 45 45 47 47 48 51 50 49 49 50 51 51 51 51 51 52 52 51 49 50 40 39 39 39 41 53 55 56 56 54 56 56 56 57 57 58 47 37 38 37 37 36 38 36 49 52 42 38 36 44 49 52 53 53 53 53 53 53
49 50 49 49 48 48 49 49 48 49 49 49 49 48 48 49 50 50 50 51 52 52 52 50 44 47 39 39 38 39 42 49 40 54 55 55 55 56 57 56 54 42 37 37 37 37 38 36 40 51 40 37 38 36 41 53 53 52 53 53 52 51 51
49 49 48 48 48 47 47 47 46 47 49 49 48 47 48 49 51 50 49 50 51 51 51 52 45 43 44 38 38 38 38 40 40 53 55 56 56 56 56 56 53 39 37 37 37 37 38 38 47 40 37 37 36 39 51 53 53 53 51 52 51 51 51

ECMWFFLT1_sfc_temp_120.txt.gz
Temp
66 65 64 65 68 69 68 68 69 70 71 71 70 71 71 71 70 70 70 70 70 70 71 70 68 69 69 68 68 68 68 68 69 68 67 68 66 64 66 66 67 67 67 66 66 66 68 63 63 67 65 64 65 65 67 68 68 66 65 66 69 69 68
68 67 66 66 67 68 66 68 69 70 69 69 70 70 71 71 71 70 70 70 69 70 71 69 68 68 67 66 66 66 66 66 66 67 67 66 67 66 66 65 67 67 67 66 66 67 66 65 64 63 63 64 63 65 65 66 67 67 67 67 68 69 68
66 67 67 66 66 67 66 67 68 70 70 69 69 70 70 71 70 70 70 69 69 69 69 68 67 66 66 65 65 65 65 64 65 65 65 66 66 66 67 67 66 66 66 66 65 66 66 66 63 64 65 64 62 64 66 65 66 68 69 68 68 70 69
64 65 64 64 65 67 66 67 69 69 70 70 69 70 70 70 70 71 69 69 69 68 68 67 67 67 66 65 65 65 64 64 64 64 64 64 65 65 65 66 65 64 63 62 62 64 63 62 64 64 66 68 66 64 65 66 67 70 71 70 69 69 68
66 65 65 64 65 67 67 67 68 67 66 67 68 69 69 70 69 69 69 68 68 68 67 67 67 67 67 67 66 65 64 64 64 64 64 63 63 64 63 64 64 64 64 63 63 63 63 63 63 64 65 67 69 70 69 67 70 69 71 71 72 70 70
68 69 68 67 69 69 69 68 67 66 66 66 67 68 68 68 69 67 67 67 67 67 67 67 67 67 67 66 66 65 64 63 64 63 63 62 63 63 63 64 64 64 63 64 64 63 64 65 64 62 66 69 63 66 70 70 68 73 72 72 72 72 72
68 70 71 70 70 70 69 68 68 67 67 68 68 67 68 69 69 68 67 67 67 67 67 66 66 67 67 67 65 64 63 63 63 62 62 62 62 63 64 63 63 63 63 63 63 64 62 62 61 60 61 65 65 67 70 71 71 68 70 73 73 73 71
69 70 71 70 69 68 68 68 68 68 68 68 68 68 68 68 67 67 66 66 66 66 66 65 66 66 66 66 65 63 63 63 63 63 62 62 61 62 62 63 62 62 62 63 63 63 64 62 61 60 60 59 63 65 64 69 70 68 67 70 72 72 71
71 70 68 67 67 67 68 69 69 68 69 69 68 67 67 67 66 66 67 66 66 66 66 66 66 66 65 64 64 63 62 64 62 62 62 61 60 61 61 62 62 61 62 63 63 62 63 63 62 62 61 60 58 58 62 62 64 65 70 66 70 71 70
69 67 66 66 66 68 69 69 69 69 68 68 67 67 67 67 67 67 66 66 65 66 65 65 65 65 65 64 63 63 62 63 63 62 62 62 61 62 61 61 62 62 62 62 62 62 62 62 63 62 62 59 59 58 56 58 60 60 65 67 63 68 70
68 67 66 67 67 67 68 69 68 67 67 67 67 67 67 67 66 66 66 65 65 65 65 65 66 65 64 64 63 63 63 63 62 63 62 62 61 62 62 62 62 61 62 62 61 61 62 62 62 62 62 62 61 57 56 55 57 62 61 64 66 65 68
67 67 68 67 66 67 68 68 68 68 67 67 67 67 66 67 66 66 66 65 65 65 65 64 64 64 65 63 63 63 63 63 63 61 62 62 62 62 61 60 61 61 62 61 62 62 62 62 62 63 62 62 60 58 56 56 54 61 63 59 63 66 65
67 68 67 66 65 67 68 68 68 67 66 68 67 67 67 67 66 66 66 65 65 65 65 65 65 64 64 63 63 63 63 63 63 62 62 63 63 62 61 61 61 61 62 63 62 62 62 62 62 62 62 62 61 59 58 57 55 56 62 62 62 64 67
65 67 66 66 65 66 68 68 68 68 68 67 67 67 67 67 68 66 66 66 66 65 64 64 64 64 64 63 63 63 64 64 63 62 62 61 62 62 62 61 61 61 62 61 62 63 63 63 63 63 63 62 61 61 59 57 55 56 61 64 63 63 66
66 67 65 64 65 67 68 68 68 68 67 67 68 68 68 67 67 67 67 67 66 66 65 65 65 65 64 62 62 63 63 64 62 62 61 61 61 61 61 61 61 61 62 61 61 62 63 63 64 63 62 61 61 60 60 57 57 56 55 61 62 65 65
67 65 64 64 65 67 67 68 68 67 67 67 68 68 68 67 67 68 67 66 67 66 66 65 65 64 63 63 63 63 63 63 62 61 61 61 62 62 61 60 60 61 61 60 60 61 61 62 63 62 61 62 60 60 60 59 57 56 56 58 61 62 62
66 64 63 65 65 67 67 67 68 67 68 68 68 68 68 68 68 67 66 67 66 66 65 64 65 65 64 64 64 63 63 63 62 62 62 62 62 62 61 60 60 61 61 60 60 61 61 61 61 62 61 62 61 61 60 60 60 58 58 56 59 61 62
65 63 63 65 65 67 67 67 68 68 67 67 68 67 67 68 67 67 65 66 66 66 65 65 65 65 64 64 64 63 64 64 62 63 62 61 60 62 61 60 61 61 61 60 60 60 61 59 61 61 60 62 62 61 61 61 60 60 58 57 58 61 62
63 63 64 64 65 66 67 67 67 67 68 67 67 67 67 68 68 68 68 68 67 67 67 66 66 65 65 64 64 63 63 63 63 63 62 62 62 62 61 61 61 61 61 59 58 59 59 59 60 60 60 60 61 61 59 60 61 60 59 59 59 59 61
62 63 64 65 65 66 67 67 67 67 68 67 66 66 67 67 67 67 68 67 66 66 66 66 65 65 65 65 64 63 62 62 62 62 63 62 62 62 62 61 61 60 60 60 58 58 58 58 58 59 59 58 60 59 59 60 60 59 59 58 59 60 59
64 64 65 66 66 67 67 67 67 67 67 66 66 67 67 66 67 68 68 67 67 67 66 66 66 66 66 65 63 63 63 62 62 62 61 62 61 62 62 62 61 61 60 59 58 58 57 57 58 59 59 59 58 58 58 59 59 59 59 58 58 58 59
65 66 66 67 67 67 66 67 67 67 66 66 66 68 67 67 66 67 67 66 66 66 65 65 65 64 64 64 64 63 63 63 62 61 61 61 62 62 62 61 61 60 57 52 47 50 50 49 55 57 57 58 57 57 57 58 58 58 58 57 57 58 58
66 66 66 67 67 66 66 66 66 66 66 66 67 67 67 67 67 66 66 66 66 64 64 65 60 54 57 64 64 64 62 62 62 62 61 61 61 61 61 61 58 53 52 51 49 45 44 44 45 51 55 56 56 56 56 56 56 57 56 56 56 56 55
66 65 66 67 66 66 66 65 65 65 65 65 65 66 65 65 65 65 66 65 64 63 63 64 48 48 48 52 62 63 63 62 63 62 62 61 60 61 62 62 60 56 55 53 53 44 45 43 43 43 43 45 49 54 54 54 55 55 55 55 55 55 54
64 64 65 66 66 66 64 65 65 65 64 64 64 64 63 64 65 65 64 65 63 63 64 51 45 45 46 47 51 62 63 62 62 62 62 62 62 62 61 61 61 60 60 59 61 59 52 46 45 44 42 41 41 42 44 51 53 54 53 53 54 54 54
64 63 64 65 65 64 63 64 65 64 63 63 63 62 63 63 63 64 64 64 63 63 63 45 44 43 44 44 44 52 65 63 62 62 62 62 63 62 62 61 60 60 60 54 58 61 61 60 49 45 46 44 42 41 40 40 43 52 54 54 54 54 55
61 60 58 59 60 60 61 64 64 64 63 62 62 62 62 62 63 63 63 64 63 63 63 46 43 42 43 41 44 46 66 62 63 63 62 62 61 61 61 62 61 60 61 61 60 59 60 60 60 61 60 62 61 54 43 41 42 41 48 55 55 54 55
59 56 55 55 57 57 58 62 63 63 62 61 61 61 61 61 62 62 63 63 63 62 62 42 42 41 41 41 42 44 64 62 63 63 62 62 62 61 61 61 61 61 61 60 58 53 57 59 60 60 60 60 60 61 60 59 58 58 57 57 57 56 57
54 53 53 53 55 56 59 60 60 61 61 61 61 61 61 62 61 61 62 63 62 61 57 40 41 41 40 41 40 57 63 62 62 62 62 62 62 62 62 61 62 60 61 59 46 34 44 54 59 59 59 59 60 61 61 55 49 49 54 57 57 57 57
57 56 52 52 54 56 57 57 58 59 58 58 58 58 59 60 61 61 61 62 61 61 58 44 40 40 41 39 46 61 62 62 62 61 61 61 62 62 61 62 62 62 60 59 44 39 41 41 59 59 59 58 59 61 60 61 52 46 44 43 43 43 42
58 57 53 53 54 53 52 54 56 58 57 57 57 58 59 59 60 61 61 61 62 61 60 47 39 40 40 39 49 61 63 62 62 61 61 61 63 62 60 51 55 61 60 58 37 38 38 47 59 58 58 57 58 58 59 59 60 59 51 48 47 45 45
56 55 55 55 55 54 55 55 55 56 56 57 57 58 59 59 59 60 61 61 57 59 60 49 39 40 40 40 49 62 63 64 61 61 61 60 62 62 60 56 49 50 57 48 33 40 36 46 58 58 57 58 57 57 57 57 57 57 58 59 60 60 59
59 58 57 57 56 53 51 52 52 54 55 56 56 57 57 58 58 59 60 61 60 60 60 56 47 39 40 40 42 59 64 63 61 60 61 61 60 62 61 60 51 37 38 37 38 36 39 37 53 57 58 58 56 54 56 56 57 57 57 58 59 60 60
54 55 58 56 55 53 52 50 49 49 49 50 51 52 53 56 57 58 60 60 60 60 61 58 51 38 40 40 41 44 62 62 62 62 62 61 62 61 61 62 62 44 38 39 38 36 38 37 39 54 57 57 56 50 47 55 56 51 59 60 60 61 61
53 53 55 56 55 54 54 53 51 50 48 48 50 50 52 53 55 57 58 58 60 60 59 54 56 40 40 39 41 40 55 62 62 63 61 62 63 63 63 63 63 47 37 40 37 38 36 37 36 52 55 44 38 37 50 54 57 60 61 61 61 61 61
53 54 54 56 56 55 55 55 54 54 53 52 51 50 50 51 52 53 56 56 58 59 59 57 48 49 40 39 39 40 41 48 45 58 61 61 62 63 64 63 58 40 39 37 38 38 38 37 39 53 39 38 39 37 41 57 60 60 60 60 60 59 59
52 53 54 56 57 56 55 55 55 55 55 53 52 51 51 51 52 53 54 54 55 57 58 59 48 45 45 37 40 38 40 39 42 57 60 62 63 63 62 63 56 38 39 38 37 37 38 39 51 42 38 39 37 39 54 59 60 60 58 59 58 58 58